<?xml version="1.0" encoding="UTF-8" standalone="no" ?>
<gpx xmlns="http://www.topografix.com/GPX/1/1" xmlns:xsi="http://www.w3.org/2001/XMLSchema-instance" xsi:schemaLocation="http://www.topografix.com/GPX/1/1 http://www.topografix.com/GPX/1/1/gpx.xsd" version="1.1" creator="VisuGPX - https://www.visugpx.com">
  <metadata>
    <name>Parcours VTT 37 km Branderion</name>
    <desc><![CDATA[Parcours sportif et ludique, attention aux traversées de routes, descente dangereuse km24]]></desc>
  </metadata>
  <trk>
    <name><![CDATA[2011-05-26 12:39]]></name>
    <desc><![CDATA[Branderion Willie Benoit]]></desc>
    <trkseg>
      <trkpt lat="47.7949" lon="-3.19898">
        <ele>86.5</ele>
        <time>2011-05-26T10:39:51Z</time>
      </trkpt>
      <trkpt lat="47.7949" lon="-3.19906">
        <ele>85.8</ele>
        <time>2011-05-26T10:39:59Z</time>
      </trkpt>
      <trkpt lat="47.79492" lon="-3.19912">
        <ele>84.9</ele>
        <time>2011-05-26T10:40:01Z</time>
      </trkpt>
      <trkpt lat="47.79498" lon="-3.19916">
        <ele>85.1</ele>
        <time>2011-05-26T10:40:03Z</time>
      </trkpt>
      <trkpt lat="47.79501" lon="-3.19926">
        <ele>86.3</ele>
        <time>2011-05-26T10:40:05Z</time>
      </trkpt>
      <trkpt lat="47.79506" lon="-3.19936">
        <ele>87.3</ele>
        <time>2011-05-26T10:40:07Z</time>
      </trkpt>
      <trkpt lat="47.79509" lon="-3.19941">
        <ele>87.6</ele>
        <time>2011-05-26T10:40:08Z</time>
      </trkpt>
      <trkpt lat="47.79511" lon="-3.19948">
        <ele>87.9</ele>
        <time>2011-05-26T10:40:09Z</time>
      </trkpt>
      <trkpt lat="47.79514" lon="-3.19954">
        <ele>88</ele>
        <time>2011-05-26T10:40:10Z</time>
      </trkpt>
      <trkpt lat="47.79516" lon="-3.19961">
        <ele>87.8</ele>
        <time>2011-05-26T10:40:11Z</time>
      </trkpt>
      <trkpt lat="47.79519" lon="-3.19966">
        <ele>88.1</ele>
        <time>2011-05-26T10:40:12Z</time>
      </trkpt>
      <trkpt lat="47.79522" lon="-3.19972">
        <ele>88.4</ele>
        <time>2011-05-26T10:40:13Z</time>
      </trkpt>
      <trkpt lat="47.79525" lon="-3.19977">
        <ele>88.5</ele>
        <time>2011-05-26T10:40:14Z</time>
      </trkpt>
      <trkpt lat="47.79529" lon="-3.19984">
        <ele>88.9</ele>
        <time>2011-05-26T10:40:15Z</time>
      </trkpt>
      <trkpt lat="47.79532" lon="-3.19988">
        <ele>88.7</ele>
        <time>2011-05-26T10:40:16Z</time>
      </trkpt>
      <trkpt lat="47.79535" lon="-3.19996">
        <ele>88.8</ele>
        <time>2011-05-26T10:40:17Z</time>
      </trkpt>
      <trkpt lat="47.79538" lon="-3.20002">
        <ele>88.8</ele>
        <time>2011-05-26T10:40:18Z</time>
      </trkpt>
      <trkpt lat="47.79541" lon="-3.20007">
        <ele>88.5</ele>
        <time>2011-05-26T10:40:19Z</time>
      </trkpt>
      <trkpt lat="47.79544" lon="-3.20012">
        <ele>88.7</ele>
        <time>2011-05-26T10:40:20Z</time>
      </trkpt>
      <trkpt lat="47.79551" lon="-3.2002">
        <ele>86.8</ele>
        <time>2011-05-26T10:40:22Z</time>
      </trkpt>
      <trkpt lat="47.79555" lon="-3.20024">
        <ele>86.1</ele>
        <time>2011-05-26T10:40:23Z</time>
      </trkpt>
      <trkpt lat="47.7956" lon="-3.20028">
        <ele>86.4</ele>
        <time>2011-05-26T10:40:25Z</time>
      </trkpt>
      <trkpt lat="47.79565" lon="-3.2003">
        <ele>87</ele>
        <time>2011-05-26T10:40:26Z</time>
      </trkpt>
      <trkpt lat="47.79573" lon="-3.20033">
        <ele>87.3</ele>
        <time>2011-05-26T10:40:28Z</time>
      </trkpt>
      <trkpt lat="47.79577" lon="-3.20035">
        <ele>87.1</ele>
        <time>2011-05-26T10:40:29Z</time>
      </trkpt>
      <trkpt lat="47.79582" lon="-3.20036">
        <ele>87.4</ele>
        <time>2011-05-26T10:40:30Z</time>
      </trkpt>
      <trkpt lat="47.79586" lon="-3.20038">
        <ele>87.6</ele>
        <time>2011-05-26T10:40:31Z</time>
      </trkpt>
      <trkpt lat="47.79594" lon="-3.20043">
        <ele>87.5</ele>
        <time>2011-05-26T10:40:33Z</time>
      </trkpt>
      <trkpt lat="47.79599" lon="-3.20043">
        <ele>88.3</ele>
        <time>2011-05-26T10:40:34Z</time>
      </trkpt>
      <trkpt lat="47.79605" lon="-3.20039">
        <ele>88.9</ele>
        <time>2011-05-26T10:40:35Z</time>
      </trkpt>
      <trkpt lat="47.79613" lon="-3.20041">
        <ele>89.8</ele>
        <time>2011-05-26T10:40:37Z</time>
      </trkpt>
      <trkpt lat="47.7962" lon="-3.20045">
        <ele>90.1</ele>
        <time>2011-05-26T10:40:39Z</time>
      </trkpt>
      <trkpt lat="47.79626" lon="-3.20047">
        <ele>89.1</ele>
        <time>2011-05-26T10:40:40Z</time>
      </trkpt>
      <trkpt lat="47.79632" lon="-3.20049">
        <ele>89.5</ele>
        <time>2011-05-26T10:40:41Z</time>
      </trkpt>
      <trkpt lat="47.79638" lon="-3.20052">
        <ele>90.4</ele>
        <time>2011-05-26T10:40:42Z</time>
      </trkpt>
      <trkpt lat="47.79646" lon="-3.20057">
        <ele>95.3</ele>
        <time>2011-05-26T10:40:44Z</time>
      </trkpt>
      <trkpt lat="47.79652" lon="-3.20059">
        <ele>96</ele>
        <time>2011-05-26T10:40:45Z</time>
      </trkpt>
      <trkpt lat="47.79658" lon="-3.2006">
        <ele>97.9</ele>
        <time>2011-05-26T10:40:47Z</time>
      </trkpt>
      <trkpt lat="47.79664" lon="-3.20061">
        <ele>96.6</ele>
        <time>2011-05-26T10:40:49Z</time>
      </trkpt>
      <trkpt lat="47.7967" lon="-3.20065">
        <ele>97.5</ele>
        <time>2011-05-26T10:40:52Z</time>
      </trkpt>
      <trkpt lat="47.79678" lon="-3.20069">
        <ele>97.2</ele>
        <time>2011-05-26T10:40:54Z</time>
      </trkpt>
      <trkpt lat="47.79686" lon="-3.20072">
        <ele>96</ele>
        <time>2011-05-26T10:40:56Z</time>
      </trkpt>
      <trkpt lat="47.79694" lon="-3.20074">
        <ele>96.5</ele>
        <time>2011-05-26T10:40:58Z</time>
      </trkpt>
      <trkpt lat="47.79698" lon="-3.20076">
        <ele>96.7</ele>
        <time>2011-05-26T10:40:59Z</time>
      </trkpt>
      <trkpt lat="47.79703" lon="-3.20078">
        <ele>96.9</ele>
        <time>2011-05-26T10:41:00Z</time>
      </trkpt>
      <trkpt lat="47.79708" lon="-3.20078">
        <ele>96.3</ele>
        <time>2011-05-26T10:41:01Z</time>
      </trkpt>
      <trkpt lat="47.79716" lon="-3.20079">
        <ele>96.7</ele>
        <time>2011-05-26T10:41:03Z</time>
      </trkpt>
      <trkpt lat="47.79721" lon="-3.2008">
        <ele>96.3</ele>
        <time>2011-05-26T10:41:04Z</time>
      </trkpt>
      <trkpt lat="47.79726" lon="-3.2008">
        <ele>95.8</ele>
        <time>2011-05-26T10:41:05Z</time>
      </trkpt>
      <trkpt lat="47.79734" lon="-3.20082">
        <ele>96.8</ele>
        <time>2011-05-26T10:41:07Z</time>
      </trkpt>
      <trkpt lat="47.79742" lon="-3.20082">
        <ele>97.7</ele>
        <time>2011-05-26T10:41:09Z</time>
      </trkpt>
      <trkpt lat="47.79747" lon="-3.20074">
        <ele>95.4</ele>
        <time>2011-05-26T10:41:11Z</time>
      </trkpt>
      <trkpt lat="47.79752" lon="-3.20068">
        <ele>95.4</ele>
        <time>2011-05-26T10:41:13Z</time>
      </trkpt>
      <trkpt lat="47.79754" lon="-3.2006">
        <ele>95.4</ele>
        <time>2011-05-26T10:41:15Z</time>
      </trkpt>
      <trkpt lat="47.79755" lon="-3.20053">
        <ele>95.2</ele>
        <time>2011-05-26T10:41:17Z</time>
      </trkpt>
      <trkpt lat="47.79756" lon="-3.20044">
        <ele>94.6</ele>
        <time>2011-05-26T10:41:19Z</time>
      </trkpt>
      <trkpt lat="47.79758" lon="-3.20032">
        <ele>90.1</ele>
        <time>2011-05-26T10:41:21Z</time>
      </trkpt>
      <trkpt lat="47.7976" lon="-3.20025">
        <ele>86.9</ele>
        <time>2011-05-26T10:41:22Z</time>
      </trkpt>
      <trkpt lat="47.79762" lon="-3.20012">
        <ele>83.1</ele>
        <time>2011-05-26T10:41:24Z</time>
      </trkpt>
      <trkpt lat="47.79766" lon="-3.20003">
        <ele>84</ele>
        <time>2011-05-26T10:41:25Z</time>
      </trkpt>
      <trkpt lat="47.79768" lon="-3.19992">
        <ele>85.6</ele>
        <time>2011-05-26T10:41:27Z</time>
      </trkpt>
      <trkpt lat="47.79772" lon="-3.19981">
        <ele>87.5</ele>
        <time>2011-05-26T10:41:29Z</time>
      </trkpt>
      <trkpt lat="47.79772" lon="-3.19974">
        <ele>84</ele>
        <time>2011-05-26T10:41:30Z</time>
      </trkpt>
      <trkpt lat="47.79768" lon="-3.19964">
        <ele>84</ele>
        <time>2011-05-26T10:41:32Z</time>
      </trkpt>
      <trkpt lat="47.79765" lon="-3.19955">
        <ele>85.6</ele>
        <time>2011-05-26T10:41:34Z</time>
      </trkpt>
      <trkpt lat="47.79761" lon="-3.19949">
        <ele>87.1</ele>
        <time>2011-05-26T10:41:36Z</time>
      </trkpt>
      <trkpt lat="47.79757" lon="-3.19939">
        <ele>85.9</ele>
        <time>2011-05-26T10:41:38Z</time>
      </trkpt>
      <trkpt lat="47.79752" lon="-3.1993">
        <ele>90.4</ele>
        <time>2011-05-26T10:41:40Z</time>
      </trkpt>
      <trkpt lat="47.79745" lon="-3.19927">
        <ele>92.2</ele>
        <time>2011-05-26T10:41:42Z</time>
      </trkpt>
      <trkpt lat="47.79738" lon="-3.19924">
        <ele>94</ele>
        <time>2011-05-26T10:41:44Z</time>
      </trkpt>
      <trkpt lat="47.79733" lon="-3.19922">
        <ele>94.7</ele>
        <time>2011-05-26T10:41:45Z</time>
      </trkpt>
      <trkpt lat="47.79729" lon="-3.1992">
        <ele>95.1</ele>
        <time>2011-05-26T10:41:46Z</time>
      </trkpt>
      <trkpt lat="47.79721" lon="-3.19917">
        <ele>95.1</ele>
        <time>2011-05-26T10:41:48Z</time>
      </trkpt>
      <trkpt lat="47.79713" lon="-3.19914">
        <ele>94.2</ele>
        <time>2011-05-26T10:41:50Z</time>
      </trkpt>
      <trkpt lat="47.79706" lon="-3.19911">
        <ele>95.6</ele>
        <time>2011-05-26T10:41:52Z</time>
      </trkpt>
      <trkpt lat="47.797" lon="-3.19912">
        <ele>95.6</ele>
        <time>2011-05-26T10:41:54Z</time>
      </trkpt>
      <trkpt lat="47.79697" lon="-3.19924">
        <ele>95.2</ele>
        <time>2011-05-26T10:41:56Z</time>
      </trkpt>
      <trkpt lat="47.79696" lon="-3.1993">
        <ele>95.2</ele>
        <time>2011-05-26T10:41:57Z</time>
      </trkpt>
      <trkpt lat="47.79693" lon="-3.19942">
        <ele>95.1</ele>
        <time>2011-05-26T10:41:59Z</time>
      </trkpt>
      <trkpt lat="47.79691" lon="-3.19954">
        <ele>95.2</ele>
        <time>2011-05-26T10:42:01Z</time>
      </trkpt>
      <trkpt lat="47.79689" lon="-3.19965">
        <ele>94.8</ele>
        <time>2011-05-26T10:42:03Z</time>
      </trkpt>
      <trkpt lat="47.79684" lon="-3.19968">
        <ele>94.7</ele>
        <time>2011-05-26T10:42:05Z</time>
      </trkpt>
      <trkpt lat="47.79679" lon="-3.19962">
        <ele>93.6</ele>
        <time>2011-05-26T10:42:07Z</time>
      </trkpt>
      <trkpt lat="47.79674" lon="-3.19958">
        <ele>93.4</ele>
        <time>2011-05-26T10:42:09Z</time>
      </trkpt>
      <trkpt lat="47.79669" lon="-3.19956">
        <ele>93.8</ele>
        <time>2011-05-26T10:42:10Z</time>
      </trkpt>
      <trkpt lat="47.79662" lon="-3.19953">
        <ele>94.1</ele>
        <time>2011-05-26T10:42:12Z</time>
      </trkpt>
      <trkpt lat="47.79657" lon="-3.19952">
        <ele>94.9</ele>
        <time>2011-05-26T10:42:13Z</time>
      </trkpt>
      <trkpt lat="47.79652" lon="-3.1995">
        <ele>95</ele>
        <time>2011-05-26T10:42:14Z</time>
      </trkpt>
      <trkpt lat="47.79644" lon="-3.19946">
        <ele>94.9</ele>
        <time>2011-05-26T10:42:16Z</time>
      </trkpt>
      <trkpt lat="47.79636" lon="-3.19942">
        <ele>95.9</ele>
        <time>2011-05-26T10:42:18Z</time>
      </trkpt>
      <trkpt lat="47.79628" lon="-3.19938">
        <ele>95.5</ele>
        <time>2011-05-26T10:42:20Z</time>
      </trkpt>
      <trkpt lat="47.79623" lon="-3.19936">
        <ele>95.6</ele>
        <time>2011-05-26T10:42:21Z</time>
      </trkpt>
      <trkpt lat="47.79619" lon="-3.19934">
        <ele>96.1</ele>
        <time>2011-05-26T10:42:22Z</time>
      </trkpt>
      <trkpt lat="47.79614" lon="-3.19931">
        <ele>96.5</ele>
        <time>2011-05-26T10:42:23Z</time>
      </trkpt>
      <trkpt lat="47.7961" lon="-3.1993">
        <ele>97</ele>
        <time>2011-05-26T10:42:24Z</time>
      </trkpt>
      <trkpt lat="47.79601" lon="-3.19925">
        <ele>97.3</ele>
        <time>2011-05-26T10:42:26Z</time>
      </trkpt>
      <trkpt lat="47.79593" lon="-3.1992">
        <ele>97</ele>
        <time>2011-05-26T10:42:28Z</time>
      </trkpt>
      <trkpt lat="47.79584" lon="-3.19917">
        <ele>97</ele>
        <time>2011-05-26T10:42:30Z</time>
      </trkpt>
      <trkpt lat="47.79578" lon="-3.19914">
        <ele>97.5</ele>
        <time>2011-05-26T10:42:32Z</time>
      </trkpt>
      <trkpt lat="47.79573" lon="-3.19906">
        <ele>98.5</ele>
        <time>2011-05-26T10:42:34Z</time>
      </trkpt>
      <trkpt lat="47.79571" lon="-3.19895">
        <ele>96.7</ele>
        <time>2011-05-26T10:42:36Z</time>
      </trkpt>
      <trkpt lat="47.79571" lon="-3.19888">
        <ele>97</ele>
        <time>2011-05-26T10:42:37Z</time>
      </trkpt>
      <trkpt lat="47.7957" lon="-3.1988">
        <ele>97.3</ele>
        <time>2011-05-26T10:42:38Z</time>
      </trkpt>
      <trkpt lat="47.7957" lon="-3.19873">
        <ele>98</ele>
        <time>2011-05-26T10:42:39Z</time>
      </trkpt>
      <trkpt lat="47.79569" lon="-3.19865">
        <ele>98.2</ele>
        <time>2011-05-26T10:42:40Z</time>
      </trkpt>
      <trkpt lat="47.79569" lon="-3.19857">
        <ele>98.2</ele>
        <time>2011-05-26T10:42:41Z</time>
      </trkpt>
      <trkpt lat="47.79568" lon="-3.1985">
        <ele>97.8</ele>
        <time>2011-05-26T10:42:42Z</time>
      </trkpt>
      <trkpt lat="47.79568" lon="-3.19842">
        <ele>97.6</ele>
        <time>2011-05-26T10:42:43Z</time>
      </trkpt>
      <trkpt lat="47.79568" lon="-3.19834">
        <ele>97.3</ele>
        <time>2011-05-26T10:42:44Z</time>
      </trkpt>
      <trkpt lat="47.79569" lon="-3.19826">
        <ele>97.3</ele>
        <time>2011-05-26T10:42:45Z</time>
      </trkpt>
      <trkpt lat="47.79568" lon="-3.19819">
        <ele>97.3</ele>
        <time>2011-05-26T10:42:46Z</time>
      </trkpt>
      <trkpt lat="47.79567" lon="-3.19811">
        <ele>97.1</ele>
        <time>2011-05-26T10:42:47Z</time>
      </trkpt>
      <trkpt lat="47.79565" lon="-3.19804">
        <ele>96.9</ele>
        <time>2011-05-26T10:42:48Z</time>
      </trkpt>
      <trkpt lat="47.79565" lon="-3.19796">
        <ele>96.2</ele>
        <time>2011-05-26T10:42:49Z</time>
      </trkpt>
      <trkpt lat="47.79566" lon="-3.19787">
        <ele>95.8</ele>
        <time>2011-05-26T10:42:50Z</time>
      </trkpt>
      <trkpt lat="47.79566" lon="-3.19779">
        <ele>95.8</ele>
        <time>2011-05-26T10:42:51Z</time>
      </trkpt>
      <trkpt lat="47.79565" lon="-3.1977">
        <ele>95.4</ele>
        <time>2011-05-26T10:42:52Z</time>
      </trkpt>
      <trkpt lat="47.79565" lon="-3.19762">
        <ele>95.1</ele>
        <time>2011-05-26T10:42:53Z</time>
      </trkpt>
      <trkpt lat="47.79564" lon="-3.19754">
        <ele>95</ele>
        <time>2011-05-26T10:42:54Z</time>
      </trkpt>
      <trkpt lat="47.79564" lon="-3.19745">
        <ele>94.5</ele>
        <time>2011-05-26T10:42:55Z</time>
      </trkpt>
      <trkpt lat="47.79563" lon="-3.19737">
        <ele>94.4</ele>
        <time>2011-05-26T10:42:56Z</time>
      </trkpt>
      <trkpt lat="47.79562" lon="-3.19729">
        <ele>94.2</ele>
        <time>2011-05-26T10:42:57Z</time>
      </trkpt>
      <trkpt lat="47.79561" lon="-3.1972">
        <ele>94.9</ele>
        <time>2011-05-26T10:42:58Z</time>
      </trkpt>
      <trkpt lat="47.79562" lon="-3.1971">
        <ele>95.2</ele>
        <time>2011-05-26T10:42:59Z</time>
      </trkpt>
      <trkpt lat="47.79562" lon="-3.19701">
        <ele>95</ele>
        <time>2011-05-26T10:43:00Z</time>
      </trkpt>
      <trkpt lat="47.79562" lon="-3.19692">
        <ele>95.2</ele>
        <time>2011-05-26T10:43:01Z</time>
      </trkpt>
      <trkpt lat="47.79562" lon="-3.19682">
        <ele>95.4</ele>
        <time>2011-05-26T10:43:02Z</time>
      </trkpt>
      <trkpt lat="47.79562" lon="-3.19674">
        <ele>95.2</ele>
        <time>2011-05-26T10:43:03Z</time>
      </trkpt>
      <trkpt lat="47.79562" lon="-3.19664">
        <ele>95</ele>
        <time>2011-05-26T10:43:04Z</time>
      </trkpt>
      <trkpt lat="47.79562" lon="-3.19656">
        <ele>95.4</ele>
        <time>2011-05-26T10:43:05Z</time>
      </trkpt>
      <trkpt lat="47.79562" lon="-3.19647">
        <ele>95.4</ele>
        <time>2011-05-26T10:43:06Z</time>
      </trkpt>
      <trkpt lat="47.79562" lon="-3.19638">
        <ele>95.1</ele>
        <time>2011-05-26T10:43:07Z</time>
      </trkpt>
      <trkpt lat="47.79562" lon="-3.19627">
        <ele>95.6</ele>
        <time>2011-05-26T10:43:08Z</time>
      </trkpt>
      <trkpt lat="47.7956" lon="-3.19617">
        <ele>96.3</ele>
        <time>2011-05-26T10:43:09Z</time>
      </trkpt>
      <trkpt lat="47.7956" lon="-3.19609">
        <ele>96.3</ele>
        <time>2011-05-26T10:43:10Z</time>
      </trkpt>
      <trkpt lat="47.7956" lon="-3.19602">
        <ele>95.3</ele>
        <time>2011-05-26T10:43:11Z</time>
      </trkpt>
      <trkpt lat="47.7956" lon="-3.19593">
        <ele>95.3</ele>
        <time>2011-05-26T10:43:12Z</time>
      </trkpt>
      <trkpt lat="47.79561" lon="-3.19582">
        <ele>95.4</ele>
        <time>2011-05-26T10:43:14Z</time>
      </trkpt>
      <trkpt lat="47.79566" lon="-3.19574">
        <ele>97</ele>
        <time>2011-05-26T10:43:16Z</time>
      </trkpt>
      <trkpt lat="47.79574" lon="-3.19572">
        <ele>97.8</ele>
        <time>2011-05-26T10:43:18Z</time>
      </trkpt>
      <trkpt lat="47.79578" lon="-3.19573">
        <ele>97.9</ele>
        <time>2011-05-26T10:43:19Z</time>
      </trkpt>
      <trkpt lat="47.79583" lon="-3.19573">
        <ele>98.1</ele>
        <time>2011-05-26T10:43:20Z</time>
      </trkpt>
      <trkpt lat="47.79588" lon="-3.19574">
        <ele>98.2</ele>
        <time>2011-05-26T10:43:21Z</time>
      </trkpt>
      <trkpt lat="47.79593" lon="-3.19574">
        <ele>98.6</ele>
        <time>2011-05-26T10:43:22Z</time>
      </trkpt>
      <trkpt lat="47.79598" lon="-3.19573">
        <ele>98.2</ele>
        <time>2011-05-26T10:43:23Z</time>
      </trkpt>
      <trkpt lat="47.79604" lon="-3.19573">
        <ele>97.5</ele>
        <time>2011-05-26T10:43:24Z</time>
      </trkpt>
      <trkpt lat="47.7961" lon="-3.19572">
        <ele>97.4</ele>
        <time>2011-05-26T10:43:25Z</time>
      </trkpt>
      <trkpt lat="47.79615" lon="-3.19571">
        <ele>97.5</ele>
        <time>2011-05-26T10:43:26Z</time>
      </trkpt>
      <trkpt lat="47.7962" lon="-3.19569">
        <ele>97.7</ele>
        <time>2011-05-26T10:43:27Z</time>
      </trkpt>
      <trkpt lat="47.79626" lon="-3.19568">
        <ele>96.8</ele>
        <time>2011-05-26T10:43:28Z</time>
      </trkpt>
      <trkpt lat="47.79631" lon="-3.19566">
        <ele>96.8</ele>
        <time>2011-05-26T10:43:29Z</time>
      </trkpt>
      <trkpt lat="47.79638" lon="-3.19564">
        <ele>97.1</ele>
        <time>2011-05-26T10:43:30Z</time>
      </trkpt>
      <trkpt lat="47.79644" lon="-3.19564">
        <ele>96.9</ele>
        <time>2011-05-26T10:43:31Z</time>
      </trkpt>
      <trkpt lat="47.79649" lon="-3.19561">
        <ele>96.3</ele>
        <time>2011-05-26T10:43:32Z</time>
      </trkpt>
      <trkpt lat="47.79654" lon="-3.19559">
        <ele>95.7</ele>
        <time>2011-05-26T10:43:33Z</time>
      </trkpt>
      <trkpt lat="47.7966" lon="-3.19557">
        <ele>95.4</ele>
        <time>2011-05-26T10:43:34Z</time>
      </trkpt>
      <trkpt lat="47.79665" lon="-3.19556">
        <ele>95.7</ele>
        <time>2011-05-26T10:43:35Z</time>
      </trkpt>
      <trkpt lat="47.79672" lon="-3.19554">
        <ele>95.6</ele>
        <time>2011-05-26T10:43:36Z</time>
      </trkpt>
      <trkpt lat="47.79679" lon="-3.19554">
        <ele>95.2</ele>
        <time>2011-05-26T10:43:37Z</time>
      </trkpt>
      <trkpt lat="47.79685" lon="-3.19554">
        <ele>94</ele>
        <time>2011-05-26T10:43:38Z</time>
      </trkpt>
      <trkpt lat="47.7969" lon="-3.19554">
        <ele>93.9</ele>
        <time>2011-05-26T10:43:39Z</time>
      </trkpt>
      <trkpt lat="47.79694" lon="-3.19555">
        <ele>94.5</ele>
        <time>2011-05-26T10:43:40Z</time>
      </trkpt>
      <trkpt lat="47.79701" lon="-3.19555">
        <ele>95</ele>
        <time>2011-05-26T10:43:41Z</time>
      </trkpt>
      <trkpt lat="47.79706" lon="-3.19556">
        <ele>96.1</ele>
        <time>2011-05-26T10:43:42Z</time>
      </trkpt>
      <trkpt lat="47.79711" lon="-3.19557">
        <ele>96.4</ele>
        <time>2011-05-26T10:43:43Z</time>
      </trkpt>
      <trkpt lat="47.79716" lon="-3.19557">
        <ele>95.4</ele>
        <time>2011-05-26T10:43:44Z</time>
      </trkpt>
      <trkpt lat="47.79721" lon="-3.19559">
        <ele>95.6</ele>
        <time>2011-05-26T10:43:45Z</time>
      </trkpt>
      <trkpt lat="47.79727" lon="-3.1956">
        <ele>95.6</ele>
        <time>2011-05-26T10:43:46Z</time>
      </trkpt>
      <trkpt lat="47.79732" lon="-3.19561">
        <ele>95.1</ele>
        <time>2011-05-26T10:43:47Z</time>
      </trkpt>
      <trkpt lat="47.79737" lon="-3.19562">
        <ele>95.7</ele>
        <time>2011-05-26T10:43:48Z</time>
      </trkpt>
      <trkpt lat="47.79744" lon="-3.19563">
        <ele>95</ele>
        <time>2011-05-26T10:43:49Z</time>
      </trkpt>
      <trkpt lat="47.79749" lon="-3.19564">
        <ele>94.6</ele>
        <time>2011-05-26T10:43:50Z</time>
      </trkpt>
      <trkpt lat="47.79755" lon="-3.19565">
        <ele>94.9</ele>
        <time>2011-05-26T10:43:51Z</time>
      </trkpt>
      <trkpt lat="47.79761" lon="-3.19566">
        <ele>94.3</ele>
        <time>2011-05-26T10:43:52Z</time>
      </trkpt>
      <trkpt lat="47.79767" lon="-3.19568">
        <ele>94</ele>
        <time>2011-05-26T10:43:53Z</time>
      </trkpt>
      <trkpt lat="47.79773" lon="-3.19568">
        <ele>92.8</ele>
        <time>2011-05-26T10:43:54Z</time>
      </trkpt>
      <trkpt lat="47.79781" lon="-3.1957">
        <ele>92.9</ele>
        <time>2011-05-26T10:43:55Z</time>
      </trkpt>
      <trkpt lat="47.79787" lon="-3.19572">
        <ele>92.6</ele>
        <time>2011-05-26T10:43:56Z</time>
      </trkpt>
      <trkpt lat="47.79793" lon="-3.19574">
        <ele>92.9</ele>
        <time>2011-05-26T10:43:57Z</time>
      </trkpt>
      <trkpt lat="47.79799" lon="-3.19576">
        <ele>93.1</ele>
        <time>2011-05-26T10:43:58Z</time>
      </trkpt>
      <trkpt lat="47.79805" lon="-3.19578">
        <ele>93.5</ele>
        <time>2011-05-26T10:43:59Z</time>
      </trkpt>
      <trkpt lat="47.79811" lon="-3.1958">
        <ele>93.6</ele>
        <time>2011-05-26T10:44:00Z</time>
      </trkpt>
      <trkpt lat="47.79818" lon="-3.19582">
        <ele>93.7</ele>
        <time>2011-05-26T10:44:01Z</time>
      </trkpt>
      <trkpt lat="47.79824" lon="-3.19584">
        <ele>95.3</ele>
        <time>2011-05-26T10:44:02Z</time>
      </trkpt>
      <trkpt lat="47.79829" lon="-3.19586">
        <ele>95.8</ele>
        <time>2011-05-26T10:44:03Z</time>
      </trkpt>
      <trkpt lat="47.79835" lon="-3.19587">
        <ele>95.5</ele>
        <time>2011-05-26T10:44:04Z</time>
      </trkpt>
      <trkpt lat="47.79842" lon="-3.19589">
        <ele>95.4</ele>
        <time>2011-05-26T10:44:05Z</time>
      </trkpt>
      <trkpt lat="47.79847" lon="-3.19591">
        <ele>95.5</ele>
        <time>2011-05-26T10:44:06Z</time>
      </trkpt>
      <trkpt lat="47.79853" lon="-3.19594">
        <ele>95.4</ele>
        <time>2011-05-26T10:44:07Z</time>
      </trkpt>
      <trkpt lat="47.79858" lon="-3.19596">
        <ele>95</ele>
        <time>2011-05-26T10:44:08Z</time>
      </trkpt>
      <trkpt lat="47.79863" lon="-3.19598">
        <ele>94.8</ele>
        <time>2011-05-26T10:44:09Z</time>
      </trkpt>
      <trkpt lat="47.79869" lon="-3.19599">
        <ele>94.5</ele>
        <time>2011-05-26T10:44:10Z</time>
      </trkpt>
      <trkpt lat="47.79877" lon="-3.19603">
        <ele>94.6</ele>
        <time>2011-05-26T10:44:12Z</time>
      </trkpt>
      <trkpt lat="47.79886" lon="-3.19607">
        <ele>95.4</ele>
        <time>2011-05-26T10:44:14Z</time>
      </trkpt>
      <trkpt lat="47.79893" lon="-3.19608">
        <ele>95.6</ele>
        <time>2011-05-26T10:44:16Z</time>
      </trkpt>
      <trkpt lat="47.799" lon="-3.19602">
        <ele>96.1</ele>
        <time>2011-05-26T10:44:18Z</time>
      </trkpt>
      <trkpt lat="47.79903" lon="-3.19592">
        <ele>96.3</ele>
        <time>2011-05-26T10:44:20Z</time>
      </trkpt>
      <trkpt lat="47.79906" lon="-3.19584">
        <ele>96.3</ele>
        <time>2011-05-26T10:44:22Z</time>
      </trkpt>
      <trkpt lat="47.79907" lon="-3.19573">
        <ele>97.5</ele>
        <time>2011-05-26T10:44:24Z</time>
      </trkpt>
      <trkpt lat="47.79906" lon="-3.19565">
        <ele>98.8</ele>
        <time>2011-05-26T10:44:26Z</time>
      </trkpt>
      <trkpt lat="47.79902" lon="-3.19561">
        <ele>97.3</ele>
        <time>2011-05-26T10:44:28Z</time>
      </trkpt>
      <trkpt lat="47.79899" lon="-3.19554">
        <ele>98.2</ele>
        <time>2011-05-26T10:44:31Z</time>
      </trkpt>
      <trkpt lat="47.79895" lon="-3.19547">
        <ele>99.6</ele>
        <time>2011-05-26T10:44:33Z</time>
      </trkpt>
      <trkpt lat="47.79893" lon="-3.19539">
        <ele>104.2</ele>
        <time>2011-05-26T10:44:35Z</time>
      </trkpt>
      <trkpt lat="47.79892" lon="-3.19532">
        <ele>105.8</ele>
        <time>2011-05-26T10:44:37Z</time>
      </trkpt>
      <trkpt lat="47.79892" lon="-3.19525">
        <ele>106</ele>
        <time>2011-05-26T10:44:39Z</time>
      </trkpt>
      <trkpt lat="47.79888" lon="-3.19519">
        <ele>106.5</ele>
        <time>2011-05-26T10:44:41Z</time>
      </trkpt>
      <trkpt lat="47.79886" lon="-3.19511">
        <ele>105.8</ele>
        <time>2011-05-26T10:44:43Z</time>
      </trkpt>
      <trkpt lat="47.79886" lon="-3.19505">
        <ele>111.2</ele>
        <time>2011-05-26T10:44:46Z</time>
      </trkpt>
      <trkpt lat="47.79882" lon="-3.195">
        <ele>110.4</ele>
        <time>2011-05-26T10:44:48Z</time>
      </trkpt>
      <trkpt lat="47.79878" lon="-3.19494">
        <ele>108.1</ele>
        <time>2011-05-26T10:44:51Z</time>
      </trkpt>
      <trkpt lat="47.79879" lon="-3.19487">
        <ele>105.8</ele>
        <time>2011-05-26T10:44:54Z</time>
      </trkpt>
      <trkpt lat="47.79878" lon="-3.1948">
        <ele>104.3</ele>
        <time>2011-05-26T10:44:57Z</time>
      </trkpt>
      <trkpt lat="47.79879" lon="-3.19471">
        <ele>105.4</ele>
        <time>2011-05-26T10:44:59Z</time>
      </trkpt>
      <trkpt lat="47.7988" lon="-3.1946">
        <ele>106.2</ele>
        <time>2011-05-26T10:45:01Z</time>
      </trkpt>
      <trkpt lat="47.7988" lon="-3.19453">
        <ele>106.5</ele>
        <time>2011-05-26T10:45:03Z</time>
      </trkpt>
      <trkpt lat="47.79881" lon="-3.19444">
        <ele>107.3</ele>
        <time>2011-05-26T10:45:05Z</time>
      </trkpt>
      <trkpt lat="47.79882" lon="-3.19437">
        <ele>108.2</ele>
        <time>2011-05-26T10:45:07Z</time>
      </trkpt>
      <trkpt lat="47.79881" lon="-3.19424">
        <ele>114.8</ele>
        <time>2011-05-26T10:45:09Z</time>
      </trkpt>
      <trkpt lat="47.79881" lon="-3.19413">
        <ele>115</ele>
        <time>2011-05-26T10:45:11Z</time>
      </trkpt>
      <trkpt lat="47.79885" lon="-3.19402">
        <ele>114.3</ele>
        <time>2011-05-26T10:45:13Z</time>
      </trkpt>
      <trkpt lat="47.79887" lon="-3.19395">
        <ele>113.7</ele>
        <time>2011-05-26T10:45:15Z</time>
      </trkpt>
      <trkpt lat="47.79893" lon="-3.19391">
        <ele>113.4</ele>
        <time>2011-05-26T10:45:17Z</time>
      </trkpt>
      <trkpt lat="47.79898" lon="-3.19391">
        <ele>114</ele>
        <time>2011-05-26T10:45:19Z</time>
      </trkpt>
      <trkpt lat="47.79905" lon="-3.19385">
        <ele>114.7</ele>
        <time>2011-05-26T10:45:21Z</time>
      </trkpt>
      <trkpt lat="47.7991" lon="-3.19381">
        <ele>114.7</ele>
        <time>2011-05-26T10:45:22Z</time>
      </trkpt>
      <trkpt lat="47.79914" lon="-3.19377">
        <ele>114.2</ele>
        <time>2011-05-26T10:45:23Z</time>
      </trkpt>
      <trkpt lat="47.79921" lon="-3.19377">
        <ele>114.6</ele>
        <time>2011-05-26T10:45:25Z</time>
      </trkpt>
      <trkpt lat="47.79929" lon="-3.1937">
        <ele>115.4</ele>
        <time>2011-05-26T10:45:26Z</time>
      </trkpt>
      <trkpt lat="47.79936" lon="-3.19368">
        <ele>114.8</ele>
        <time>2011-05-26T10:45:27Z</time>
      </trkpt>
      <trkpt lat="47.7994" lon="-3.19364">
        <ele>115.3</ele>
        <time>2011-05-26T10:45:28Z</time>
      </trkpt>
      <trkpt lat="47.79944" lon="-3.19359">
        <ele>115.9</ele>
        <time>2011-05-26T10:45:30Z</time>
      </trkpt>
      <trkpt lat="47.79952" lon="-3.19346">
        <ele>115.9</ele>
        <time>2011-05-26T10:45:32Z</time>
      </trkpt>
      <trkpt lat="47.79957" lon="-3.19336">
        <ele>117.1</ele>
        <time>2011-05-26T10:45:34Z</time>
      </trkpt>
      <trkpt lat="47.79956" lon="-3.19329">
        <ele>116.8</ele>
        <time>2011-05-26T10:45:36Z</time>
      </trkpt>
      <trkpt lat="47.79956" lon="-3.19318">
        <ele>115.9</ele>
        <time>2011-05-26T10:45:38Z</time>
      </trkpt>
      <trkpt lat="47.79954" lon="-3.1931">
        <ele>115.7</ele>
        <time>2011-05-26T10:45:40Z</time>
      </trkpt>
      <trkpt lat="47.79955" lon="-3.19299">
        <ele>117.5</ele>
        <time>2011-05-26T10:45:43Z</time>
      </trkpt>
      <trkpt lat="47.79956" lon="-3.19286">
        <ele>122.3</ele>
        <time>2011-05-26T10:45:46Z</time>
      </trkpt>
      <trkpt lat="47.79956" lon="-3.19274">
        <ele>127.4</ele>
        <time>2011-05-26T10:45:48Z</time>
      </trkpt>
      <trkpt lat="47.79955" lon="-3.19265">
        <ele>127.3</ele>
        <time>2011-05-26T10:45:50Z</time>
      </trkpt>
      <trkpt lat="47.79955" lon="-3.19258">
        <ele>127.1</ele>
        <time>2011-05-26T10:45:52Z</time>
      </trkpt>
      <trkpt lat="47.79953" lon="-3.19248">
        <ele>124.7</ele>
        <time>2011-05-26T10:45:54Z</time>
      </trkpt>
      <trkpt lat="47.79957" lon="-3.19245">
        <ele>125.6</ele>
        <time>2011-05-26T10:45:55Z</time>
      </trkpt>
      <trkpt lat="47.7996" lon="-3.19235">
        <ele>127.5</ele>
        <time>2011-05-26T10:45:57Z</time>
      </trkpt>
      <trkpt lat="47.79961" lon="-3.19226">
        <ele>128.2</ele>
        <time>2011-05-26T10:46:00Z</time>
      </trkpt>
      <trkpt lat="47.79962" lon="-3.19217">
        <ele>128.3</ele>
        <time>2011-05-26T10:46:02Z</time>
      </trkpt>
      <trkpt lat="47.79963" lon="-3.19209">
        <ele>128.1</ele>
        <time>2011-05-26T10:46:04Z</time>
      </trkpt>
      <trkpt lat="47.79967" lon="-3.19201">
        <ele>129.2</ele>
        <time>2011-05-26T10:46:06Z</time>
      </trkpt>
      <trkpt lat="47.7997" lon="-3.19192">
        <ele>127.5</ele>
        <time>2011-05-26T10:46:08Z</time>
      </trkpt>
      <trkpt lat="47.79973" lon="-3.19182">
        <ele>127.7</ele>
        <time>2011-05-26T10:46:10Z</time>
      </trkpt>
      <trkpt lat="47.79976" lon="-3.19174">
        <ele>128.6</ele>
        <time>2011-05-26T10:46:12Z</time>
      </trkpt>
      <trkpt lat="47.79977" lon="-3.19165">
        <ele>129.5</ele>
        <time>2011-05-26T10:46:14Z</time>
      </trkpt>
      <trkpt lat="47.7998" lon="-3.19154">
        <ele>131.7</ele>
        <time>2011-05-26T10:46:16Z</time>
      </trkpt>
      <trkpt lat="47.79977" lon="-3.19144">
        <ele>131</ele>
        <time>2011-05-26T10:46:18Z</time>
      </trkpt>
      <trkpt lat="47.79978" lon="-3.19135">
        <ele>128.8</ele>
        <time>2011-05-26T10:46:20Z</time>
      </trkpt>
      <trkpt lat="47.79978" lon="-3.19127">
        <ele>127.4</ele>
        <time>2011-05-26T10:46:23Z</time>
      </trkpt>
      <trkpt lat="47.79978" lon="-3.19116">
        <ele>127.1</ele>
        <time>2011-05-26T10:46:26Z</time>
      </trkpt>
      <trkpt lat="47.79983" lon="-3.19109">
        <ele>125.2</ele>
        <time>2011-05-26T10:46:28Z</time>
      </trkpt>
      <trkpt lat="47.79986" lon="-3.19101">
        <ele>127.8</ele>
        <time>2011-05-26T10:46:31Z</time>
      </trkpt>
      <trkpt lat="47.7999" lon="-3.19093">
        <ele>129.1</ele>
        <time>2011-05-26T10:46:33Z</time>
      </trkpt>
      <trkpt lat="47.79988" lon="-3.19085">
        <ele>125.3</ele>
        <time>2011-05-26T10:46:35Z</time>
      </trkpt>
      <trkpt lat="47.79984" lon="-3.19076">
        <ele>120.6</ele>
        <time>2011-05-26T10:46:38Z</time>
      </trkpt>
      <trkpt lat="47.79984" lon="-3.19064">
        <ele>119.4</ele>
        <time>2011-05-26T10:46:40Z</time>
      </trkpt>
      <trkpt lat="47.79984" lon="-3.19054">
        <ele>117.7</ele>
        <time>2011-05-26T10:46:42Z</time>
      </trkpt>
      <trkpt lat="47.79986" lon="-3.19044">
        <ele>117.2</ele>
        <time>2011-05-26T10:46:43Z</time>
      </trkpt>
      <trkpt lat="47.79984" lon="-3.19032">
        <ele>117.5</ele>
        <time>2011-05-26T10:46:45Z</time>
      </trkpt>
      <trkpt lat="47.79982" lon="-3.19022">
        <ele>117.6</ele>
        <time>2011-05-26T10:46:47Z</time>
      </trkpt>
      <trkpt lat="47.79982" lon="-3.19008">
        <ele>118.6</ele>
        <time>2011-05-26T10:46:49Z</time>
      </trkpt>
      <trkpt lat="47.79981" lon="-3.19001">
        <ele>119.7</ele>
        <time>2011-05-26T10:46:50Z</time>
      </trkpt>
      <trkpt lat="47.79972" lon="-3.18995">
        <ele>120.9</ele>
        <time>2011-05-26T10:46:52Z</time>
      </trkpt>
      <trkpt lat="47.79968" lon="-3.18994">
        <ele>120.6</ele>
        <time>2011-05-26T10:46:53Z</time>
      </trkpt>
      <trkpt lat="47.7996" lon="-3.1899">
        <ele>121.3</ele>
        <time>2011-05-26T10:46:55Z</time>
      </trkpt>
      <trkpt lat="47.79954" lon="-3.18986">
        <ele>121.4</ele>
        <time>2011-05-26T10:46:56Z</time>
      </trkpt>
      <trkpt lat="47.79948" lon="-3.18986">
        <ele>121.5</ele>
        <time>2011-05-26T10:46:57Z</time>
      </trkpt>
      <trkpt lat="47.79943" lon="-3.18985">
        <ele>120.4</ele>
        <time>2011-05-26T10:46:58Z</time>
      </trkpt>
      <trkpt lat="47.79937" lon="-3.18983">
        <ele>120.5</ele>
        <time>2011-05-26T10:46:59Z</time>
      </trkpt>
      <trkpt lat="47.79928" lon="-3.18981">
        <ele>119.8</ele>
        <time>2011-05-26T10:47:01Z</time>
      </trkpt>
      <trkpt lat="47.79922" lon="-3.18979">
        <ele>119.5</ele>
        <time>2011-05-26T10:47:02Z</time>
      </trkpt>
      <trkpt lat="47.79915" lon="-3.1898">
        <ele>120.2</ele>
        <time>2011-05-26T10:47:03Z</time>
      </trkpt>
      <trkpt lat="47.79908" lon="-3.18981">
        <ele>119.2</ele>
        <time>2011-05-26T10:47:04Z</time>
      </trkpt>
      <trkpt lat="47.79902" lon="-3.18983">
        <ele>119.8</ele>
        <time>2011-05-26T10:47:05Z</time>
      </trkpt>
      <trkpt lat="47.79893" lon="-3.18979">
        <ele>118.5</ele>
        <time>2011-05-26T10:47:06Z</time>
      </trkpt>
      <trkpt lat="47.79887" lon="-3.18978">
        <ele>119.4</ele>
        <time>2011-05-26T10:47:07Z</time>
      </trkpt>
      <trkpt lat="47.7988" lon="-3.18976">
        <ele>117.4</ele>
        <time>2011-05-26T10:47:08Z</time>
      </trkpt>
      <trkpt lat="47.79874" lon="-3.18975">
        <ele>117.9</ele>
        <time>2011-05-26T10:47:09Z</time>
      </trkpt>
      <trkpt lat="47.7987" lon="-3.18968">
        <ele>117.3</ele>
        <time>2011-05-26T10:47:10Z</time>
      </trkpt>
      <trkpt lat="47.79869" lon="-3.1896">
        <ele>117.5</ele>
        <time>2011-05-26T10:47:11Z</time>
      </trkpt>
      <trkpt lat="47.79867" lon="-3.18953">
        <ele>117.5</ele>
        <time>2011-05-26T10:47:12Z</time>
      </trkpt>
      <trkpt lat="47.79864" lon="-3.18942">
        <ele>117.4</ele>
        <time>2011-05-26T10:47:14Z</time>
      </trkpt>
      <trkpt lat="47.79867" lon="-3.18948">
        <ele>116.7</ele>
        <time>2011-05-26T10:47:18Z</time>
      </trkpt>
      <trkpt lat="47.79869" lon="-3.18941">
        <ele>121.7</ele>
        <time>2011-05-26T10:47:39Z</time>
      </trkpt>
      <trkpt lat="47.79869" lon="-3.18932">
        <ele>119.3</ele>
        <time>2011-05-26T10:47:42Z</time>
      </trkpt>
      <trkpt lat="47.79873" lon="-3.1892">
        <ele>118.3</ele>
        <time>2011-05-26T10:47:44Z</time>
      </trkpt>
      <trkpt lat="47.79876" lon="-3.18908">
        <ele>118.3</ele>
        <time>2011-05-26T10:47:46Z</time>
      </trkpt>
      <trkpt lat="47.79877" lon="-3.18901">
        <ele>118</ele>
        <time>2011-05-26T10:47:47Z</time>
      </trkpt>
      <trkpt lat="47.7988" lon="-3.18893">
        <ele>118.1</ele>
        <time>2011-05-26T10:47:48Z</time>
      </trkpt>
      <trkpt lat="47.79883" lon="-3.18883">
        <ele>119.1</ele>
        <time>2011-05-26T10:47:50Z</time>
      </trkpt>
      <trkpt lat="47.79885" lon="-3.18871">
        <ele>119.3</ele>
        <time>2011-05-26T10:47:51Z</time>
      </trkpt>
      <trkpt lat="47.79887" lon="-3.18864">
        <ele>119.1</ele>
        <time>2011-05-26T10:47:52Z</time>
      </trkpt>
      <trkpt lat="47.79889" lon="-3.1885">
        <ele>117.2</ele>
        <time>2011-05-26T10:47:54Z</time>
      </trkpt>
      <trkpt lat="47.79889" lon="-3.18843">
        <ele>119</ele>
        <time>2011-05-26T10:47:55Z</time>
      </trkpt>
      <trkpt lat="47.7989" lon="-3.18836">
        <ele>119.5</ele>
        <time>2011-05-26T10:47:56Z</time>
      </trkpt>
      <trkpt lat="47.79892" lon="-3.18825">
        <ele>120.1</ele>
        <time>2011-05-26T10:47:58Z</time>
      </trkpt>
      <trkpt lat="47.79897" lon="-3.18812">
        <ele>116.2</ele>
        <time>2011-05-26T10:48:00Z</time>
      </trkpt>
      <trkpt lat="47.799" lon="-3.18802">
        <ele>118.2</ele>
        <time>2011-05-26T10:48:01Z</time>
      </trkpt>
      <trkpt lat="47.79902" lon="-3.18792">
        <ele>117.8</ele>
        <time>2011-05-26T10:48:02Z</time>
      </trkpt>
      <trkpt lat="47.79904" lon="-3.18783">
        <ele>117.6</ele>
        <time>2011-05-26T10:48:03Z</time>
      </trkpt>
      <trkpt lat="47.79906" lon="-3.18774">
        <ele>117.9</ele>
        <time>2011-05-26T10:48:04Z</time>
      </trkpt>
      <trkpt lat="47.79908" lon="-3.18763">
        <ele>117.7</ele>
        <time>2011-05-26T10:48:05Z</time>
      </trkpt>
      <trkpt lat="47.79909" lon="-3.18755">
        <ele>117.4</ele>
        <time>2011-05-26T10:48:06Z</time>
      </trkpt>
      <trkpt lat="47.7991" lon="-3.18747">
        <ele>117.9</ele>
        <time>2011-05-26T10:48:07Z</time>
      </trkpt>
      <trkpt lat="47.79911" lon="-3.18739">
        <ele>118.5</ele>
        <time>2011-05-26T10:48:08Z</time>
      </trkpt>
      <trkpt lat="47.79915" lon="-3.18729">
        <ele>118.6</ele>
        <time>2011-05-26T10:48:09Z</time>
      </trkpt>
      <trkpt lat="47.79916" lon="-3.18719">
        <ele>119.2</ele>
        <time>2011-05-26T10:48:10Z</time>
      </trkpt>
      <trkpt lat="47.7992" lon="-3.18709">
        <ele>120</ele>
        <time>2011-05-26T10:48:11Z</time>
      </trkpt>
      <trkpt lat="47.79923" lon="-3.187">
        <ele>120.2</ele>
        <time>2011-05-26T10:48:12Z</time>
      </trkpt>
      <trkpt lat="47.79925" lon="-3.18691">
        <ele>120.9</ele>
        <time>2011-05-26T10:48:13Z</time>
      </trkpt>
      <trkpt lat="47.79928" lon="-3.18682">
        <ele>121.4</ele>
        <time>2011-05-26T10:48:14Z</time>
      </trkpt>
      <trkpt lat="47.79931" lon="-3.1867">
        <ele>120.3</ele>
        <time>2011-05-26T10:48:15Z</time>
      </trkpt>
      <trkpt lat="47.79933" lon="-3.1866">
        <ele>121.8</ele>
        <time>2011-05-26T10:48:16Z</time>
      </trkpt>
      <trkpt lat="47.79932" lon="-3.18651">
        <ele>123.5</ele>
        <time>2011-05-26T10:48:17Z</time>
      </trkpt>
      <trkpt lat="47.79934" lon="-3.18642">
        <ele>124.3</ele>
        <time>2011-05-26T10:48:18Z</time>
      </trkpt>
      <trkpt lat="47.79935" lon="-3.18632">
        <ele>125.4</ele>
        <time>2011-05-26T10:48:19Z</time>
      </trkpt>
      <trkpt lat="47.79937" lon="-3.18623">
        <ele>125.1</ele>
        <time>2011-05-26T10:48:20Z</time>
      </trkpt>
      <trkpt lat="47.79939" lon="-3.18614">
        <ele>125.9</ele>
        <time>2011-05-26T10:48:21Z</time>
      </trkpt>
      <trkpt lat="47.79942" lon="-3.18605">
        <ele>126.7</ele>
        <time>2011-05-26T10:48:22Z</time>
      </trkpt>
      <trkpt lat="47.79943" lon="-3.18597">
        <ele>126.8</ele>
        <time>2011-05-26T10:48:23Z</time>
      </trkpt>
      <trkpt lat="47.79945" lon="-3.1859">
        <ele>126.4</ele>
        <time>2011-05-26T10:48:24Z</time>
      </trkpt>
      <trkpt lat="47.79948" lon="-3.18581">
        <ele>126.3</ele>
        <time>2011-05-26T10:48:25Z</time>
      </trkpt>
      <trkpt lat="47.7995" lon="-3.18575">
        <ele>126.1</ele>
        <time>2011-05-26T10:48:26Z</time>
      </trkpt>
      <trkpt lat="47.79954" lon="-3.18564">
        <ele>126.5</ele>
        <time>2011-05-26T10:48:28Z</time>
      </trkpt>
      <trkpt lat="47.79957" lon="-3.18558">
        <ele>126.4</ele>
        <time>2011-05-26T10:48:29Z</time>
      </trkpt>
      <trkpt lat="47.7996" lon="-3.18547">
        <ele>126</ele>
        <time>2011-05-26T10:48:31Z</time>
      </trkpt>
      <trkpt lat="47.79963" lon="-3.18539">
        <ele>126.1</ele>
        <time>2011-05-26T10:48:33Z</time>
      </trkpt>
      <trkpt lat="47.7997" lon="-3.18536">
        <ele>125.4</ele>
        <time>2011-05-26T10:48:35Z</time>
      </trkpt>
      <trkpt lat="47.79974" lon="-3.18535">
        <ele>125.6</ele>
        <time>2011-05-26T10:48:37Z</time>
      </trkpt>
      <trkpt lat="47.79978" lon="-3.18539">
        <ele>124.8</ele>
        <time>2011-05-26T10:48:39Z</time>
      </trkpt>
      <trkpt lat="47.79985" lon="-3.18542">
        <ele>133</ele>
        <time>2011-05-26T10:48:42Z</time>
      </trkpt>
      <trkpt lat="47.7999" lon="-3.18545">
        <ele>132.8</ele>
        <time>2011-05-26T10:48:44Z</time>
      </trkpt>
      <trkpt lat="47.79991" lon="-3.18554">
        <ele>130.9</ele>
        <time>2011-05-26T10:48:45Z</time>
      </trkpt>
      <trkpt lat="47.79996" lon="-3.1856">
        <ele>127.9</ele>
        <time>2011-05-26T10:48:47Z</time>
      </trkpt>
      <trkpt lat="47.80005" lon="-3.18561">
        <ele>124.7</ele>
        <time>2011-05-26T10:48:49Z</time>
      </trkpt>
      <trkpt lat="47.80011" lon="-3.1856">
        <ele>122.9</ele>
        <time>2011-05-26T10:48:51Z</time>
      </trkpt>
      <trkpt lat="47.80016" lon="-3.18554">
        <ele>122.2</ele>
        <time>2011-05-26T10:48:53Z</time>
      </trkpt>
      <trkpt lat="47.80018" lon="-3.18562">
        <ele>125.9</ele>
        <time>2011-05-26T10:48:57Z</time>
      </trkpt>
      <trkpt lat="47.80024" lon="-3.18566">
        <ele>125.2</ele>
        <time>2011-05-26T10:49:00Z</time>
      </trkpt>
      <trkpt lat="47.8003" lon="-3.18567">
        <ele>126.7</ele>
        <time>2011-05-26T10:49:02Z</time>
      </trkpt>
      <trkpt lat="47.80037" lon="-3.18572">
        <ele>126</ele>
        <time>2011-05-26T10:49:04Z</time>
      </trkpt>
      <trkpt lat="47.80041" lon="-3.18573">
        <ele>126.1</ele>
        <time>2011-05-26T10:49:05Z</time>
      </trkpt>
      <trkpt lat="47.80048" lon="-3.18578">
        <ele>125.8</ele>
        <time>2011-05-26T10:49:07Z</time>
      </trkpt>
      <trkpt lat="47.80053" lon="-3.18581">
        <ele>128</ele>
        <time>2011-05-26T10:49:08Z</time>
      </trkpt>
      <trkpt lat="47.80058" lon="-3.18584">
        <ele>128.9</ele>
        <time>2011-05-26T10:49:09Z</time>
      </trkpt>
      <trkpt lat="47.80062" lon="-3.18584">
        <ele>124.4</ele>
        <time>2011-05-26T10:49:10Z</time>
      </trkpt>
      <trkpt lat="47.80068" lon="-3.18585">
        <ele>124.4</ele>
        <time>2011-05-26T10:49:11Z</time>
      </trkpt>
      <trkpt lat="47.80073" lon="-3.18584">
        <ele>124.7</ele>
        <time>2011-05-26T10:49:12Z</time>
      </trkpt>
      <trkpt lat="47.80078" lon="-3.18585">
        <ele>123.9</ele>
        <time>2011-05-26T10:49:13Z</time>
      </trkpt>
      <trkpt lat="47.80083" lon="-3.18582">
        <ele>121.6</ele>
        <time>2011-05-26T10:49:15Z</time>
      </trkpt>
      <trkpt lat="47.80086" lon="-3.18577">
        <ele>120</ele>
        <time>2011-05-26T10:49:17Z</time>
      </trkpt>
      <trkpt lat="47.80089" lon="-3.18571">
        <ele>118.3</ele>
        <time>2011-05-26T10:49:19Z</time>
      </trkpt>
      <trkpt lat="47.8009" lon="-3.18564">
        <ele>119.4</ele>
        <time>2011-05-26T10:49:21Z</time>
      </trkpt>
      <trkpt lat="47.80089" lon="-3.18556">
        <ele>119.8</ele>
        <time>2011-05-26T10:49:24Z</time>
      </trkpt>
      <trkpt lat="47.80085" lon="-3.1855">
        <ele>111.6</ele>
        <time>2011-05-26T10:49:27Z</time>
      </trkpt>
      <trkpt lat="47.80086" lon="-3.1854">
        <ele>111.6</ele>
        <time>2011-05-26T10:49:29Z</time>
      </trkpt>
      <trkpt lat="47.80087" lon="-3.18533">
        <ele>110.7</ele>
        <time>2011-05-26T10:49:30Z</time>
      </trkpt>
      <trkpt lat="47.80089" lon="-3.18527">
        <ele>111.9</ele>
        <time>2011-05-26T10:49:31Z</time>
      </trkpt>
      <trkpt lat="47.80091" lon="-3.18521">
        <ele>112.2</ele>
        <time>2011-05-26T10:49:32Z</time>
      </trkpt>
      <trkpt lat="47.80096" lon="-3.18513">
        <ele>110.7</ele>
        <time>2011-05-26T10:49:34Z</time>
      </trkpt>
      <trkpt lat="47.80101" lon="-3.18505">
        <ele>111.2</ele>
        <time>2011-05-26T10:49:35Z</time>
      </trkpt>
      <trkpt lat="47.80105" lon="-3.185">
        <ele>110.7</ele>
        <time>2011-05-26T10:49:36Z</time>
      </trkpt>
      <trkpt lat="47.80112" lon="-3.18493">
        <ele>109.7</ele>
        <time>2011-05-26T10:49:38Z</time>
      </trkpt>
      <trkpt lat="47.80112" lon="-3.18504">
        <ele>111.3</ele>
        <time>2011-05-26T10:49:41Z</time>
      </trkpt>
      <trkpt lat="47.80114" lon="-3.18511">
        <ele>110.2</ele>
        <time>2011-05-26T10:49:43Z</time>
      </trkpt>
      <trkpt lat="47.80118" lon="-3.18505">
        <ele>110.6</ele>
        <time>2011-05-26T10:49:46Z</time>
      </trkpt>
      <trkpt lat="47.80123" lon="-3.18495">
        <ele>110.2</ele>
        <time>2011-05-26T10:49:49Z</time>
      </trkpt>
      <trkpt lat="47.80128" lon="-3.18482">
        <ele>110.7</ele>
        <time>2011-05-26T10:49:51Z</time>
      </trkpt>
      <trkpt lat="47.80129" lon="-3.18476">
        <ele>111.4</ele>
        <time>2011-05-26T10:49:52Z</time>
      </trkpt>
      <trkpt lat="47.80126" lon="-3.18469">
        <ele>108.4</ele>
        <time>2011-05-26T10:49:54Z</time>
      </trkpt>
      <trkpt lat="47.80127" lon="-3.1846">
        <ele>107.8</ele>
        <time>2011-05-26T10:49:56Z</time>
      </trkpt>
      <trkpt lat="47.80126" lon="-3.18453">
        <ele>109.5</ele>
        <time>2011-05-26T10:49:57Z</time>
      </trkpt>
      <trkpt lat="47.80127" lon="-3.18442">
        <ele>114.5</ele>
        <time>2011-05-26T10:49:59Z</time>
      </trkpt>
      <trkpt lat="47.80125" lon="-3.18429">
        <ele>116.2</ele>
        <time>2011-05-26T10:50:01Z</time>
      </trkpt>
      <trkpt lat="47.80125" lon="-3.18422">
        <ele>116</ele>
        <time>2011-05-26T10:50:02Z</time>
      </trkpt>
      <trkpt lat="47.80128" lon="-3.18415">
        <ele>115.6</ele>
        <time>2011-05-26T10:50:03Z</time>
      </trkpt>
      <trkpt lat="47.8013" lon="-3.18409">
        <ele>115.6</ele>
        <time>2011-05-26T10:50:04Z</time>
      </trkpt>
      <trkpt lat="47.80132" lon="-3.18401">
        <ele>116.2</ele>
        <time>2011-05-26T10:50:05Z</time>
      </trkpt>
      <trkpt lat="47.80135" lon="-3.18394">
        <ele>115.7</ele>
        <time>2011-05-26T10:50:06Z</time>
      </trkpt>
      <trkpt lat="47.80139" lon="-3.18388">
        <ele>115.6</ele>
        <time>2011-05-26T10:50:07Z</time>
      </trkpt>
      <trkpt lat="47.80142" lon="-3.18379">
        <ele>115.2</ele>
        <time>2011-05-26T10:50:08Z</time>
      </trkpt>
      <trkpt lat="47.80135" lon="-3.18375">
        <ele>113.1</ele>
        <time>2011-05-26T10:50:09Z</time>
      </trkpt>
      <trkpt lat="47.80137" lon="-3.18365">
        <ele>117.5</ele>
        <time>2011-05-26T10:50:11Z</time>
      </trkpt>
      <trkpt lat="47.80135" lon="-3.18355">
        <ele>112.5</ele>
        <time>2011-05-26T10:50:13Z</time>
      </trkpt>
      <trkpt lat="47.80133" lon="-3.18347">
        <ele>110.1</ele>
        <time>2011-05-26T10:50:15Z</time>
      </trkpt>
      <trkpt lat="47.80133" lon="-3.18339">
        <ele>109.2</ele>
        <time>2011-05-26T10:50:17Z</time>
      </trkpt>
      <trkpt lat="47.80127" lon="-3.18339">
        <ele>111.2</ele>
        <time>2011-05-26T10:50:18Z</time>
      </trkpt>
      <trkpt lat="47.80122" lon="-3.18333">
        <ele>114.8</ele>
        <time>2011-05-26T10:50:20Z</time>
      </trkpt>
      <trkpt lat="47.80119" lon="-3.18322">
        <ele>118.8</ele>
        <time>2011-05-26T10:50:23Z</time>
      </trkpt>
      <trkpt lat="47.80116" lon="-3.18316">
        <ele>118.4</ele>
        <time>2011-05-26T10:50:24Z</time>
      </trkpt>
      <trkpt lat="47.80114" lon="-3.18304">
        <ele>118.1</ele>
        <time>2011-05-26T10:50:26Z</time>
      </trkpt>
      <trkpt lat="47.8011" lon="-3.18294">
        <ele>118</ele>
        <time>2011-05-26T10:50:28Z</time>
      </trkpt>
      <trkpt lat="47.80104" lon="-3.18289">
        <ele>116.9</ele>
        <time>2011-05-26T10:50:29Z</time>
      </trkpt>
      <trkpt lat="47.80099" lon="-3.18291">
        <ele>123.7</ele>
        <time>2011-05-26T10:50:30Z</time>
      </trkpt>
      <trkpt lat="47.80094" lon="-3.18292">
        <ele>123.2</ele>
        <time>2011-05-26T10:50:31Z</time>
      </trkpt>
      <trkpt lat="47.80088" lon="-3.18293">
        <ele>121.1</ele>
        <time>2011-05-26T10:50:33Z</time>
      </trkpt>
      <trkpt lat="47.8008" lon="-3.18297">
        <ele>121.1</ele>
        <time>2011-05-26T10:50:35Z</time>
      </trkpt>
      <trkpt lat="47.80074" lon="-3.18304">
        <ele>121.4</ele>
        <time>2011-05-26T10:50:37Z</time>
      </trkpt>
      <trkpt lat="47.80069" lon="-3.18302">
        <ele>123.2</ele>
        <time>2011-05-26T10:50:39Z</time>
      </trkpt>
      <trkpt lat="47.80067" lon="-3.18308">
        <ele>124.3</ele>
        <time>2011-05-26T10:50:41Z</time>
      </trkpt>
      <trkpt lat="47.8006" lon="-3.18315">
        <ele>125.4</ele>
        <time>2011-05-26T10:50:43Z</time>
      </trkpt>
      <trkpt lat="47.80065" lon="-3.18308">
        <ele>126.6</ele>
        <time>2011-05-26T10:50:49Z</time>
      </trkpt>
      <trkpt lat="47.80066" lon="-3.18301">
        <ele>125.9</ele>
        <time>2011-05-26T10:50:51Z</time>
      </trkpt>
      <trkpt lat="47.80058" lon="-3.18298">
        <ele>127.3</ele>
        <time>2011-05-26T10:50:52Z</time>
      </trkpt>
      <trkpt lat="47.80052" lon="-3.18295">
        <ele>127.5</ele>
        <time>2011-05-26T10:50:53Z</time>
      </trkpt>
      <trkpt lat="47.80046" lon="-3.18295">
        <ele>125.9</ele>
        <time>2011-05-26T10:50:55Z</time>
      </trkpt>
      <trkpt lat="47.8004" lon="-3.18294">
        <ele>125.6</ele>
        <time>2011-05-26T10:50:56Z</time>
      </trkpt>
      <trkpt lat="47.80031" lon="-3.1829">
        <ele>125.5</ele>
        <time>2011-05-26T10:50:58Z</time>
      </trkpt>
      <trkpt lat="47.80023" lon="-3.18287">
        <ele>124.1</ele>
        <time>2011-05-26T10:50:59Z</time>
      </trkpt>
      <trkpt lat="47.80018" lon="-3.18288">
        <ele>121.4</ele>
        <time>2011-05-26T10:51:00Z</time>
      </trkpt>
      <trkpt lat="47.80013" lon="-3.18289">
        <ele>121.4</ele>
        <time>2011-05-26T10:51:01Z</time>
      </trkpt>
      <trkpt lat="47.80008" lon="-3.1829">
        <ele>120.5</ele>
        <time>2011-05-26T10:51:02Z</time>
      </trkpt>
      <trkpt lat="47.80008" lon="-3.18298">
        <ele>118.6</ele>
        <time>2011-05-26T10:51:04Z</time>
      </trkpt>
      <trkpt lat="47.80004" lon="-3.18305">
        <ele>119.3</ele>
        <time>2011-05-26T10:51:08Z</time>
      </trkpt>
      <trkpt lat="47.79997" lon="-3.18293">
        <ele>121.2</ele>
        <time>2011-05-26T10:51:09Z</time>
      </trkpt>
      <trkpt lat="47.79992" lon="-3.1829">
        <ele>120.7</ele>
        <time>2011-05-26T10:51:10Z</time>
      </trkpt>
      <trkpt lat="47.79988" lon="-3.18286">
        <ele>121</ele>
        <time>2011-05-26T10:51:11Z</time>
      </trkpt>
      <trkpt lat="47.79984" lon="-3.18287">
        <ele>122.6</ele>
        <time>2011-05-26T10:51:14Z</time>
      </trkpt>
      <trkpt lat="47.7998" lon="-3.18295">
        <ele>123.9</ele>
        <time>2011-05-26T10:51:17Z</time>
      </trkpt>
      <trkpt lat="47.79976" lon="-3.18302">
        <ele>122.3</ele>
        <time>2011-05-26T10:51:18Z</time>
      </trkpt>
      <trkpt lat="47.79975" lon="-3.1831">
        <ele>123.3</ele>
        <time>2011-05-26T10:51:20Z</time>
      </trkpt>
      <trkpt lat="47.79978" lon="-3.18318">
        <ele>122.8</ele>
        <time>2011-05-26T10:51:22Z</time>
      </trkpt>
      <trkpt lat="47.79979" lon="-3.18327">
        <ele>122.4</ele>
        <time>2011-05-26T10:51:24Z</time>
      </trkpt>
      <trkpt lat="47.7998" lon="-3.18334">
        <ele>122.1</ele>
        <time>2011-05-26T10:51:25Z</time>
      </trkpt>
      <trkpt lat="47.79978" lon="-3.18342">
        <ele>122.1</ele>
        <time>2011-05-26T10:51:26Z</time>
      </trkpt>
      <trkpt lat="47.79978" lon="-3.18349">
        <ele>122.9</ele>
        <time>2011-05-26T10:51:27Z</time>
      </trkpt>
      <trkpt lat="47.7998" lon="-3.18357">
        <ele>122.8</ele>
        <time>2011-05-26T10:51:28Z</time>
      </trkpt>
      <trkpt lat="47.79982" lon="-3.18369">
        <ele>122.5</ele>
        <time>2011-05-26T10:51:30Z</time>
      </trkpt>
      <trkpt lat="47.7998" lon="-3.18377">
        <ele>123.5</ele>
        <time>2011-05-26T10:51:32Z</time>
      </trkpt>
      <trkpt lat="47.79975" lon="-3.18386">
        <ele>121.9</ele>
        <time>2011-05-26T10:51:33Z</time>
      </trkpt>
      <trkpt lat="47.79971" lon="-3.18395">
        <ele>123.9</ele>
        <time>2011-05-26T10:51:35Z</time>
      </trkpt>
      <trkpt lat="47.7997" lon="-3.18406">
        <ele>123.4</ele>
        <time>2011-05-26T10:51:37Z</time>
      </trkpt>
      <trkpt lat="47.79964" lon="-3.18412">
        <ele>126.4</ele>
        <time>2011-05-26T10:51:40Z</time>
      </trkpt>
      <trkpt lat="47.7996" lon="-3.18418">
        <ele>122.2</ele>
        <time>2011-05-26T10:51:43Z</time>
      </trkpt>
      <trkpt lat="47.79957" lon="-3.18427">
        <ele>118</ele>
        <time>2011-05-26T10:51:46Z</time>
      </trkpt>
      <trkpt lat="47.79954" lon="-3.18433">
        <ele>120.3</ele>
        <time>2011-05-26T10:51:47Z</time>
      </trkpt>
      <trkpt lat="47.79951" lon="-3.1844">
        <ele>119.4</ele>
        <time>2011-05-26T10:51:48Z</time>
      </trkpt>
      <trkpt lat="47.79947" lon="-3.18445">
        <ele>116.6</ele>
        <time>2011-05-26T10:51:49Z</time>
      </trkpt>
      <trkpt lat="47.79942" lon="-3.18449">
        <ele>118.4</ele>
        <time>2011-05-26T10:51:50Z</time>
      </trkpt>
      <trkpt lat="47.79938" lon="-3.1845">
        <ele>117.2</ele>
        <time>2011-05-26T10:51:51Z</time>
      </trkpt>
      <trkpt lat="47.79933" lon="-3.18455">
        <ele>112.7</ele>
        <time>2011-05-26T10:51:52Z</time>
      </trkpt>
      <trkpt lat="47.79928" lon="-3.18458">
        <ele>115.5</ele>
        <time>2011-05-26T10:51:53Z</time>
      </trkpt>
      <trkpt lat="47.79922" lon="-3.18459">
        <ele>117.2</ele>
        <time>2011-05-26T10:51:54Z</time>
      </trkpt>
      <trkpt lat="47.79917" lon="-3.18462">
        <ele>118.1</ele>
        <time>2011-05-26T10:51:55Z</time>
      </trkpt>
      <trkpt lat="47.79912" lon="-3.18466">
        <ele>118.6</ele>
        <time>2011-05-26T10:51:56Z</time>
      </trkpt>
      <trkpt lat="47.79906" lon="-3.18469">
        <ele>119.6</ele>
        <time>2011-05-26T10:51:57Z</time>
      </trkpt>
      <trkpt lat="47.7991" lon="-3.18481">
        <ele>112.6</ele>
        <time>2011-05-26T10:51:59Z</time>
      </trkpt>
      <trkpt lat="47.7991" lon="-3.1849">
        <ele>109.4</ele>
        <time>2011-05-26T10:52:01Z</time>
      </trkpt>
      <trkpt lat="47.79902" lon="-3.18495">
        <ele>110.1</ele>
        <time>2011-05-26T10:52:03Z</time>
      </trkpt>
      <trkpt lat="47.79896" lon="-3.18498">
        <ele>110.3</ele>
        <time>2011-05-26T10:52:05Z</time>
      </trkpt>
      <trkpt lat="47.79889" lon="-3.18503">
        <ele>110.1</ele>
        <time>2011-05-26T10:52:07Z</time>
      </trkpt>
      <trkpt lat="47.79884" lon="-3.18513">
        <ele>111.4</ele>
        <time>2011-05-26T10:52:09Z</time>
      </trkpt>
      <trkpt lat="47.79881" lon="-3.18518">
        <ele>113.2</ele>
        <time>2011-05-26T10:52:10Z</time>
      </trkpt>
      <trkpt lat="47.79877" lon="-3.18523">
        <ele>114.3</ele>
        <time>2011-05-26T10:52:11Z</time>
      </trkpt>
      <trkpt lat="47.79872" lon="-3.18529">
        <ele>115.5</ele>
        <time>2011-05-26T10:52:12Z</time>
      </trkpt>
      <trkpt lat="47.79866" lon="-3.18535">
        <ele>116.6</ele>
        <time>2011-05-26T10:52:13Z</time>
      </trkpt>
      <trkpt lat="47.79862" lon="-3.18538">
        <ele>116.9</ele>
        <time>2011-05-26T10:52:14Z</time>
      </trkpt>
      <trkpt lat="47.7985" lon="-3.18541">
        <ele>117.5</ele>
        <time>2011-05-26T10:52:15Z</time>
      </trkpt>
      <trkpt lat="47.79843" lon="-3.18543">
        <ele>117.6</ele>
        <time>2011-05-26T10:52:16Z</time>
      </trkpt>
      <trkpt lat="47.79836" lon="-3.18534">
        <ele>119.5</ele>
        <time>2011-05-26T10:52:17Z</time>
      </trkpt>
      <trkpt lat="47.79828" lon="-3.1853">
        <ele>122.5</ele>
        <time>2011-05-26T10:52:18Z</time>
      </trkpt>
      <trkpt lat="47.79822" lon="-3.18526">
        <ele>122.9</ele>
        <time>2011-05-26T10:52:19Z</time>
      </trkpt>
      <trkpt lat="47.79816" lon="-3.18522">
        <ele>122.7</ele>
        <time>2011-05-26T10:52:20Z</time>
      </trkpt>
      <trkpt lat="47.7981" lon="-3.18521">
        <ele>121.9</ele>
        <time>2011-05-26T10:52:21Z</time>
      </trkpt>
      <trkpt lat="47.79803" lon="-3.18522">
        <ele>122.6</ele>
        <time>2011-05-26T10:52:22Z</time>
      </trkpt>
      <trkpt lat="47.79792" lon="-3.18524">
        <ele>122.3</ele>
        <time>2011-05-26T10:52:23Z</time>
      </trkpt>
      <trkpt lat="47.79785" lon="-3.18524">
        <ele>121.1</ele>
        <time>2011-05-26T10:52:24Z</time>
      </trkpt>
      <trkpt lat="47.79781" lon="-3.1853">
        <ele>116.2</ele>
        <time>2011-05-26T10:52:25Z</time>
      </trkpt>
      <trkpt lat="47.79776" lon="-3.18528">
        <ele>117.1</ele>
        <time>2011-05-26T10:52:26Z</time>
      </trkpt>
      <trkpt lat="47.7977" lon="-3.18529">
        <ele>115.7</ele>
        <time>2011-05-26T10:52:27Z</time>
      </trkpt>
      <trkpt lat="47.79768" lon="-3.18522">
        <ele>115.4</ele>
        <time>2011-05-26T10:52:28Z</time>
      </trkpt>
      <trkpt lat="47.79772" lon="-3.18517">
        <ele>115.5</ele>
        <time>2011-05-26T10:52:29Z</time>
      </trkpt>
      <trkpt lat="47.79778" lon="-3.18516">
        <ele>113.8</ele>
        <time>2011-05-26T10:52:30Z</time>
      </trkpt>
      <trkpt lat="47.79782" lon="-3.18508">
        <ele>112.3</ele>
        <time>2011-05-26T10:52:33Z</time>
      </trkpt>
      <trkpt lat="47.79785" lon="-3.18502">
        <ele>109.7</ele>
        <time>2011-05-26T10:52:35Z</time>
      </trkpt>
      <trkpt lat="47.79785" lon="-3.18492">
        <ele>111.3</ele>
        <time>2011-05-26T10:52:37Z</time>
      </trkpt>
      <trkpt lat="47.79786" lon="-3.18485">
        <ele>115.1</ele>
        <time>2011-05-26T10:52:39Z</time>
      </trkpt>
      <trkpt lat="47.79787" lon="-3.18476">
        <ele>115.9</ele>
        <time>2011-05-26T10:52:41Z</time>
      </trkpt>
      <trkpt lat="47.79792" lon="-3.18468">
        <ele>118.3</ele>
        <time>2011-05-26T10:52:43Z</time>
      </trkpt>
      <trkpt lat="47.79795" lon="-3.18461">
        <ele>118.8</ele>
        <time>2011-05-26T10:52:45Z</time>
      </trkpt>
      <trkpt lat="47.79798" lon="-3.18448">
        <ele>118.9</ele>
        <time>2011-05-26T10:52:47Z</time>
      </trkpt>
      <trkpt lat="47.79802" lon="-3.18436">
        <ele>119.8</ele>
        <time>2011-05-26T10:52:49Z</time>
      </trkpt>
      <trkpt lat="47.79805" lon="-3.18427">
        <ele>117.8</ele>
        <time>2011-05-26T10:52:51Z</time>
      </trkpt>
      <trkpt lat="47.79806" lon="-3.18418">
        <ele>116.7</ele>
        <time>2011-05-26T10:52:53Z</time>
      </trkpt>
      <trkpt lat="47.79804" lon="-3.18408">
        <ele>117.9</ele>
        <time>2011-05-26T10:52:55Z</time>
      </trkpt>
      <trkpt lat="47.79806" lon="-3.18399">
        <ele>116.6</ele>
        <time>2011-05-26T10:52:58Z</time>
      </trkpt>
      <trkpt lat="47.79801" lon="-3.18396">
        <ele>116.6</ele>
        <time>2011-05-26T10:53:01Z</time>
      </trkpt>
      <trkpt lat="47.79795" lon="-3.18396">
        <ele>116.8</ele>
        <time>2011-05-26T10:53:04Z</time>
      </trkpt>
      <trkpt lat="47.79787" lon="-3.184">
        <ele>117</ele>
        <time>2011-05-26T10:53:07Z</time>
      </trkpt>
      <trkpt lat="47.79781" lon="-3.18402">
        <ele>119.9</ele>
        <time>2011-05-26T10:53:08Z</time>
      </trkpt>
      <trkpt lat="47.79776" lon="-3.18403">
        <ele>121</ele>
        <time>2011-05-26T10:53:09Z</time>
      </trkpt>
      <trkpt lat="47.79771" lon="-3.18407">
        <ele>120.8</ele>
        <time>2011-05-26T10:53:10Z</time>
      </trkpt>
      <trkpt lat="47.79765" lon="-3.1841">
        <ele>121.7</ele>
        <time>2011-05-26T10:53:11Z</time>
      </trkpt>
      <trkpt lat="47.79759" lon="-3.18411">
        <ele>121.6</ele>
        <time>2011-05-26T10:53:12Z</time>
      </trkpt>
      <trkpt lat="47.79753" lon="-3.18414">
        <ele>121.1</ele>
        <time>2011-05-26T10:53:13Z</time>
      </trkpt>
      <trkpt lat="47.79748" lon="-3.18417">
        <ele>120.5</ele>
        <time>2011-05-26T10:53:14Z</time>
      </trkpt>
      <trkpt lat="47.79741" lon="-3.1842">
        <ele>119</ele>
        <time>2011-05-26T10:53:16Z</time>
      </trkpt>
      <trkpt lat="47.79737" lon="-3.18423">
        <ele>119.2</ele>
        <time>2011-05-26T10:53:17Z</time>
      </trkpt>
      <trkpt lat="47.79732" lon="-3.18422">
        <ele>118</ele>
        <time>2011-05-26T10:53:18Z</time>
      </trkpt>
      <trkpt lat="47.7973" lon="-3.18415">
        <ele>118.6</ele>
        <time>2011-05-26T10:53:20Z</time>
      </trkpt>
      <trkpt lat="47.79728" lon="-3.18407">
        <ele>119.7</ele>
        <time>2011-05-26T10:53:22Z</time>
      </trkpt>
      <trkpt lat="47.79727" lon="-3.18396">
        <ele>120</ele>
        <time>2011-05-26T10:53:24Z</time>
      </trkpt>
      <trkpt lat="47.79727" lon="-3.18385">
        <ele>121.8</ele>
        <time>2011-05-26T10:53:26Z</time>
      </trkpt>
      <trkpt lat="47.79723" lon="-3.18372">
        <ele>121</ele>
        <time>2011-05-26T10:53:28Z</time>
      </trkpt>
      <trkpt lat="47.79719" lon="-3.18365">
        <ele>122.5</ele>
        <time>2011-05-26T10:53:30Z</time>
      </trkpt>
      <trkpt lat="47.79717" lon="-3.18356">
        <ele>121.9</ele>
        <time>2011-05-26T10:53:32Z</time>
      </trkpt>
      <trkpt lat="47.79714" lon="-3.1835">
        <ele>120</ele>
        <time>2011-05-26T10:53:33Z</time>
      </trkpt>
      <trkpt lat="47.79712" lon="-3.18337">
        <ele>117.3</ele>
        <time>2011-05-26T10:53:35Z</time>
      </trkpt>
      <trkpt lat="47.7971" lon="-3.18329">
        <ele>117.4</ele>
        <time>2011-05-26T10:53:36Z</time>
      </trkpt>
      <trkpt lat="47.79707" lon="-3.18318">
        <ele>117.8</ele>
        <time>2011-05-26T10:53:38Z</time>
      </trkpt>
      <trkpt lat="47.79704" lon="-3.18307">
        <ele>117</ele>
        <time>2011-05-26T10:53:40Z</time>
      </trkpt>
      <trkpt lat="47.79703" lon="-3.18299">
        <ele>121.8</ele>
        <time>2011-05-26T10:53:42Z</time>
      </trkpt>
      <trkpt lat="47.79703" lon="-3.18291">
        <ele>122.8</ele>
        <time>2011-05-26T10:53:44Z</time>
      </trkpt>
      <trkpt lat="47.79698" lon="-3.18294">
        <ele>120.6</ele>
        <time>2011-05-26T10:53:45Z</time>
      </trkpt>
      <trkpt lat="47.79691" lon="-3.18298">
        <ele>120</ele>
        <time>2011-05-26T10:53:47Z</time>
      </trkpt>
      <trkpt lat="47.79682" lon="-3.18296">
        <ele>119.3</ele>
        <time>2011-05-26T10:53:49Z</time>
      </trkpt>
      <trkpt lat="47.79679" lon="-3.18286">
        <ele>116</ele>
        <time>2011-05-26T10:53:51Z</time>
      </trkpt>
      <trkpt lat="47.79675" lon="-3.18281">
        <ele>113.7</ele>
        <time>2011-05-26T10:53:52Z</time>
      </trkpt>
      <trkpt lat="47.7967" lon="-3.18272">
        <ele>112.6</ele>
        <time>2011-05-26T10:53:54Z</time>
      </trkpt>
      <trkpt lat="47.79669" lon="-3.18265">
        <ele>113.3</ele>
        <time>2011-05-26T10:53:55Z</time>
      </trkpt>
      <trkpt lat="47.79665" lon="-3.18259">
        <ele>113.7</ele>
        <time>2011-05-26T10:53:56Z</time>
      </trkpt>
      <trkpt lat="47.79662" lon="-3.18252">
        <ele>114.1</ele>
        <time>2011-05-26T10:53:57Z</time>
      </trkpt>
      <trkpt lat="47.79658" lon="-3.18244">
        <ele>113.8</ele>
        <time>2011-05-26T10:53:58Z</time>
      </trkpt>
      <trkpt lat="47.79648" lon="-3.18239">
        <ele>115</ele>
        <time>2011-05-26T10:54:00Z</time>
      </trkpt>
      <trkpt lat="47.79639" lon="-3.18236">
        <ele>115.4</ele>
        <time>2011-05-26T10:54:02Z</time>
      </trkpt>
      <trkpt lat="47.79632" lon="-3.18233">
        <ele>116.2</ele>
        <time>2011-05-26T10:54:04Z</time>
      </trkpt>
      <trkpt lat="47.79626" lon="-3.18228">
        <ele>115.7</ele>
        <time>2011-05-26T10:54:05Z</time>
      </trkpt>
      <trkpt lat="47.79614" lon="-3.18224">
        <ele>115.5</ele>
        <time>2011-05-26T10:54:07Z</time>
      </trkpt>
      <trkpt lat="47.79611" lon="-3.18217">
        <ele>117.6</ele>
        <time>2011-05-26T10:54:09Z</time>
      </trkpt>
      <trkpt lat="47.79607" lon="-3.18214">
        <ele>117.1</ele>
        <time>2011-05-26T10:54:10Z</time>
      </trkpt>
      <trkpt lat="47.79601" lon="-3.1821">
        <ele>118.3</ele>
        <time>2011-05-26T10:54:12Z</time>
      </trkpt>
      <trkpt lat="47.79594" lon="-3.18204">
        <ele>118.4</ele>
        <time>2011-05-26T10:54:14Z</time>
      </trkpt>
      <trkpt lat="47.79591" lon="-3.18196">
        <ele>117.3</ele>
        <time>2011-05-26T10:54:16Z</time>
      </trkpt>
      <trkpt lat="47.79586" lon="-3.1819">
        <ele>117.7</ele>
        <time>2011-05-26T10:54:18Z</time>
      </trkpt>
      <trkpt lat="47.7958" lon="-3.18185">
        <ele>118.3</ele>
        <time>2011-05-26T10:54:20Z</time>
      </trkpt>
      <trkpt lat="47.79577" lon="-3.1819">
        <ele>118.1</ele>
        <time>2011-05-26T10:54:21Z</time>
      </trkpt>
      <trkpt lat="47.79571" lon="-3.18194">
        <ele>117.7</ele>
        <time>2011-05-26T10:54:23Z</time>
      </trkpt>
      <trkpt lat="47.79564" lon="-3.18191">
        <ele>117.7</ele>
        <time>2011-05-26T10:54:25Z</time>
      </trkpt>
      <trkpt lat="47.7956" lon="-3.18187">
        <ele>117.2</ele>
        <time>2011-05-26T10:54:27Z</time>
      </trkpt>
      <trkpt lat="47.79551" lon="-3.18186">
        <ele>113.5</ele>
        <time>2011-05-26T10:54:28Z</time>
      </trkpt>
      <trkpt lat="47.79545" lon="-3.18187">
        <ele>110.9</ele>
        <time>2011-05-26T10:54:29Z</time>
      </trkpt>
      <trkpt lat="47.7954" lon="-3.18186">
        <ele>109.8</ele>
        <time>2011-05-26T10:54:30Z</time>
      </trkpt>
      <trkpt lat="47.79534" lon="-3.18185">
        <ele>108.4</ele>
        <time>2011-05-26T10:54:31Z</time>
      </trkpt>
      <trkpt lat="47.79529" lon="-3.18182">
        <ele>107.6</ele>
        <time>2011-05-26T10:54:32Z</time>
      </trkpt>
      <trkpt lat="47.79523" lon="-3.18182">
        <ele>105</ele>
        <time>2011-05-26T10:54:33Z</time>
      </trkpt>
      <trkpt lat="47.79518" lon="-3.1818">
        <ele>104.6</ele>
        <time>2011-05-26T10:54:34Z</time>
      </trkpt>
      <trkpt lat="47.79514" lon="-3.18181">
        <ele>102.4</ele>
        <time>2011-05-26T10:54:35Z</time>
      </trkpt>
      <trkpt lat="47.79509" lon="-3.18182">
        <ele>100.1</ele>
        <time>2011-05-26T10:54:36Z</time>
      </trkpt>
      <trkpt lat="47.79502" lon="-3.18183">
        <ele>96.9</ele>
        <time>2011-05-26T10:54:37Z</time>
      </trkpt>
      <trkpt lat="47.79497" lon="-3.18184">
        <ele>95</ele>
        <time>2011-05-26T10:54:38Z</time>
      </trkpt>
      <trkpt lat="47.79493" lon="-3.18186">
        <ele>95.7</ele>
        <time>2011-05-26T10:54:40Z</time>
      </trkpt>
      <trkpt lat="47.79487" lon="-3.18184">
        <ele>96.4</ele>
        <time>2011-05-26T10:54:41Z</time>
      </trkpt>
      <trkpt lat="47.79477" lon="-3.1819">
        <ele>98.4</ele>
        <time>2011-05-26T10:54:43Z</time>
      </trkpt>
      <trkpt lat="47.79471" lon="-3.18194">
        <ele>99.5</ele>
        <time>2011-05-26T10:54:44Z</time>
      </trkpt>
      <trkpt lat="47.79466" lon="-3.18198">
        <ele>99.5</ele>
        <time>2011-05-26T10:54:45Z</time>
      </trkpt>
      <trkpt lat="47.79461" lon="-3.18204">
        <ele>98.9</ele>
        <time>2011-05-26T10:54:46Z</time>
      </trkpt>
      <trkpt lat="47.79456" lon="-3.18207">
        <ele>98.9</ele>
        <time>2011-05-26T10:54:47Z</time>
      </trkpt>
      <trkpt lat="47.79447" lon="-3.18206">
        <ele>99.5</ele>
        <time>2011-05-26T10:54:48Z</time>
      </trkpt>
      <trkpt lat="47.79435" lon="-3.1821">
        <ele>100.5</ele>
        <time>2011-05-26T10:54:49Z</time>
      </trkpt>
      <trkpt lat="47.79429" lon="-3.18214">
        <ele>99.8</ele>
        <time>2011-05-26T10:54:51Z</time>
      </trkpt>
      <trkpt lat="47.79423" lon="-3.18217">
        <ele>100.2</ele>
        <time>2011-05-26T10:54:52Z</time>
      </trkpt>
      <trkpt lat="47.79417" lon="-3.1822">
        <ele>100.4</ele>
        <time>2011-05-26T10:54:53Z</time>
      </trkpt>
      <trkpt lat="47.79411" lon="-3.18226">
        <ele>100.5</ele>
        <time>2011-05-26T10:54:55Z</time>
      </trkpt>
      <trkpt lat="47.794" lon="-3.18225">
        <ele>100.9</ele>
        <time>2011-05-26T10:54:57Z</time>
      </trkpt>
      <trkpt lat="47.79394" lon="-3.18226">
        <ele>104</ele>
        <time>2011-05-26T10:54:58Z</time>
      </trkpt>
      <trkpt lat="47.79389" lon="-3.18231">
        <ele>103.6</ele>
        <time>2011-05-26T10:54:59Z</time>
      </trkpt>
      <trkpt lat="47.79385" lon="-3.18233">
        <ele>104.3</ele>
        <time>2011-05-26T10:55:00Z</time>
      </trkpt>
      <trkpt lat="47.79379" lon="-3.18236">
        <ele>103.8</ele>
        <time>2011-05-26T10:55:01Z</time>
      </trkpt>
      <trkpt lat="47.79374" lon="-3.1825">
        <ele>104.1</ele>
        <time>2011-05-26T10:55:03Z</time>
      </trkpt>
      <trkpt lat="47.79374" lon="-3.18257">
        <ele>103.2</ele>
        <time>2011-05-26T10:55:04Z</time>
      </trkpt>
      <trkpt lat="47.79387" lon="-3.18268">
        <ele>102</ele>
        <time>2011-05-26T10:55:05Z</time>
      </trkpt>
      <trkpt lat="47.79391" lon="-3.18278">
        <ele>103.2</ele>
        <time>2011-05-26T10:55:06Z</time>
      </trkpt>
      <trkpt lat="47.79394" lon="-3.18285">
        <ele>102.6</ele>
        <time>2011-05-26T10:55:07Z</time>
      </trkpt>
      <trkpt lat="47.79402" lon="-3.18292">
        <ele>101.7</ele>
        <time>2011-05-26T10:55:09Z</time>
      </trkpt>
      <trkpt lat="47.79412" lon="-3.18289">
        <ele>98</ele>
        <time>2011-05-26T10:55:10Z</time>
      </trkpt>
      <trkpt lat="47.79416" lon="-3.1829">
        <ele>98.4</ele>
        <time>2011-05-26T10:55:11Z</time>
      </trkpt>
      <trkpt lat="47.79422" lon="-3.18293">
        <ele>96.3</ele>
        <time>2011-05-26T10:55:12Z</time>
      </trkpt>
      <trkpt lat="47.79436" lon="-3.18291">
        <ele>97.4</ele>
        <time>2011-05-26T10:55:14Z</time>
      </trkpt>
      <trkpt lat="47.79443" lon="-3.18292">
        <ele>97.6</ele>
        <time>2011-05-26T10:55:15Z</time>
      </trkpt>
      <trkpt lat="47.79448" lon="-3.18293">
        <ele>99.1</ele>
        <time>2011-05-26T10:55:16Z</time>
      </trkpt>
      <trkpt lat="47.79452" lon="-3.18299">
        <ele>99.7</ele>
        <time>2011-05-26T10:55:17Z</time>
      </trkpt>
      <trkpt lat="47.79456" lon="-3.18303">
        <ele>99.7</ele>
        <time>2011-05-26T10:55:18Z</time>
      </trkpt>
      <trkpt lat="47.79461" lon="-3.18309">
        <ele>98.1</ele>
        <time>2011-05-26T10:55:20Z</time>
      </trkpt>
      <trkpt lat="47.79467" lon="-3.18312">
        <ele>100.3</ele>
        <time>2011-05-26T10:55:22Z</time>
      </trkpt>
      <trkpt lat="47.79473" lon="-3.18316">
        <ele>96.8</ele>
        <time>2011-05-26T10:55:23Z</time>
      </trkpt>
      <trkpt lat="47.79476" lon="-3.18322">
        <ele>96.7</ele>
        <time>2011-05-26T10:55:24Z</time>
      </trkpt>
      <trkpt lat="47.79482" lon="-3.18328">
        <ele>95.5</ele>
        <time>2011-05-26T10:55:26Z</time>
      </trkpt>
      <trkpt lat="47.79486" lon="-3.18331">
        <ele>94</ele>
        <time>2011-05-26T10:55:29Z</time>
      </trkpt>
      <trkpt lat="47.7949" lon="-3.18334">
        <ele>92.6</ele>
        <time>2011-05-26T10:55:32Z</time>
      </trkpt>
      <trkpt lat="47.79496" lon="-3.18338">
        <ele>93.2</ele>
        <time>2011-05-26T10:55:35Z</time>
      </trkpt>
      <trkpt lat="47.79501" lon="-3.18339">
        <ele>91.1</ele>
        <time>2011-05-26T10:55:37Z</time>
      </trkpt>
      <trkpt lat="47.79506" lon="-3.18344">
        <ele>89.8</ele>
        <time>2011-05-26T10:55:39Z</time>
      </trkpt>
      <trkpt lat="47.79509" lon="-3.1835">
        <ele>92.9</ele>
        <time>2011-05-26T10:55:41Z</time>
      </trkpt>
      <trkpt lat="47.79514" lon="-3.18351">
        <ele>90.9</ele>
        <time>2011-05-26T10:55:43Z</time>
      </trkpt>
      <trkpt lat="47.79518" lon="-3.18354">
        <ele>91.1</ele>
        <time>2011-05-26T10:55:45Z</time>
      </trkpt>
      <trkpt lat="47.79524" lon="-3.18357">
        <ele>93.3</ele>
        <time>2011-05-26T10:55:47Z</time>
      </trkpt>
      <trkpt lat="47.79528" lon="-3.18359">
        <ele>92.6</ele>
        <time>2011-05-26T10:55:49Z</time>
      </trkpt>
      <trkpt lat="47.79534" lon="-3.18362">
        <ele>93</ele>
        <time>2011-05-26T10:55:51Z</time>
      </trkpt>
      <trkpt lat="47.79541" lon="-3.18362">
        <ele>92.8</ele>
        <time>2011-05-26T10:55:53Z</time>
      </trkpt>
      <trkpt lat="47.79546" lon="-3.18369">
        <ele>95.3</ele>
        <time>2011-05-26T10:55:55Z</time>
      </trkpt>
      <trkpt lat="47.79553" lon="-3.18372">
        <ele>92.8</ele>
        <time>2011-05-26T10:55:57Z</time>
      </trkpt>
      <trkpt lat="47.79558" lon="-3.18373">
        <ele>91.5</ele>
        <time>2011-05-26T10:55:58Z</time>
      </trkpt>
      <trkpt lat="47.79565" lon="-3.18378">
        <ele>91.9</ele>
        <time>2011-05-26T10:56:00Z</time>
      </trkpt>
      <trkpt lat="47.79572" lon="-3.18383">
        <ele>92.4</ele>
        <time>2011-05-26T10:56:02Z</time>
      </trkpt>
      <trkpt lat="47.79578" lon="-3.18388">
        <ele>92.8</ele>
        <time>2011-05-26T10:56:04Z</time>
      </trkpt>
      <trkpt lat="47.79584" lon="-3.18392">
        <ele>93</ele>
        <time>2011-05-26T10:56:06Z</time>
      </trkpt>
      <trkpt lat="47.79589" lon="-3.18397">
        <ele>91.7</ele>
        <time>2011-05-26T10:56:08Z</time>
      </trkpt>
      <trkpt lat="47.79596" lon="-3.18402">
        <ele>91.6</ele>
        <time>2011-05-26T10:56:10Z</time>
      </trkpt>
      <trkpt lat="47.79603" lon="-3.18407">
        <ele>93.2</ele>
        <time>2011-05-26T10:56:12Z</time>
      </trkpt>
      <trkpt lat="47.79609" lon="-3.18412">
        <ele>93.3</ele>
        <time>2011-05-26T10:56:14Z</time>
      </trkpt>
      <trkpt lat="47.79616" lon="-3.18419">
        <ele>94.7</ele>
        <time>2011-05-26T10:56:16Z</time>
      </trkpt>
      <trkpt lat="47.79622" lon="-3.18428">
        <ele>95</ele>
        <time>2011-05-26T10:56:18Z</time>
      </trkpt>
      <trkpt lat="47.79627" lon="-3.18439">
        <ele>94.2</ele>
        <time>2011-05-26T10:56:20Z</time>
      </trkpt>
      <trkpt lat="47.79629" lon="-3.18446">
        <ele>93.8</ele>
        <time>2011-05-26T10:56:21Z</time>
      </trkpt>
      <trkpt lat="47.7963" lon="-3.18453">
        <ele>93.3</ele>
        <time>2011-05-26T10:56:22Z</time>
      </trkpt>
      <trkpt lat="47.79632" lon="-3.1846">
        <ele>93</ele>
        <time>2011-05-26T10:56:23Z</time>
      </trkpt>
      <trkpt lat="47.79634" lon="-3.18468">
        <ele>92.5</ele>
        <time>2011-05-26T10:56:24Z</time>
      </trkpt>
      <trkpt lat="47.79636" lon="-3.18475">
        <ele>92.6</ele>
        <time>2011-05-26T10:56:25Z</time>
      </trkpt>
      <trkpt lat="47.79638" lon="-3.18482">
        <ele>92.5</ele>
        <time>2011-05-26T10:56:26Z</time>
      </trkpt>
      <trkpt lat="47.7964" lon="-3.18489">
        <ele>92.7</ele>
        <time>2011-05-26T10:56:27Z</time>
      </trkpt>
      <trkpt lat="47.79642" lon="-3.18496">
        <ele>93</ele>
        <time>2011-05-26T10:56:28Z</time>
      </trkpt>
      <trkpt lat="47.79644" lon="-3.18502">
        <ele>92.6</ele>
        <time>2011-05-26T10:56:29Z</time>
      </trkpt>
      <trkpt lat="47.79645" lon="-3.1851">
        <ele>92.9</ele>
        <time>2011-05-26T10:56:30Z</time>
      </trkpt>
      <trkpt lat="47.79647" lon="-3.18516">
        <ele>93.3</ele>
        <time>2011-05-26T10:56:31Z</time>
      </trkpt>
      <trkpt lat="47.79649" lon="-3.18523">
        <ele>93.4</ele>
        <time>2011-05-26T10:56:32Z</time>
      </trkpt>
      <trkpt lat="47.7965" lon="-3.1853">
        <ele>93.9</ele>
        <time>2011-05-26T10:56:33Z</time>
      </trkpt>
      <trkpt lat="47.79651" lon="-3.18537">
        <ele>93.9</ele>
        <time>2011-05-26T10:56:34Z</time>
      </trkpt>
      <trkpt lat="47.79654" lon="-3.18545">
        <ele>93.6</ele>
        <time>2011-05-26T10:56:35Z</time>
      </trkpt>
      <trkpt lat="47.79657" lon="-3.18556">
        <ele>92.8</ele>
        <time>2011-05-26T10:56:37Z</time>
      </trkpt>
      <trkpt lat="47.79659" lon="-3.18566">
        <ele>92.8</ele>
        <time>2011-05-26T10:56:39Z</time>
      </trkpt>
      <trkpt lat="47.79662" lon="-3.18577">
        <ele>92.1</ele>
        <time>2011-05-26T10:56:41Z</time>
      </trkpt>
      <trkpt lat="47.79664" lon="-3.18588">
        <ele>89.3</ele>
        <time>2011-05-26T10:56:43Z</time>
      </trkpt>
      <trkpt lat="47.79667" lon="-3.18599">
        <ele>89</ele>
        <time>2011-05-26T10:56:45Z</time>
      </trkpt>
      <trkpt lat="47.79668" lon="-3.1861">
        <ele>89.3</ele>
        <time>2011-05-26T10:56:47Z</time>
      </trkpt>
      <trkpt lat="47.79668" lon="-3.18618">
        <ele>89.4</ele>
        <time>2011-05-26T10:56:49Z</time>
      </trkpt>
      <trkpt lat="47.79668" lon="-3.18627">
        <ele>89.9</ele>
        <time>2011-05-26T10:56:51Z</time>
      </trkpt>
      <trkpt lat="47.79668" lon="-3.18634">
        <ele>89.7</ele>
        <time>2011-05-26T10:56:52Z</time>
      </trkpt>
      <trkpt lat="47.79668" lon="-3.18645">
        <ele>90.7</ele>
        <time>2011-05-26T10:56:54Z</time>
      </trkpt>
      <trkpt lat="47.79669" lon="-3.18652">
        <ele>90.3</ele>
        <time>2011-05-26T10:56:56Z</time>
      </trkpt>
      <trkpt lat="47.79669" lon="-3.18662">
        <ele>88.8</ele>
        <time>2011-05-26T10:56:59Z</time>
      </trkpt>
      <trkpt lat="47.79668" lon="-3.18672">
        <ele>88.8</ele>
        <time>2011-05-26T10:57:01Z</time>
      </trkpt>
      <trkpt lat="47.79668" lon="-3.18682">
        <ele>95.8</ele>
        <time>2011-05-26T10:57:04Z</time>
      </trkpt>
      <trkpt lat="47.79668" lon="-3.18694">
        <ele>97.4</ele>
        <time>2011-05-26T10:57:06Z</time>
      </trkpt>
      <trkpt lat="47.79666" lon="-3.18704">
        <ele>98.2</ele>
        <time>2011-05-26T10:57:08Z</time>
      </trkpt>
      <trkpt lat="47.79665" lon="-3.18715">
        <ele>101.7</ele>
        <time>2011-05-26T10:57:10Z</time>
      </trkpt>
      <trkpt lat="47.79665" lon="-3.18724">
        <ele>103.2</ele>
        <time>2011-05-26T10:57:12Z</time>
      </trkpt>
      <trkpt lat="47.79665" lon="-3.18737">
        <ele>100.8</ele>
        <time>2011-05-26T10:57:14Z</time>
      </trkpt>
      <trkpt lat="47.79665" lon="-3.18749">
        <ele>99.7</ele>
        <time>2011-05-26T10:57:16Z</time>
      </trkpt>
      <trkpt lat="47.79665" lon="-3.18761">
        <ele>100.4</ele>
        <time>2011-05-26T10:57:18Z</time>
      </trkpt>
      <trkpt lat="47.79663" lon="-3.18772">
        <ele>99.9</ele>
        <time>2011-05-26T10:57:20Z</time>
      </trkpt>
      <trkpt lat="47.79663" lon="-3.18779">
        <ele>98.8</ele>
        <time>2011-05-26T10:57:21Z</time>
      </trkpt>
      <trkpt lat="47.79661" lon="-3.18792">
        <ele>98.1</ele>
        <time>2011-05-26T10:57:23Z</time>
      </trkpt>
      <trkpt lat="47.7966" lon="-3.18804">
        <ele>99.8</ele>
        <time>2011-05-26T10:57:25Z</time>
      </trkpt>
      <trkpt lat="47.79657" lon="-3.18813">
        <ele>100.8</ele>
        <time>2011-05-26T10:57:27Z</time>
      </trkpt>
      <trkpt lat="47.79653" lon="-3.18817">
        <ele>100.4</ele>
        <time>2011-05-26T10:57:29Z</time>
      </trkpt>
      <trkpt lat="47.79648" lon="-3.18816">
        <ele>99.6</ele>
        <time>2011-05-26T10:57:31Z</time>
      </trkpt>
      <trkpt lat="47.79642" lon="-3.18816">
        <ele>99</ele>
        <time>2011-05-26T10:57:32Z</time>
      </trkpt>
      <trkpt lat="47.79634" lon="-3.18817">
        <ele>97.8</ele>
        <time>2011-05-26T10:57:34Z</time>
      </trkpt>
      <trkpt lat="47.79623" lon="-3.18822">
        <ele>93.1</ele>
        <time>2011-05-26T10:57:36Z</time>
      </trkpt>
      <trkpt lat="47.79618" lon="-3.18825">
        <ele>93.6</ele>
        <time>2011-05-26T10:57:37Z</time>
      </trkpt>
      <trkpt lat="47.79613" lon="-3.18828">
        <ele>92</ele>
        <time>2011-05-26T10:57:38Z</time>
      </trkpt>
      <trkpt lat="47.79608" lon="-3.18829">
        <ele>90.8</ele>
        <time>2011-05-26T10:57:39Z</time>
      </trkpt>
      <trkpt lat="47.79603" lon="-3.1883">
        <ele>90.2</ele>
        <time>2011-05-26T10:57:40Z</time>
      </trkpt>
      <trkpt lat="47.79598" lon="-3.18832">
        <ele>90.4</ele>
        <time>2011-05-26T10:57:41Z</time>
      </trkpt>
      <trkpt lat="47.79589" lon="-3.18837">
        <ele>90</ele>
        <time>2011-05-26T10:57:43Z</time>
      </trkpt>
      <trkpt lat="47.79584" lon="-3.18839">
        <ele>89.8</ele>
        <time>2011-05-26T10:57:44Z</time>
      </trkpt>
      <trkpt lat="47.7958" lon="-3.18841">
        <ele>89.6</ele>
        <time>2011-05-26T10:57:45Z</time>
      </trkpt>
      <trkpt lat="47.79575" lon="-3.18843">
        <ele>88.9</ele>
        <time>2011-05-26T10:57:46Z</time>
      </trkpt>
      <trkpt lat="47.79568" lon="-3.18846">
        <ele>88.9</ele>
        <time>2011-05-26T10:57:48Z</time>
      </trkpt>
      <trkpt lat="47.79563" lon="-3.18849">
        <ele>88.1</ele>
        <time>2011-05-26T10:57:51Z</time>
      </trkpt>
      <trkpt lat="47.79557" lon="-3.18848">
        <ele>81.6</ele>
        <time>2011-05-26T10:57:54Z</time>
      </trkpt>
      <trkpt lat="47.79552" lon="-3.18841">
        <ele>79.5</ele>
        <time>2011-05-26T10:57:57Z</time>
      </trkpt>
      <trkpt lat="47.79549" lon="-3.18834">
        <ele>79.6</ele>
        <time>2011-05-26T10:57:59Z</time>
      </trkpt>
      <trkpt lat="47.79543" lon="-3.18828">
        <ele>80.2</ele>
        <time>2011-05-26T10:58:01Z</time>
      </trkpt>
      <trkpt lat="47.79535" lon="-3.1882">
        <ele>80</ele>
        <time>2011-05-26T10:58:03Z</time>
      </trkpt>
      <trkpt lat="47.79528" lon="-3.18818">
        <ele>85.9</ele>
        <time>2011-05-26T10:58:05Z</time>
      </trkpt>
      <trkpt lat="47.79524" lon="-3.18815">
        <ele>87.5</ele>
        <time>2011-05-26T10:58:06Z</time>
      </trkpt>
      <trkpt lat="47.79517" lon="-3.1881">
        <ele>88.6</ele>
        <time>2011-05-26T10:58:08Z</time>
      </trkpt>
      <trkpt lat="47.79513" lon="-3.18804">
        <ele>88.8</ele>
        <time>2011-05-26T10:58:09Z</time>
      </trkpt>
      <trkpt lat="47.79508" lon="-3.18802">
        <ele>88.9</ele>
        <time>2011-05-26T10:58:10Z</time>
      </trkpt>
      <trkpt lat="47.79503" lon="-3.188">
        <ele>88.8</ele>
        <time>2011-05-26T10:58:11Z</time>
      </trkpt>
      <trkpt lat="47.79497" lon="-3.18799">
        <ele>88.7</ele>
        <time>2011-05-26T10:58:13Z</time>
      </trkpt>
      <trkpt lat="47.79491" lon="-3.18798">
        <ele>90.4</ele>
        <time>2011-05-26T10:58:16Z</time>
      </trkpt>
      <trkpt lat="47.79485" lon="-3.18796">
        <ele>91.4</ele>
        <time>2011-05-26T10:58:18Z</time>
      </trkpt>
      <trkpt lat="47.7948" lon="-3.18794">
        <ele>91.3</ele>
        <time>2011-05-26T10:58:20Z</time>
      </trkpt>
      <trkpt lat="47.79472" lon="-3.18789">
        <ele>91</ele>
        <time>2011-05-26T10:58:22Z</time>
      </trkpt>
      <trkpt lat="47.79468" lon="-3.18784">
        <ele>93.5</ele>
        <time>2011-05-26T10:58:24Z</time>
      </trkpt>
      <trkpt lat="47.79459" lon="-3.1878">
        <ele>94.9</ele>
        <time>2011-05-26T10:58:26Z</time>
      </trkpt>
      <trkpt lat="47.79453" lon="-3.18775">
        <ele>95.8</ele>
        <time>2011-05-26T10:58:28Z</time>
      </trkpt>
      <trkpt lat="47.79445" lon="-3.18771">
        <ele>98.2</ele>
        <time>2011-05-26T10:58:30Z</time>
      </trkpt>
      <trkpt lat="47.79434" lon="-3.18765">
        <ele>98.4</ele>
        <time>2011-05-26T10:58:32Z</time>
      </trkpt>
      <trkpt lat="47.79429" lon="-3.18765">
        <ele>98</ele>
        <time>2011-05-26T10:58:33Z</time>
      </trkpt>
      <trkpt lat="47.79426" lon="-3.18772">
        <ele>92.9</ele>
        <time>2011-05-26T10:58:34Z</time>
      </trkpt>
      <trkpt lat="47.79419" lon="-3.18776">
        <ele>91.3</ele>
        <time>2011-05-26T10:58:36Z</time>
      </trkpt>
      <trkpt lat="47.79413" lon="-3.18779">
        <ele>91.7</ele>
        <time>2011-05-26T10:58:38Z</time>
      </trkpt>
      <trkpt lat="47.79407" lon="-3.18783">
        <ele>90.8</ele>
        <time>2011-05-26T10:58:40Z</time>
      </trkpt>
      <trkpt lat="47.79399" lon="-3.18785">
        <ele>92.1</ele>
        <time>2011-05-26T10:58:42Z</time>
      </trkpt>
      <trkpt lat="47.79394" lon="-3.18777">
        <ele>92.7</ele>
        <time>2011-05-26T10:58:43Z</time>
      </trkpt>
      <trkpt lat="47.79389" lon="-3.18773">
        <ele>92.3</ele>
        <time>2011-05-26T10:58:44Z</time>
      </trkpt>
      <trkpt lat="47.79382" lon="-3.1877">
        <ele>87.2</ele>
        <time>2011-05-26T10:58:46Z</time>
      </trkpt>
      <trkpt lat="47.79376" lon="-3.18771">
        <ele>84.2</ele>
        <time>2011-05-26T10:58:48Z</time>
      </trkpt>
      <trkpt lat="47.79371" lon="-3.18778">
        <ele>81.7</ele>
        <time>2011-05-26T10:58:51Z</time>
      </trkpt>
      <trkpt lat="47.79367" lon="-3.18781">
        <ele>83.6</ele>
        <time>2011-05-26T10:58:53Z</time>
      </trkpt>
      <trkpt lat="47.7936" lon="-3.18786">
        <ele>83.4</ele>
        <time>2011-05-26T10:58:56Z</time>
      </trkpt>
      <trkpt lat="47.79353" lon="-3.18792">
        <ele>81.3</ele>
        <time>2011-05-26T10:59:02Z</time>
      </trkpt>
      <trkpt lat="47.79347" lon="-3.18793">
        <ele>79.9</ele>
        <time>2011-05-26T10:59:04Z</time>
      </trkpt>
      <trkpt lat="47.7934" lon="-3.18797">
        <ele>79.4</ele>
        <time>2011-05-26T10:59:06Z</time>
      </trkpt>
      <trkpt lat="47.79335" lon="-3.18799">
        <ele>79.5</ele>
        <time>2011-05-26T10:59:08Z</time>
      </trkpt>
      <trkpt lat="47.7933" lon="-3.18799">
        <ele>80.2</ele>
        <time>2011-05-26T10:59:09Z</time>
      </trkpt>
      <trkpt lat="47.79323" lon="-3.188">
        <ele>82.2</ele>
        <time>2011-05-26T10:59:10Z</time>
      </trkpt>
      <trkpt lat="47.79317" lon="-3.18802">
        <ele>82.4</ele>
        <time>2011-05-26T10:59:11Z</time>
      </trkpt>
      <trkpt lat="47.79311" lon="-3.18806">
        <ele>80.6</ele>
        <time>2011-05-26T10:59:13Z</time>
      </trkpt>
      <trkpt lat="47.79308" lon="-3.18814">
        <ele>79.5</ele>
        <time>2011-05-26T10:59:17Z</time>
      </trkpt>
      <trkpt lat="47.79307" lon="-3.18821">
        <ele>78.2</ele>
        <time>2011-05-26T10:59:19Z</time>
      </trkpt>
      <trkpt lat="47.79306" lon="-3.18827">
        <ele>80.3</ele>
        <time>2011-05-26T10:59:24Z</time>
      </trkpt>
      <trkpt lat="47.79302" lon="-3.18832">
        <ele>87.4</ele>
        <time>2011-05-26T10:59:29Z</time>
      </trkpt>
      <trkpt lat="47.79299" lon="-3.18839">
        <ele>84.2</ele>
        <time>2011-05-26T10:59:32Z</time>
      </trkpt>
      <trkpt lat="47.79297" lon="-3.18846">
        <ele>83.8</ele>
        <time>2011-05-26T10:59:35Z</time>
      </trkpt>
      <trkpt lat="47.79294" lon="-3.18852">
        <ele>82</ele>
        <time>2011-05-26T10:59:38Z</time>
      </trkpt>
      <trkpt lat="47.79286" lon="-3.18856">
        <ele>81.9</ele>
        <time>2011-05-26T10:59:40Z</time>
      </trkpt>
      <trkpt lat="47.79281" lon="-3.18857">
        <ele>82.6</ele>
        <time>2011-05-26T10:59:41Z</time>
      </trkpt>
      <trkpt lat="47.79274" lon="-3.1886">
        <ele>84.8</ele>
        <time>2011-05-26T10:59:43Z</time>
      </trkpt>
      <trkpt lat="47.79268" lon="-3.18862">
        <ele>85.8</ele>
        <time>2011-05-26T10:59:45Z</time>
      </trkpt>
      <trkpt lat="47.79263" lon="-3.1886">
        <ele>86.7</ele>
        <time>2011-05-26T10:59:46Z</time>
      </trkpt>
      <trkpt lat="47.79257" lon="-3.1886">
        <ele>86.3</ele>
        <time>2011-05-26T10:59:47Z</time>
      </trkpt>
      <trkpt lat="47.79252" lon="-3.1886">
        <ele>86.2</ele>
        <time>2011-05-26T10:59:48Z</time>
      </trkpt>
      <trkpt lat="47.79247" lon="-3.1886">
        <ele>87.8</ele>
        <time>2011-05-26T10:59:49Z</time>
      </trkpt>
      <trkpt lat="47.79242" lon="-3.18858">
        <ele>88.2</ele>
        <time>2011-05-26T10:59:51Z</time>
      </trkpt>
      <trkpt lat="47.79236" lon="-3.18858">
        <ele>89.7</ele>
        <time>2011-05-26T10:59:53Z</time>
      </trkpt>
      <trkpt lat="47.79227" lon="-3.18858">
        <ele>90.1</ele>
        <time>2011-05-26T10:59:55Z</time>
      </trkpt>
      <trkpt lat="47.79222" lon="-3.18858">
        <ele>90.6</ele>
        <time>2011-05-26T10:59:56Z</time>
      </trkpt>
      <trkpt lat="47.79217" lon="-3.18862">
        <ele>83.1</ele>
        <time>2011-05-26T10:59:57Z</time>
      </trkpt>
      <trkpt lat="47.79212" lon="-3.18864">
        <ele>81.9</ele>
        <time>2011-05-26T10:59:58Z</time>
      </trkpt>
      <trkpt lat="47.79206" lon="-3.18859">
        <ele>84.8</ele>
        <time>2011-05-26T11:00:01Z</time>
      </trkpt>
      <trkpt lat="47.79202" lon="-3.18846">
        <ele>79</ele>
        <time>2011-05-26T11:00:04Z</time>
      </trkpt>
      <trkpt lat="47.79199" lon="-3.18838">
        <ele>77.2</ele>
        <time>2011-05-26T11:00:06Z</time>
      </trkpt>
      <trkpt lat="47.79193" lon="-3.18837">
        <ele>77.9</ele>
        <time>2011-05-26T11:00:08Z</time>
      </trkpt>
      <trkpt lat="47.79188" lon="-3.18838">
        <ele>80.1</ele>
        <time>2011-05-26T11:00:10Z</time>
      </trkpt>
      <trkpt lat="47.79183" lon="-3.18839">
        <ele>80.6</ele>
        <time>2011-05-26T11:00:12Z</time>
      </trkpt>
      <trkpt lat="47.79178" lon="-3.1884">
        <ele>82</ele>
        <time>2011-05-26T11:00:14Z</time>
      </trkpt>
      <trkpt lat="47.79173" lon="-3.18842">
        <ele>82.5</ele>
        <time>2011-05-26T11:00:16Z</time>
      </trkpt>
      <trkpt lat="47.79167" lon="-3.1884">
        <ele>84.1</ele>
        <time>2011-05-26T11:00:18Z</time>
      </trkpt>
      <trkpt lat="47.79162" lon="-3.18837">
        <ele>86.5</ele>
        <time>2011-05-26T11:00:20Z</time>
      </trkpt>
      <trkpt lat="47.79156" lon="-3.18832">
        <ele>90.8</ele>
        <time>2011-05-26T11:00:23Z</time>
      </trkpt>
      <trkpt lat="47.79153" lon="-3.18827">
        <ele>92.3</ele>
        <time>2011-05-26T11:02:05Z</time>
      </trkpt>
      <trkpt lat="47.79151" lon="-3.1882">
        <ele>93.5</ele>
        <time>2011-05-26T11:02:07Z</time>
      </trkpt>
      <trkpt lat="47.79147" lon="-3.18812">
        <ele>93.6</ele>
        <time>2011-05-26T11:02:10Z</time>
      </trkpt>
      <trkpt lat="47.79145" lon="-3.18802">
        <ele>92.9</ele>
        <time>2011-05-26T11:02:12Z</time>
      </trkpt>
      <trkpt lat="47.79142" lon="-3.18792">
        <ele>93.3</ele>
        <time>2011-05-26T11:02:14Z</time>
      </trkpt>
      <trkpt lat="47.79139" lon="-3.18783">
        <ele>93.2</ele>
        <time>2011-05-26T11:02:16Z</time>
      </trkpt>
      <trkpt lat="47.79138" lon="-3.18776">
        <ele>92.3</ele>
        <time>2011-05-26T11:02:17Z</time>
      </trkpt>
      <trkpt lat="47.79136" lon="-3.1877">
        <ele>91.7</ele>
        <time>2011-05-26T11:02:18Z</time>
      </trkpt>
      <trkpt lat="47.79135" lon="-3.18758">
        <ele>90.5</ele>
        <time>2011-05-26T11:02:20Z</time>
      </trkpt>
      <trkpt lat="47.79134" lon="-3.18751">
        <ele>90</ele>
        <time>2011-05-26T11:02:21Z</time>
      </trkpt>
      <trkpt lat="47.79133" lon="-3.18738">
        <ele>89.5</ele>
        <time>2011-05-26T11:02:23Z</time>
      </trkpt>
      <trkpt lat="47.79131" lon="-3.18726">
        <ele>89.6</ele>
        <time>2011-05-26T11:02:25Z</time>
      </trkpt>
      <trkpt lat="47.79131" lon="-3.18716">
        <ele>89.2</ele>
        <time>2011-05-26T11:02:26Z</time>
      </trkpt>
      <trkpt lat="47.79129" lon="-3.18708">
        <ele>89.4</ele>
        <time>2011-05-26T11:02:27Z</time>
      </trkpt>
      <trkpt lat="47.79132" lon="-3.187">
        <ele>89.3</ele>
        <time>2011-05-26T11:02:28Z</time>
      </trkpt>
      <trkpt lat="47.79134" lon="-3.18682">
        <ele>89</ele>
        <time>2011-05-26T11:02:30Z</time>
      </trkpt>
      <trkpt lat="47.79136" lon="-3.18672">
        <ele>88</ele>
        <time>2011-05-26T11:02:31Z</time>
      </trkpt>
      <trkpt lat="47.79138" lon="-3.18661">
        <ele>88.2</ele>
        <time>2011-05-26T11:02:32Z</time>
      </trkpt>
      <trkpt lat="47.7914" lon="-3.18646">
        <ele>86.4</ele>
        <time>2011-05-26T11:02:33Z</time>
      </trkpt>
      <trkpt lat="47.79143" lon="-3.18633">
        <ele>85.3</ele>
        <time>2011-05-26T11:02:34Z</time>
      </trkpt>
      <trkpt lat="47.79147" lon="-3.18619">
        <ele>84.8</ele>
        <time>2011-05-26T11:02:35Z</time>
      </trkpt>
      <trkpt lat="47.7915" lon="-3.18608">
        <ele>84.3</ele>
        <time>2011-05-26T11:02:36Z</time>
      </trkpt>
      <trkpt lat="47.79155" lon="-3.18595">
        <ele>84</ele>
        <time>2011-05-26T11:02:37Z</time>
      </trkpt>
      <trkpt lat="47.79158" lon="-3.18583">
        <ele>82.2</ele>
        <time>2011-05-26T11:02:38Z</time>
      </trkpt>
      <trkpt lat="47.79161" lon="-3.18571">
        <ele>79.8</ele>
        <time>2011-05-26T11:02:39Z</time>
      </trkpt>
      <trkpt lat="47.79164" lon="-3.1856">
        <ele>78.9</ele>
        <time>2011-05-26T11:02:40Z</time>
      </trkpt>
      <trkpt lat="47.79168" lon="-3.18548">
        <ele>78.4</ele>
        <time>2011-05-26T11:02:41Z</time>
      </trkpt>
      <trkpt lat="47.79172" lon="-3.18534">
        <ele>79.1</ele>
        <time>2011-05-26T11:02:42Z</time>
      </trkpt>
      <trkpt lat="47.79177" lon="-3.1852">
        <ele>78.1</ele>
        <time>2011-05-26T11:02:43Z</time>
      </trkpt>
      <trkpt lat="47.79182" lon="-3.18505">
        <ele>78</ele>
        <time>2011-05-26T11:02:44Z</time>
      </trkpt>
      <trkpt lat="47.79186" lon="-3.1849">
        <ele>76.9</ele>
        <time>2011-05-26T11:02:45Z</time>
      </trkpt>
      <trkpt lat="47.7919" lon="-3.18477">
        <ele>76.3</ele>
        <time>2011-05-26T11:02:46Z</time>
      </trkpt>
      <trkpt lat="47.79194" lon="-3.18464">
        <ele>76.4</ele>
        <time>2011-05-26T11:02:47Z</time>
      </trkpt>
      <trkpt lat="47.79199" lon="-3.18455">
        <ele>74.5</ele>
        <time>2011-05-26T11:02:48Z</time>
      </trkpt>
      <trkpt lat="47.79203" lon="-3.18444">
        <ele>73.5</ele>
        <time>2011-05-26T11:02:49Z</time>
      </trkpt>
      <trkpt lat="47.79206" lon="-3.18432">
        <ele>73.4</ele>
        <time>2011-05-26T11:02:50Z</time>
      </trkpt>
      <trkpt lat="47.7921" lon="-3.18419">
        <ele>74.2</ele>
        <time>2011-05-26T11:02:51Z</time>
      </trkpt>
      <trkpt lat="47.79214" lon="-3.18408">
        <ele>73.8</ele>
        <time>2011-05-26T11:02:52Z</time>
      </trkpt>
      <trkpt lat="47.79218" lon="-3.18396">
        <ele>73.9</ele>
        <time>2011-05-26T11:02:53Z</time>
      </trkpt>
      <trkpt lat="47.79221" lon="-3.18382">
        <ele>73.6</ele>
        <time>2011-05-26T11:02:54Z</time>
      </trkpt>
      <trkpt lat="47.79217" lon="-3.18372">
        <ele>72.8</ele>
        <time>2011-05-26T11:02:55Z</time>
      </trkpt>
      <trkpt lat="47.79217" lon="-3.1836">
        <ele>73</ele>
        <time>2011-05-26T11:02:56Z</time>
      </trkpt>
      <trkpt lat="47.79214" lon="-3.18349">
        <ele>72.6</ele>
        <time>2011-05-26T11:02:57Z</time>
      </trkpt>
      <trkpt lat="47.79213" lon="-3.18339">
        <ele>72</ele>
        <time>2011-05-26T11:02:58Z</time>
      </trkpt>
      <trkpt lat="47.79213" lon="-3.18329">
        <ele>72.5</ele>
        <time>2011-05-26T11:02:59Z</time>
      </trkpt>
      <trkpt lat="47.79212" lon="-3.18319">
        <ele>71.9</ele>
        <time>2011-05-26T11:03:00Z</time>
      </trkpt>
      <trkpt lat="47.7921" lon="-3.18309">
        <ele>72.7</ele>
        <time>2011-05-26T11:03:01Z</time>
      </trkpt>
      <trkpt lat="47.79209" lon="-3.183">
        <ele>72.5</ele>
        <time>2011-05-26T11:03:02Z</time>
      </trkpt>
      <trkpt lat="47.79208" lon="-3.18291">
        <ele>72.2</ele>
        <time>2011-05-26T11:03:03Z</time>
      </trkpt>
      <trkpt lat="47.79208" lon="-3.18282">
        <ele>72.6</ele>
        <time>2011-05-26T11:03:04Z</time>
      </trkpt>
      <trkpt lat="47.79207" lon="-3.18273">
        <ele>72.2</ele>
        <time>2011-05-26T11:03:05Z</time>
      </trkpt>
      <trkpt lat="47.79206" lon="-3.18264">
        <ele>72.4</ele>
        <time>2011-05-26T11:03:06Z</time>
      </trkpt>
      <trkpt lat="47.79206" lon="-3.18256">
        <ele>72.5</ele>
        <time>2011-05-26T11:03:07Z</time>
      </trkpt>
      <trkpt lat="47.79205" lon="-3.18247">
        <ele>72.2</ele>
        <time>2011-05-26T11:03:08Z</time>
      </trkpt>
      <trkpt lat="47.79205" lon="-3.18239">
        <ele>72.3</ele>
        <time>2011-05-26T11:03:09Z</time>
      </trkpt>
      <trkpt lat="47.79204" lon="-3.18232">
        <ele>72.7</ele>
        <time>2011-05-26T11:03:10Z</time>
      </trkpt>
      <trkpt lat="47.79204" lon="-3.18225">
        <ele>73.2</ele>
        <time>2011-05-26T11:03:11Z</time>
      </trkpt>
      <trkpt lat="47.79203" lon="-3.18217">
        <ele>73.7</ele>
        <time>2011-05-26T11:03:12Z</time>
      </trkpt>
      <trkpt lat="47.79204" lon="-3.1821">
        <ele>75</ele>
        <time>2011-05-26T11:03:13Z</time>
      </trkpt>
      <trkpt lat="47.79203" lon="-3.18203">
        <ele>74.8</ele>
        <time>2011-05-26T11:03:14Z</time>
      </trkpt>
      <trkpt lat="47.79203" lon="-3.18196">
        <ele>74.9</ele>
        <time>2011-05-26T11:03:15Z</time>
      </trkpt>
      <trkpt lat="47.79203" lon="-3.18189">
        <ele>74.9</ele>
        <time>2011-05-26T11:03:16Z</time>
      </trkpt>
      <trkpt lat="47.79203" lon="-3.18181">
        <ele>74.7</ele>
        <time>2011-05-26T11:03:17Z</time>
      </trkpt>
      <trkpt lat="47.79203" lon="-3.18174">
        <ele>74.4</ele>
        <time>2011-05-26T11:03:18Z</time>
      </trkpt>
      <trkpt lat="47.79199" lon="-3.18168">
        <ele>74.1</ele>
        <time>2011-05-26T11:03:19Z</time>
      </trkpt>
      <trkpt lat="47.79193" lon="-3.18158">
        <ele>74.4</ele>
        <time>2011-05-26T11:03:21Z</time>
      </trkpt>
      <trkpt lat="47.79188" lon="-3.1815">
        <ele>75.3</ele>
        <time>2011-05-26T11:03:23Z</time>
      </trkpt>
      <trkpt lat="47.79184" lon="-3.18145">
        <ele>75.8</ele>
        <time>2011-05-26T11:03:24Z</time>
      </trkpt>
      <trkpt lat="47.79182" lon="-3.1814">
        <ele>75.5</ele>
        <time>2011-05-26T11:03:25Z</time>
      </trkpt>
      <trkpt lat="47.79179" lon="-3.18133">
        <ele>75.2</ele>
        <time>2011-05-26T11:03:26Z</time>
      </trkpt>
      <trkpt lat="47.79176" lon="-3.18128">
        <ele>75.1</ele>
        <time>2011-05-26T11:03:27Z</time>
      </trkpt>
      <trkpt lat="47.79173" lon="-3.18122">
        <ele>75</ele>
        <time>2011-05-26T11:03:28Z</time>
      </trkpt>
      <trkpt lat="47.79167" lon="-3.18112">
        <ele>74.6</ele>
        <time>2011-05-26T11:03:30Z</time>
      </trkpt>
      <trkpt lat="47.79162" lon="-3.18104">
        <ele>75.5</ele>
        <time>2011-05-26T11:03:32Z</time>
      </trkpt>
      <trkpt lat="47.79156" lon="-3.18095">
        <ele>77</ele>
        <time>2011-05-26T11:03:34Z</time>
      </trkpt>
      <trkpt lat="47.79154" lon="-3.1809">
        <ele>77.5</ele>
        <time>2011-05-26T11:03:35Z</time>
      </trkpt>
      <trkpt lat="47.79148" lon="-3.18086">
        <ele>78.2</ele>
        <time>2011-05-26T11:03:37Z</time>
      </trkpt>
      <trkpt lat="47.7914" lon="-3.18084">
        <ele>78.5</ele>
        <time>2011-05-26T11:03:39Z</time>
      </trkpt>
      <trkpt lat="47.79136" lon="-3.1808">
        <ele>77.3</ele>
        <time>2011-05-26T11:03:40Z</time>
      </trkpt>
      <trkpt lat="47.79132" lon="-3.18076">
        <ele>79</ele>
        <time>2011-05-26T11:03:43Z</time>
      </trkpt>
      <trkpt lat="47.79129" lon="-3.1807">
        <ele>80.5</ele>
        <time>2011-05-26T11:03:47Z</time>
      </trkpt>
      <trkpt lat="47.79124" lon="-3.18067">
        <ele>81</ele>
        <time>2011-05-26T11:03:49Z</time>
      </trkpt>
      <trkpt lat="47.79121" lon="-3.18059">
        <ele>88.6</ele>
        <time>2011-05-26T11:03:52Z</time>
      </trkpt>
      <trkpt lat="47.79114" lon="-3.18056">
        <ele>86.2</ele>
        <time>2011-05-26T11:03:54Z</time>
      </trkpt>
      <trkpt lat="47.79108" lon="-3.18051">
        <ele>81.4</ele>
        <time>2011-05-26T11:03:56Z</time>
      </trkpt>
      <trkpt lat="47.79104" lon="-3.18049">
        <ele>79.8</ele>
        <time>2011-05-26T11:03:57Z</time>
      </trkpt>
      <trkpt lat="47.79098" lon="-3.18049">
        <ele>78.7</ele>
        <time>2011-05-26T11:03:59Z</time>
      </trkpt>
      <trkpt lat="47.79093" lon="-3.18045">
        <ele>79.1</ele>
        <time>2011-05-26T11:04:03Z</time>
      </trkpt>
      <trkpt lat="47.79088" lon="-3.18042">
        <ele>80.5</ele>
        <time>2011-05-26T11:04:05Z</time>
      </trkpt>
      <trkpt lat="47.79082" lon="-3.1804">
        <ele>80.9</ele>
        <time>2011-05-26T11:04:07Z</time>
      </trkpt>
      <trkpt lat="47.79076" lon="-3.18037">
        <ele>83.2</ele>
        <time>2011-05-26T11:04:10Z</time>
      </trkpt>
      <trkpt lat="47.79071" lon="-3.18035">
        <ele>84.2</ele>
        <time>2011-05-26T11:04:12Z</time>
      </trkpt>
      <trkpt lat="47.79064" lon="-3.18031">
        <ele>84.2</ele>
        <time>2011-05-26T11:04:14Z</time>
      </trkpt>
      <trkpt lat="47.79063" lon="-3.18022">
        <ele>86.4</ele>
        <time>2011-05-26T11:04:17Z</time>
      </trkpt>
      <trkpt lat="47.79059" lon="-3.18018">
        <ele>82.1</ele>
        <time>2011-05-26T11:04:18Z</time>
      </trkpt>
      <trkpt lat="47.79054" lon="-3.18013">
        <ele>79.4</ele>
        <time>2011-05-26T11:04:21Z</time>
      </trkpt>
      <trkpt lat="47.79049" lon="-3.18007">
        <ele>78.9</ele>
        <time>2011-05-26T11:04:23Z</time>
      </trkpt>
      <trkpt lat="47.79043" lon="-3.18">
        <ele>79.8</ele>
        <time>2011-05-26T11:04:26Z</time>
      </trkpt>
      <trkpt lat="47.79042" lon="-3.17992">
        <ele>91</ele>
        <time>2011-05-26T11:04:30Z</time>
      </trkpt>
      <trkpt lat="47.79038" lon="-3.17984">
        <ele>91.7</ele>
        <time>2011-05-26T11:04:33Z</time>
      </trkpt>
      <trkpt lat="47.79034" lon="-3.1798">
        <ele>90</ele>
        <time>2011-05-26T11:04:35Z</time>
      </trkpt>
      <trkpt lat="47.79027" lon="-3.17981">
        <ele>91.5</ele>
        <time>2011-05-26T11:04:37Z</time>
      </trkpt>
      <trkpt lat="47.79021" lon="-3.17982">
        <ele>92.1</ele>
        <time>2011-05-26T11:04:39Z</time>
      </trkpt>
      <trkpt lat="47.79015" lon="-3.17983">
        <ele>92.3</ele>
        <time>2011-05-26T11:04:41Z</time>
      </trkpt>
      <trkpt lat="47.79008" lon="-3.17981">
        <ele>92.6</ele>
        <time>2011-05-26T11:04:43Z</time>
      </trkpt>
      <trkpt lat="47.79003" lon="-3.17977">
        <ele>93</ele>
        <time>2011-05-26T11:04:44Z</time>
      </trkpt>
      <trkpt lat="47.78991" lon="-3.1797">
        <ele>92.8</ele>
        <time>2011-05-26T11:04:46Z</time>
      </trkpt>
      <trkpt lat="47.78985" lon="-3.17966">
        <ele>91.9</ele>
        <time>2011-05-26T11:04:47Z</time>
      </trkpt>
      <trkpt lat="47.78976" lon="-3.17962">
        <ele>92.2</ele>
        <time>2011-05-26T11:04:49Z</time>
      </trkpt>
      <trkpt lat="47.7897" lon="-3.17956">
        <ele>91.9</ele>
        <time>2011-05-26T11:04:50Z</time>
      </trkpt>
      <trkpt lat="47.78973" lon="-3.17948">
        <ele>87.9</ele>
        <time>2011-05-26T11:04:51Z</time>
      </trkpt>
      <trkpt lat="47.78971" lon="-3.17941">
        <ele>85.7</ele>
        <time>2011-05-26T11:04:52Z</time>
      </trkpt>
      <trkpt lat="47.78966" lon="-3.17941">
        <ele>84.7</ele>
        <time>2011-05-26T11:04:54Z</time>
      </trkpt>
      <trkpt lat="47.7896" lon="-3.17943">
        <ele>81.6</ele>
        <time>2011-05-26T11:04:55Z</time>
      </trkpt>
      <trkpt lat="47.78954" lon="-3.17948">
        <ele>76.2</ele>
        <time>2011-05-26T11:04:57Z</time>
      </trkpt>
      <trkpt lat="47.78944" lon="-3.17954">
        <ele>69.3</ele>
        <time>2011-05-26T11:04:59Z</time>
      </trkpt>
      <trkpt lat="47.78939" lon="-3.17957">
        <ele>67.1</ele>
        <time>2011-05-26T11:05:00Z</time>
      </trkpt>
      <trkpt lat="47.78935" lon="-3.17961">
        <ele>65.8</ele>
        <time>2011-05-26T11:05:01Z</time>
      </trkpt>
      <trkpt lat="47.78932" lon="-3.17967">
        <ele>65.9</ele>
        <time>2011-05-26T11:05:02Z</time>
      </trkpt>
      <trkpt lat="47.78928" lon="-3.17977">
        <ele>60.4</ele>
        <time>2011-05-26T11:05:04Z</time>
      </trkpt>
      <trkpt lat="47.78922" lon="-3.17988">
        <ele>63.5</ele>
        <time>2011-05-26T11:05:06Z</time>
      </trkpt>
      <trkpt lat="47.78917" lon="-3.17993">
        <ele>65.6</ele>
        <time>2011-05-26T11:05:07Z</time>
      </trkpt>
      <trkpt lat="47.7891" lon="-3.1799">
        <ele>65.4</ele>
        <time>2011-05-26T11:05:10Z</time>
      </trkpt>
      <trkpt lat="47.78903" lon="-3.17988">
        <ele>65.9</ele>
        <time>2011-05-26T11:05:12Z</time>
      </trkpt>
      <trkpt lat="47.78901" lon="-3.17979">
        <ele>67.6</ele>
        <time>2011-05-26T11:05:13Z</time>
      </trkpt>
      <trkpt lat="47.78898" lon="-3.17973">
        <ele>68.2</ele>
        <time>2011-05-26T11:05:14Z</time>
      </trkpt>
      <trkpt lat="47.78891" lon="-3.17969">
        <ele>65.9</ele>
        <time>2011-05-26T11:05:15Z</time>
      </trkpt>
      <trkpt lat="47.78886" lon="-3.17964">
        <ele>65.1</ele>
        <time>2011-05-26T11:05:16Z</time>
      </trkpt>
      <trkpt lat="47.7888" lon="-3.17958">
        <ele>64</ele>
        <time>2011-05-26T11:05:17Z</time>
      </trkpt>
      <trkpt lat="47.78877" lon="-3.17948">
        <ele>63.9</ele>
        <time>2011-05-26T11:05:18Z</time>
      </trkpt>
      <trkpt lat="47.78876" lon="-3.17939">
        <ele>63.8</ele>
        <time>2011-05-26T11:05:19Z</time>
      </trkpt>
      <trkpt lat="47.78878" lon="-3.17932">
        <ele>63.8</ele>
        <time>2011-05-26T11:05:20Z</time>
      </trkpt>
      <trkpt lat="47.78879" lon="-3.1792">
        <ele>64.7</ele>
        <time>2011-05-26T11:05:21Z</time>
      </trkpt>
      <trkpt lat="47.78882" lon="-3.17914">
        <ele>64.1</ele>
        <time>2011-05-26T11:05:22Z</time>
      </trkpt>
      <trkpt lat="47.78884" lon="-3.17904">
        <ele>65.2</ele>
        <time>2011-05-26T11:05:23Z</time>
      </trkpt>
      <trkpt lat="47.78888" lon="-3.17892">
        <ele>66.8</ele>
        <time>2011-05-26T11:05:25Z</time>
      </trkpt>
      <trkpt lat="47.78891" lon="-3.1788">
        <ele>65.7</ele>
        <time>2011-05-26T11:05:27Z</time>
      </trkpt>
      <trkpt lat="47.78894" lon="-3.17872">
        <ele>65.6</ele>
        <time>2011-05-26T11:05:28Z</time>
      </trkpt>
      <trkpt lat="47.78897" lon="-3.17864">
        <ele>65.3</ele>
        <time>2011-05-26T11:05:29Z</time>
      </trkpt>
      <trkpt lat="47.78898" lon="-3.17856">
        <ele>64.8</ele>
        <time>2011-05-26T11:05:30Z</time>
      </trkpt>
      <trkpt lat="47.78897" lon="-3.17846">
        <ele>63.5</ele>
        <time>2011-05-26T11:05:31Z</time>
      </trkpt>
      <trkpt lat="47.78894" lon="-3.17838">
        <ele>63</ele>
        <time>2011-05-26T11:05:32Z</time>
      </trkpt>
      <trkpt lat="47.78888" lon="-3.17833">
        <ele>62.5</ele>
        <time>2011-05-26T11:05:33Z</time>
      </trkpt>
      <trkpt lat="47.78882" lon="-3.17828">
        <ele>61.6</ele>
        <time>2011-05-26T11:05:34Z</time>
      </trkpt>
      <trkpt lat="47.78876" lon="-3.17825">
        <ele>61.9</ele>
        <time>2011-05-26T11:05:35Z</time>
      </trkpt>
      <trkpt lat="47.78872" lon="-3.17821">
        <ele>61.3</ele>
        <time>2011-05-26T11:05:36Z</time>
      </trkpt>
      <trkpt lat="47.78866" lon="-3.1782">
        <ele>60.8</ele>
        <time>2011-05-26T11:05:37Z</time>
      </trkpt>
      <trkpt lat="47.78861" lon="-3.17818">
        <ele>61.2</ele>
        <time>2011-05-26T11:05:38Z</time>
      </trkpt>
      <trkpt lat="47.78855" lon="-3.17815">
        <ele>62.1</ele>
        <time>2011-05-26T11:05:39Z</time>
      </trkpt>
      <trkpt lat="47.7885" lon="-3.17812">
        <ele>62.1</ele>
        <time>2011-05-26T11:05:40Z</time>
      </trkpt>
      <trkpt lat="47.78842" lon="-3.17809">
        <ele>63.5</ele>
        <time>2011-05-26T11:05:42Z</time>
      </trkpt>
      <trkpt lat="47.78836" lon="-3.17813">
        <ele>63.7</ele>
        <time>2011-05-26T11:05:44Z</time>
      </trkpt>
      <trkpt lat="47.78834" lon="-3.17823">
        <ele>64.7</ele>
        <time>2011-05-26T11:05:46Z</time>
      </trkpt>
      <trkpt lat="47.78833" lon="-3.17834">
        <ele>64.6</ele>
        <time>2011-05-26T11:05:48Z</time>
      </trkpt>
      <trkpt lat="47.78832" lon="-3.17844">
        <ele>65.7</ele>
        <time>2011-05-26T11:05:50Z</time>
      </trkpt>
      <trkpt lat="47.7883" lon="-3.17855">
        <ele>65.1</ele>
        <time>2011-05-26T11:05:52Z</time>
      </trkpt>
      <trkpt lat="47.78828" lon="-3.17864">
        <ele>63</ele>
        <time>2011-05-26T11:05:54Z</time>
      </trkpt>
      <trkpt lat="47.78828" lon="-3.17876">
        <ele>62.5</ele>
        <time>2011-05-26T11:05:56Z</time>
      </trkpt>
      <trkpt lat="47.78826" lon="-3.17882">
        <ele>61.7</ele>
        <time>2011-05-26T11:05:57Z</time>
      </trkpt>
      <trkpt lat="47.78825" lon="-3.17895">
        <ele>61.7</ele>
        <time>2011-05-26T11:05:59Z</time>
      </trkpt>
      <trkpt lat="47.78823" lon="-3.17907">
        <ele>61.5</ele>
        <time>2011-05-26T11:06:01Z</time>
      </trkpt>
      <trkpt lat="47.78823" lon="-3.17914">
        <ele>61.5</ele>
        <time>2011-05-26T11:06:02Z</time>
      </trkpt>
      <trkpt lat="47.78822" lon="-3.17922">
        <ele>61.6</ele>
        <time>2011-05-26T11:06:03Z</time>
      </trkpt>
      <trkpt lat="47.78821" lon="-3.17929">
        <ele>62.7</ele>
        <time>2011-05-26T11:06:06Z</time>
      </trkpt>
      <trkpt lat="47.7882" lon="-3.17937">
        <ele>65.1</ele>
        <time>2011-05-26T11:06:09Z</time>
      </trkpt>
      <trkpt lat="47.78818" lon="-3.17947">
        <ele>64.9</ele>
        <time>2011-05-26T11:06:11Z</time>
      </trkpt>
      <trkpt lat="47.78819" lon="-3.17957">
        <ele>66.3</ele>
        <time>2011-05-26T11:06:13Z</time>
      </trkpt>
      <trkpt lat="47.78818" lon="-3.17966">
        <ele>67.3</ele>
        <time>2011-05-26T11:06:15Z</time>
      </trkpt>
      <trkpt lat="47.7882" lon="-3.17975">
        <ele>68.8</ele>
        <time>2011-05-26T11:06:17Z</time>
      </trkpt>
      <trkpt lat="47.7882" lon="-3.17982">
        <ele>69.6</ele>
        <time>2011-05-26T11:06:18Z</time>
      </trkpt>
      <trkpt lat="47.78819" lon="-3.1799">
        <ele>69.8</ele>
        <time>2011-05-26T11:06:19Z</time>
      </trkpt>
      <trkpt lat="47.7882" lon="-3.18002">
        <ele>70</ele>
        <time>2011-05-26T11:06:21Z</time>
      </trkpt>
      <trkpt lat="47.78818" lon="-3.18011">
        <ele>70.4</ele>
        <time>2011-05-26T11:06:22Z</time>
      </trkpt>
      <trkpt lat="47.78819" lon="-3.1802">
        <ele>71.3</ele>
        <time>2011-05-26T11:06:24Z</time>
      </trkpt>
      <trkpt lat="47.78822" lon="-3.18032">
        <ele>72.3</ele>
        <time>2011-05-26T11:06:26Z</time>
      </trkpt>
      <trkpt lat="47.78823" lon="-3.1804">
        <ele>74.9</ele>
        <time>2011-05-26T11:06:28Z</time>
      </trkpt>
      <trkpt lat="47.78825" lon="-3.18048">
        <ele>74.3</ele>
        <time>2011-05-26T11:06:30Z</time>
      </trkpt>
      <trkpt lat="47.78827" lon="-3.1806">
        <ele>75.3</ele>
        <time>2011-05-26T11:06:32Z</time>
      </trkpt>
      <trkpt lat="47.78827" lon="-3.18069">
        <ele>82.2</ele>
        <time>2011-05-26T11:06:35Z</time>
      </trkpt>
      <trkpt lat="47.78826" lon="-3.18079">
        <ele>80</ele>
        <time>2011-05-26T11:06:37Z</time>
      </trkpt>
      <trkpt lat="47.78826" lon="-3.18089">
        <ele>80.4</ele>
        <time>2011-05-26T11:06:39Z</time>
      </trkpt>
      <trkpt lat="47.78828" lon="-3.18096">
        <ele>77.2</ele>
        <time>2011-05-26T11:06:40Z</time>
      </trkpt>
      <trkpt lat="47.78826" lon="-3.18102">
        <ele>79.1</ele>
        <time>2011-05-26T11:06:41Z</time>
      </trkpt>
      <trkpt lat="47.78826" lon="-3.18113">
        <ele>81.5</ele>
        <time>2011-05-26T11:06:43Z</time>
      </trkpt>
      <trkpt lat="47.78825" lon="-3.18127">
        <ele>79.8</ele>
        <time>2011-05-26T11:06:45Z</time>
      </trkpt>
      <trkpt lat="47.78824" lon="-3.18138">
        <ele>79.1</ele>
        <time>2011-05-26T11:06:47Z</time>
      </trkpt>
      <trkpt lat="47.78825" lon="-3.18145">
        <ele>77.5</ele>
        <time>2011-05-26T11:06:48Z</time>
      </trkpt>
      <trkpt lat="47.78824" lon="-3.18153">
        <ele>76.3</ele>
        <time>2011-05-26T11:06:49Z</time>
      </trkpt>
      <trkpt lat="47.78823" lon="-3.1816">
        <ele>75.9</ele>
        <time>2011-05-26T11:06:50Z</time>
      </trkpt>
      <trkpt lat="47.78822" lon="-3.18172">
        <ele>76.4</ele>
        <time>2011-05-26T11:06:52Z</time>
      </trkpt>
      <trkpt lat="47.78816" lon="-3.18175">
        <ele>77.6</ele>
        <time>2011-05-26T11:06:53Z</time>
      </trkpt>
      <trkpt lat="47.7881" lon="-3.18175">
        <ele>78.1</ele>
        <time>2011-05-26T11:06:55Z</time>
      </trkpt>
      <trkpt lat="47.78803" lon="-3.18176">
        <ele>78.1</ele>
        <time>2011-05-26T11:06:57Z</time>
      </trkpt>
      <trkpt lat="47.78795" lon="-3.18176">
        <ele>77.7</ele>
        <time>2011-05-26T11:06:59Z</time>
      </trkpt>
      <trkpt lat="47.7879" lon="-3.18176">
        <ele>77.8</ele>
        <time>2011-05-26T11:07:00Z</time>
      </trkpt>
      <trkpt lat="47.78781" lon="-3.18176">
        <ele>78.9</ele>
        <time>2011-05-26T11:07:02Z</time>
      </trkpt>
      <trkpt lat="47.78775" lon="-3.18175">
        <ele>78</ele>
        <time>2011-05-26T11:07:04Z</time>
      </trkpt>
      <trkpt lat="47.78769" lon="-3.18172">
        <ele>77.2</ele>
        <time>2011-05-26T11:07:05Z</time>
      </trkpt>
      <trkpt lat="47.78761" lon="-3.1817">
        <ele>76.6</ele>
        <time>2011-05-26T11:07:07Z</time>
      </trkpt>
      <trkpt lat="47.78755" lon="-3.18167">
        <ele>77.7</ele>
        <time>2011-05-26T11:07:09Z</time>
      </trkpt>
      <trkpt lat="47.78748" lon="-3.18162">
        <ele>77.1</ele>
        <time>2011-05-26T11:07:11Z</time>
      </trkpt>
      <trkpt lat="47.78743" lon="-3.1816">
        <ele>77.5</ele>
        <time>2011-05-26T11:07:12Z</time>
      </trkpt>
      <trkpt lat="47.78735" lon="-3.18155">
        <ele>78.5</ele>
        <time>2011-05-26T11:07:14Z</time>
      </trkpt>
      <trkpt lat="47.78727" lon="-3.18151">
        <ele>79.8</ele>
        <time>2011-05-26T11:07:16Z</time>
      </trkpt>
      <trkpt lat="47.78723" lon="-3.18149">
        <ele>79.6</ele>
        <time>2011-05-26T11:07:17Z</time>
      </trkpt>
      <trkpt lat="47.78718" lon="-3.18147">
        <ele>79.3</ele>
        <time>2011-05-26T11:07:18Z</time>
      </trkpt>
      <trkpt lat="47.78712" lon="-3.18144">
        <ele>78.1</ele>
        <time>2011-05-26T11:07:19Z</time>
      </trkpt>
      <trkpt lat="47.78708" lon="-3.18142">
        <ele>78.3</ele>
        <time>2011-05-26T11:07:20Z</time>
      </trkpt>
      <trkpt lat="47.78703" lon="-3.18141">
        <ele>77.6</ele>
        <time>2011-05-26T11:07:21Z</time>
      </trkpt>
      <trkpt lat="47.78698" lon="-3.1814">
        <ele>77.5</ele>
        <time>2011-05-26T11:07:22Z</time>
      </trkpt>
      <trkpt lat="47.78692" lon="-3.18139">
        <ele>77.3</ele>
        <time>2011-05-26T11:07:23Z</time>
      </trkpt>
      <trkpt lat="47.78686" lon="-3.18138">
        <ele>76.7</ele>
        <time>2011-05-26T11:07:24Z</time>
      </trkpt>
      <trkpt lat="47.78681" lon="-3.18136">
        <ele>76.7</ele>
        <time>2011-05-26T11:07:25Z</time>
      </trkpt>
      <trkpt lat="47.78674" lon="-3.18136">
        <ele>76.3</ele>
        <time>2011-05-26T11:07:26Z</time>
      </trkpt>
      <trkpt lat="47.78668" lon="-3.18135">
        <ele>76.1</ele>
        <time>2011-05-26T11:07:27Z</time>
      </trkpt>
      <trkpt lat="47.78663" lon="-3.18134">
        <ele>75.2</ele>
        <time>2011-05-26T11:07:28Z</time>
      </trkpt>
      <trkpt lat="47.78656" lon="-3.18133">
        <ele>75.2</ele>
        <time>2011-05-26T11:07:29Z</time>
      </trkpt>
      <trkpt lat="47.7865" lon="-3.18132">
        <ele>74.8</ele>
        <time>2011-05-26T11:07:30Z</time>
      </trkpt>
      <trkpt lat="47.78644" lon="-3.18134">
        <ele>75.3</ele>
        <time>2011-05-26T11:07:31Z</time>
      </trkpt>
      <trkpt lat="47.78638" lon="-3.18133">
        <ele>75.5</ele>
        <time>2011-05-26T11:07:32Z</time>
      </trkpt>
      <trkpt lat="47.78632" lon="-3.18133">
        <ele>75.3</ele>
        <time>2011-05-26T11:07:33Z</time>
      </trkpt>
      <trkpt lat="47.78627" lon="-3.18132">
        <ele>76.1</ele>
        <time>2011-05-26T11:07:34Z</time>
      </trkpt>
      <trkpt lat="47.78621" lon="-3.18132">
        <ele>75.7</ele>
        <time>2011-05-26T11:07:35Z</time>
      </trkpt>
      <trkpt lat="47.78616" lon="-3.18131">
        <ele>76.1</ele>
        <time>2011-05-26T11:07:36Z</time>
      </trkpt>
      <trkpt lat="47.78611" lon="-3.18129">
        <ele>75.7</ele>
        <time>2011-05-26T11:07:37Z</time>
      </trkpt>
      <trkpt lat="47.78605" lon="-3.18128">
        <ele>75.8</ele>
        <time>2011-05-26T11:07:38Z</time>
      </trkpt>
      <trkpt lat="47.786" lon="-3.18126">
        <ele>75.8</ele>
        <time>2011-05-26T11:07:39Z</time>
      </trkpt>
      <trkpt lat="47.78595" lon="-3.18126">
        <ele>76</ele>
        <time>2011-05-26T11:07:40Z</time>
      </trkpt>
      <trkpt lat="47.7859" lon="-3.18126">
        <ele>76.5</ele>
        <time>2011-05-26T11:07:41Z</time>
      </trkpt>
      <trkpt lat="47.78586" lon="-3.18124">
        <ele>77</ele>
        <time>2011-05-26T11:07:42Z</time>
      </trkpt>
      <trkpt lat="47.78578" lon="-3.1812">
        <ele>75.6</ele>
        <time>2011-05-26T11:07:44Z</time>
      </trkpt>
      <trkpt lat="47.7857" lon="-3.18117">
        <ele>76.2</ele>
        <time>2011-05-26T11:07:46Z</time>
      </trkpt>
      <trkpt lat="47.78562" lon="-3.18113">
        <ele>76</ele>
        <time>2011-05-26T11:07:48Z</time>
      </trkpt>
      <trkpt lat="47.78555" lon="-3.18106">
        <ele>75.5</ele>
        <time>2011-05-26T11:07:50Z</time>
      </trkpt>
      <trkpt lat="47.78551" lon="-3.18096">
        <ele>75</ele>
        <time>2011-05-26T11:07:52Z</time>
      </trkpt>
      <trkpt lat="47.7855" lon="-3.18083">
        <ele>74.5</ele>
        <time>2011-05-26T11:07:54Z</time>
      </trkpt>
      <trkpt lat="47.7855" lon="-3.18075">
        <ele>74.1</ele>
        <time>2011-05-26T11:07:55Z</time>
      </trkpt>
      <trkpt lat="47.78551" lon="-3.18068">
        <ele>74.3</ele>
        <time>2011-05-26T11:07:56Z</time>
      </trkpt>
      <trkpt lat="47.78553" lon="-3.18061">
        <ele>73.9</ele>
        <time>2011-05-26T11:07:57Z</time>
      </trkpt>
      <trkpt lat="47.78553" lon="-3.18053">
        <ele>74.2</ele>
        <time>2011-05-26T11:07:58Z</time>
      </trkpt>
      <trkpt lat="47.78554" lon="-3.18045">
        <ele>74.1</ele>
        <time>2011-05-26T11:07:59Z</time>
      </trkpt>
      <trkpt lat="47.78555" lon="-3.18038">
        <ele>74.1</ele>
        <time>2011-05-26T11:08:00Z</time>
      </trkpt>
      <trkpt lat="47.78557" lon="-3.18031">
        <ele>73.8</ele>
        <time>2011-05-26T11:08:01Z</time>
      </trkpt>
      <trkpt lat="47.78557" lon="-3.18024">
        <ele>73.4</ele>
        <time>2011-05-26T11:08:02Z</time>
      </trkpt>
      <trkpt lat="47.78558" lon="-3.18017">
        <ele>72.8</ele>
        <time>2011-05-26T11:08:03Z</time>
      </trkpt>
      <trkpt lat="47.78559" lon="-3.1801">
        <ele>72.8</ele>
        <time>2011-05-26T11:08:04Z</time>
      </trkpt>
      <trkpt lat="47.7856" lon="-3.18002">
        <ele>72.5</ele>
        <time>2011-05-26T11:08:05Z</time>
      </trkpt>
      <trkpt lat="47.78561" lon="-3.17996">
        <ele>72.7</ele>
        <time>2011-05-26T11:08:06Z</time>
      </trkpt>
      <trkpt lat="47.78562" lon="-3.17988">
        <ele>72.7</ele>
        <time>2011-05-26T11:08:07Z</time>
      </trkpt>
      <trkpt lat="47.78562" lon="-3.1798">
        <ele>72.1</ele>
        <time>2011-05-26T11:08:08Z</time>
      </trkpt>
      <trkpt lat="47.78562" lon="-3.17973">
        <ele>71.4</ele>
        <time>2011-05-26T11:08:09Z</time>
      </trkpt>
      <trkpt lat="47.78562" lon="-3.17961">
        <ele>71.5</ele>
        <time>2011-05-26T11:08:11Z</time>
      </trkpt>
      <trkpt lat="47.78564" lon="-3.17951">
        <ele>72.4</ele>
        <time>2011-05-26T11:08:13Z</time>
      </trkpt>
      <trkpt lat="47.78565" lon="-3.17941">
        <ele>73.1</ele>
        <time>2011-05-26T11:08:15Z</time>
      </trkpt>
      <trkpt lat="47.78567" lon="-3.17929">
        <ele>72.7</ele>
        <time>2011-05-26T11:08:17Z</time>
      </trkpt>
      <trkpt lat="47.78569" lon="-3.17916">
        <ele>73.9</ele>
        <time>2011-05-26T11:08:19Z</time>
      </trkpt>
      <trkpt lat="47.78572" lon="-3.17904">
        <ele>73.2</ele>
        <time>2011-05-26T11:08:21Z</time>
      </trkpt>
      <trkpt lat="47.78574" lon="-3.17892">
        <ele>72.8</ele>
        <time>2011-05-26T11:08:23Z</time>
      </trkpt>
      <trkpt lat="47.78577" lon="-3.17881">
        <ele>74.1</ele>
        <time>2011-05-26T11:08:25Z</time>
      </trkpt>
      <trkpt lat="47.78579" lon="-3.17872">
        <ele>74.3</ele>
        <time>2011-05-26T11:08:27Z</time>
      </trkpt>
      <trkpt lat="47.78584" lon="-3.17861">
        <ele>75.6</ele>
        <time>2011-05-26T11:08:29Z</time>
      </trkpt>
      <trkpt lat="47.78587" lon="-3.1785">
        <ele>75.6</ele>
        <time>2011-05-26T11:08:31Z</time>
      </trkpt>
      <trkpt lat="47.78589" lon="-3.17837">
        <ele>75.7</ele>
        <time>2011-05-26T11:08:33Z</time>
      </trkpt>
      <trkpt lat="47.78589" lon="-3.17826">
        <ele>75.7</ele>
        <time>2011-05-26T11:08:35Z</time>
      </trkpt>
      <trkpt lat="47.7859" lon="-3.17812">
        <ele>75.8</ele>
        <time>2011-05-26T11:08:37Z</time>
      </trkpt>
      <trkpt lat="47.78588" lon="-3.17804">
        <ele>77.2</ele>
        <time>2011-05-26T11:08:38Z</time>
      </trkpt>
      <trkpt lat="47.78591" lon="-3.17791">
        <ele>75.9</ele>
        <time>2011-05-26T11:08:40Z</time>
      </trkpt>
      <trkpt lat="47.78593" lon="-3.17782">
        <ele>74.4</ele>
        <time>2011-05-26T11:08:41Z</time>
      </trkpt>
      <trkpt lat="47.78593" lon="-3.17775">
        <ele>74.7</ele>
        <time>2011-05-26T11:08:42Z</time>
      </trkpt>
      <trkpt lat="47.78594" lon="-3.17767">
        <ele>74.3</ele>
        <time>2011-05-26T11:08:43Z</time>
      </trkpt>
      <trkpt lat="47.78594" lon="-3.1776">
        <ele>74.4</ele>
        <time>2011-05-26T11:08:44Z</time>
      </trkpt>
      <trkpt lat="47.78591" lon="-3.17748">
        <ele>71.2</ele>
        <time>2011-05-26T11:08:46Z</time>
      </trkpt>
      <trkpt lat="47.78589" lon="-3.17739">
        <ele>70.6</ele>
        <time>2011-05-26T11:08:48Z</time>
      </trkpt>
      <trkpt lat="47.78584" lon="-3.17728">
        <ele>73.9</ele>
        <time>2011-05-26T11:09:25Z</time>
      </trkpt>
      <trkpt lat="47.78583" lon="-3.17718">
        <ele>74.2</ele>
        <time>2011-05-26T11:09:27Z</time>
      </trkpt>
      <trkpt lat="47.78586" lon="-3.17709">
        <ele>74</ele>
        <time>2011-05-26T11:09:29Z</time>
      </trkpt>
      <trkpt lat="47.78589" lon="-3.17699">
        <ele>75</ele>
        <time>2011-05-26T11:09:31Z</time>
      </trkpt>
      <trkpt lat="47.78587" lon="-3.17689">
        <ele>74.4</ele>
        <time>2011-05-26T11:09:33Z</time>
      </trkpt>
      <trkpt lat="47.78589" lon="-3.17678">
        <ele>75.3</ele>
        <time>2011-05-26T11:09:35Z</time>
      </trkpt>
      <trkpt lat="47.78592" lon="-3.17667">
        <ele>72.6</ele>
        <time>2011-05-26T11:09:37Z</time>
      </trkpt>
      <trkpt lat="47.78594" lon="-3.17658">
        <ele>71.1</ele>
        <time>2011-05-26T11:09:38Z</time>
      </trkpt>
      <trkpt lat="47.78599" lon="-3.17648">
        <ele>69.6</ele>
        <time>2011-05-26T11:09:40Z</time>
      </trkpt>
      <trkpt lat="47.78603" lon="-3.17644">
        <ele>69.2</ele>
        <time>2011-05-26T11:09:41Z</time>
      </trkpt>
      <trkpt lat="47.78607" lon="-3.17637">
        <ele>67.4</ele>
        <time>2011-05-26T11:09:42Z</time>
      </trkpt>
      <trkpt lat="47.78613" lon="-3.1763">
        <ele>68.5</ele>
        <time>2011-05-26T11:09:43Z</time>
      </trkpt>
      <trkpt lat="47.78619" lon="-3.17627">
        <ele>67.7</ele>
        <time>2011-05-26T11:09:44Z</time>
      </trkpt>
      <trkpt lat="47.78623" lon="-3.17623">
        <ele>66.7</ele>
        <time>2011-05-26T11:09:45Z</time>
      </trkpt>
      <trkpt lat="47.78624" lon="-3.1761">
        <ele>67.5</ele>
        <time>2011-05-26T11:09:47Z</time>
      </trkpt>
      <trkpt lat="47.78627" lon="-3.17603">
        <ele>68.7</ele>
        <time>2011-05-26T11:09:49Z</time>
      </trkpt>
      <trkpt lat="47.78633" lon="-3.17593">
        <ele>70.9</ele>
        <time>2011-05-26T11:09:50Z</time>
      </trkpt>
      <trkpt lat="47.78637" lon="-3.17585">
        <ele>72.4</ele>
        <time>2011-05-26T11:09:51Z</time>
      </trkpt>
      <trkpt lat="47.7864" lon="-3.17578">
        <ele>71.9</ele>
        <time>2011-05-26T11:09:52Z</time>
      </trkpt>
      <trkpt lat="47.78646" lon="-3.17573">
        <ele>73.1</ele>
        <time>2011-05-26T11:09:54Z</time>
      </trkpt>
      <trkpt lat="47.7865" lon="-3.17569">
        <ele>72.7</ele>
        <time>2011-05-26T11:09:55Z</time>
      </trkpt>
      <trkpt lat="47.78656" lon="-3.17567">
        <ele>74.6</ele>
        <time>2011-05-26T11:09:57Z</time>
      </trkpt>
      <trkpt lat="47.78661" lon="-3.17562">
        <ele>73.9</ele>
        <time>2011-05-26T11:10:00Z</time>
      </trkpt>
      <trkpt lat="47.78665" lon="-3.17558">
        <ele>74.8</ele>
        <time>2011-05-26T11:10:01Z</time>
      </trkpt>
      <trkpt lat="47.78672" lon="-3.17554">
        <ele>74.6</ele>
        <time>2011-05-26T11:10:03Z</time>
      </trkpt>
      <trkpt lat="47.78673" lon="-3.17548">
        <ele>75.6</ele>
        <time>2011-05-26T11:10:06Z</time>
      </trkpt>
      <trkpt lat="47.78676" lon="-3.17538">
        <ele>77</ele>
        <time>2011-05-26T11:10:08Z</time>
      </trkpt>
      <trkpt lat="47.78677" lon="-3.17531">
        <ele>77.6</ele>
        <time>2011-05-26T11:10:11Z</time>
      </trkpt>
      <trkpt lat="47.78673" lon="-3.17517">
        <ele>79.8</ele>
        <time>2011-05-26T11:10:14Z</time>
      </trkpt>
      <trkpt lat="47.78672" lon="-3.17507">
        <ele>80.8</ele>
        <time>2011-05-26T11:10:16Z</time>
      </trkpt>
      <trkpt lat="47.78672" lon="-3.17498">
        <ele>81.4</ele>
        <time>2011-05-26T11:10:19Z</time>
      </trkpt>
      <trkpt lat="47.78673" lon="-3.17488">
        <ele>79.6</ele>
        <time>2011-05-26T11:10:21Z</time>
      </trkpt>
      <trkpt lat="47.78673" lon="-3.17479">
        <ele>77.5</ele>
        <time>2011-05-26T11:10:23Z</time>
      </trkpt>
      <trkpt lat="47.78673" lon="-3.17468">
        <ele>77.2</ele>
        <time>2011-05-26T11:10:24Z</time>
      </trkpt>
      <trkpt lat="47.78675" lon="-3.17458">
        <ele>77.3</ele>
        <time>2011-05-26T11:10:25Z</time>
      </trkpt>
      <trkpt lat="47.78674" lon="-3.17449">
        <ele>76.8</ele>
        <time>2011-05-26T11:10:26Z</time>
      </trkpt>
      <trkpt lat="47.7868" lon="-3.17433">
        <ele>75.6</ele>
        <time>2011-05-26T11:10:28Z</time>
      </trkpt>
      <trkpt lat="47.78684" lon="-3.17428">
        <ele>75.7</ele>
        <time>2011-05-26T11:10:29Z</time>
      </trkpt>
      <trkpt lat="47.78688" lon="-3.17422">
        <ele>74.8</ele>
        <time>2011-05-26T11:10:30Z</time>
      </trkpt>
      <trkpt lat="47.78695" lon="-3.17418">
        <ele>74.3</ele>
        <time>2011-05-26T11:10:32Z</time>
      </trkpt>
      <trkpt lat="47.78693" lon="-3.17404">
        <ele>76.7</ele>
        <time>2011-05-26T11:10:34Z</time>
      </trkpt>
      <trkpt lat="47.78695" lon="-3.17396">
        <ele>75.4</ele>
        <time>2011-05-26T11:10:36Z</time>
      </trkpt>
      <trkpt lat="47.78696" lon="-3.17386">
        <ele>74.9</ele>
        <time>2011-05-26T11:10:38Z</time>
      </trkpt>
      <trkpt lat="47.78691" lon="-3.1738">
        <ele>75.4</ele>
        <time>2011-05-26T11:10:41Z</time>
      </trkpt>
      <trkpt lat="47.78684" lon="-3.17374">
        <ele>76.4</ele>
        <time>2011-05-26T11:10:43Z</time>
      </trkpt>
      <trkpt lat="47.78677" lon="-3.1737">
        <ele>74.4</ele>
        <time>2011-05-26T11:10:45Z</time>
      </trkpt>
      <trkpt lat="47.78672" lon="-3.17372">
        <ele>81.8</ele>
        <time>2011-05-26T11:10:46Z</time>
      </trkpt>
      <trkpt lat="47.78666" lon="-3.17369">
        <ele>85.8</ele>
        <time>2011-05-26T11:10:48Z</time>
      </trkpt>
      <trkpt lat="47.78659" lon="-3.17364">
        <ele>86.7</ele>
        <time>2011-05-26T11:10:50Z</time>
      </trkpt>
      <trkpt lat="47.78663" lon="-3.1735">
        <ele>83.9</ele>
        <time>2011-05-26T11:10:52Z</time>
      </trkpt>
      <trkpt lat="47.78674" lon="-3.17338">
        <ele>78.5</ele>
        <time>2011-05-26T11:10:54Z</time>
      </trkpt>
      <trkpt lat="47.78681" lon="-3.17326">
        <ele>74</ele>
        <time>2011-05-26T11:10:55Z</time>
      </trkpt>
      <trkpt lat="47.78682" lon="-3.17318">
        <ele>72.8</ele>
        <time>2011-05-26T11:10:56Z</time>
      </trkpt>
      <trkpt lat="47.78681" lon="-3.17312">
        <ele>72.2</ele>
        <time>2011-05-26T11:10:57Z</time>
      </trkpt>
      <trkpt lat="47.78677" lon="-3.17306">
        <ele>70.5</ele>
        <time>2011-05-26T11:10:59Z</time>
      </trkpt>
      <trkpt lat="47.78674" lon="-3.17312">
        <ele>67.5</ele>
        <time>2011-05-26T11:11:00Z</time>
      </trkpt>
      <trkpt lat="47.78668" lon="-3.17319">
        <ele>66.4</ele>
        <time>2011-05-26T11:11:02Z</time>
      </trkpt>
      <trkpt lat="47.78662" lon="-3.17326">
        <ele>66.3</ele>
        <time>2011-05-26T11:11:04Z</time>
      </trkpt>
      <trkpt lat="47.78657" lon="-3.17332">
        <ele>66.2</ele>
        <time>2011-05-26T11:11:06Z</time>
      </trkpt>
      <trkpt lat="47.78651" lon="-3.17342">
        <ele>66.4</ele>
        <time>2011-05-26T11:11:08Z</time>
      </trkpt>
      <trkpt lat="47.78647" lon="-3.17352">
        <ele>65.6</ele>
        <time>2011-05-26T11:11:10Z</time>
      </trkpt>
      <trkpt lat="47.78639" lon="-3.17362">
        <ele>64.2</ele>
        <time>2011-05-26T11:11:11Z</time>
      </trkpt>
      <trkpt lat="47.78634" lon="-3.17369">
        <ele>64.2</ele>
        <time>2011-05-26T11:11:12Z</time>
      </trkpt>
      <trkpt lat="47.78631" lon="-3.17375">
        <ele>62.7</ele>
        <time>2011-05-26T11:11:13Z</time>
      </trkpt>
      <trkpt lat="47.78625" lon="-3.17382">
        <ele>61.1</ele>
        <time>2011-05-26T11:11:15Z</time>
      </trkpt>
      <trkpt lat="47.78624" lon="-3.17393">
        <ele>61</ele>
        <time>2011-05-26T11:11:16Z</time>
      </trkpt>
      <trkpt lat="47.78622" lon="-3.174">
        <ele>61.3</ele>
        <time>2011-05-26T11:11:17Z</time>
      </trkpt>
      <trkpt lat="47.7862" lon="-3.17413">
        <ele>61.4</ele>
        <time>2011-05-26T11:11:19Z</time>
      </trkpt>
      <trkpt lat="47.78619" lon="-3.1742">
        <ele>61.4</ele>
        <time>2011-05-26T11:11:20Z</time>
      </trkpt>
      <trkpt lat="47.78617" lon="-3.17426">
        <ele>61.9</ele>
        <time>2011-05-26T11:11:21Z</time>
      </trkpt>
      <trkpt lat="47.78614" lon="-3.17439">
        <ele>62.3</ele>
        <time>2011-05-26T11:11:23Z</time>
      </trkpt>
      <trkpt lat="47.78613" lon="-3.17447">
        <ele>61.2</ele>
        <time>2011-05-26T11:11:24Z</time>
      </trkpt>
      <trkpt lat="47.7861" lon="-3.17456">
        <ele>61</ele>
        <time>2011-05-26T11:11:26Z</time>
      </trkpt>
      <trkpt lat="47.78607" lon="-3.17464">
        <ele>60.6</ele>
        <time>2011-05-26T11:11:28Z</time>
      </trkpt>
      <trkpt lat="47.78602" lon="-3.17471">
        <ele>64.2</ele>
        <time>2011-05-26T11:11:29Z</time>
      </trkpt>
      <trkpt lat="47.78597" lon="-3.17482">
        <ele>66.1</ele>
        <time>2011-05-26T11:11:31Z</time>
      </trkpt>
      <trkpt lat="47.78596" lon="-3.17494">
        <ele>66.8</ele>
        <time>2011-05-26T11:11:33Z</time>
      </trkpt>
      <trkpt lat="47.78599" lon="-3.175">
        <ele>61.7</ele>
        <time>2011-05-26T11:11:34Z</time>
      </trkpt>
      <trkpt lat="47.78597" lon="-3.17515">
        <ele>56.9</ele>
        <time>2011-05-26T11:11:36Z</time>
      </trkpt>
      <trkpt lat="47.78596" lon="-3.17524">
        <ele>53.7</ele>
        <time>2011-05-26T11:11:37Z</time>
      </trkpt>
      <trkpt lat="47.78593" lon="-3.1753">
        <ele>50.9</ele>
        <time>2011-05-26T11:11:38Z</time>
      </trkpt>
      <trkpt lat="47.78591" lon="-3.17537">
        <ele>50</ele>
        <time>2011-05-26T11:11:39Z</time>
      </trkpt>
      <trkpt lat="47.78591" lon="-3.1755">
        <ele>52.1</ele>
        <time>2011-05-26T11:11:41Z</time>
      </trkpt>
      <trkpt lat="47.7859" lon="-3.17557">
        <ele>51.1</ele>
        <time>2011-05-26T11:11:44Z</time>
      </trkpt>
      <trkpt lat="47.78593" lon="-3.17563">
        <ele>50.2</ele>
        <time>2011-05-26T11:11:46Z</time>
      </trkpt>
      <trkpt lat="47.78593" lon="-3.1757">
        <ele>48.8</ele>
        <time>2011-05-26T11:11:48Z</time>
      </trkpt>
      <trkpt lat="47.78592" lon="-3.17579">
        <ele>49.1</ele>
        <time>2011-05-26T11:11:51Z</time>
      </trkpt>
      <trkpt lat="47.78592" lon="-3.1759">
        <ele>50.9</ele>
        <time>2011-05-26T11:11:54Z</time>
      </trkpt>
      <trkpt lat="47.78588" lon="-3.17599">
        <ele>50.8</ele>
        <time>2011-05-26T11:11:56Z</time>
      </trkpt>
      <trkpt lat="47.78582" lon="-3.17598">
        <ele>52.8</ele>
        <time>2011-05-26T11:11:59Z</time>
      </trkpt>
      <trkpt lat="47.78579" lon="-3.17605">
        <ele>50.2</ele>
        <time>2011-05-26T11:12:02Z</time>
      </trkpt>
      <trkpt lat="47.78575" lon="-3.17608">
        <ele>53.5</ele>
        <time>2011-05-26T11:12:21Z</time>
      </trkpt>
      <trkpt lat="47.78577" lon="-3.17616">
        <ele>47.7</ele>
        <time>2011-05-26T11:12:37Z</time>
      </trkpt>
      <trkpt lat="47.78577" lon="-3.17622">
        <ele>51</ele>
        <time>2011-05-26T11:12:45Z</time>
      </trkpt>
      <trkpt lat="47.78573" lon="-3.1763">
        <ele>49.4</ele>
        <time>2011-05-26T11:12:59Z</time>
      </trkpt>
      <trkpt lat="47.78569" lon="-3.17634">
        <ele>49.3</ele>
        <time>2011-05-26T11:13:01Z</time>
      </trkpt>
      <trkpt lat="47.78564" lon="-3.17639">
        <ele>49.3</ele>
        <time>2011-05-26T11:13:03Z</time>
      </trkpt>
      <trkpt lat="47.78566" lon="-3.17649">
        <ele>45.3</ele>
        <time>2011-05-26T11:13:06Z</time>
      </trkpt>
      <trkpt lat="47.78564" lon="-3.1766">
        <ele>43.3</ele>
        <time>2011-05-26T11:13:08Z</time>
      </trkpt>
      <trkpt lat="47.78559" lon="-3.17674">
        <ele>43.9</ele>
        <time>2011-05-26T11:13:10Z</time>
      </trkpt>
      <trkpt lat="47.78556" lon="-3.17682">
        <ele>44.3</ele>
        <time>2011-05-26T11:13:12Z</time>
      </trkpt>
      <trkpt lat="47.78553" lon="-3.17688">
        <ele>44.7</ele>
        <time>2011-05-26T11:13:14Z</time>
      </trkpt>
      <trkpt lat="47.78549" lon="-3.17694">
        <ele>44.2</ele>
        <time>2011-05-26T11:13:16Z</time>
      </trkpt>
      <trkpt lat="47.78545" lon="-3.17699">
        <ele>45.6</ele>
        <time>2011-05-26T11:13:17Z</time>
      </trkpt>
      <trkpt lat="47.7854" lon="-3.177">
        <ele>45.2</ele>
        <time>2011-05-26T11:13:18Z</time>
      </trkpt>
      <trkpt lat="47.78535" lon="-3.17707">
        <ele>46</ele>
        <time>2011-05-26T11:13:19Z</time>
      </trkpt>
      <trkpt lat="47.78532" lon="-3.17712">
        <ele>43.3</ele>
        <time>2011-05-26T11:13:20Z</time>
      </trkpt>
      <trkpt lat="47.78526" lon="-3.17721">
        <ele>43.2</ele>
        <time>2011-05-26T11:13:22Z</time>
      </trkpt>
      <trkpt lat="47.78523" lon="-3.17728">
        <ele>36.7</ele>
        <time>2011-05-26T11:13:23Z</time>
      </trkpt>
      <trkpt lat="47.78521" lon="-3.17735">
        <ele>33.9</ele>
        <time>2011-05-26T11:13:24Z</time>
      </trkpt>
      <trkpt lat="47.78512" lon="-3.17744">
        <ele>37.9</ele>
        <time>2011-05-26T11:13:25Z</time>
      </trkpt>
      <trkpt lat="47.78507" lon="-3.17749">
        <ele>39.6</ele>
        <time>2011-05-26T11:13:28Z</time>
      </trkpt>
      <trkpt lat="47.78502" lon="-3.17756">
        <ele>34.8</ele>
        <time>2011-05-26T11:13:30Z</time>
      </trkpt>
      <trkpt lat="47.78497" lon="-3.17763">
        <ele>33.4</ele>
        <time>2011-05-26T11:13:32Z</time>
      </trkpt>
      <trkpt lat="47.78491" lon="-3.17768">
        <ele>33.3</ele>
        <time>2011-05-26T11:13:34Z</time>
      </trkpt>
      <trkpt lat="47.78483" lon="-3.17776">
        <ele>34.9</ele>
        <time>2011-05-26T11:13:36Z</time>
      </trkpt>
      <trkpt lat="47.78475" lon="-3.17784">
        <ele>34.1</ele>
        <time>2011-05-26T11:13:38Z</time>
      </trkpt>
      <trkpt lat="47.7847" lon="-3.17787">
        <ele>34.3</ele>
        <time>2011-05-26T11:13:39Z</time>
      </trkpt>
      <trkpt lat="47.78466" lon="-3.17792">
        <ele>34.8</ele>
        <time>2011-05-26T11:13:40Z</time>
      </trkpt>
      <trkpt lat="47.78467" lon="-3.17801">
        <ele>33.8</ele>
        <time>2011-05-26T11:13:41Z</time>
      </trkpt>
      <trkpt lat="47.78462" lon="-3.17806">
        <ele>38</ele>
        <time>2011-05-26T11:13:43Z</time>
      </trkpt>
      <trkpt lat="47.78459" lon="-3.17811">
        <ele>41.7</ele>
        <time>2011-05-26T11:13:45Z</time>
      </trkpt>
      <trkpt lat="47.78459" lon="-3.17819">
        <ele>46</ele>
        <time>2011-05-26T11:13:48Z</time>
      </trkpt>
      <trkpt lat="47.78456" lon="-3.17825">
        <ele>49.6</ele>
        <time>2011-05-26T11:13:49Z</time>
      </trkpt>
      <trkpt lat="47.78453" lon="-3.1783">
        <ele>52.1</ele>
        <time>2011-05-26T11:13:50Z</time>
      </trkpt>
      <trkpt lat="47.78452" lon="-3.17838">
        <ele>54.5</ele>
        <time>2011-05-26T11:13:53Z</time>
      </trkpt>
      <trkpt lat="47.78452" lon="-3.17845">
        <ele>57.2</ele>
        <time>2011-05-26T11:13:55Z</time>
      </trkpt>
      <trkpt lat="47.78451" lon="-3.17852">
        <ele>58.5</ele>
        <time>2011-05-26T11:13:57Z</time>
      </trkpt>
      <trkpt lat="47.78449" lon="-3.1786">
        <ele>60.1</ele>
        <time>2011-05-26T11:14:00Z</time>
      </trkpt>
      <trkpt lat="47.78449" lon="-3.17869">
        <ele>63.9</ele>
        <time>2011-05-26T11:14:03Z</time>
      </trkpt>
      <trkpt lat="47.78448" lon="-3.17877">
        <ele>64.5</ele>
        <time>2011-05-26T11:14:06Z</time>
      </trkpt>
      <trkpt lat="47.78448" lon="-3.17884">
        <ele>64.7</ele>
        <time>2011-05-26T11:14:09Z</time>
      </trkpt>
      <trkpt lat="47.78449" lon="-3.17891">
        <ele>65.3</ele>
        <time>2011-05-26T11:14:12Z</time>
      </trkpt>
      <trkpt lat="47.78446" lon="-3.17896">
        <ele>64.7</ele>
        <time>2011-05-26T11:14:15Z</time>
      </trkpt>
      <trkpt lat="47.7844" lon="-3.17896">
        <ele>66.2</ele>
        <time>2011-05-26T11:14:20Z</time>
      </trkpt>
      <trkpt lat="47.78435" lon="-3.17893">
        <ele>65.5</ele>
        <time>2011-05-26T11:14:23Z</time>
      </trkpt>
      <trkpt lat="47.78428" lon="-3.17891">
        <ele>65.4</ele>
        <time>2011-05-26T11:14:26Z</time>
      </trkpt>
      <trkpt lat="47.78422" lon="-3.17891">
        <ele>64.7</ele>
        <time>2011-05-26T11:14:28Z</time>
      </trkpt>
      <trkpt lat="47.78417" lon="-3.17892">
        <ele>64.8</ele>
        <time>2011-05-26T11:14:30Z</time>
      </trkpt>
      <trkpt lat="47.78411" lon="-3.17894">
        <ele>64.7</ele>
        <time>2011-05-26T11:14:45Z</time>
      </trkpt>
      <trkpt lat="47.78407" lon="-3.17897">
        <ele>63.7</ele>
        <time>2011-05-26T11:14:47Z</time>
      </trkpt>
      <trkpt lat="47.78402" lon="-3.17898">
        <ele>62.1</ele>
        <time>2011-05-26T11:14:48Z</time>
      </trkpt>
      <trkpt lat="47.78393" lon="-3.17902">
        <ele>61.8</ele>
        <time>2011-05-26T11:14:50Z</time>
      </trkpt>
      <trkpt lat="47.78388" lon="-3.17902">
        <ele>60.9</ele>
        <time>2011-05-26T11:14:51Z</time>
      </trkpt>
      <trkpt lat="47.78383" lon="-3.17901">
        <ele>59.9</ele>
        <time>2011-05-26T11:14:52Z</time>
      </trkpt>
      <trkpt lat="47.78378" lon="-3.17901">
        <ele>59.2</ele>
        <time>2011-05-26T11:14:53Z</time>
      </trkpt>
      <trkpt lat="47.78372" lon="-3.179">
        <ele>58.3</ele>
        <time>2011-05-26T11:14:54Z</time>
      </trkpt>
      <trkpt lat="47.78367" lon="-3.17899">
        <ele>58.3</ele>
        <time>2011-05-26T11:14:55Z</time>
      </trkpt>
      <trkpt lat="47.7836" lon="-3.17897">
        <ele>58.4</ele>
        <time>2011-05-26T11:14:56Z</time>
      </trkpt>
      <trkpt lat="47.78353" lon="-3.17895">
        <ele>58.5</ele>
        <time>2011-05-26T11:14:57Z</time>
      </trkpt>
      <trkpt lat="47.78347" lon="-3.17892">
        <ele>58.5</ele>
        <time>2011-05-26T11:14:58Z</time>
      </trkpt>
      <trkpt lat="47.7834" lon="-3.1789">
        <ele>58.7</ele>
        <time>2011-05-26T11:14:59Z</time>
      </trkpt>
      <trkpt lat="47.78335" lon="-3.17886">
        <ele>59.2</ele>
        <time>2011-05-26T11:15:00Z</time>
      </trkpt>
      <trkpt lat="47.78324" lon="-3.17881">
        <ele>59.3</ele>
        <time>2011-05-26T11:15:01Z</time>
      </trkpt>
      <trkpt lat="47.78313" lon="-3.17877">
        <ele>59.7</ele>
        <time>2011-05-26T11:15:02Z</time>
      </trkpt>
      <trkpt lat="47.78308" lon="-3.17872">
        <ele>59.7</ele>
        <time>2011-05-26T11:15:03Z</time>
      </trkpt>
      <trkpt lat="47.78303" lon="-3.17866">
        <ele>59.6</ele>
        <time>2011-05-26T11:15:04Z</time>
      </trkpt>
      <trkpt lat="47.78299" lon="-3.17861">
        <ele>59.7</ele>
        <time>2011-05-26T11:15:05Z</time>
      </trkpt>
      <trkpt lat="47.78296" lon="-3.17856">
        <ele>59.9</ele>
        <time>2011-05-26T11:15:06Z</time>
      </trkpt>
      <trkpt lat="47.78293" lon="-3.1785">
        <ele>60.2</ele>
        <time>2011-05-26T11:15:07Z</time>
      </trkpt>
      <trkpt lat="47.78288" lon="-3.17841">
        <ele>61.9</ele>
        <time>2011-05-26T11:15:09Z</time>
      </trkpt>
      <trkpt lat="47.78284" lon="-3.17835">
        <ele>62.5</ele>
        <time>2011-05-26T11:15:10Z</time>
      </trkpt>
      <trkpt lat="47.78276" lon="-3.17825">
        <ele>62.1</ele>
        <time>2011-05-26T11:15:12Z</time>
      </trkpt>
      <trkpt lat="47.78272" lon="-3.1782">
        <ele>62.7</ele>
        <time>2011-05-26T11:15:13Z</time>
      </trkpt>
      <trkpt lat="47.78269" lon="-3.17814">
        <ele>63.6</ele>
        <time>2011-05-26T11:15:14Z</time>
      </trkpt>
      <trkpt lat="47.7826" lon="-3.17807">
        <ele>62.7</ele>
        <time>2011-05-26T11:15:16Z</time>
      </trkpt>
      <trkpt lat="47.78252" lon="-3.17801">
        <ele>63.9</ele>
        <time>2011-05-26T11:15:18Z</time>
      </trkpt>
      <trkpt lat="47.78243" lon="-3.17795">
        <ele>63.7</ele>
        <time>2011-05-26T11:15:20Z</time>
      </trkpt>
      <trkpt lat="47.78235" lon="-3.1779">
        <ele>63.5</ele>
        <time>2011-05-26T11:15:22Z</time>
      </trkpt>
      <trkpt lat="47.78229" lon="-3.17788">
        <ele>63.7</ele>
        <time>2011-05-26T11:15:23Z</time>
      </trkpt>
      <trkpt lat="47.78224" lon="-3.17786">
        <ele>64.6</ele>
        <time>2011-05-26T11:15:24Z</time>
      </trkpt>
      <trkpt lat="47.78219" lon="-3.17783">
        <ele>64.5</ele>
        <time>2011-05-26T11:15:25Z</time>
      </trkpt>
      <trkpt lat="47.78214" lon="-3.17782">
        <ele>64.7</ele>
        <time>2011-05-26T11:15:26Z</time>
      </trkpt>
      <trkpt lat="47.7821" lon="-3.1778">
        <ele>65</ele>
        <time>2011-05-26T11:15:27Z</time>
      </trkpt>
      <trkpt lat="47.78205" lon="-3.17778">
        <ele>65.1</ele>
        <time>2011-05-26T11:15:28Z</time>
      </trkpt>
      <trkpt lat="47.782" lon="-3.17777">
        <ele>65.3</ele>
        <time>2011-05-26T11:15:29Z</time>
      </trkpt>
      <trkpt lat="47.78192" lon="-3.17773">
        <ele>64.4</ele>
        <time>2011-05-26T11:15:31Z</time>
      </trkpt>
      <trkpt lat="47.78187" lon="-3.1777">
        <ele>64.6</ele>
        <time>2011-05-26T11:15:32Z</time>
      </trkpt>
      <trkpt lat="47.78182" lon="-3.17767">
        <ele>64.8</ele>
        <time>2011-05-26T11:15:33Z</time>
      </trkpt>
      <trkpt lat="47.78178" lon="-3.17764">
        <ele>64.7</ele>
        <time>2011-05-26T11:15:34Z</time>
      </trkpt>
      <trkpt lat="47.78169" lon="-3.17761">
        <ele>64.9</ele>
        <time>2011-05-26T11:15:36Z</time>
      </trkpt>
      <trkpt lat="47.78165" lon="-3.17758">
        <ele>64.9</ele>
        <time>2011-05-26T11:15:37Z</time>
      </trkpt>
      <trkpt lat="47.78155" lon="-3.17756">
        <ele>64.6</ele>
        <time>2011-05-26T11:15:39Z</time>
      </trkpt>
      <trkpt lat="47.78151" lon="-3.17754">
        <ele>64.6</ele>
        <time>2011-05-26T11:15:40Z</time>
      </trkpt>
      <trkpt lat="47.78141" lon="-3.17755">
        <ele>64.3</ele>
        <time>2011-05-26T11:15:42Z</time>
      </trkpt>
      <trkpt lat="47.78131" lon="-3.17756">
        <ele>64.1</ele>
        <time>2011-05-26T11:15:44Z</time>
      </trkpt>
      <trkpt lat="47.78126" lon="-3.17757">
        <ele>64.8</ele>
        <time>2011-05-26T11:15:45Z</time>
      </trkpt>
      <trkpt lat="47.7812" lon="-3.17763">
        <ele>65.1</ele>
        <time>2011-05-26T11:15:47Z</time>
      </trkpt>
      <trkpt lat="47.78115" lon="-3.1777">
        <ele>64.5</ele>
        <time>2011-05-26T11:15:49Z</time>
      </trkpt>
      <trkpt lat="47.78115" lon="-3.17778">
        <ele>64.4</ele>
        <time>2011-05-26T11:15:50Z</time>
      </trkpt>
      <trkpt lat="47.7812" lon="-3.17789">
        <ele>65.1</ele>
        <time>2011-05-26T11:15:52Z</time>
      </trkpt>
      <trkpt lat="47.7812" lon="-3.17797">
        <ele>64.4</ele>
        <time>2011-05-26T11:15:53Z</time>
      </trkpt>
      <trkpt lat="47.78121" lon="-3.1781">
        <ele>66.2</ele>
        <time>2011-05-26T11:15:55Z</time>
      </trkpt>
      <trkpt lat="47.78121" lon="-3.17817">
        <ele>65.7</ele>
        <time>2011-05-26T11:15:56Z</time>
      </trkpt>
      <trkpt lat="47.78121" lon="-3.17824">
        <ele>65.6</ele>
        <time>2011-05-26T11:15:57Z</time>
      </trkpt>
      <trkpt lat="47.78122" lon="-3.17831">
        <ele>65.8</ele>
        <time>2011-05-26T11:15:58Z</time>
      </trkpt>
      <trkpt lat="47.78122" lon="-3.17844">
        <ele>65.9</ele>
        <time>2011-05-26T11:16:00Z</time>
      </trkpt>
      <trkpt lat="47.78122" lon="-3.17856">
        <ele>65.4</ele>
        <time>2011-05-26T11:16:02Z</time>
      </trkpt>
      <trkpt lat="47.78123" lon="-3.17866">
        <ele>65.3</ele>
        <time>2011-05-26T11:16:04Z</time>
      </trkpt>
      <trkpt lat="47.78124" lon="-3.17877">
        <ele>66</ele>
        <time>2011-05-26T11:16:06Z</time>
      </trkpt>
      <trkpt lat="47.78124" lon="-3.17887">
        <ele>66.4</ele>
        <time>2011-05-26T11:16:08Z</time>
      </trkpt>
      <trkpt lat="47.78125" lon="-3.17894">
        <ele>66.5</ele>
        <time>2011-05-26T11:16:10Z</time>
      </trkpt>
      <trkpt lat="47.78125" lon="-3.17904">
        <ele>66.6</ele>
        <time>2011-05-26T11:16:12Z</time>
      </trkpt>
      <trkpt lat="47.78126" lon="-3.17914">
        <ele>66.9</ele>
        <time>2011-05-26T11:16:14Z</time>
      </trkpt>
      <trkpt lat="47.78126" lon="-3.17924">
        <ele>67</ele>
        <time>2011-05-26T11:16:16Z</time>
      </trkpt>
      <trkpt lat="47.78126" lon="-3.17934">
        <ele>68</ele>
        <time>2011-05-26T11:16:18Z</time>
      </trkpt>
      <trkpt lat="47.78127" lon="-3.17942">
        <ele>68.5</ele>
        <time>2011-05-26T11:16:20Z</time>
      </trkpt>
      <trkpt lat="47.78127" lon="-3.17951">
        <ele>69.2</ele>
        <time>2011-05-26T11:16:22Z</time>
      </trkpt>
      <trkpt lat="47.78127" lon="-3.1796">
        <ele>69.3</ele>
        <time>2011-05-26T11:16:24Z</time>
      </trkpt>
      <trkpt lat="47.78128" lon="-3.17969">
        <ele>68.9</ele>
        <time>2011-05-26T11:16:26Z</time>
      </trkpt>
      <trkpt lat="47.78128" lon="-3.17978">
        <ele>69.2</ele>
        <time>2011-05-26T11:16:28Z</time>
      </trkpt>
      <trkpt lat="47.78128" lon="-3.17986">
        <ele>69.1</ele>
        <time>2011-05-26T11:16:30Z</time>
      </trkpt>
      <trkpt lat="47.78129" lon="-3.17995">
        <ele>68.6</ele>
        <time>2011-05-26T11:16:32Z</time>
      </trkpt>
      <trkpt lat="47.78129" lon="-3.18003">
        <ele>68.7</ele>
        <time>2011-05-26T11:16:34Z</time>
      </trkpt>
      <trkpt lat="47.78129" lon="-3.18011">
        <ele>68.5</ele>
        <time>2011-05-26T11:16:36Z</time>
      </trkpt>
      <trkpt lat="47.7813" lon="-3.18019">
        <ele>68.5</ele>
        <time>2011-05-26T11:16:38Z</time>
      </trkpt>
      <trkpt lat="47.7813" lon="-3.18029">
        <ele>67.9</ele>
        <time>2011-05-26T11:16:40Z</time>
      </trkpt>
      <trkpt lat="47.78131" lon="-3.18038">
        <ele>68.4</ele>
        <time>2011-05-26T11:16:42Z</time>
      </trkpt>
      <trkpt lat="47.78131" lon="-3.18047">
        <ele>68.7</ele>
        <time>2011-05-26T11:16:44Z</time>
      </trkpt>
      <trkpt lat="47.78131" lon="-3.18055">
        <ele>69.5</ele>
        <time>2011-05-26T11:16:46Z</time>
      </trkpt>
      <trkpt lat="47.78131" lon="-3.18064">
        <ele>69.5</ele>
        <time>2011-05-26T11:16:48Z</time>
      </trkpt>
      <trkpt lat="47.78132" lon="-3.18074">
        <ele>70.2</ele>
        <time>2011-05-26T11:16:50Z</time>
      </trkpt>
      <trkpt lat="47.78132" lon="-3.18084">
        <ele>69.9</ele>
        <time>2011-05-26T11:16:52Z</time>
      </trkpt>
      <trkpt lat="47.78134" lon="-3.18092">
        <ele>70.3</ele>
        <time>2011-05-26T11:16:54Z</time>
      </trkpt>
      <trkpt lat="47.78138" lon="-3.18098">
        <ele>70.8</ele>
        <time>2011-05-26T11:16:56Z</time>
      </trkpt>
      <trkpt lat="47.78143" lon="-3.18102">
        <ele>71</ele>
        <time>2011-05-26T11:16:58Z</time>
      </trkpt>
      <trkpt lat="47.78149" lon="-3.18101">
        <ele>70.7</ele>
        <time>2011-05-26T11:17:00Z</time>
      </trkpt>
      <trkpt lat="47.78154" lon="-3.181">
        <ele>71</ele>
        <time>2011-05-26T11:17:02Z</time>
      </trkpt>
      <trkpt lat="47.78159" lon="-3.18098">
        <ele>71.4</ele>
        <time>2011-05-26T11:17:04Z</time>
      </trkpt>
      <trkpt lat="47.78164" lon="-3.18098">
        <ele>71.3</ele>
        <time>2011-05-26T11:17:06Z</time>
      </trkpt>
      <trkpt lat="47.7817" lon="-3.18099">
        <ele>71.6</ele>
        <time>2011-05-26T11:17:08Z</time>
      </trkpt>
      <trkpt lat="47.78177" lon="-3.18099">
        <ele>71.7</ele>
        <time>2011-05-26T11:17:10Z</time>
      </trkpt>
      <trkpt lat="47.78183" lon="-3.181">
        <ele>71.9</ele>
        <time>2011-05-26T11:17:12Z</time>
      </trkpt>
      <trkpt lat="47.7819" lon="-3.18101">
        <ele>71.8</ele>
        <time>2011-05-26T11:17:14Z</time>
      </trkpt>
      <trkpt lat="47.78198" lon="-3.18102">
        <ele>71.9</ele>
        <time>2011-05-26T11:17:16Z</time>
      </trkpt>
      <trkpt lat="47.78205" lon="-3.18102">
        <ele>71.8</ele>
        <time>2011-05-26T11:17:18Z</time>
      </trkpt>
      <trkpt lat="47.78213" lon="-3.18102">
        <ele>72.4</ele>
        <time>2011-05-26T11:17:20Z</time>
      </trkpt>
      <trkpt lat="47.7822" lon="-3.18103">
        <ele>73</ele>
        <time>2011-05-26T11:17:22Z</time>
      </trkpt>
      <trkpt lat="47.78227" lon="-3.18104">
        <ele>72.7</ele>
        <time>2011-05-26T11:17:24Z</time>
      </trkpt>
      <trkpt lat="47.78234" lon="-3.18105">
        <ele>72.7</ele>
        <time>2011-05-26T11:17:26Z</time>
      </trkpt>
      <trkpt lat="47.78241" lon="-3.18106">
        <ele>72.7</ele>
        <time>2011-05-26T11:17:28Z</time>
      </trkpt>
      <trkpt lat="47.78248" lon="-3.18107">
        <ele>72.5</ele>
        <time>2011-05-26T11:17:30Z</time>
      </trkpt>
      <trkpt lat="47.78254" lon="-3.18108">
        <ele>72.6</ele>
        <time>2011-05-26T11:17:32Z</time>
      </trkpt>
      <trkpt lat="47.7826" lon="-3.18109">
        <ele>72.8</ele>
        <time>2011-05-26T11:17:34Z</time>
      </trkpt>
      <trkpt lat="47.78266" lon="-3.18108">
        <ele>72.8</ele>
        <time>2011-05-26T11:17:36Z</time>
      </trkpt>
      <trkpt lat="47.78271" lon="-3.18109">
        <ele>73.5</ele>
        <time>2011-05-26T11:17:38Z</time>
      </trkpt>
      <trkpt lat="47.78277" lon="-3.18109">
        <ele>73.1</ele>
        <time>2011-05-26T11:17:40Z</time>
      </trkpt>
      <trkpt lat="47.78282" lon="-3.18113">
        <ele>73.3</ele>
        <time>2011-05-26T11:17:42Z</time>
      </trkpt>
      <trkpt lat="47.78288" lon="-3.18114">
        <ele>73</ele>
        <time>2011-05-26T11:17:44Z</time>
      </trkpt>
      <trkpt lat="47.78294" lon="-3.18115">
        <ele>73.6</ele>
        <time>2011-05-26T11:17:46Z</time>
      </trkpt>
      <trkpt lat="47.783" lon="-3.18116">
        <ele>73.8</ele>
        <time>2011-05-26T11:17:48Z</time>
      </trkpt>
      <trkpt lat="47.78305" lon="-3.18118">
        <ele>73.9</ele>
        <time>2011-05-26T11:17:50Z</time>
      </trkpt>
      <trkpt lat="47.78309" lon="-3.18121">
        <ele>74.4</ele>
        <time>2011-05-26T11:17:53Z</time>
      </trkpt>
      <trkpt lat="47.78315" lon="-3.18122">
        <ele>75.6</ele>
        <time>2011-05-26T11:18:55Z</time>
      </trkpt>
      <trkpt lat="47.78321" lon="-3.18122">
        <ele>75.8</ele>
        <time>2011-05-26T11:18:57Z</time>
      </trkpt>
      <trkpt lat="47.78327" lon="-3.18121">
        <ele>75.4</ele>
        <time>2011-05-26T11:18:59Z</time>
      </trkpt>
      <trkpt lat="47.78333" lon="-3.18121">
        <ele>75.1</ele>
        <time>2011-05-26T11:19:01Z</time>
      </trkpt>
      <trkpt lat="47.78339" lon="-3.18121">
        <ele>75.3</ele>
        <time>2011-05-26T11:19:03Z</time>
      </trkpt>
      <trkpt lat="47.78345" lon="-3.18122">
        <ele>76.3</ele>
        <time>2011-05-26T11:19:05Z</time>
      </trkpt>
      <trkpt lat="47.78352" lon="-3.18123">
        <ele>76.3</ele>
        <time>2011-05-26T11:19:07Z</time>
      </trkpt>
      <trkpt lat="47.7836" lon="-3.18124">
        <ele>75.6</ele>
        <time>2011-05-26T11:19:09Z</time>
      </trkpt>
      <trkpt lat="47.78366" lon="-3.18124">
        <ele>76.3</ele>
        <time>2011-05-26T11:19:11Z</time>
      </trkpt>
      <trkpt lat="47.78372" lon="-3.18125">
        <ele>76.1</ele>
        <time>2011-05-26T11:19:13Z</time>
      </trkpt>
      <trkpt lat="47.78378" lon="-3.18125">
        <ele>75.1</ele>
        <time>2011-05-26T11:19:15Z</time>
      </trkpt>
      <trkpt lat="47.78384" lon="-3.18127">
        <ele>75.9</ele>
        <time>2011-05-26T11:19:17Z</time>
      </trkpt>
      <trkpt lat="47.78389" lon="-3.18128">
        <ele>75.8</ele>
        <time>2011-05-26T11:19:19Z</time>
      </trkpt>
      <trkpt lat="47.78391" lon="-3.18135">
        <ele>75.4</ele>
        <time>2011-05-26T11:19:21Z</time>
      </trkpt>
      <trkpt lat="47.78389" lon="-3.18144">
        <ele>74.8</ele>
        <time>2011-05-26T11:19:23Z</time>
      </trkpt>
      <trkpt lat="47.78385" lon="-3.18155">
        <ele>74.3</ele>
        <time>2011-05-26T11:19:25Z</time>
      </trkpt>
      <trkpt lat="47.78383" lon="-3.18162">
        <ele>74.6</ele>
        <time>2011-05-26T11:19:26Z</time>
      </trkpt>
      <trkpt lat="47.78382" lon="-3.18175">
        <ele>73.5</ele>
        <time>2011-05-26T11:19:28Z</time>
      </trkpt>
      <trkpt lat="47.78381" lon="-3.18181">
        <ele>72.7</ele>
        <time>2011-05-26T11:19:29Z</time>
      </trkpt>
      <trkpt lat="47.78382" lon="-3.18194">
        <ele>71.7</ele>
        <time>2011-05-26T11:19:31Z</time>
      </trkpt>
      <trkpt lat="47.78382" lon="-3.18202">
        <ele>70.8</ele>
        <time>2011-05-26T11:19:32Z</time>
      </trkpt>
      <trkpt lat="47.78382" lon="-3.18208">
        <ele>70.8</ele>
        <time>2011-05-26T11:19:33Z</time>
      </trkpt>
      <trkpt lat="47.78382" lon="-3.18216">
        <ele>71</ele>
        <time>2011-05-26T11:19:34Z</time>
      </trkpt>
      <trkpt lat="47.78382" lon="-3.18222">
        <ele>71.1</ele>
        <time>2011-05-26T11:19:35Z</time>
      </trkpt>
      <trkpt lat="47.78383" lon="-3.1823">
        <ele>71.5</ele>
        <time>2011-05-26T11:19:36Z</time>
      </trkpt>
      <trkpt lat="47.78383" lon="-3.18237">
        <ele>71.7</ele>
        <time>2011-05-26T11:19:37Z</time>
      </trkpt>
      <trkpt lat="47.78383" lon="-3.18244">
        <ele>71.7</ele>
        <time>2011-05-26T11:19:38Z</time>
      </trkpt>
      <trkpt lat="47.78383" lon="-3.18252">
        <ele>71.6</ele>
        <time>2011-05-26T11:19:39Z</time>
      </trkpt>
      <trkpt lat="47.78383" lon="-3.18259">
        <ele>71.9</ele>
        <time>2011-05-26T11:19:40Z</time>
      </trkpt>
      <trkpt lat="47.78383" lon="-3.18266">
        <ele>71.6</ele>
        <time>2011-05-26T11:19:41Z</time>
      </trkpt>
      <trkpt lat="47.78383" lon="-3.18273">
        <ele>71.7</ele>
        <time>2011-05-26T11:19:42Z</time>
      </trkpt>
      <trkpt lat="47.78384" lon="-3.18286">
        <ele>71.8</ele>
        <time>2011-05-26T11:19:44Z</time>
      </trkpt>
      <trkpt lat="47.78384" lon="-3.18293">
        <ele>71.4</ele>
        <time>2011-05-26T11:19:45Z</time>
      </trkpt>
      <trkpt lat="47.78384" lon="-3.18301">
        <ele>71</ele>
        <time>2011-05-26T11:19:46Z</time>
      </trkpt>
      <trkpt lat="47.78385" lon="-3.18308">
        <ele>70.4</ele>
        <time>2011-05-26T11:19:47Z</time>
      </trkpt>
      <trkpt lat="47.78386" lon="-3.18315">
        <ele>70.2</ele>
        <time>2011-05-26T11:19:48Z</time>
      </trkpt>
      <trkpt lat="47.78386" lon="-3.18323">
        <ele>70.2</ele>
        <time>2011-05-26T11:19:49Z</time>
      </trkpt>
      <trkpt lat="47.78386" lon="-3.18331">
        <ele>69.9</ele>
        <time>2011-05-26T11:19:50Z</time>
      </trkpt>
      <trkpt lat="47.78386" lon="-3.18339">
        <ele>69.6</ele>
        <time>2011-05-26T11:19:51Z</time>
      </trkpt>
      <trkpt lat="47.78386" lon="-3.18346">
        <ele>69.2</ele>
        <time>2011-05-26T11:19:52Z</time>
      </trkpt>
      <trkpt lat="47.78386" lon="-3.18354">
        <ele>68.7</ele>
        <time>2011-05-26T11:19:53Z</time>
      </trkpt>
      <trkpt lat="47.78386" lon="-3.18362">
        <ele>68.7</ele>
        <time>2011-05-26T11:19:54Z</time>
      </trkpt>
      <trkpt lat="47.78386" lon="-3.1837">
        <ele>68.3</ele>
        <time>2011-05-26T11:19:55Z</time>
      </trkpt>
      <trkpt lat="47.78386" lon="-3.18378">
        <ele>68.3</ele>
        <time>2011-05-26T11:19:56Z</time>
      </trkpt>
      <trkpt lat="47.78386" lon="-3.18386">
        <ele>68.3</ele>
        <time>2011-05-26T11:19:57Z</time>
      </trkpt>
      <trkpt lat="47.78387" lon="-3.18395">
        <ele>68</ele>
        <time>2011-05-26T11:19:58Z</time>
      </trkpt>
      <trkpt lat="47.78386" lon="-3.18402">
        <ele>68.3</ele>
        <time>2011-05-26T11:19:59Z</time>
      </trkpt>
      <trkpt lat="47.78385" lon="-3.18412">
        <ele>68.2</ele>
        <time>2011-05-26T11:20:00Z</time>
      </trkpt>
      <trkpt lat="47.78383" lon="-3.18421">
        <ele>68.4</ele>
        <time>2011-05-26T11:20:01Z</time>
      </trkpt>
      <trkpt lat="47.78382" lon="-3.18432">
        <ele>68.2</ele>
        <time>2011-05-26T11:20:03Z</time>
      </trkpt>
      <trkpt lat="47.78381" lon="-3.18442">
        <ele>68.5</ele>
        <time>2011-05-26T11:20:04Z</time>
      </trkpt>
      <trkpt lat="47.78382" lon="-3.18455">
        <ele>67.9</ele>
        <time>2011-05-26T11:20:06Z</time>
      </trkpt>
      <trkpt lat="47.78382" lon="-3.18464">
        <ele>67.4</ele>
        <time>2011-05-26T11:20:07Z</time>
      </trkpt>
      <trkpt lat="47.78384" lon="-3.18473">
        <ele>67.1</ele>
        <time>2011-05-26T11:20:08Z</time>
      </trkpt>
      <trkpt lat="47.78385" lon="-3.18481">
        <ele>67.1</ele>
        <time>2011-05-26T11:20:09Z</time>
      </trkpt>
      <trkpt lat="47.78387" lon="-3.18487">
        <ele>67.2</ele>
        <time>2011-05-26T11:20:10Z</time>
      </trkpt>
      <trkpt lat="47.78389" lon="-3.18497">
        <ele>67.9</ele>
        <time>2011-05-26T11:20:13Z</time>
      </trkpt>
      <trkpt lat="47.78386" lon="-3.18503">
        <ele>67.9</ele>
        <time>2011-05-26T11:20:14Z</time>
      </trkpt>
      <trkpt lat="47.78384" lon="-3.1851">
        <ele>64.6</ele>
        <time>2011-05-26T11:20:16Z</time>
      </trkpt>
      <trkpt lat="47.78382" lon="-3.18523">
        <ele>64.6</ele>
        <time>2011-05-26T11:20:18Z</time>
      </trkpt>
      <trkpt lat="47.78382" lon="-3.18531">
        <ele>65.4</ele>
        <time>2011-05-26T11:20:19Z</time>
      </trkpt>
      <trkpt lat="47.7838" lon="-3.18538">
        <ele>66</ele>
        <time>2011-05-26T11:20:20Z</time>
      </trkpt>
      <trkpt lat="47.78384" lon="-3.18549">
        <ele>67</ele>
        <time>2011-05-26T11:20:21Z</time>
      </trkpt>
      <trkpt lat="47.78384" lon="-3.18557">
        <ele>68.6</ele>
        <time>2011-05-26T11:20:22Z</time>
      </trkpt>
      <trkpt lat="47.78387" lon="-3.18569">
        <ele>69.4</ele>
        <time>2011-05-26T11:20:24Z</time>
      </trkpt>
      <trkpt lat="47.78388" lon="-3.18577">
        <ele>67.2</ele>
        <time>2011-05-26T11:20:25Z</time>
      </trkpt>
      <trkpt lat="47.78388" lon="-3.18587">
        <ele>68.5</ele>
        <time>2011-05-26T11:20:27Z</time>
      </trkpt>
      <trkpt lat="47.78389" lon="-3.18594">
        <ele>69.8</ele>
        <time>2011-05-26T11:20:29Z</time>
      </trkpt>
      <trkpt lat="47.78389" lon="-3.18602">
        <ele>70.5</ele>
        <time>2011-05-26T11:20:30Z</time>
      </trkpt>
      <trkpt lat="47.7839" lon="-3.1861">
        <ele>73.8</ele>
        <time>2011-05-26T11:20:33Z</time>
      </trkpt>
      <trkpt lat="47.78389" lon="-3.18619">
        <ele>76.7</ele>
        <time>2011-05-26T11:20:39Z</time>
      </trkpt>
      <trkpt lat="47.7839" lon="-3.18627">
        <ele>78.3</ele>
        <time>2011-05-26T11:20:41Z</time>
      </trkpt>
      <trkpt lat="47.7839" lon="-3.18635">
        <ele>78</ele>
        <time>2011-05-26T11:20:43Z</time>
      </trkpt>
      <trkpt lat="47.78391" lon="-3.18645">
        <ele>78.9</ele>
        <time>2011-05-26T11:20:45Z</time>
      </trkpt>
      <trkpt lat="47.78389" lon="-3.18653">
        <ele>81.3</ele>
        <time>2011-05-26T11:20:47Z</time>
      </trkpt>
      <trkpt lat="47.7839" lon="-3.1866">
        <ele>81.9</ele>
        <time>2011-05-26T11:20:49Z</time>
      </trkpt>
      <trkpt lat="47.78392" lon="-3.18668">
        <ele>84</ele>
        <time>2011-05-26T11:20:52Z</time>
      </trkpt>
      <trkpt lat="47.78394" lon="-3.18679">
        <ele>83.7</ele>
        <time>2011-05-26T11:20:54Z</time>
      </trkpt>
      <trkpt lat="47.78394" lon="-3.18687">
        <ele>77.9</ele>
        <time>2011-05-26T11:20:57Z</time>
      </trkpt>
      <trkpt lat="47.78393" lon="-3.18694">
        <ele>80.2</ele>
        <time>2011-05-26T11:20:59Z</time>
      </trkpt>
      <trkpt lat="47.78391" lon="-3.18704">
        <ele>80.1</ele>
        <time>2011-05-26T11:21:02Z</time>
      </trkpt>
      <trkpt lat="47.78388" lon="-3.1871">
        <ele>80.2</ele>
        <time>2011-05-26T11:21:05Z</time>
      </trkpt>
      <trkpt lat="47.78382" lon="-3.18713">
        <ele>80.3</ele>
        <time>2011-05-26T11:21:07Z</time>
      </trkpt>
      <trkpt lat="47.78376" lon="-3.18716">
        <ele>80.8</ele>
        <time>2011-05-26T11:21:09Z</time>
      </trkpt>
      <trkpt lat="47.78369" lon="-3.18721">
        <ele>80.6</ele>
        <time>2011-05-26T11:21:11Z</time>
      </trkpt>
      <trkpt lat="47.78361" lon="-3.18726">
        <ele>81.2</ele>
        <time>2011-05-26T11:21:13Z</time>
      </trkpt>
      <trkpt lat="47.78357" lon="-3.18728">
        <ele>80.8</ele>
        <time>2011-05-26T11:21:14Z</time>
      </trkpt>
      <trkpt lat="47.78352" lon="-3.1873">
        <ele>80.1</ele>
        <time>2011-05-26T11:21:15Z</time>
      </trkpt>
      <trkpt lat="47.78343" lon="-3.18734">
        <ele>80.2</ele>
        <time>2011-05-26T11:21:17Z</time>
      </trkpt>
      <trkpt lat="47.78334" lon="-3.18739">
        <ele>79.8</ele>
        <time>2011-05-26T11:21:19Z</time>
      </trkpt>
      <trkpt lat="47.7833" lon="-3.18741">
        <ele>80.3</ele>
        <time>2011-05-26T11:21:20Z</time>
      </trkpt>
      <trkpt lat="47.78325" lon="-3.18744">
        <ele>80.3</ele>
        <time>2011-05-26T11:21:21Z</time>
      </trkpt>
      <trkpt lat="47.7832" lon="-3.18747">
        <ele>80.6</ele>
        <time>2011-05-26T11:21:22Z</time>
      </trkpt>
      <trkpt lat="47.78314" lon="-3.1875">
        <ele>79.7</ele>
        <time>2011-05-26T11:21:23Z</time>
      </trkpt>
      <trkpt lat="47.78309" lon="-3.18754">
        <ele>79.3</ele>
        <time>2011-05-26T11:21:24Z</time>
      </trkpt>
      <trkpt lat="47.78304" lon="-3.18757">
        <ele>79.4</ele>
        <time>2011-05-26T11:21:25Z</time>
      </trkpt>
      <trkpt lat="47.78298" lon="-3.18761">
        <ele>80</ele>
        <time>2011-05-26T11:21:26Z</time>
      </trkpt>
      <trkpt lat="47.78294" lon="-3.18764">
        <ele>80</ele>
        <time>2011-05-26T11:21:27Z</time>
      </trkpt>
      <trkpt lat="47.7829" lon="-3.18769">
        <ele>79.5</ele>
        <time>2011-05-26T11:21:28Z</time>
      </trkpt>
      <trkpt lat="47.78286" lon="-3.18773">
        <ele>79.7</ele>
        <time>2011-05-26T11:21:29Z</time>
      </trkpt>
      <trkpt lat="47.78282" lon="-3.18778">
        <ele>79.8</ele>
        <time>2011-05-26T11:21:30Z</time>
      </trkpt>
      <trkpt lat="47.78279" lon="-3.18784">
        <ele>79.6</ele>
        <time>2011-05-26T11:21:31Z</time>
      </trkpt>
      <trkpt lat="47.78276" lon="-3.18791">
        <ele>79.6</ele>
        <time>2011-05-26T11:21:32Z</time>
      </trkpt>
      <trkpt lat="47.78273" lon="-3.18798">
        <ele>79.2</ele>
        <time>2011-05-26T11:21:33Z</time>
      </trkpt>
      <trkpt lat="47.78269" lon="-3.18803">
        <ele>78</ele>
        <time>2011-05-26T11:21:34Z</time>
      </trkpt>
      <trkpt lat="47.78266" lon="-3.1881">
        <ele>77.7</ele>
        <time>2011-05-26T11:21:35Z</time>
      </trkpt>
      <trkpt lat="47.78264" lon="-3.18817">
        <ele>77.1</ele>
        <time>2011-05-26T11:21:36Z</time>
      </trkpt>
      <trkpt lat="47.78263" lon="-3.18824">
        <ele>76.4</ele>
        <time>2011-05-26T11:21:37Z</time>
      </trkpt>
      <trkpt lat="47.78261" lon="-3.18832">
        <ele>76.3</ele>
        <time>2011-05-26T11:21:38Z</time>
      </trkpt>
      <trkpt lat="47.78259" lon="-3.1884">
        <ele>76.6</ele>
        <time>2011-05-26T11:21:39Z</time>
      </trkpt>
      <trkpt lat="47.78257" lon="-3.18848">
        <ele>76.9</ele>
        <time>2011-05-26T11:21:40Z</time>
      </trkpt>
      <trkpt lat="47.78258" lon="-3.18856">
        <ele>76.6</ele>
        <time>2011-05-26T11:21:41Z</time>
      </trkpt>
      <trkpt lat="47.78259" lon="-3.18864">
        <ele>75.6</ele>
        <time>2011-05-26T11:21:42Z</time>
      </trkpt>
      <trkpt lat="47.78259" lon="-3.18871">
        <ele>76.3</ele>
        <time>2011-05-26T11:21:43Z</time>
      </trkpt>
      <trkpt lat="47.7826" lon="-3.18882">
        <ele>76.1</ele>
        <time>2011-05-26T11:21:44Z</time>
      </trkpt>
      <trkpt lat="47.7826" lon="-3.18889">
        <ele>77</ele>
        <time>2011-05-26T11:21:45Z</time>
      </trkpt>
      <trkpt lat="47.78262" lon="-3.18897">
        <ele>77.4</ele>
        <time>2011-05-26T11:21:46Z</time>
      </trkpt>
      <trkpt lat="47.78263" lon="-3.18905">
        <ele>77.4</ele>
        <time>2011-05-26T11:21:47Z</time>
      </trkpt>
      <trkpt lat="47.78263" lon="-3.18913">
        <ele>77.6</ele>
        <time>2011-05-26T11:21:48Z</time>
      </trkpt>
      <trkpt lat="47.78264" lon="-3.18922">
        <ele>78.1</ele>
        <time>2011-05-26T11:21:49Z</time>
      </trkpt>
      <trkpt lat="47.78265" lon="-3.1893">
        <ele>78.3</ele>
        <time>2011-05-26T11:21:50Z</time>
      </trkpt>
      <trkpt lat="47.78265" lon="-3.18938">
        <ele>78.1</ele>
        <time>2011-05-26T11:21:51Z</time>
      </trkpt>
      <trkpt lat="47.78266" lon="-3.18944">
        <ele>78.4</ele>
        <time>2011-05-26T11:21:52Z</time>
      </trkpt>
      <trkpt lat="47.78267" lon="-3.18951">
        <ele>78.9</ele>
        <time>2011-05-26T11:21:53Z</time>
      </trkpt>
      <trkpt lat="47.78269" lon="-3.18964">
        <ele>79.2</ele>
        <time>2011-05-26T11:21:55Z</time>
      </trkpt>
      <trkpt lat="47.78271" lon="-3.18975">
        <ele>79.1</ele>
        <time>2011-05-26T11:21:57Z</time>
      </trkpt>
      <trkpt lat="47.78273" lon="-3.18984">
        <ele>80.4</ele>
        <time>2011-05-26T11:21:59Z</time>
      </trkpt>
      <trkpt lat="47.78274" lon="-3.18995">
        <ele>80</ele>
        <time>2011-05-26T11:22:01Z</time>
      </trkpt>
      <trkpt lat="47.78276" lon="-3.19005">
        <ele>80.1</ele>
        <time>2011-05-26T11:22:03Z</time>
      </trkpt>
      <trkpt lat="47.78278" lon="-3.19016">
        <ele>80.2</ele>
        <time>2011-05-26T11:22:05Z</time>
      </trkpt>
      <trkpt lat="47.78279" lon="-3.19028">
        <ele>80.5</ele>
        <time>2011-05-26T11:22:07Z</time>
      </trkpt>
      <trkpt lat="47.78281" lon="-3.19039">
        <ele>80.8</ele>
        <time>2011-05-26T11:22:09Z</time>
      </trkpt>
      <trkpt lat="47.78283" lon="-3.19051">
        <ele>80.8</ele>
        <time>2011-05-26T11:22:11Z</time>
      </trkpt>
      <trkpt lat="47.78285" lon="-3.19063">
        <ele>80.4</ele>
        <time>2011-05-26T11:22:13Z</time>
      </trkpt>
      <trkpt lat="47.78287" lon="-3.19075">
        <ele>80.3</ele>
        <time>2011-05-26T11:22:15Z</time>
      </trkpt>
      <trkpt lat="47.7829" lon="-3.19087">
        <ele>80.3</ele>
        <time>2011-05-26T11:22:17Z</time>
      </trkpt>
      <trkpt lat="47.78291" lon="-3.19093">
        <ele>80.4</ele>
        <time>2011-05-26T11:22:18Z</time>
      </trkpt>
      <trkpt lat="47.78293" lon="-3.19106">
        <ele>80.3</ele>
        <time>2011-05-26T11:22:20Z</time>
      </trkpt>
      <trkpt lat="47.78293" lon="-3.19112">
        <ele>80.6</ele>
        <time>2011-05-26T11:22:21Z</time>
      </trkpt>
      <trkpt lat="47.78294" lon="-3.19119">
        <ele>80.8</ele>
        <time>2011-05-26T11:22:22Z</time>
      </trkpt>
      <trkpt lat="47.78296" lon="-3.19126">
        <ele>80.8</ele>
        <time>2011-05-26T11:22:23Z</time>
      </trkpt>
      <trkpt lat="47.78298" lon="-3.19133">
        <ele>80.5</ele>
        <time>2011-05-26T11:22:24Z</time>
      </trkpt>
      <trkpt lat="47.78299" lon="-3.1914">
        <ele>80.4</ele>
        <time>2011-05-26T11:22:25Z</time>
      </trkpt>
      <trkpt lat="47.783" lon="-3.19147">
        <ele>79.7</ele>
        <time>2011-05-26T11:22:26Z</time>
      </trkpt>
      <trkpt lat="47.78302" lon="-3.19154">
        <ele>79.6</ele>
        <time>2011-05-26T11:22:27Z</time>
      </trkpt>
      <trkpt lat="47.78303" lon="-3.19161">
        <ele>79.9</ele>
        <time>2011-05-26T11:22:28Z</time>
      </trkpt>
      <trkpt lat="47.78305" lon="-3.19167">
        <ele>80.5</ele>
        <time>2011-05-26T11:22:29Z</time>
      </trkpt>
      <trkpt lat="47.78307" lon="-3.19173">
        <ele>79.5</ele>
        <time>2011-05-26T11:22:30Z</time>
      </trkpt>
      <trkpt lat="47.78311" lon="-3.19184">
        <ele>79.6</ele>
        <time>2011-05-26T11:22:32Z</time>
      </trkpt>
      <trkpt lat="47.78315" lon="-3.19194">
        <ele>78.8</ele>
        <time>2011-05-26T11:22:34Z</time>
      </trkpt>
      <trkpt lat="47.78316" lon="-3.19206">
        <ele>78</ele>
        <time>2011-05-26T11:22:36Z</time>
      </trkpt>
      <trkpt lat="47.78316" lon="-3.19213">
        <ele>77.9</ele>
        <time>2011-05-26T11:22:37Z</time>
      </trkpt>
      <trkpt lat="47.78316" lon="-3.1922">
        <ele>77.9</ele>
        <time>2011-05-26T11:22:38Z</time>
      </trkpt>
      <trkpt lat="47.78316" lon="-3.19228">
        <ele>77.9</ele>
        <time>2011-05-26T11:22:39Z</time>
      </trkpt>
      <trkpt lat="47.78316" lon="-3.19235">
        <ele>77.3</ele>
        <time>2011-05-26T11:22:40Z</time>
      </trkpt>
      <trkpt lat="47.78317" lon="-3.19242">
        <ele>77.2</ele>
        <time>2011-05-26T11:22:41Z</time>
      </trkpt>
      <trkpt lat="47.78319" lon="-3.1925">
        <ele>77.1</ele>
        <time>2011-05-26T11:22:42Z</time>
      </trkpt>
      <trkpt lat="47.7832" lon="-3.19258">
        <ele>76.7</ele>
        <time>2011-05-26T11:22:43Z</time>
      </trkpt>
      <trkpt lat="47.7832" lon="-3.19267">
        <ele>76</ele>
        <time>2011-05-26T11:22:44Z</time>
      </trkpt>
      <trkpt lat="47.78322" lon="-3.19275">
        <ele>76.6</ele>
        <time>2011-05-26T11:22:45Z</time>
      </trkpt>
      <trkpt lat="47.78323" lon="-3.19283">
        <ele>76.4</ele>
        <time>2011-05-26T11:22:46Z</time>
      </trkpt>
      <trkpt lat="47.78324" lon="-3.1929">
        <ele>76</ele>
        <time>2011-05-26T11:22:47Z</time>
      </trkpt>
      <trkpt lat="47.78324" lon="-3.19298">
        <ele>75.6</ele>
        <time>2011-05-26T11:22:48Z</time>
      </trkpt>
      <trkpt lat="47.78325" lon="-3.19306">
        <ele>75.4</ele>
        <time>2011-05-26T11:22:49Z</time>
      </trkpt>
      <trkpt lat="47.78325" lon="-3.19314">
        <ele>75.1</ele>
        <time>2011-05-26T11:22:50Z</time>
      </trkpt>
      <trkpt lat="47.78325" lon="-3.19322">
        <ele>74.9</ele>
        <time>2011-05-26T11:22:51Z</time>
      </trkpt>
      <trkpt lat="47.78325" lon="-3.1933">
        <ele>74.8</ele>
        <time>2011-05-26T11:22:52Z</time>
      </trkpt>
      <trkpt lat="47.78324" lon="-3.19337">
        <ele>74</ele>
        <time>2011-05-26T11:22:53Z</time>
      </trkpt>
      <trkpt lat="47.78324" lon="-3.19346">
        <ele>73.8</ele>
        <time>2011-05-26T11:22:54Z</time>
      </trkpt>
      <trkpt lat="47.78325" lon="-3.19353">
        <ele>73.6</ele>
        <time>2011-05-26T11:22:55Z</time>
      </trkpt>
      <trkpt lat="47.78324" lon="-3.19362">
        <ele>74.1</ele>
        <time>2011-05-26T11:22:56Z</time>
      </trkpt>
      <trkpt lat="47.78324" lon="-3.1937">
        <ele>73.8</ele>
        <time>2011-05-26T11:22:57Z</time>
      </trkpt>
      <trkpt lat="47.78321" lon="-3.19376">
        <ele>73.9</ele>
        <time>2011-05-26T11:22:58Z</time>
      </trkpt>
      <trkpt lat="47.78317" lon="-3.19382">
        <ele>73.6</ele>
        <time>2011-05-26T11:22:59Z</time>
      </trkpt>
      <trkpt lat="47.78313" lon="-3.19387">
        <ele>73.9</ele>
        <time>2011-05-26T11:23:00Z</time>
      </trkpt>
      <trkpt lat="47.78309" lon="-3.19391">
        <ele>74.2</ele>
        <time>2011-05-26T11:23:01Z</time>
      </trkpt>
      <trkpt lat="47.78305" lon="-3.19396">
        <ele>74.6</ele>
        <time>2011-05-26T11:23:02Z</time>
      </trkpt>
      <trkpt lat="47.78301" lon="-3.194">
        <ele>74.3</ele>
        <time>2011-05-26T11:23:03Z</time>
      </trkpt>
      <trkpt lat="47.78296" lon="-3.19405">
        <ele>74.3</ele>
        <time>2011-05-26T11:23:04Z</time>
      </trkpt>
      <trkpt lat="47.78292" lon="-3.19409">
        <ele>74.3</ele>
        <time>2011-05-26T11:23:05Z</time>
      </trkpt>
      <trkpt lat="47.78288" lon="-3.19414">
        <ele>74.6</ele>
        <time>2011-05-26T11:23:06Z</time>
      </trkpt>
      <trkpt lat="47.78284" lon="-3.19418">
        <ele>74.6</ele>
        <time>2011-05-26T11:23:07Z</time>
      </trkpt>
      <trkpt lat="47.7828" lon="-3.19423">
        <ele>74.8</ele>
        <time>2011-05-26T11:23:08Z</time>
      </trkpt>
      <trkpt lat="47.78277" lon="-3.19428">
        <ele>74.7</ele>
        <time>2011-05-26T11:23:09Z</time>
      </trkpt>
      <trkpt lat="47.78273" lon="-3.19434">
        <ele>74.2</ele>
        <time>2011-05-26T11:23:10Z</time>
      </trkpt>
      <trkpt lat="47.78269" lon="-3.19439">
        <ele>74.3</ele>
        <time>2011-05-26T11:23:11Z</time>
      </trkpt>
      <trkpt lat="47.78265" lon="-3.19444">
        <ele>73.4</ele>
        <time>2011-05-26T11:23:12Z</time>
      </trkpt>
      <trkpt lat="47.78262" lon="-3.19449">
        <ele>73</ele>
        <time>2011-05-26T11:23:13Z</time>
      </trkpt>
      <trkpt lat="47.78258" lon="-3.19452">
        <ele>72.9</ele>
        <time>2011-05-26T11:23:14Z</time>
      </trkpt>
      <trkpt lat="47.78251" lon="-3.19459">
        <ele>73.4</ele>
        <time>2011-05-26T11:23:16Z</time>
      </trkpt>
      <trkpt lat="47.78248" lon="-3.19464">
        <ele>73.3</ele>
        <time>2011-05-26T11:23:17Z</time>
      </trkpt>
      <trkpt lat="47.78246" lon="-3.19471">
        <ele>72.9</ele>
        <time>2011-05-26T11:23:18Z</time>
      </trkpt>
      <trkpt lat="47.78244" lon="-3.19478">
        <ele>73</ele>
        <time>2011-05-26T11:23:19Z</time>
      </trkpt>
      <trkpt lat="47.78243" lon="-3.19485">
        <ele>73.3</ele>
        <time>2011-05-26T11:23:20Z</time>
      </trkpt>
      <trkpt lat="47.78243" lon="-3.19492">
        <ele>73.2</ele>
        <time>2011-05-26T11:23:21Z</time>
      </trkpt>
      <trkpt lat="47.78247" lon="-3.195">
        <ele>72.9</ele>
        <time>2011-05-26T11:23:22Z</time>
      </trkpt>
      <trkpt lat="47.7825" lon="-3.19512">
        <ele>73.5</ele>
        <time>2011-05-26T11:23:24Z</time>
      </trkpt>
      <trkpt lat="47.78251" lon="-3.19521">
        <ele>73.8</ele>
        <time>2011-05-26T11:23:26Z</time>
      </trkpt>
      <trkpt lat="47.78252" lon="-3.19531">
        <ele>73.6</ele>
        <time>2011-05-26T11:23:28Z</time>
      </trkpt>
      <trkpt lat="47.78252" lon="-3.19542">
        <ele>74.4</ele>
        <time>2011-05-26T11:23:30Z</time>
      </trkpt>
      <trkpt lat="47.78254" lon="-3.19552">
        <ele>73.6</ele>
        <time>2011-05-26T11:23:32Z</time>
      </trkpt>
      <trkpt lat="47.78255" lon="-3.19562">
        <ele>74.3</ele>
        <time>2011-05-26T11:23:34Z</time>
      </trkpt>
      <trkpt lat="47.78256" lon="-3.19571">
        <ele>74.8</ele>
        <time>2011-05-26T11:23:36Z</time>
      </trkpt>
      <trkpt lat="47.78256" lon="-3.19579">
        <ele>75.4</ele>
        <time>2011-05-26T11:23:38Z</time>
      </trkpt>
      <trkpt lat="47.78257" lon="-3.19589">
        <ele>76.3</ele>
        <time>2011-05-26T11:23:40Z</time>
      </trkpt>
      <trkpt lat="47.78259" lon="-3.19599">
        <ele>75.9</ele>
        <time>2011-05-26T11:23:42Z</time>
      </trkpt>
      <trkpt lat="47.7826" lon="-3.19609">
        <ele>76</ele>
        <time>2011-05-26T11:23:44Z</time>
      </trkpt>
      <trkpt lat="47.78262" lon="-3.19618">
        <ele>76.3</ele>
        <time>2011-05-26T11:23:46Z</time>
      </trkpt>
      <trkpt lat="47.78264" lon="-3.19628">
        <ele>77.3</ele>
        <time>2011-05-26T11:23:48Z</time>
      </trkpt>
      <trkpt lat="47.78265" lon="-3.1964">
        <ele>77.6</ele>
        <time>2011-05-26T11:23:50Z</time>
      </trkpt>
      <trkpt lat="47.78267" lon="-3.19651">
        <ele>77.6</ele>
        <time>2011-05-26T11:23:52Z</time>
      </trkpt>
      <trkpt lat="47.78269" lon="-3.19656">
        <ele>78.4</ele>
        <time>2011-05-26T11:23:53Z</time>
      </trkpt>
      <trkpt lat="47.78272" lon="-3.19665">
        <ele>79.1</ele>
        <time>2011-05-26T11:23:55Z</time>
      </trkpt>
      <trkpt lat="47.78274" lon="-3.1968">
        <ele>78.2</ele>
        <time>2011-05-26T11:23:57Z</time>
      </trkpt>
      <trkpt lat="47.78274" lon="-3.19686">
        <ele>77.4</ele>
        <time>2011-05-26T11:23:58Z</time>
      </trkpt>
      <trkpt lat="47.78275" lon="-3.19696">
        <ele>76.4</ele>
        <time>2011-05-26T11:24:00Z</time>
      </trkpt>
      <trkpt lat="47.78282" lon="-3.19703">
        <ele>77</ele>
        <time>2011-05-26T11:24:03Z</time>
      </trkpt>
      <trkpt lat="47.78287" lon="-3.19699">
        <ele>78</ele>
        <time>2011-05-26T11:24:06Z</time>
      </trkpt>
      <trkpt lat="47.78294" lon="-3.19697">
        <ele>79.3</ele>
        <time>2011-05-26T11:24:08Z</time>
      </trkpt>
      <trkpt lat="47.78303" lon="-3.19698">
        <ele>81.9</ele>
        <time>2011-05-26T11:24:11Z</time>
      </trkpt>
      <trkpt lat="47.78312" lon="-3.19695">
        <ele>82.4</ele>
        <time>2011-05-26T11:24:13Z</time>
      </trkpt>
      <trkpt lat="47.78321" lon="-3.19695">
        <ele>80.6</ele>
        <time>2011-05-26T11:24:15Z</time>
      </trkpt>
      <trkpt lat="47.7833" lon="-3.19698">
        <ele>80.9</ele>
        <time>2011-05-26T11:24:17Z</time>
      </trkpt>
      <trkpt lat="47.78337" lon="-3.19695">
        <ele>80.8</ele>
        <time>2011-05-26T11:24:18Z</time>
      </trkpt>
      <trkpt lat="47.78342" lon="-3.19694">
        <ele>80</ele>
        <time>2011-05-26T11:24:19Z</time>
      </trkpt>
      <trkpt lat="47.78348" lon="-3.19691">
        <ele>79.7</ele>
        <time>2011-05-26T11:24:20Z</time>
      </trkpt>
      <trkpt lat="47.78353" lon="-3.19689">
        <ele>79.9</ele>
        <time>2011-05-26T11:24:21Z</time>
      </trkpt>
      <trkpt lat="47.78364" lon="-3.19687">
        <ele>86.2</ele>
        <time>2011-05-26T11:24:22Z</time>
      </trkpt>
      <trkpt lat="47.78373" lon="-3.19681">
        <ele>83.4</ele>
        <time>2011-05-26T11:24:23Z</time>
      </trkpt>
      <trkpt lat="47.78381" lon="-3.19679">
        <ele>82.6</ele>
        <time>2011-05-26T11:24:24Z</time>
      </trkpt>
      <trkpt lat="47.78389" lon="-3.19678">
        <ele>81.3</ele>
        <time>2011-05-26T11:24:25Z</time>
      </trkpt>
      <trkpt lat="47.78394" lon="-3.19679">
        <ele>81.8</ele>
        <time>2011-05-26T11:24:26Z</time>
      </trkpt>
      <trkpt lat="47.78402" lon="-3.19688">
        <ele>82.6</ele>
        <time>2011-05-26T11:24:29Z</time>
      </trkpt>
      <trkpt lat="47.78404" lon="-3.19695">
        <ele>81.3</ele>
        <time>2011-05-26T11:24:30Z</time>
      </trkpt>
      <trkpt lat="47.78402" lon="-3.19706">
        <ele>81.5</ele>
        <time>2011-05-26T11:24:32Z</time>
      </trkpt>
      <trkpt lat="47.78394" lon="-3.19712">
        <ele>83.9</ele>
        <time>2011-05-26T11:24:35Z</time>
      </trkpt>
      <trkpt lat="47.78389" lon="-3.19714">
        <ele>84.2</ele>
        <time>2011-05-26T11:24:37Z</time>
      </trkpt>
      <trkpt lat="47.78382" lon="-3.19715">
        <ele>83.9</ele>
        <time>2011-05-26T11:24:39Z</time>
      </trkpt>
      <trkpt lat="47.78379" lon="-3.19724">
        <ele>80.6</ele>
        <time>2011-05-26T11:24:41Z</time>
      </trkpt>
      <trkpt lat="47.7838" lon="-3.19733">
        <ele>80.3</ele>
        <time>2011-05-26T11:24:44Z</time>
      </trkpt>
      <trkpt lat="47.7838" lon="-3.19741">
        <ele>77.5</ele>
        <time>2011-05-26T11:24:49Z</time>
      </trkpt>
      <trkpt lat="47.78379" lon="-3.19749">
        <ele>75.5</ele>
        <time>2011-05-26T11:24:52Z</time>
      </trkpt>
      <trkpt lat="47.7838" lon="-3.19758">
        <ele>74.1</ele>
        <time>2011-05-26T11:24:54Z</time>
      </trkpt>
      <trkpt lat="47.78378" lon="-3.19764">
        <ele>78.6</ele>
        <time>2011-05-26T11:24:55Z</time>
      </trkpt>
      <trkpt lat="47.78376" lon="-3.19773">
        <ele>81</ele>
        <time>2011-05-26T11:24:57Z</time>
      </trkpt>
      <trkpt lat="47.78373" lon="-3.19779">
        <ele>81.3</ele>
        <time>2011-05-26T11:24:59Z</time>
      </trkpt>
      <trkpt lat="47.78374" lon="-3.19789">
        <ele>82.4</ele>
        <time>2011-05-26T11:25:01Z</time>
      </trkpt>
      <trkpt lat="47.78371" lon="-3.19794">
        <ele>80.6</ele>
        <time>2011-05-26T11:25:03Z</time>
      </trkpt>
      <trkpt lat="47.78372" lon="-3.19802">
        <ele>78.4</ele>
        <time>2011-05-26T11:25:06Z</time>
      </trkpt>
      <trkpt lat="47.78378" lon="-3.19808">
        <ele>79.3</ele>
        <time>2011-05-26T11:25:08Z</time>
      </trkpt>
      <trkpt lat="47.78384" lon="-3.19813">
        <ele>81.1</ele>
        <time>2011-05-26T11:25:10Z</time>
      </trkpt>
      <trkpt lat="47.78389" lon="-3.19818">
        <ele>81.5</ele>
        <time>2011-05-26T11:25:12Z</time>
      </trkpt>
      <trkpt lat="47.78396" lon="-3.1982">
        <ele>81</ele>
        <time>2011-05-26T11:25:14Z</time>
      </trkpt>
      <trkpt lat="47.78404" lon="-3.19824">
        <ele>80.6</ele>
        <time>2011-05-26T11:25:16Z</time>
      </trkpt>
      <trkpt lat="47.78409" lon="-3.19826">
        <ele>80.5</ele>
        <time>2011-05-26T11:25:17Z</time>
      </trkpt>
      <trkpt lat="47.78414" lon="-3.19828">
        <ele>80.7</ele>
        <time>2011-05-26T11:25:18Z</time>
      </trkpt>
      <trkpt lat="47.78417" lon="-3.19835">
        <ele>79.6</ele>
        <time>2011-05-26T11:25:19Z</time>
      </trkpt>
      <trkpt lat="47.78419" lon="-3.19841">
        <ele>78.9</ele>
        <time>2011-05-26T11:25:20Z</time>
      </trkpt>
      <trkpt lat="47.78422" lon="-3.19846">
        <ele>77.9</ele>
        <time>2011-05-26T11:25:21Z</time>
      </trkpt>
      <trkpt lat="47.78424" lon="-3.19857">
        <ele>79.8</ele>
        <time>2011-05-26T11:25:23Z</time>
      </trkpt>
      <trkpt lat="47.78426" lon="-3.19867">
        <ele>79.1</ele>
        <time>2011-05-26T11:25:25Z</time>
      </trkpt>
      <trkpt lat="47.78425" lon="-3.19876">
        <ele>76.1</ele>
        <time>2011-05-26T11:25:27Z</time>
      </trkpt>
      <trkpt lat="47.78421" lon="-3.19884">
        <ele>75.8</ele>
        <time>2011-05-26T11:25:29Z</time>
      </trkpt>
      <trkpt lat="47.78416" lon="-3.19883">
        <ele>75.8</ele>
        <time>2011-05-26T11:25:31Z</time>
      </trkpt>
      <trkpt lat="47.78411" lon="-3.19882">
        <ele>73.4</ele>
        <time>2011-05-26T11:25:33Z</time>
      </trkpt>
      <trkpt lat="47.78407" lon="-3.19879">
        <ele>71.3</ele>
        <time>2011-05-26T11:25:35Z</time>
      </trkpt>
      <trkpt lat="47.78402" lon="-3.19881">
        <ele>71.5</ele>
        <time>2011-05-26T11:25:36Z</time>
      </trkpt>
      <trkpt lat="47.784" lon="-3.19892">
        <ele>72</ele>
        <time>2011-05-26T11:25:37Z</time>
      </trkpt>
      <trkpt lat="47.78395" lon="-3.19896">
        <ele>73</ele>
        <time>2011-05-26T11:25:38Z</time>
      </trkpt>
      <trkpt lat="47.78391" lon="-3.199">
        <ele>72</ele>
        <time>2011-05-26T11:25:40Z</time>
      </trkpt>
      <trkpt lat="47.78385" lon="-3.19901">
        <ele>68.7</ele>
        <time>2011-05-26T11:25:42Z</time>
      </trkpt>
      <trkpt lat="47.78381" lon="-3.19906">
        <ele>72.6</ele>
        <time>2011-05-26T11:25:45Z</time>
      </trkpt>
      <trkpt lat="47.78377" lon="-3.19913">
        <ele>76.8</ele>
        <time>2011-05-26T11:25:48Z</time>
      </trkpt>
      <trkpt lat="47.78372" lon="-3.19916">
        <ele>81.2</ele>
        <time>2011-05-26T11:25:51Z</time>
      </trkpt>
      <trkpt lat="47.78365" lon="-3.1992">
        <ele>76.6</ele>
        <time>2011-05-26T11:25:54Z</time>
      </trkpt>
      <trkpt lat="47.7836" lon="-3.19924">
        <ele>74.2</ele>
        <time>2011-05-26T11:25:56Z</time>
      </trkpt>
      <trkpt lat="47.78353" lon="-3.19928">
        <ele>78.2</ele>
        <time>2011-05-26T11:25:58Z</time>
      </trkpt>
      <trkpt lat="47.78348" lon="-3.19933">
        <ele>80.6</ele>
        <time>2011-05-26T11:26:00Z</time>
      </trkpt>
      <trkpt lat="47.78344" lon="-3.19941">
        <ele>81.8</ele>
        <time>2011-05-26T11:26:02Z</time>
      </trkpt>
      <trkpt lat="47.78344" lon="-3.19954">
        <ele>79.7</ele>
        <time>2011-05-26T11:26:04Z</time>
      </trkpt>
      <trkpt lat="47.78345" lon="-3.19961">
        <ele>79.2</ele>
        <time>2011-05-26T11:26:05Z</time>
      </trkpt>
      <trkpt lat="47.78346" lon="-3.19974">
        <ele>80.1</ele>
        <time>2011-05-26T11:26:07Z</time>
      </trkpt>
      <trkpt lat="47.78345" lon="-3.19986">
        <ele>83.7</ele>
        <time>2011-05-26T11:26:09Z</time>
      </trkpt>
      <trkpt lat="47.78345" lon="-3.19993">
        <ele>83.8</ele>
        <time>2011-05-26T11:26:10Z</time>
      </trkpt>
      <trkpt lat="47.78345" lon="-3.2">
        <ele>82.5</ele>
        <time>2011-05-26T11:26:11Z</time>
      </trkpt>
      <trkpt lat="47.78347" lon="-3.20008">
        <ele>80.7</ele>
        <time>2011-05-26T11:26:12Z</time>
      </trkpt>
      <trkpt lat="47.78348" lon="-3.20016">
        <ele>79.6</ele>
        <time>2011-05-26T11:26:13Z</time>
      </trkpt>
      <trkpt lat="47.7835" lon="-3.20028">
        <ele>77.1</ele>
        <time>2011-05-26T11:26:14Z</time>
      </trkpt>
      <trkpt lat="47.78353" lon="-3.20039">
        <ele>74.9</ele>
        <time>2011-05-26T11:26:15Z</time>
      </trkpt>
      <trkpt lat="47.78357" lon="-3.20045">
        <ele>74.3</ele>
        <time>2011-05-26T11:26:16Z</time>
      </trkpt>
      <trkpt lat="47.78362" lon="-3.20051">
        <ele>73</ele>
        <time>2011-05-26T11:26:17Z</time>
      </trkpt>
      <trkpt lat="47.78364" lon="-3.20061">
        <ele>70.7</ele>
        <time>2011-05-26T11:26:18Z</time>
      </trkpt>
      <trkpt lat="47.78368" lon="-3.2007">
        <ele>70.1</ele>
        <time>2011-05-26T11:26:19Z</time>
      </trkpt>
      <trkpt lat="47.78372" lon="-3.20076">
        <ele>69.2</ele>
        <time>2011-05-26T11:26:20Z</time>
      </trkpt>
      <trkpt lat="47.78376" lon="-3.20083">
        <ele>69.1</ele>
        <time>2011-05-26T11:26:21Z</time>
      </trkpt>
      <trkpt lat="47.7838" lon="-3.2009">
        <ele>69.1</ele>
        <time>2011-05-26T11:26:22Z</time>
      </trkpt>
      <trkpt lat="47.78386" lon="-3.20094">
        <ele>63.5</ele>
        <time>2011-05-26T11:26:23Z</time>
      </trkpt>
      <trkpt lat="47.7839" lon="-3.201">
        <ele>63.3</ele>
        <time>2011-05-26T11:26:24Z</time>
      </trkpt>
      <trkpt lat="47.78399" lon="-3.20106">
        <ele>67.1</ele>
        <time>2011-05-26T11:26:26Z</time>
      </trkpt>
      <trkpt lat="47.78403" lon="-3.2011">
        <ele>68</ele>
        <time>2011-05-26T11:26:27Z</time>
      </trkpt>
      <trkpt lat="47.7841" lon="-3.20112">
        <ele>66.2</ele>
        <time>2011-05-26T11:26:29Z</time>
      </trkpt>
      <trkpt lat="47.78419" lon="-3.20109">
        <ele>64.2</ele>
        <time>2011-05-26T11:26:31Z</time>
      </trkpt>
      <trkpt lat="47.78427" lon="-3.20107">
        <ele>64.7</ele>
        <time>2011-05-26T11:26:33Z</time>
      </trkpt>
      <trkpt lat="47.78435" lon="-3.20102">
        <ele>63.2</ele>
        <time>2011-05-26T11:26:35Z</time>
      </trkpt>
      <trkpt lat="47.78439" lon="-3.201">
        <ele>64.4</ele>
        <time>2011-05-26T11:26:36Z</time>
      </trkpt>
      <trkpt lat="47.78444" lon="-3.20098">
        <ele>65.7</ele>
        <time>2011-05-26T11:26:37Z</time>
      </trkpt>
      <trkpt lat="47.78449" lon="-3.20096">
        <ele>66.9</ele>
        <time>2011-05-26T11:26:38Z</time>
      </trkpt>
      <trkpt lat="47.78458" lon="-3.20092">
        <ele>68.5</ele>
        <time>2011-05-26T11:26:40Z</time>
      </trkpt>
      <trkpt lat="47.78466" lon="-3.20089">
        <ele>68.6</ele>
        <time>2011-05-26T11:26:42Z</time>
      </trkpt>
      <trkpt lat="47.78474" lon="-3.20085">
        <ele>69.2</ele>
        <time>2011-05-26T11:26:44Z</time>
      </trkpt>
      <trkpt lat="47.78479" lon="-3.20083">
        <ele>71.2</ele>
        <time>2011-05-26T11:26:45Z</time>
      </trkpt>
      <trkpt lat="47.78486" lon="-3.20078">
        <ele>75.1</ele>
        <time>2011-05-26T11:26:47Z</time>
      </trkpt>
      <trkpt lat="47.78494" lon="-3.20074">
        <ele>76</ele>
        <time>2011-05-26T11:26:49Z</time>
      </trkpt>
      <trkpt lat="47.78499" lon="-3.20074">
        <ele>76.2</ele>
        <time>2011-05-26T11:26:51Z</time>
      </trkpt>
      <trkpt lat="47.78509" lon="-3.20073">
        <ele>76.1</ele>
        <time>2011-05-26T11:26:53Z</time>
      </trkpt>
      <trkpt lat="47.78514" lon="-3.20074">
        <ele>76.4</ele>
        <time>2011-05-26T11:26:54Z</time>
      </trkpt>
      <trkpt lat="47.78522" lon="-3.20077">
        <ele>75.4</ele>
        <time>2011-05-26T11:26:56Z</time>
      </trkpt>
      <trkpt lat="47.78526" lon="-3.20078">
        <ele>74.5</ele>
        <time>2011-05-26T11:26:57Z</time>
      </trkpt>
      <trkpt lat="47.78535" lon="-3.20079">
        <ele>75.9</ele>
        <time>2011-05-26T11:26:59Z</time>
      </trkpt>
      <trkpt lat="47.78543" lon="-3.2008">
        <ele>77.2</ele>
        <time>2011-05-26T11:27:01Z</time>
      </trkpt>
      <trkpt lat="47.78548" lon="-3.20082">
        <ele>75.7</ele>
        <time>2011-05-26T11:27:02Z</time>
      </trkpt>
      <trkpt lat="47.78554" lon="-3.20084">
        <ele>73.5</ele>
        <time>2011-05-26T11:27:03Z</time>
      </trkpt>
      <trkpt lat="47.78558" lon="-3.20085">
        <ele>73.1</ele>
        <time>2011-05-26T11:27:04Z</time>
      </trkpt>
      <trkpt lat="47.78566" lon="-3.20085">
        <ele>73.2</ele>
        <time>2011-05-26T11:27:06Z</time>
      </trkpt>
      <trkpt lat="47.78574" lon="-3.20087">
        <ele>74.3</ele>
        <time>2011-05-26T11:27:08Z</time>
      </trkpt>
      <trkpt lat="47.78583" lon="-3.20091">
        <ele>75</ele>
        <time>2011-05-26T11:27:10Z</time>
      </trkpt>
      <trkpt lat="47.78589" lon="-3.20096">
        <ele>63</ele>
        <time>2011-05-26T11:27:13Z</time>
      </trkpt>
      <trkpt lat="47.78598" lon="-3.20097">
        <ele>61.7</ele>
        <time>2011-05-26T11:27:15Z</time>
      </trkpt>
      <trkpt lat="47.78608" lon="-3.201">
        <ele>60.9</ele>
        <time>2011-05-26T11:27:17Z</time>
      </trkpt>
      <trkpt lat="47.78614" lon="-3.201">
        <ele>61.3</ele>
        <time>2011-05-26T11:27:18Z</time>
      </trkpt>
      <trkpt lat="47.78617" lon="-3.20104">
        <ele>61.1</ele>
        <time>2011-05-26T11:27:19Z</time>
      </trkpt>
      <trkpt lat="47.78626" lon="-3.20107">
        <ele>62.6</ele>
        <time>2011-05-26T11:27:21Z</time>
      </trkpt>
      <trkpt lat="47.78634" lon="-3.20111">
        <ele>62.2</ele>
        <time>2011-05-26T11:27:23Z</time>
      </trkpt>
      <trkpt lat="47.78638" lon="-3.20111">
        <ele>62.7</ele>
        <time>2011-05-26T11:27:24Z</time>
      </trkpt>
      <trkpt lat="47.78644" lon="-3.20114">
        <ele>63.4</ele>
        <time>2011-05-26T11:27:25Z</time>
      </trkpt>
      <trkpt lat="47.78652" lon="-3.20116">
        <ele>63.8</ele>
        <time>2011-05-26T11:27:26Z</time>
      </trkpt>
      <trkpt lat="47.78657" lon="-3.2012">
        <ele>63.7</ele>
        <time>2011-05-26T11:27:27Z</time>
      </trkpt>
      <trkpt lat="47.78663" lon="-3.20125">
        <ele>63.1</ele>
        <time>2011-05-26T11:27:29Z</time>
      </trkpt>
      <trkpt lat="47.78668" lon="-3.20127">
        <ele>63.1</ele>
        <time>2011-05-26T11:27:30Z</time>
      </trkpt>
      <trkpt lat="47.78674" lon="-3.20136">
        <ele>59.1</ele>
        <time>2011-05-26T11:27:32Z</time>
      </trkpt>
      <trkpt lat="47.78677" lon="-3.2014">
        <ele>56.5</ele>
        <time>2011-05-26T11:27:33Z</time>
      </trkpt>
      <trkpt lat="47.78685" lon="-3.2014">
        <ele>56.5</ele>
        <time>2011-05-26T11:27:35Z</time>
      </trkpt>
      <trkpt lat="47.78691" lon="-3.20146">
        <ele>54.2</ele>
        <time>2011-05-26T11:27:37Z</time>
      </trkpt>
      <trkpt lat="47.78698" lon="-3.2015">
        <ele>58.7</ele>
        <time>2011-05-26T11:27:39Z</time>
      </trkpt>
      <trkpt lat="47.78705" lon="-3.20152">
        <ele>59.6</ele>
        <time>2011-05-26T11:27:41Z</time>
      </trkpt>
      <trkpt lat="47.78712" lon="-3.20156">
        <ele>57.3</ele>
        <time>2011-05-26T11:27:43Z</time>
      </trkpt>
      <trkpt lat="47.78719" lon="-3.20159">
        <ele>57.6</ele>
        <time>2011-05-26T11:27:45Z</time>
      </trkpt>
      <trkpt lat="47.78726" lon="-3.20162">
        <ele>57.9</ele>
        <time>2011-05-26T11:27:47Z</time>
      </trkpt>
      <trkpt lat="47.78731" lon="-3.20164">
        <ele>57.6</ele>
        <time>2011-05-26T11:27:48Z</time>
      </trkpt>
      <trkpt lat="47.78738" lon="-3.20166">
        <ele>60</ele>
        <time>2011-05-26T11:27:50Z</time>
      </trkpt>
      <trkpt lat="47.78743" lon="-3.20169">
        <ele>58.8</ele>
        <time>2011-05-26T11:27:51Z</time>
      </trkpt>
      <trkpt lat="47.78748" lon="-3.2017">
        <ele>57.4</ele>
        <time>2011-05-26T11:27:52Z</time>
      </trkpt>
      <trkpt lat="47.78755" lon="-3.20172">
        <ele>57.2</ele>
        <time>2011-05-26T11:27:54Z</time>
      </trkpt>
      <trkpt lat="47.7876" lon="-3.20174">
        <ele>59</ele>
        <time>2011-05-26T11:27:55Z</time>
      </trkpt>
      <trkpt lat="47.78768" lon="-3.20174">
        <ele>60.5</ele>
        <time>2011-05-26T11:27:57Z</time>
      </trkpt>
      <trkpt lat="47.78774" lon="-3.20177">
        <ele>61.7</ele>
        <time>2011-05-26T11:27:59Z</time>
      </trkpt>
      <trkpt lat="47.78779" lon="-3.20176">
        <ele>62.8</ele>
        <time>2011-05-26T11:28:01Z</time>
      </trkpt>
      <trkpt lat="47.78784" lon="-3.20176">
        <ele>64.2</ele>
        <time>2011-05-26T11:28:03Z</time>
      </trkpt>
      <trkpt lat="47.78791" lon="-3.20176">
        <ele>61.6</ele>
        <time>2011-05-26T11:28:05Z</time>
      </trkpt>
      <trkpt lat="47.78797" lon="-3.20175">
        <ele>60.7</ele>
        <time>2011-05-26T11:28:07Z</time>
      </trkpt>
      <trkpt lat="47.78802" lon="-3.20176">
        <ele>62.2</ele>
        <time>2011-05-26T11:28:09Z</time>
      </trkpt>
      <trkpt lat="47.78808" lon="-3.20177">
        <ele>64</ele>
        <time>2011-05-26T11:28:11Z</time>
      </trkpt>
      <trkpt lat="47.78814" lon="-3.2018">
        <ele>70.6</ele>
        <time>2011-05-26T11:28:14Z</time>
      </trkpt>
      <trkpt lat="47.78819" lon="-3.20185">
        <ele>73.2</ele>
        <time>2011-05-26T11:28:16Z</time>
      </trkpt>
      <trkpt lat="47.78827" lon="-3.2019">
        <ele>74.4</ele>
        <time>2011-05-26T11:28:18Z</time>
      </trkpt>
      <trkpt lat="47.78834" lon="-3.20195">
        <ele>74.8</ele>
        <time>2011-05-26T11:28:20Z</time>
      </trkpt>
      <trkpt lat="47.78839" lon="-3.20199">
        <ele>75.2</ele>
        <time>2011-05-26T11:28:22Z</time>
      </trkpt>
      <trkpt lat="47.78845" lon="-3.20203">
        <ele>76.4</ele>
        <time>2011-05-26T11:28:24Z</time>
      </trkpt>
      <trkpt lat="47.7885" lon="-3.20207">
        <ele>78.3</ele>
        <time>2011-05-26T11:28:26Z</time>
      </trkpt>
      <trkpt lat="47.78856" lon="-3.20213">
        <ele>77.3</ele>
        <time>2011-05-26T11:28:28Z</time>
      </trkpt>
      <trkpt lat="47.78864" lon="-3.20218">
        <ele>77.5</ele>
        <time>2011-05-26T11:28:30Z</time>
      </trkpt>
      <trkpt lat="47.78869" lon="-3.20222">
        <ele>79.2</ele>
        <time>2011-05-26T11:28:32Z</time>
      </trkpt>
      <trkpt lat="47.78875" lon="-3.20226">
        <ele>80</ele>
        <time>2011-05-26T11:28:35Z</time>
      </trkpt>
      <trkpt lat="47.78879" lon="-3.20232">
        <ele>80.8</ele>
        <time>2011-05-26T11:28:37Z</time>
      </trkpt>
      <trkpt lat="47.78889" lon="-3.20234">
        <ele>80.6</ele>
        <time>2011-05-26T11:28:39Z</time>
      </trkpt>
      <trkpt lat="47.78895" lon="-3.20238">
        <ele>80.9</ele>
        <time>2011-05-26T11:28:41Z</time>
      </trkpt>
      <trkpt lat="47.789" lon="-3.20245">
        <ele>83.9</ele>
        <time>2011-05-26T11:28:43Z</time>
      </trkpt>
      <trkpt lat="47.78903" lon="-3.20251">
        <ele>82.4</ele>
        <time>2011-05-26T11:28:44Z</time>
      </trkpt>
      <trkpt lat="47.78909" lon="-3.20259">
        <ele>81.5</ele>
        <time>2011-05-26T11:28:46Z</time>
      </trkpt>
      <trkpt lat="47.78916" lon="-3.20264">
        <ele>80.2</ele>
        <time>2011-05-26T11:28:48Z</time>
      </trkpt>
      <trkpt lat="47.78921" lon="-3.20269">
        <ele>78.8</ele>
        <time>2011-05-26T11:28:52Z</time>
      </trkpt>
      <trkpt lat="47.78926" lon="-3.20275">
        <ele>76.4</ele>
        <time>2011-05-26T11:28:54Z</time>
      </trkpt>
      <trkpt lat="47.78931" lon="-3.20282">
        <ele>74.3</ele>
        <time>2011-05-26T11:28:56Z</time>
      </trkpt>
      <trkpt lat="47.78936" lon="-3.20288">
        <ele>73.2</ele>
        <time>2011-05-26T11:28:58Z</time>
      </trkpt>
      <trkpt lat="47.78943" lon="-3.20292">
        <ele>74.7</ele>
        <time>2011-05-26T11:29:00Z</time>
      </trkpt>
      <trkpt lat="47.78946" lon="-3.20296">
        <ele>77.1</ele>
        <time>2011-05-26T11:29:02Z</time>
      </trkpt>
      <trkpt lat="47.78953" lon="-3.20304">
        <ele>77</ele>
        <time>2011-05-26T11:29:04Z</time>
      </trkpt>
      <trkpt lat="47.78962" lon="-3.2031">
        <ele>79.3</ele>
        <time>2011-05-26T11:29:07Z</time>
      </trkpt>
      <trkpt lat="47.78967" lon="-3.20316">
        <ele>79.2</ele>
        <time>2011-05-26T11:29:10Z</time>
      </trkpt>
      <trkpt lat="47.78974" lon="-3.20324">
        <ele>79.9</ele>
        <time>2011-05-26T11:29:12Z</time>
      </trkpt>
      <trkpt lat="47.78979" lon="-3.2033">
        <ele>80.5</ele>
        <time>2011-05-26T11:29:14Z</time>
      </trkpt>
      <trkpt lat="47.78985" lon="-3.2034">
        <ele>83.6</ele>
        <time>2011-05-26T11:29:16Z</time>
      </trkpt>
      <trkpt lat="47.78986" lon="-3.20348">
        <ele>88.6</ele>
        <time>2011-05-26T11:29:17Z</time>
      </trkpt>
      <trkpt lat="47.78988" lon="-3.20357">
        <ele>92.3</ele>
        <time>2011-05-26T11:29:19Z</time>
      </trkpt>
      <trkpt lat="47.78985" lon="-3.20366">
        <ele>90.6</ele>
        <time>2011-05-26T11:29:21Z</time>
      </trkpt>
      <trkpt lat="47.78984" lon="-3.20374">
        <ele>87.4</ele>
        <time>2011-05-26T11:29:23Z</time>
      </trkpt>
      <trkpt lat="47.78983" lon="-3.20383">
        <ele>89.1</ele>
        <time>2011-05-26T11:29:25Z</time>
      </trkpt>
      <trkpt lat="47.78981" lon="-3.20392">
        <ele>90.9</ele>
        <time>2011-05-26T11:29:27Z</time>
      </trkpt>
      <trkpt lat="47.78983" lon="-3.20398">
        <ele>89.7</ele>
        <time>2011-05-26T11:29:28Z</time>
      </trkpt>
      <trkpt lat="47.78982" lon="-3.20407">
        <ele>91</ele>
        <time>2011-05-26T11:29:30Z</time>
      </trkpt>
      <trkpt lat="47.78981" lon="-3.20416">
        <ele>91.4</ele>
        <time>2011-05-26T11:29:32Z</time>
      </trkpt>
      <trkpt lat="47.78979" lon="-3.20424">
        <ele>93.7</ele>
        <time>2011-05-26T11:29:34Z</time>
      </trkpt>
      <trkpt lat="47.78977" lon="-3.20432">
        <ele>95.3</ele>
        <time>2011-05-26T11:29:36Z</time>
      </trkpt>
      <trkpt lat="47.78976" lon="-3.20441">
        <ele>95.1</ele>
        <time>2011-05-26T11:29:38Z</time>
      </trkpt>
      <trkpt lat="47.78976" lon="-3.20448">
        <ele>95.2</ele>
        <time>2011-05-26T11:29:40Z</time>
      </trkpt>
      <trkpt lat="47.78977" lon="-3.20456">
        <ele>91.8</ele>
        <time>2011-05-26T11:29:41Z</time>
      </trkpt>
      <trkpt lat="47.78976" lon="-3.20465">
        <ele>91</ele>
        <time>2011-05-26T11:29:43Z</time>
      </trkpt>
      <trkpt lat="47.78974" lon="-3.20472">
        <ele>91.7</ele>
        <time>2011-05-26T11:29:45Z</time>
      </trkpt>
      <trkpt lat="47.78974" lon="-3.20484">
        <ele>90.8</ele>
        <time>2011-05-26T11:29:47Z</time>
      </trkpt>
      <trkpt lat="47.78973" lon="-3.20496">
        <ele>90.9</ele>
        <time>2011-05-26T11:29:50Z</time>
      </trkpt>
      <trkpt lat="47.78976" lon="-3.20505">
        <ele>91.6</ele>
        <time>2011-05-26T11:29:52Z</time>
      </trkpt>
      <trkpt lat="47.78974" lon="-3.20514">
        <ele>96.3</ele>
        <time>2011-05-26T11:29:55Z</time>
      </trkpt>
      <trkpt lat="47.78971" lon="-3.20523">
        <ele>95.3</ele>
        <time>2011-05-26T11:29:57Z</time>
      </trkpt>
      <trkpt lat="47.7897" lon="-3.20534">
        <ele>94.9</ele>
        <time>2011-05-26T11:29:59Z</time>
      </trkpt>
      <trkpt lat="47.7897" lon="-3.20544">
        <ele>91.4</ele>
        <time>2011-05-26T11:30:00Z</time>
      </trkpt>
      <trkpt lat="47.7897" lon="-3.20551">
        <ele>89.7</ele>
        <time>2011-05-26T11:30:01Z</time>
      </trkpt>
      <trkpt lat="47.78968" lon="-3.20562">
        <ele>88.7</ele>
        <time>2011-05-26T11:30:03Z</time>
      </trkpt>
      <trkpt lat="47.78966" lon="-3.20573">
        <ele>90.3</ele>
        <time>2011-05-26T11:30:04Z</time>
      </trkpt>
      <trkpt lat="47.78965" lon="-3.2058">
        <ele>91</ele>
        <time>2011-05-26T11:30:05Z</time>
      </trkpt>
      <trkpt lat="47.78963" lon="-3.20587">
        <ele>91.7</ele>
        <time>2011-05-26T11:30:06Z</time>
      </trkpt>
      <trkpt lat="47.78963" lon="-3.20594">
        <ele>92.7</ele>
        <time>2011-05-26T11:30:07Z</time>
      </trkpt>
      <trkpt lat="47.78962" lon="-3.20602">
        <ele>93.5</ele>
        <time>2011-05-26T11:30:08Z</time>
      </trkpt>
      <trkpt lat="47.7896" lon="-3.20609">
        <ele>94.2</ele>
        <time>2011-05-26T11:30:09Z</time>
      </trkpt>
      <trkpt lat="47.78958" lon="-3.20616">
        <ele>93.8</ele>
        <time>2011-05-26T11:30:10Z</time>
      </trkpt>
      <trkpt lat="47.78958" lon="-3.20624">
        <ele>93.2</ele>
        <time>2011-05-26T11:30:11Z</time>
      </trkpt>
      <trkpt lat="47.78958" lon="-3.20632">
        <ele>93.7</ele>
        <time>2011-05-26T11:30:12Z</time>
      </trkpt>
      <trkpt lat="47.78958" lon="-3.2064">
        <ele>94.3</ele>
        <time>2011-05-26T11:30:13Z</time>
      </trkpt>
      <trkpt lat="47.78955" lon="-3.20649">
        <ele>95.6</ele>
        <time>2011-05-26T11:30:14Z</time>
      </trkpt>
      <trkpt lat="47.78954" lon="-3.20657">
        <ele>96.1</ele>
        <time>2011-05-26T11:30:15Z</time>
      </trkpt>
      <trkpt lat="47.78952" lon="-3.20666">
        <ele>95.8</ele>
        <time>2011-05-26T11:30:16Z</time>
      </trkpt>
      <trkpt lat="47.7895" lon="-3.20675">
        <ele>95.7</ele>
        <time>2011-05-26T11:30:17Z</time>
      </trkpt>
      <trkpt lat="47.7895" lon="-3.20686">
        <ele>95.6</ele>
        <time>2011-05-26T11:30:18Z</time>
      </trkpt>
      <trkpt lat="47.78947" lon="-3.20694">
        <ele>95.5</ele>
        <time>2011-05-26T11:30:19Z</time>
      </trkpt>
      <trkpt lat="47.78948" lon="-3.20704">
        <ele>94.9</ele>
        <time>2011-05-26T11:30:20Z</time>
      </trkpt>
      <trkpt lat="47.78945" lon="-3.20713">
        <ele>94.9</ele>
        <time>2011-05-26T11:30:21Z</time>
      </trkpt>
      <trkpt lat="47.78944" lon="-3.20724">
        <ele>94.4</ele>
        <time>2011-05-26T11:30:22Z</time>
      </trkpt>
      <trkpt lat="47.78944" lon="-3.20734">
        <ele>92.7</ele>
        <time>2011-05-26T11:30:23Z</time>
      </trkpt>
      <trkpt lat="47.78946" lon="-3.20745">
        <ele>91.7</ele>
        <time>2011-05-26T11:30:25Z</time>
      </trkpt>
      <trkpt lat="47.78942" lon="-3.20757">
        <ele>93.5</ele>
        <time>2011-05-26T11:30:26Z</time>
      </trkpt>
      <trkpt lat="47.7894" lon="-3.20764">
        <ele>95.2</ele>
        <time>2011-05-26T11:30:27Z</time>
      </trkpt>
      <trkpt lat="47.7894" lon="-3.20771">
        <ele>94.1</ele>
        <time>2011-05-26T11:30:28Z</time>
      </trkpt>
      <trkpt lat="47.78938" lon="-3.20781">
        <ele>94</ele>
        <time>2011-05-26T11:30:30Z</time>
      </trkpt>
      <trkpt lat="47.78938" lon="-3.20791">
        <ele>92.3</ele>
        <time>2011-05-26T11:30:31Z</time>
      </trkpt>
      <trkpt lat="47.78938" lon="-3.20804">
        <ele>91.4</ele>
        <time>2011-05-26T11:30:32Z</time>
      </trkpt>
      <trkpt lat="47.78936" lon="-3.20813">
        <ele>91</ele>
        <time>2011-05-26T11:30:33Z</time>
      </trkpt>
      <trkpt lat="47.78935" lon="-3.20822">
        <ele>91.7</ele>
        <time>2011-05-26T11:30:34Z</time>
      </trkpt>
      <trkpt lat="47.78933" lon="-3.2083">
        <ele>91.8</ele>
        <time>2011-05-26T11:30:35Z</time>
      </trkpt>
      <trkpt lat="47.7893" lon="-3.20838">
        <ele>91.9</ele>
        <time>2011-05-26T11:30:36Z</time>
      </trkpt>
      <trkpt lat="47.7893" lon="-3.2085">
        <ele>92.6</ele>
        <time>2011-05-26T11:30:38Z</time>
      </trkpt>
      <trkpt lat="47.7893" lon="-3.20857">
        <ele>93.2</ele>
        <time>2011-05-26T11:30:39Z</time>
      </trkpt>
      <trkpt lat="47.7893" lon="-3.2087">
        <ele>93</ele>
        <time>2011-05-26T11:30:41Z</time>
      </trkpt>
      <trkpt lat="47.78929" lon="-3.20882">
        <ele>91.6</ele>
        <time>2011-05-26T11:30:42Z</time>
      </trkpt>
      <trkpt lat="47.78929" lon="-3.20892">
        <ele>92.3</ele>
        <time>2011-05-26T11:30:43Z</time>
      </trkpt>
      <trkpt lat="47.78931" lon="-3.20898">
        <ele>93.3</ele>
        <time>2011-05-26T11:30:44Z</time>
      </trkpt>
      <trkpt lat="47.78933" lon="-3.20905">
        <ele>91.2</ele>
        <time>2011-05-26T11:30:45Z</time>
      </trkpt>
      <trkpt lat="47.78932" lon="-3.20912">
        <ele>88.2</ele>
        <time>2011-05-26T11:30:46Z</time>
      </trkpt>
      <trkpt lat="47.78933" lon="-3.20922">
        <ele>88.7</ele>
        <time>2011-05-26T11:30:47Z</time>
      </trkpt>
      <trkpt lat="47.7893" lon="-3.2093">
        <ele>88.1</ele>
        <time>2011-05-26T11:30:48Z</time>
      </trkpt>
      <trkpt lat="47.78929" lon="-3.20944">
        <ele>85.6</ele>
        <time>2011-05-26T11:30:50Z</time>
      </trkpt>
      <trkpt lat="47.78927" lon="-3.20951">
        <ele>84.6</ele>
        <time>2011-05-26T11:30:51Z</time>
      </trkpt>
      <trkpt lat="47.78926" lon="-3.20957">
        <ele>84.3</ele>
        <time>2011-05-26T11:30:52Z</time>
      </trkpt>
      <trkpt lat="47.78923" lon="-3.20969">
        <ele>83.3</ele>
        <time>2011-05-26T11:30:54Z</time>
      </trkpt>
      <trkpt lat="47.78923" lon="-3.20976">
        <ele>82.6</ele>
        <time>2011-05-26T11:30:55Z</time>
      </trkpt>
      <trkpt lat="47.78922" lon="-3.20982">
        <ele>83.7</ele>
        <time>2011-05-26T11:30:56Z</time>
      </trkpt>
      <trkpt lat="47.78922" lon="-3.20996">
        <ele>82.2</ele>
        <time>2011-05-26T11:30:58Z</time>
      </trkpt>
      <trkpt lat="47.78922" lon="-3.21003">
        <ele>82</ele>
        <time>2011-05-26T11:30:59Z</time>
      </trkpt>
      <trkpt lat="47.78921" lon="-3.21014">
        <ele>81.5</ele>
        <time>2011-05-26T11:31:01Z</time>
      </trkpt>
      <trkpt lat="47.7892" lon="-3.21021">
        <ele>81.6</ele>
        <time>2011-05-26T11:31:02Z</time>
      </trkpt>
      <trkpt lat="47.78918" lon="-3.21031">
        <ele>83.3</ele>
        <time>2011-05-26T11:31:04Z</time>
      </trkpt>
      <trkpt lat="47.78916" lon="-3.21039">
        <ele>84.6</ele>
        <time>2011-05-26T11:31:06Z</time>
      </trkpt>
      <trkpt lat="47.78911" lon="-3.21037">
        <ele>84.4</ele>
        <time>2011-05-26T11:31:07Z</time>
      </trkpt>
      <trkpt lat="47.78907" lon="-3.21039">
        <ele>85.1</ele>
        <time>2011-05-26T11:31:08Z</time>
      </trkpt>
      <trkpt lat="47.78899" lon="-3.2104">
        <ele>85</ele>
        <time>2011-05-26T11:31:10Z</time>
      </trkpt>
      <trkpt lat="47.78892" lon="-3.2104">
        <ele>84.4</ele>
        <time>2011-05-26T11:31:12Z</time>
      </trkpt>
      <trkpt lat="47.78885" lon="-3.2104">
        <ele>81.5</ele>
        <time>2011-05-26T11:31:13Z</time>
      </trkpt>
      <trkpt lat="47.78879" lon="-3.2104">
        <ele>80.3</ele>
        <time>2011-05-26T11:31:14Z</time>
      </trkpt>
      <trkpt lat="47.78874" lon="-3.21041">
        <ele>80.3</ele>
        <time>2011-05-26T11:31:15Z</time>
      </trkpt>
      <trkpt lat="47.78868" lon="-3.2104">
        <ele>79.9</ele>
        <time>2011-05-26T11:31:16Z</time>
      </trkpt>
      <trkpt lat="47.78863" lon="-3.2104">
        <ele>79.8</ele>
        <time>2011-05-26T11:31:17Z</time>
      </trkpt>
      <trkpt lat="47.78854" lon="-3.21038">
        <ele>78.4</ele>
        <time>2011-05-26T11:31:19Z</time>
      </trkpt>
      <trkpt lat="47.78848" lon="-3.21038">
        <ele>84.9</ele>
        <time>2011-05-26T11:32:11Z</time>
      </trkpt>
      <trkpt lat="47.78844" lon="-3.21039">
        <ele>91.9</ele>
        <time>2011-05-26T11:32:14Z</time>
      </trkpt>
      <trkpt lat="47.78836" lon="-3.21038">
        <ele>94.9</ele>
        <time>2011-05-26T11:32:17Z</time>
      </trkpt>
      <trkpt lat="47.7883" lon="-3.21036">
        <ele>93.3</ele>
        <time>2011-05-26T11:32:19Z</time>
      </trkpt>
      <trkpt lat="47.78821" lon="-3.21034">
        <ele>94</ele>
        <time>2011-05-26T11:32:22Z</time>
      </trkpt>
      <trkpt lat="47.78816" lon="-3.21035">
        <ele>91.3</ele>
        <time>2011-05-26T11:32:23Z</time>
      </trkpt>
      <trkpt lat="47.7881" lon="-3.21035">
        <ele>92.3</ele>
        <time>2011-05-26T11:32:25Z</time>
      </trkpt>
      <trkpt lat="47.78798" lon="-3.21033">
        <ele>90.1</ele>
        <time>2011-05-26T11:32:27Z</time>
      </trkpt>
      <trkpt lat="47.7879" lon="-3.21032">
        <ele>91</ele>
        <time>2011-05-26T11:32:29Z</time>
      </trkpt>
      <trkpt lat="47.78786" lon="-3.21032">
        <ele>91.6</ele>
        <time>2011-05-26T11:32:30Z</time>
      </trkpt>
      <trkpt lat="47.7878" lon="-3.21033">
        <ele>90.9</ele>
        <time>2011-05-26T11:32:32Z</time>
      </trkpt>
      <trkpt lat="47.78774" lon="-3.21036">
        <ele>94.8</ele>
        <time>2011-05-26T11:32:34Z</time>
      </trkpt>
      <trkpt lat="47.78769" lon="-3.21036">
        <ele>95.6</ele>
        <time>2011-05-26T11:32:35Z</time>
      </trkpt>
      <trkpt lat="47.78764" lon="-3.21042">
        <ele>95</ele>
        <time>2011-05-26T11:32:37Z</time>
      </trkpt>
      <trkpt lat="47.78759" lon="-3.21048">
        <ele>93.8</ele>
        <time>2011-05-26T11:32:39Z</time>
      </trkpt>
      <trkpt lat="47.78754" lon="-3.21052">
        <ele>92.8</ele>
        <time>2011-05-26T11:32:41Z</time>
      </trkpt>
      <trkpt lat="47.78748" lon="-3.2106">
        <ele>93.9</ele>
        <time>2011-05-26T11:32:43Z</time>
      </trkpt>
      <trkpt lat="47.78743" lon="-3.2107">
        <ele>95.2</ele>
        <time>2011-05-26T11:32:45Z</time>
      </trkpt>
      <trkpt lat="47.78737" lon="-3.21074">
        <ele>96.1</ele>
        <time>2011-05-26T11:32:48Z</time>
      </trkpt>
      <trkpt lat="47.78734" lon="-3.2108">
        <ele>94.4</ele>
        <time>2011-05-26T11:32:49Z</time>
      </trkpt>
      <trkpt lat="47.78731" lon="-3.21087">
        <ele>93.9</ele>
        <time>2011-05-26T11:32:50Z</time>
      </trkpt>
      <trkpt lat="47.78726" lon="-3.21092">
        <ele>92.8</ele>
        <time>2011-05-26T11:32:51Z</time>
      </trkpt>
      <trkpt lat="47.78719" lon="-3.21099">
        <ele>88.8</ele>
        <time>2011-05-26T11:32:53Z</time>
      </trkpt>
      <trkpt lat="47.78715" lon="-3.21104">
        <ele>88.5</ele>
        <time>2011-05-26T11:32:54Z</time>
      </trkpt>
      <trkpt lat="47.78709" lon="-3.21102">
        <ele>85.5</ele>
        <time>2011-05-26T11:32:55Z</time>
      </trkpt>
      <trkpt lat="47.78704" lon="-3.21101">
        <ele>83.6</ele>
        <time>2011-05-26T11:32:56Z</time>
      </trkpt>
      <trkpt lat="47.78697" lon="-3.21102">
        <ele>82.9</ele>
        <time>2011-05-26T11:32:57Z</time>
      </trkpt>
      <trkpt lat="47.78689" lon="-3.21104">
        <ele>81.4</ele>
        <time>2011-05-26T11:32:58Z</time>
      </trkpt>
      <trkpt lat="47.78683" lon="-3.21104">
        <ele>80</ele>
        <time>2011-05-26T11:32:59Z</time>
      </trkpt>
      <trkpt lat="47.78678" lon="-3.21106">
        <ele>79.1</ele>
        <time>2011-05-26T11:33:00Z</time>
      </trkpt>
      <trkpt lat="47.78671" lon="-3.21106">
        <ele>78.8</ele>
        <time>2011-05-26T11:33:01Z</time>
      </trkpt>
      <trkpt lat="47.78665" lon="-3.2111">
        <ele>79.2</ele>
        <time>2011-05-26T11:33:03Z</time>
      </trkpt>
      <trkpt lat="47.78658" lon="-3.21112">
        <ele>79.4</ele>
        <time>2011-05-26T11:33:05Z</time>
      </trkpt>
      <trkpt lat="47.78653" lon="-3.21112">
        <ele>78.7</ele>
        <time>2011-05-26T11:33:06Z</time>
      </trkpt>
      <trkpt lat="47.78647" lon="-3.21112">
        <ele>77.9</ele>
        <time>2011-05-26T11:33:07Z</time>
      </trkpt>
      <trkpt lat="47.78641" lon="-3.21112">
        <ele>76.6</ele>
        <time>2011-05-26T11:33:08Z</time>
      </trkpt>
      <trkpt lat="47.78636" lon="-3.21114">
        <ele>76.4</ele>
        <time>2011-05-26T11:33:09Z</time>
      </trkpt>
      <trkpt lat="47.78627" lon="-3.21116">
        <ele>74.9</ele>
        <time>2011-05-26T11:33:11Z</time>
      </trkpt>
      <trkpt lat="47.78631" lon="-3.21128">
        <ele>70.4</ele>
        <time>2011-05-26T11:33:12Z</time>
      </trkpt>
      <trkpt lat="47.78632" lon="-3.21138">
        <ele>70.5</ele>
        <time>2011-05-26T11:33:14Z</time>
      </trkpt>
      <trkpt lat="47.78633" lon="-3.21147">
        <ele>69.3</ele>
        <time>2011-05-26T11:33:16Z</time>
      </trkpt>
      <trkpt lat="47.78637" lon="-3.21157">
        <ele>68.9</ele>
        <time>2011-05-26T11:33:18Z</time>
      </trkpt>
      <trkpt lat="47.78639" lon="-3.21168">
        <ele>69.6</ele>
        <time>2011-05-26T11:33:20Z</time>
      </trkpt>
      <trkpt lat="47.78638" lon="-3.21175">
        <ele>70.2</ele>
        <time>2011-05-26T11:33:22Z</time>
      </trkpt>
      <trkpt lat="47.7864" lon="-3.21182">
        <ele>71.7</ele>
        <time>2011-05-26T11:33:24Z</time>
      </trkpt>
      <trkpt lat="47.78642" lon="-3.21193">
        <ele>72.4</ele>
        <time>2011-05-26T11:33:26Z</time>
      </trkpt>
      <trkpt lat="47.78643" lon="-3.21201">
        <ele>72.2</ele>
        <time>2011-05-26T11:33:27Z</time>
      </trkpt>
      <trkpt lat="47.78646" lon="-3.2121">
        <ele>72.7</ele>
        <time>2011-05-26T11:33:29Z</time>
      </trkpt>
      <trkpt lat="47.78648" lon="-3.21217">
        <ele>72.7</ele>
        <time>2011-05-26T11:33:31Z</time>
      </trkpt>
      <trkpt lat="47.78649" lon="-3.21224">
        <ele>73.6</ele>
        <time>2011-05-26T11:33:33Z</time>
      </trkpt>
      <trkpt lat="47.78652" lon="-3.21233">
        <ele>74.3</ele>
        <time>2011-05-26T11:33:35Z</time>
      </trkpt>
      <trkpt lat="47.78654" lon="-3.2124">
        <ele>74.8</ele>
        <time>2011-05-26T11:33:36Z</time>
      </trkpt>
      <trkpt lat="47.78654" lon="-3.21247">
        <ele>75.3</ele>
        <time>2011-05-26T11:33:37Z</time>
      </trkpt>
      <trkpt lat="47.78657" lon="-3.21252">
        <ele>75.1</ele>
        <time>2011-05-26T11:33:39Z</time>
      </trkpt>
      <trkpt lat="47.78657" lon="-3.21261">
        <ele>75.6</ele>
        <time>2011-05-26T11:33:40Z</time>
      </trkpt>
      <trkpt lat="47.78659" lon="-3.21268">
        <ele>74.9</ele>
        <time>2011-05-26T11:33:41Z</time>
      </trkpt>
      <trkpt lat="47.78661" lon="-3.21279">
        <ele>76</ele>
        <time>2011-05-26T11:33:43Z</time>
      </trkpt>
      <trkpt lat="47.78662" lon="-3.21288">
        <ele>77.9</ele>
        <time>2011-05-26T11:33:45Z</time>
      </trkpt>
      <trkpt lat="47.78668" lon="-3.213">
        <ele>73.8</ele>
        <time>2011-05-26T11:33:47Z</time>
      </trkpt>
      <trkpt lat="47.78672" lon="-3.21306">
        <ele>73.9</ele>
        <time>2011-05-26T11:33:48Z</time>
      </trkpt>
      <trkpt lat="47.78675" lon="-3.2131">
        <ele>74.3</ele>
        <time>2011-05-26T11:33:49Z</time>
      </trkpt>
      <trkpt lat="47.78684" lon="-3.21317">
        <ele>76.3</ele>
        <time>2011-05-26T11:33:51Z</time>
      </trkpt>
      <trkpt lat="47.7869" lon="-3.2132">
        <ele>77.7</ele>
        <time>2011-05-26T11:33:53Z</time>
      </trkpt>
      <trkpt lat="47.78695" lon="-3.21323">
        <ele>78</ele>
        <time>2011-05-26T11:33:55Z</time>
      </trkpt>
      <trkpt lat="47.78693" lon="-3.21329">
        <ele>79.3</ele>
        <time>2011-05-26T11:33:57Z</time>
      </trkpt>
      <trkpt lat="47.78691" lon="-3.21336">
        <ele>80.5</ele>
        <time>2011-05-26T11:34:01Z</time>
      </trkpt>
      <trkpt lat="47.7869" lon="-3.21343">
        <ele>80.4</ele>
        <time>2011-05-26T11:34:03Z</time>
      </trkpt>
      <trkpt lat="47.78689" lon="-3.2135">
        <ele>80.3</ele>
        <time>2011-05-26T11:34:05Z</time>
      </trkpt>
      <trkpt lat="47.78687" lon="-3.21356">
        <ele>80.6</ele>
        <time>2011-05-26T11:34:08Z</time>
      </trkpt>
      <trkpt lat="47.78685" lon="-3.21365">
        <ele>81.7</ele>
        <time>2011-05-26T11:34:11Z</time>
      </trkpt>
      <trkpt lat="47.78684" lon="-3.21372">
        <ele>81.6</ele>
        <time>2011-05-26T11:34:14Z</time>
      </trkpt>
      <trkpt lat="47.78687" lon="-3.21388">
        <ele>83.5</ele>
        <time>2011-05-26T11:34:16Z</time>
      </trkpt>
      <trkpt lat="47.7869" lon="-3.21395">
        <ele>84.2</ele>
        <time>2011-05-26T11:34:18Z</time>
      </trkpt>
      <trkpt lat="47.78691" lon="-3.21408">
        <ele>85.6</ele>
        <time>2011-05-26T11:34:20Z</time>
      </trkpt>
      <trkpt lat="47.78692" lon="-3.21415">
        <ele>88.1</ele>
        <time>2011-05-26T11:34:22Z</time>
      </trkpt>
      <trkpt lat="47.78694" lon="-3.21422">
        <ele>89.5</ele>
        <time>2011-05-26T11:34:24Z</time>
      </trkpt>
      <trkpt lat="47.78695" lon="-3.21428">
        <ele>90.2</ele>
        <time>2011-05-26T11:34:25Z</time>
      </trkpt>
      <trkpt lat="47.78699" lon="-3.21439">
        <ele>91.3</ele>
        <time>2011-05-26T11:34:27Z</time>
      </trkpt>
      <trkpt lat="47.78702" lon="-3.21443">
        <ele>90.2</ele>
        <time>2011-05-26T11:34:28Z</time>
      </trkpt>
      <trkpt lat="47.78708" lon="-3.21445">
        <ele>90.8</ele>
        <time>2011-05-26T11:34:29Z</time>
      </trkpt>
      <trkpt lat="47.78716" lon="-3.2145">
        <ele>87.1</ele>
        <time>2011-05-26T11:34:31Z</time>
      </trkpt>
      <trkpt lat="47.78722" lon="-3.21446">
        <ele>90.3</ele>
        <time>2011-05-26T11:34:33Z</time>
      </trkpt>
      <trkpt lat="47.78727" lon="-3.21442">
        <ele>92.9</ele>
        <time>2011-05-26T11:34:35Z</time>
      </trkpt>
      <trkpt lat="47.78735" lon="-3.21438">
        <ele>92.2</ele>
        <time>2011-05-26T11:34:38Z</time>
      </trkpt>
      <trkpt lat="47.78739" lon="-3.21435">
        <ele>91.9</ele>
        <time>2011-05-26T11:34:39Z</time>
      </trkpt>
      <trkpt lat="47.78741" lon="-3.21428">
        <ele>93.9</ele>
        <time>2011-05-26T11:34:40Z</time>
      </trkpt>
      <trkpt lat="47.78747" lon="-3.21427">
        <ele>94.9</ele>
        <time>2011-05-26T11:34:42Z</time>
      </trkpt>
      <trkpt lat="47.78752" lon="-3.21426">
        <ele>94.5</ele>
        <time>2011-05-26T11:34:44Z</time>
      </trkpt>
      <trkpt lat="47.78758" lon="-3.21427">
        <ele>95.7</ele>
        <time>2011-05-26T11:34:46Z</time>
      </trkpt>
      <trkpt lat="47.78763" lon="-3.21428">
        <ele>95.5</ele>
        <time>2011-05-26T11:34:48Z</time>
      </trkpt>
      <trkpt lat="47.78768" lon="-3.21425">
        <ele>90.6</ele>
        <time>2011-05-26T11:34:50Z</time>
      </trkpt>
      <trkpt lat="47.78773" lon="-3.2142">
        <ele>88.5</ele>
        <time>2011-05-26T11:34:52Z</time>
      </trkpt>
      <trkpt lat="47.78781" lon="-3.2142">
        <ele>87.2</ele>
        <time>2011-05-26T11:34:55Z</time>
      </trkpt>
      <trkpt lat="47.78784" lon="-3.21425">
        <ele>95.4</ele>
        <time>2011-05-26T11:35:01Z</time>
      </trkpt>
      <trkpt lat="47.78785" lon="-3.21432">
        <ele>98.2</ele>
        <time>2011-05-26T11:35:03Z</time>
      </trkpt>
      <trkpt lat="47.7879" lon="-3.2144">
        <ele>106.3</ele>
        <time>2011-05-26T11:35:08Z</time>
      </trkpt>
      <trkpt lat="47.78793" lon="-3.21447">
        <ele>108.5</ele>
        <time>2011-05-26T11:35:10Z</time>
      </trkpt>
      <trkpt lat="47.78796" lon="-3.21451">
        <ele>109.3</ele>
        <time>2011-05-26T11:35:13Z</time>
      </trkpt>
      <trkpt lat="47.78801" lon="-3.21459">
        <ele>109.5</ele>
        <time>2011-05-26T11:35:14Z</time>
      </trkpt>
      <trkpt lat="47.78806" lon="-3.21468">
        <ele>111</ele>
        <time>2011-05-26T11:35:16Z</time>
      </trkpt>
      <trkpt lat="47.78809" lon="-3.21478">
        <ele>112.4</ele>
        <time>2011-05-26T11:35:18Z</time>
      </trkpt>
      <trkpt lat="47.78813" lon="-3.21486">
        <ele>115.2</ele>
        <time>2011-05-26T11:35:20Z</time>
      </trkpt>
      <trkpt lat="47.78815" lon="-3.21493">
        <ele>116.7</ele>
        <time>2011-05-26T11:35:22Z</time>
      </trkpt>
      <trkpt lat="47.78817" lon="-3.21501">
        <ele>115.8</ele>
        <time>2011-05-26T11:35:23Z</time>
      </trkpt>
      <trkpt lat="47.7882" lon="-3.21507">
        <ele>116.4</ele>
        <time>2011-05-26T11:35:24Z</time>
      </trkpt>
      <trkpt lat="47.78823" lon="-3.2152">
        <ele>114.8</ele>
        <time>2011-05-26T11:35:26Z</time>
      </trkpt>
      <trkpt lat="47.78825" lon="-3.2153">
        <ele>112.4</ele>
        <time>2011-05-26T11:35:27Z</time>
      </trkpt>
      <trkpt lat="47.78826" lon="-3.21542">
        <ele>108</ele>
        <time>2011-05-26T11:35:28Z</time>
      </trkpt>
      <trkpt lat="47.78829" lon="-3.2155">
        <ele>105.1</ele>
        <time>2011-05-26T11:35:30Z</time>
      </trkpt>
      <trkpt lat="47.78828" lon="-3.21558">
        <ele>104.9</ele>
        <time>2011-05-26T11:35:31Z</time>
      </trkpt>
      <trkpt lat="47.78826" lon="-3.21569">
        <ele>102.2</ele>
        <time>2011-05-26T11:35:34Z</time>
      </trkpt>
      <trkpt lat="47.78824" lon="-3.21577">
        <ele>100.6</ele>
        <time>2011-05-26T11:35:36Z</time>
      </trkpt>
      <trkpt lat="47.78822" lon="-3.21587">
        <ele>101.8</ele>
        <time>2011-05-26T11:35:38Z</time>
      </trkpt>
      <trkpt lat="47.78822" lon="-3.21594">
        <ele>103.8</ele>
        <time>2011-05-26T11:35:39Z</time>
      </trkpt>
      <trkpt lat="47.78822" lon="-3.21601">
        <ele>105.7</ele>
        <time>2011-05-26T11:35:40Z</time>
      </trkpt>
      <trkpt lat="47.78819" lon="-3.21615">
        <ele>107</ele>
        <time>2011-05-26T11:35:42Z</time>
      </trkpt>
      <trkpt lat="47.7881" lon="-3.21617">
        <ele>108.2</ele>
        <time>2011-05-26T11:35:44Z</time>
      </trkpt>
      <trkpt lat="47.78806" lon="-3.21628">
        <ele>106.3</ele>
        <time>2011-05-26T11:35:45Z</time>
      </trkpt>
      <trkpt lat="47.78799" lon="-3.21631">
        <ele>99</ele>
        <time>2011-05-26T11:35:48Z</time>
      </trkpt>
      <trkpt lat="47.78797" lon="-3.2164">
        <ele>96.2</ele>
        <time>2011-05-26T11:35:50Z</time>
      </trkpt>
      <trkpt lat="47.78793" lon="-3.21651">
        <ele>95.4</ele>
        <time>2011-05-26T11:35:52Z</time>
      </trkpt>
      <trkpt lat="47.78786" lon="-3.21656">
        <ele>95</ele>
        <time>2011-05-26T11:35:53Z</time>
      </trkpt>
      <trkpt lat="47.78778" lon="-3.21663">
        <ele>94.9</ele>
        <time>2011-05-26T11:35:55Z</time>
      </trkpt>
      <trkpt lat="47.78771" lon="-3.21674">
        <ele>95.7</ele>
        <time>2011-05-26T11:35:57Z</time>
      </trkpt>
      <trkpt lat="47.78775" lon="-3.21689">
        <ele>100.8</ele>
        <time>2011-05-26T11:36:00Z</time>
      </trkpt>
      <trkpt lat="47.78776" lon="-3.21697">
        <ele>106.6</ele>
        <time>2011-05-26T11:36:02Z</time>
      </trkpt>
      <trkpt lat="47.78776" lon="-3.2171">
        <ele>103</ele>
        <time>2011-05-26T11:36:04Z</time>
      </trkpt>
      <trkpt lat="47.78779" lon="-3.2172">
        <ele>103.4</ele>
        <time>2011-05-26T11:36:05Z</time>
      </trkpt>
      <trkpt lat="47.78783" lon="-3.21728">
        <ele>99.8</ele>
        <time>2011-05-26T11:36:07Z</time>
      </trkpt>
      <trkpt lat="47.78789" lon="-3.21735">
        <ele>96.7</ele>
        <time>2011-05-26T11:36:08Z</time>
      </trkpt>
      <trkpt lat="47.78793" lon="-3.21742">
        <ele>96.7</ele>
        <time>2011-05-26T11:36:10Z</time>
      </trkpt>
      <trkpt lat="47.78798" lon="-3.21743">
        <ele>95</ele>
        <time>2011-05-26T11:36:11Z</time>
      </trkpt>
      <trkpt lat="47.78805" lon="-3.21746">
        <ele>94.2</ele>
        <time>2011-05-26T11:36:13Z</time>
      </trkpt>
      <trkpt lat="47.78811" lon="-3.21745">
        <ele>93.3</ele>
        <time>2011-05-26T11:36:15Z</time>
      </trkpt>
      <trkpt lat="47.78819" lon="-3.21745">
        <ele>89.9</ele>
        <time>2011-05-26T11:36:17Z</time>
      </trkpt>
      <trkpt lat="47.7883" lon="-3.21747">
        <ele>89.4</ele>
        <time>2011-05-26T11:36:20Z</time>
      </trkpt>
      <trkpt lat="47.78835" lon="-3.21746">
        <ele>88.7</ele>
        <time>2011-05-26T11:36:23Z</time>
      </trkpt>
      <trkpt lat="47.7884" lon="-3.21744">
        <ele>88.2</ele>
        <time>2011-05-26T11:36:24Z</time>
      </trkpt>
      <trkpt lat="47.78843" lon="-3.2174">
        <ele>92.9</ele>
        <time>2011-05-26T11:36:27Z</time>
      </trkpt>
      <trkpt lat="47.7885" lon="-3.21736">
        <ele>92.3</ele>
        <time>2011-05-26T11:36:28Z</time>
      </trkpt>
      <trkpt lat="47.78852" lon="-3.21727">
        <ele>89.5</ele>
        <time>2011-05-26T11:36:29Z</time>
      </trkpt>
      <trkpt lat="47.78857" lon="-3.21721">
        <ele>92.3</ele>
        <time>2011-05-26T11:36:31Z</time>
      </trkpt>
      <trkpt lat="47.78861" lon="-3.21713">
        <ele>93.2</ele>
        <time>2011-05-26T11:36:33Z</time>
      </trkpt>
      <trkpt lat="47.78864" lon="-3.21702">
        <ele>94</ele>
        <time>2011-05-26T11:36:35Z</time>
      </trkpt>
      <trkpt lat="47.78867" lon="-3.21698">
        <ele>92.5</ele>
        <time>2011-05-26T11:36:36Z</time>
      </trkpt>
      <trkpt lat="47.7887" lon="-3.21692">
        <ele>91.3</ele>
        <time>2011-05-26T11:36:37Z</time>
      </trkpt>
      <trkpt lat="47.78876" lon="-3.21682">
        <ele>87.8</ele>
        <time>2011-05-26T11:36:39Z</time>
      </trkpt>
      <trkpt lat="47.78877" lon="-3.21671">
        <ele>87.7</ele>
        <time>2011-05-26T11:36:40Z</time>
      </trkpt>
      <trkpt lat="47.78876" lon="-3.2166">
        <ele>84</ele>
        <time>2011-05-26T11:36:42Z</time>
      </trkpt>
      <trkpt lat="47.78877" lon="-3.21651">
        <ele>83.7</ele>
        <time>2011-05-26T11:36:43Z</time>
      </trkpt>
      <trkpt lat="47.78876" lon="-3.21666">
        <ele>87.9</ele>
        <time>2011-05-26T11:36:45Z</time>
      </trkpt>
      <trkpt lat="47.78877" lon="-3.21659">
        <ele>87.7</ele>
        <time>2011-05-26T11:36:46Z</time>
      </trkpt>
      <trkpt lat="47.78881" lon="-3.21654">
        <ele>87.9</ele>
        <time>2011-05-26T11:36:48Z</time>
      </trkpt>
      <trkpt lat="47.78886" lon="-3.21653">
        <ele>88</ele>
        <time>2011-05-26T11:36:50Z</time>
      </trkpt>
      <trkpt lat="47.78895" lon="-3.21649">
        <ele>88</ele>
        <time>2011-05-26T11:36:52Z</time>
      </trkpt>
      <trkpt lat="47.78904" lon="-3.21645">
        <ele>88.2</ele>
        <time>2011-05-26T11:36:54Z</time>
      </trkpt>
      <trkpt lat="47.78908" lon="-3.2164">
        <ele>88.1</ele>
        <time>2011-05-26T11:36:56Z</time>
      </trkpt>
      <trkpt lat="47.78911" lon="-3.21633">
        <ele>89.8</ele>
        <time>2011-05-26T11:36:58Z</time>
      </trkpt>
      <trkpt lat="47.78914" lon="-3.21624">
        <ele>89.3</ele>
        <time>2011-05-26T11:37:00Z</time>
      </trkpt>
      <trkpt lat="47.78913" lon="-3.21615">
        <ele>89.4</ele>
        <time>2011-05-26T11:37:02Z</time>
      </trkpt>
      <trkpt lat="47.78905" lon="-3.2161">
        <ele>88.1</ele>
        <time>2011-05-26T11:37:06Z</time>
      </trkpt>
      <trkpt lat="47.789" lon="-3.21608">
        <ele>86.8</ele>
        <time>2011-05-26T11:37:08Z</time>
      </trkpt>
      <trkpt lat="47.78905" lon="-3.21599">
        <ele>96.3</ele>
        <time>2011-05-26T11:37:11Z</time>
      </trkpt>
      <trkpt lat="47.78904" lon="-3.2159">
        <ele>93.9</ele>
        <time>2011-05-26T11:37:13Z</time>
      </trkpt>
      <trkpt lat="47.78899" lon="-3.21581">
        <ele>91.5</ele>
        <time>2011-05-26T11:37:15Z</time>
      </trkpt>
      <trkpt lat="47.78898" lon="-3.21572">
        <ele>89.8</ele>
        <time>2011-05-26T11:37:17Z</time>
      </trkpt>
      <trkpt lat="47.78895" lon="-3.21567">
        <ele>97.9</ele>
        <time>2011-05-26T11:37:19Z</time>
      </trkpt>
      <trkpt lat="47.78897" lon="-3.2156">
        <ele>98.5</ele>
        <time>2011-05-26T11:37:20Z</time>
      </trkpt>
      <trkpt lat="47.789" lon="-3.21545">
        <ele>96.9</ele>
        <time>2011-05-26T11:37:23Z</time>
      </trkpt>
      <trkpt lat="47.789" lon="-3.21534">
        <ele>98.5</ele>
        <time>2011-05-26T11:37:25Z</time>
      </trkpt>
      <trkpt lat="47.78906" lon="-3.21516">
        <ele>92.6</ele>
        <time>2011-05-26T11:37:26Z</time>
      </trkpt>
      <trkpt lat="47.78909" lon="-3.21503">
        <ele>89.1</ele>
        <time>2011-05-26T11:37:27Z</time>
      </trkpt>
      <trkpt lat="47.78907" lon="-3.21497">
        <ele>91.7</ele>
        <time>2011-05-26T11:37:29Z</time>
      </trkpt>
      <trkpt lat="47.78908" lon="-3.2148">
        <ele>91.8</ele>
        <time>2011-05-26T11:37:32Z</time>
      </trkpt>
      <trkpt lat="47.78908" lon="-3.2147">
        <ele>92.1</ele>
        <time>2011-05-26T11:37:34Z</time>
      </trkpt>
      <trkpt lat="47.78908" lon="-3.21461">
        <ele>93.5</ele>
        <time>2011-05-26T11:37:36Z</time>
      </trkpt>
      <trkpt lat="47.78907" lon="-3.21454">
        <ele>92</ele>
        <time>2011-05-26T11:37:37Z</time>
      </trkpt>
      <trkpt lat="47.78907" lon="-3.21441">
        <ele>88.8</ele>
        <time>2011-05-26T11:37:38Z</time>
      </trkpt>
      <trkpt lat="47.78907" lon="-3.21432">
        <ele>85.3</ele>
        <time>2011-05-26T11:37:39Z</time>
      </trkpt>
      <trkpt lat="47.7891" lon="-3.21425">
        <ele>83.1</ele>
        <time>2011-05-26T11:37:40Z</time>
      </trkpt>
      <trkpt lat="47.78914" lon="-3.21418">
        <ele>84.5</ele>
        <time>2011-05-26T11:37:42Z</time>
      </trkpt>
      <trkpt lat="47.78924" lon="-3.21409">
        <ele>82.6</ele>
        <time>2011-05-26T11:37:44Z</time>
      </trkpt>
      <trkpt lat="47.7893" lon="-3.21405">
        <ele>82.2</ele>
        <time>2011-05-26T11:37:45Z</time>
      </trkpt>
      <trkpt lat="47.78937" lon="-3.21405">
        <ele>82.8</ele>
        <time>2011-05-26T11:37:47Z</time>
      </trkpt>
      <trkpt lat="47.78941" lon="-3.21407">
        <ele>83.6</ele>
        <time>2011-05-26T11:37:49Z</time>
      </trkpt>
      <trkpt lat="47.7895" lon="-3.21411">
        <ele>83.7</ele>
        <time>2011-05-26T11:37:51Z</time>
      </trkpt>
      <trkpt lat="47.78956" lon="-3.21414">
        <ele>83.4</ele>
        <time>2011-05-26T11:37:53Z</time>
      </trkpt>
      <trkpt lat="47.78964" lon="-3.21417">
        <ele>83.6</ele>
        <time>2011-05-26T11:37:55Z</time>
      </trkpt>
      <trkpt lat="47.78969" lon="-3.21418">
        <ele>83.7</ele>
        <time>2011-05-26T11:37:56Z</time>
      </trkpt>
      <trkpt lat="47.78974" lon="-3.21408">
        <ele>84.3</ele>
        <time>2011-05-26T11:37:57Z</time>
      </trkpt>
      <trkpt lat="47.78983" lon="-3.21404">
        <ele>83.3</ele>
        <time>2011-05-26T11:37:59Z</time>
      </trkpt>
      <trkpt lat="47.78989" lon="-3.21403">
        <ele>84.3</ele>
        <time>2011-05-26T11:38:01Z</time>
      </trkpt>
      <trkpt lat="47.78997" lon="-3.21407">
        <ele>83.9</ele>
        <time>2011-05-26T11:38:03Z</time>
      </trkpt>
      <trkpt lat="47.79004" lon="-3.21406">
        <ele>84.3</ele>
        <time>2011-05-26T11:38:04Z</time>
      </trkpt>
      <trkpt lat="47.7901" lon="-3.21404">
        <ele>84.9</ele>
        <time>2011-05-26T11:38:05Z</time>
      </trkpt>
      <trkpt lat="47.79015" lon="-3.21406">
        <ele>85.2</ele>
        <time>2011-05-26T11:38:07Z</time>
      </trkpt>
      <trkpt lat="47.79022" lon="-3.21406">
        <ele>88.5</ele>
        <time>2011-05-26T11:38:10Z</time>
      </trkpt>
      <trkpt lat="47.79026" lon="-3.21406">
        <ele>89.9</ele>
        <time>2011-05-26T11:38:11Z</time>
      </trkpt>
      <trkpt lat="47.79032" lon="-3.21405">
        <ele>93.2</ele>
        <time>2011-05-26T11:38:13Z</time>
      </trkpt>
      <trkpt lat="47.79039" lon="-3.2141">
        <ele>93</ele>
        <time>2011-05-26T11:38:15Z</time>
      </trkpt>
      <trkpt lat="47.79045" lon="-3.21413">
        <ele>92.2</ele>
        <time>2011-05-26T11:38:16Z</time>
      </trkpt>
      <trkpt lat="47.7905" lon="-3.21415">
        <ele>92.7</ele>
        <time>2011-05-26T11:38:17Z</time>
      </trkpt>
      <trkpt lat="47.79057" lon="-3.21415">
        <ele>90.5</ele>
        <time>2011-05-26T11:38:18Z</time>
      </trkpt>
      <trkpt lat="47.79062" lon="-3.21416">
        <ele>91.2</ele>
        <time>2011-05-26T11:38:19Z</time>
      </trkpt>
      <trkpt lat="47.79067" lon="-3.21418">
        <ele>91.4</ele>
        <time>2011-05-26T11:38:20Z</time>
      </trkpt>
      <trkpt lat="47.79075" lon="-3.21421">
        <ele>93</ele>
        <time>2011-05-26T11:38:22Z</time>
      </trkpt>
      <trkpt lat="47.7908" lon="-3.2142">
        <ele>94.6</ele>
        <time>2011-05-26T11:38:24Z</time>
      </trkpt>
      <trkpt lat="47.79087" lon="-3.21417">
        <ele>94</ele>
        <time>2011-05-26T11:38:26Z</time>
      </trkpt>
      <trkpt lat="47.79091" lon="-3.21417">
        <ele>94.1</ele>
        <time>2011-05-26T11:38:27Z</time>
      </trkpt>
      <trkpt lat="47.79096" lon="-3.21415">
        <ele>94.6</ele>
        <time>2011-05-26T11:38:28Z</time>
      </trkpt>
      <trkpt lat="47.79102" lon="-3.21411">
        <ele>95</ele>
        <time>2011-05-26T11:38:30Z</time>
      </trkpt>
      <trkpt lat="47.7911" lon="-3.21409">
        <ele>94.7</ele>
        <time>2011-05-26T11:38:32Z</time>
      </trkpt>
      <trkpt lat="47.79114" lon="-3.21408">
        <ele>92.6</ele>
        <time>2011-05-26T11:38:34Z</time>
      </trkpt>
      <trkpt lat="47.79121" lon="-3.21406">
        <ele>90</ele>
        <time>2011-05-26T11:38:37Z</time>
      </trkpt>
      <trkpt lat="47.79128" lon="-3.21403">
        <ele>89.8</ele>
        <time>2011-05-26T11:38:38Z</time>
      </trkpt>
      <trkpt lat="47.79137" lon="-3.21401">
        <ele>89.6</ele>
        <time>2011-05-26T11:38:40Z</time>
      </trkpt>
      <trkpt lat="47.79144" lon="-3.21399">
        <ele>88.8</ele>
        <time>2011-05-26T11:38:42Z</time>
      </trkpt>
      <trkpt lat="47.79151" lon="-3.21397">
        <ele>88.9</ele>
        <time>2011-05-26T11:38:44Z</time>
      </trkpt>
      <trkpt lat="47.79157" lon="-3.21396">
        <ele>89.7</ele>
        <time>2011-05-26T11:38:46Z</time>
      </trkpt>
      <trkpt lat="47.79162" lon="-3.21397">
        <ele>91.2</ele>
        <time>2011-05-26T11:38:48Z</time>
      </trkpt>
      <trkpt lat="47.79168" lon="-3.21396">
        <ele>92.1</ele>
        <time>2011-05-26T11:38:50Z</time>
      </trkpt>
      <trkpt lat="47.79174" lon="-3.21394">
        <ele>93.7</ele>
        <time>2011-05-26T11:38:52Z</time>
      </trkpt>
      <trkpt lat="47.7918" lon="-3.21392">
        <ele>94.7</ele>
        <time>2011-05-26T11:38:54Z</time>
      </trkpt>
      <trkpt lat="47.79186" lon="-3.21394">
        <ele>94.9</ele>
        <time>2011-05-26T11:38:56Z</time>
      </trkpt>
      <trkpt lat="47.79192" lon="-3.21395">
        <ele>96.4</ele>
        <time>2011-05-26T11:38:58Z</time>
      </trkpt>
      <trkpt lat="47.792" lon="-3.21393">
        <ele>96.9</ele>
        <time>2011-05-26T11:39:00Z</time>
      </trkpt>
      <trkpt lat="47.79207" lon="-3.21393">
        <ele>96.6</ele>
        <time>2011-05-26T11:39:02Z</time>
      </trkpt>
      <trkpt lat="47.79212" lon="-3.21394">
        <ele>97.1</ele>
        <time>2011-05-26T11:39:04Z</time>
      </trkpt>
      <trkpt lat="47.79218" lon="-3.21395">
        <ele>96.5</ele>
        <time>2011-05-26T11:39:06Z</time>
      </trkpt>
      <trkpt lat="47.79222" lon="-3.21395">
        <ele>98.1</ele>
        <time>2011-05-26T11:39:08Z</time>
      </trkpt>
      <trkpt lat="47.79228" lon="-3.21396">
        <ele>99.4</ele>
        <time>2011-05-26T11:39:11Z</time>
      </trkpt>
      <trkpt lat="47.79234" lon="-3.21396">
        <ele>99.5</ele>
        <time>2011-05-26T11:39:14Z</time>
      </trkpt>
      <trkpt lat="47.79239" lon="-3.21393">
        <ele>99.8</ele>
        <time>2011-05-26T11:39:17Z</time>
      </trkpt>
      <trkpt lat="47.79239" lon="-3.21402">
        <ele>97.9</ele>
        <time>2011-05-26T11:39:19Z</time>
      </trkpt>
      <trkpt lat="47.79237" lon="-3.2141">
        <ele>97.8</ele>
        <time>2011-05-26T11:39:21Z</time>
      </trkpt>
      <trkpt lat="47.79235" lon="-3.21419">
        <ele>97.6</ele>
        <time>2011-05-26T11:39:23Z</time>
      </trkpt>
      <trkpt lat="47.79234" lon="-3.21429">
        <ele>97.8</ele>
        <time>2011-05-26T11:39:24Z</time>
      </trkpt>
      <trkpt lat="47.79234" lon="-3.21441">
        <ele>97.8</ele>
        <time>2011-05-26T11:39:26Z</time>
      </trkpt>
      <trkpt lat="47.79233" lon="-3.21448">
        <ele>97.8</ele>
        <time>2011-05-26T11:39:27Z</time>
      </trkpt>
      <trkpt lat="47.79233" lon="-3.21458">
        <ele>95.7</ele>
        <time>2011-05-26T11:39:28Z</time>
      </trkpt>
      <trkpt lat="47.79232" lon="-3.2147">
        <ele>93.9</ele>
        <time>2011-05-26T11:39:30Z</time>
      </trkpt>
      <trkpt lat="47.79233" lon="-3.21478">
        <ele>95.1</ele>
        <time>2011-05-26T11:39:31Z</time>
      </trkpt>
      <trkpt lat="47.79233" lon="-3.21485">
        <ele>96.2</ele>
        <time>2011-05-26T11:39:32Z</time>
      </trkpt>
      <trkpt lat="47.79232" lon="-3.21498">
        <ele>97.5</ele>
        <time>2011-05-26T11:39:34Z</time>
      </trkpt>
      <trkpt lat="47.79233" lon="-3.21509">
        <ele>95.6</ele>
        <time>2011-05-26T11:39:35Z</time>
      </trkpt>
      <trkpt lat="47.79234" lon="-3.21523">
        <ele>94.3</ele>
        <time>2011-05-26T11:39:37Z</time>
      </trkpt>
      <trkpt lat="47.79236" lon="-3.21532">
        <ele>94.3</ele>
        <time>2011-05-26T11:39:38Z</time>
      </trkpt>
      <trkpt lat="47.7924" lon="-3.2154">
        <ele>94</ele>
        <time>2011-05-26T11:39:39Z</time>
      </trkpt>
      <trkpt lat="47.79243" lon="-3.21548">
        <ele>94</ele>
        <time>2011-05-26T11:39:40Z</time>
      </trkpt>
      <trkpt lat="47.79253" lon="-3.2155">
        <ele>92.3</ele>
        <time>2011-05-26T11:39:41Z</time>
      </trkpt>
      <trkpt lat="47.7926" lon="-3.21557">
        <ele>91.1</ele>
        <time>2011-05-26T11:39:42Z</time>
      </trkpt>
      <trkpt lat="47.79269" lon="-3.21568">
        <ele>88.7</ele>
        <time>2011-05-26T11:39:43Z</time>
      </trkpt>
      <trkpt lat="47.79279" lon="-3.21578">
        <ele>86.2</ele>
        <time>2011-05-26T11:39:44Z</time>
      </trkpt>
      <trkpt lat="47.79285" lon="-3.21585">
        <ele>87</ele>
        <time>2011-05-26T11:39:45Z</time>
      </trkpt>
      <trkpt lat="47.79293" lon="-3.21591">
        <ele>87.3</ele>
        <time>2011-05-26T11:39:46Z</time>
      </trkpt>
      <trkpt lat="47.79299" lon="-3.21598">
        <ele>87.3</ele>
        <time>2011-05-26T11:39:47Z</time>
      </trkpt>
      <trkpt lat="47.79306" lon="-3.21606">
        <ele>87.3</ele>
        <time>2011-05-26T11:39:48Z</time>
      </trkpt>
      <trkpt lat="47.79315" lon="-3.21615">
        <ele>87.2</ele>
        <time>2011-05-26T11:39:49Z</time>
      </trkpt>
      <trkpt lat="47.79323" lon="-3.21622">
        <ele>87.2</ele>
        <time>2011-05-26T11:39:50Z</time>
      </trkpt>
      <trkpt lat="47.79333" lon="-3.21637">
        <ele>86.4</ele>
        <time>2011-05-26T11:39:51Z</time>
      </trkpt>
      <trkpt lat="47.79335" lon="-3.2165">
        <ele>86.7</ele>
        <time>2011-05-26T11:39:52Z</time>
      </trkpt>
      <trkpt lat="47.79336" lon="-3.21658">
        <ele>86.7</ele>
        <time>2011-05-26T11:39:53Z</time>
      </trkpt>
      <trkpt lat="47.79338" lon="-3.2167">
        <ele>87.4</ele>
        <time>2011-05-26T11:39:54Z</time>
      </trkpt>
      <trkpt lat="47.79341" lon="-3.21676">
        <ele>87.1</ele>
        <time>2011-05-26T11:39:55Z</time>
      </trkpt>
      <trkpt lat="47.79344" lon="-3.21686">
        <ele>87.1</ele>
        <time>2011-05-26T11:39:56Z</time>
      </trkpt>
      <trkpt lat="47.79348" lon="-3.217">
        <ele>85.3</ele>
        <time>2011-05-26T11:39:59Z</time>
      </trkpt>
      <trkpt lat="47.7935" lon="-3.21707">
        <ele>84.7</ele>
        <time>2011-05-26T11:40:00Z</time>
      </trkpt>
      <trkpt lat="47.79352" lon="-3.21717">
        <ele>86.1</ele>
        <time>2011-05-26T11:40:02Z</time>
      </trkpt>
      <trkpt lat="47.79353" lon="-3.21728">
        <ele>86.6</ele>
        <time>2011-05-26T11:40:04Z</time>
      </trkpt>
      <trkpt lat="47.79357" lon="-3.21733">
        <ele>87.5</ele>
        <time>2011-05-26T11:40:07Z</time>
      </trkpt>
      <trkpt lat="47.79364" lon="-3.21741">
        <ele>87.4</ele>
        <time>2011-05-26T11:40:09Z</time>
      </trkpt>
      <trkpt lat="47.7936" lon="-3.21752">
        <ele>88.5</ele>
        <time>2011-05-26T11:40:11Z</time>
      </trkpt>
      <trkpt lat="47.79359" lon="-3.21761">
        <ele>92.1</ele>
        <time>2011-05-26T11:40:13Z</time>
      </trkpt>
      <trkpt lat="47.7936" lon="-3.2177">
        <ele>96.7</ele>
        <time>2011-05-26T11:40:17Z</time>
      </trkpt>
      <trkpt lat="47.79359" lon="-3.2178">
        <ele>93.9</ele>
        <time>2011-05-26T11:40:20Z</time>
      </trkpt>
      <trkpt lat="47.79358" lon="-3.21787">
        <ele>93.6</ele>
        <time>2011-05-26T11:40:22Z</time>
      </trkpt>
      <trkpt lat="47.79358" lon="-3.21794">
        <ele>93.6</ele>
        <time>2011-05-26T11:40:26Z</time>
      </trkpt>
      <trkpt lat="47.79357" lon="-3.21805">
        <ele>96.2</ele>
        <time>2011-05-26T11:40:29Z</time>
      </trkpt>
      <trkpt lat="47.79358" lon="-3.21812">
        <ele>98.6</ele>
        <time>2011-05-26T11:40:31Z</time>
      </trkpt>
      <trkpt lat="47.7936" lon="-3.21825">
        <ele>95.7</ele>
        <time>2011-05-26T11:40:32Z</time>
      </trkpt>
      <trkpt lat="47.79364" lon="-3.21833">
        <ele>93.5</ele>
        <time>2011-05-26T11:40:35Z</time>
      </trkpt>
      <trkpt lat="47.79366" lon="-3.21842">
        <ele>101.7</ele>
        <time>2011-05-26T11:40:37Z</time>
      </trkpt>
      <trkpt lat="47.79368" lon="-3.2185">
        <ele>102.6</ele>
        <time>2011-05-26T11:40:38Z</time>
      </trkpt>
      <trkpt lat="47.79369" lon="-3.21859">
        <ele>102.5</ele>
        <time>2011-05-26T11:40:40Z</time>
      </trkpt>
      <trkpt lat="47.79372" lon="-3.21869">
        <ele>104.3</ele>
        <time>2011-05-26T11:40:42Z</time>
      </trkpt>
      <trkpt lat="47.79375" lon="-3.21878">
        <ele>104.5</ele>
        <time>2011-05-26T11:40:44Z</time>
      </trkpt>
      <trkpt lat="47.79377" lon="-3.21886">
        <ele>105.2</ele>
        <time>2011-05-26T11:40:46Z</time>
      </trkpt>
      <trkpt lat="47.7938" lon="-3.21891">
        <ele>105.8</ele>
        <time>2011-05-26T11:40:48Z</time>
      </trkpt>
      <trkpt lat="47.79382" lon="-3.21898">
        <ele>106.1</ele>
        <time>2011-05-26T11:40:50Z</time>
      </trkpt>
      <trkpt lat="47.79385" lon="-3.21908">
        <ele>108</ele>
        <time>2011-05-26T11:40:52Z</time>
      </trkpt>
      <trkpt lat="47.79388" lon="-3.21914">
        <ele>114.8</ele>
        <time>2011-05-26T11:40:54Z</time>
      </trkpt>
      <trkpt lat="47.79389" lon="-3.21921">
        <ele>117.7</ele>
        <time>2011-05-26T11:40:56Z</time>
      </trkpt>
      <trkpt lat="47.79391" lon="-3.2193">
        <ele>120.9</ele>
        <time>2011-05-26T11:40:59Z</time>
      </trkpt>
      <trkpt lat="47.79392" lon="-3.2194">
        <ele>117.6</ele>
        <time>2011-05-26T11:41:00Z</time>
      </trkpt>
      <trkpt lat="47.79391" lon="-3.21949">
        <ele>118</ele>
        <time>2011-05-26T11:41:02Z</time>
      </trkpt>
      <trkpt lat="47.79392" lon="-3.21962">
        <ele>116</ele>
        <time>2011-05-26T11:41:05Z</time>
      </trkpt>
      <trkpt lat="47.79399" lon="-3.21964">
        <ele>114.8</ele>
        <time>2011-05-26T11:41:07Z</time>
      </trkpt>
      <trkpt lat="47.79406" lon="-3.21965">
        <ele>115.2</ele>
        <time>2011-05-26T11:41:08Z</time>
      </trkpt>
      <trkpt lat="47.79411" lon="-3.21969">
        <ele>115</ele>
        <time>2011-05-26T11:41:10Z</time>
      </trkpt>
      <trkpt lat="47.7942" lon="-3.21976">
        <ele>120.6</ele>
        <time>2011-05-26T11:41:11Z</time>
      </trkpt>
      <trkpt lat="47.79424" lon="-3.21979">
        <ele>123.6</ele>
        <time>2011-05-26T11:41:12Z</time>
      </trkpt>
      <trkpt lat="47.79426" lon="-3.21986">
        <ele>120.6</ele>
        <time>2011-05-26T11:41:13Z</time>
      </trkpt>
      <trkpt lat="47.79433" lon="-3.21991">
        <ele>121.1</ele>
        <time>2011-05-26T11:41:16Z</time>
      </trkpt>
      <trkpt lat="47.79435" lon="-3.21999">
        <ele>124.8</ele>
        <time>2011-05-26T11:41:17Z</time>
      </trkpt>
      <trkpt lat="47.79439" lon="-3.22008">
        <ele>129.3</ele>
        <time>2011-05-26T11:41:19Z</time>
      </trkpt>
      <trkpt lat="47.79442" lon="-3.22014">
        <ele>129.9</ele>
        <time>2011-05-26T11:41:20Z</time>
      </trkpt>
      <trkpt lat="47.79447" lon="-3.22019">
        <ele>130.5</ele>
        <time>2011-05-26T11:41:22Z</time>
      </trkpt>
      <trkpt lat="47.79452" lon="-3.22027">
        <ele>130.1</ele>
        <time>2011-05-26T11:41:24Z</time>
      </trkpt>
      <trkpt lat="47.79455" lon="-3.22032">
        <ele>128.3</ele>
        <time>2011-05-26T11:41:25Z</time>
      </trkpt>
      <trkpt lat="47.7946" lon="-3.2204">
        <ele>127.3</ele>
        <time>2011-05-26T11:41:26Z</time>
      </trkpt>
      <trkpt lat="47.79466" lon="-3.22057">
        <ele>125.3</ele>
        <time>2011-05-26T11:41:28Z</time>
      </trkpt>
      <trkpt lat="47.79469" lon="-3.22065">
        <ele>121.3</ele>
        <time>2011-05-26T11:41:29Z</time>
      </trkpt>
      <trkpt lat="47.79473" lon="-3.22071">
        <ele>121.1</ele>
        <time>2011-05-26T11:41:30Z</time>
      </trkpt>
      <trkpt lat="47.79476" lon="-3.22079">
        <ele>120.9</ele>
        <time>2011-05-26T11:41:32Z</time>
      </trkpt>
      <trkpt lat="47.79479" lon="-3.22086">
        <ele>120.9</ele>
        <time>2011-05-26T11:41:33Z</time>
      </trkpt>
      <trkpt lat="47.79475" lon="-3.22079">
        <ele>122.7</ele>
        <time>2011-05-26T11:41:34Z</time>
      </trkpt>
      <trkpt lat="47.79479" lon="-3.22087">
        <ele>119</ele>
        <time>2011-05-26T11:41:40Z</time>
      </trkpt>
      <trkpt lat="47.79483" lon="-3.22091">
        <ele>117.1</ele>
        <time>2011-05-26T11:41:42Z</time>
      </trkpt>
      <trkpt lat="47.79487" lon="-3.22098">
        <ele>115.2</ele>
        <time>2011-05-26T11:41:45Z</time>
      </trkpt>
      <trkpt lat="47.79492" lon="-3.22103">
        <ele>115.1</ele>
        <time>2011-05-26T11:41:47Z</time>
      </trkpt>
      <trkpt lat="47.79498" lon="-3.22102">
        <ele>115.3</ele>
        <time>2011-05-26T11:41:49Z</time>
      </trkpt>
      <trkpt lat="47.79507" lon="-3.22102">
        <ele>114.2</ele>
        <time>2011-05-26T11:41:52Z</time>
      </trkpt>
      <trkpt lat="47.79518" lon="-3.22098">
        <ele>110.8</ele>
        <time>2011-05-26T11:41:54Z</time>
      </trkpt>
      <trkpt lat="47.79527" lon="-3.22099">
        <ele>107.2</ele>
        <time>2011-05-26T11:41:56Z</time>
      </trkpt>
      <trkpt lat="47.79534" lon="-3.22098">
        <ele>106.4</ele>
        <time>2011-05-26T11:41:58Z</time>
      </trkpt>
      <trkpt lat="47.79538" lon="-3.221">
        <ele>110.8</ele>
        <time>2011-05-26T11:42:00Z</time>
      </trkpt>
      <trkpt lat="47.79542" lon="-3.22107">
        <ele>111.2</ele>
        <time>2011-05-26T11:42:02Z</time>
      </trkpt>
      <trkpt lat="47.79551" lon="-3.22106">
        <ele>110.9</ele>
        <time>2011-05-26T11:42:04Z</time>
      </trkpt>
      <trkpt lat="47.79552" lon="-3.22114">
        <ele>108.2</ele>
        <time>2011-05-26T11:42:07Z</time>
      </trkpt>
      <trkpt lat="47.79558" lon="-3.2212">
        <ele>108.8</ele>
        <time>2011-05-26T11:42:09Z</time>
      </trkpt>
      <trkpt lat="47.79561" lon="-3.22125">
        <ele>105.3</ele>
        <time>2011-05-26T11:42:11Z</time>
      </trkpt>
      <trkpt lat="47.79563" lon="-3.22135">
        <ele>104.2</ele>
        <time>2011-05-26T11:42:13Z</time>
      </trkpt>
      <trkpt lat="47.79566" lon="-3.2214">
        <ele>103.5</ele>
        <time>2011-05-26T11:42:15Z</time>
      </trkpt>
      <trkpt lat="47.79568" lon="-3.22147">
        <ele>103</ele>
        <time>2011-05-26T11:42:17Z</time>
      </trkpt>
      <trkpt lat="47.7957" lon="-3.22155">
        <ele>102.7</ele>
        <time>2011-05-26T11:42:19Z</time>
      </trkpt>
      <trkpt lat="47.79572" lon="-3.22161">
        <ele>103.5</ele>
        <time>2011-05-26T11:42:21Z</time>
      </trkpt>
      <trkpt lat="47.79574" lon="-3.22169">
        <ele>102</ele>
        <time>2011-05-26T11:42:23Z</time>
      </trkpt>
      <trkpt lat="47.79575" lon="-3.22178">
        <ele>101.5</ele>
        <time>2011-05-26T11:42:25Z</time>
      </trkpt>
      <trkpt lat="47.79577" lon="-3.22186">
        <ele>102.2</ele>
        <time>2011-05-26T11:42:28Z</time>
      </trkpt>
      <trkpt lat="47.79578" lon="-3.22201">
        <ele>100.9</ele>
        <time>2011-05-26T11:42:30Z</time>
      </trkpt>
      <trkpt lat="47.79581" lon="-3.2221">
        <ele>103.4</ele>
        <time>2011-05-26T11:42:33Z</time>
      </trkpt>
      <trkpt lat="47.79582" lon="-3.22218">
        <ele>105.2</ele>
        <time>2011-05-26T11:42:35Z</time>
      </trkpt>
      <trkpt lat="47.79583" lon="-3.22226">
        <ele>107.1</ele>
        <time>2011-05-26T11:42:38Z</time>
      </trkpt>
      <trkpt lat="47.79584" lon="-3.22235">
        <ele>107.4</ele>
        <time>2011-05-26T11:42:40Z</time>
      </trkpt>
      <trkpt lat="47.79584" lon="-3.22243">
        <ele>108.7</ele>
        <time>2011-05-26T11:42:43Z</time>
      </trkpt>
      <trkpt lat="47.79586" lon="-3.22252">
        <ele>110.9</ele>
        <time>2011-05-26T11:42:47Z</time>
      </trkpt>
      <trkpt lat="47.79586" lon="-3.2226">
        <ele>110.5</ele>
        <time>2011-05-26T11:42:49Z</time>
      </trkpt>
      <trkpt lat="47.79587" lon="-3.22269">
        <ele>109.9</ele>
        <time>2011-05-26T11:42:51Z</time>
      </trkpt>
      <trkpt lat="47.79588" lon="-3.22276">
        <ele>109.6</ele>
        <time>2011-05-26T11:42:53Z</time>
      </trkpt>
      <trkpt lat="47.79589" lon="-3.22283">
        <ele>109.7</ele>
        <time>2011-05-26T11:42:55Z</time>
      </trkpt>
      <trkpt lat="47.79588" lon="-3.22295">
        <ele>107</ele>
        <time>2011-05-26T11:42:58Z</time>
      </trkpt>
      <trkpt lat="47.79588" lon="-3.22303">
        <ele>104.9</ele>
        <time>2011-05-26T11:43:00Z</time>
      </trkpt>
      <trkpt lat="47.79587" lon="-3.22313">
        <ele>105.3</ele>
        <time>2011-05-26T11:43:02Z</time>
      </trkpt>
      <trkpt lat="47.79589" lon="-3.2232">
        <ele>105.1</ele>
        <time>2011-05-26T11:43:04Z</time>
      </trkpt>
      <trkpt lat="47.79589" lon="-3.2233">
        <ele>105.7</ele>
        <time>2011-05-26T11:43:06Z</time>
      </trkpt>
      <trkpt lat="47.79589" lon="-3.2234">
        <ele>106.2</ele>
        <time>2011-05-26T11:43:08Z</time>
      </trkpt>
      <trkpt lat="47.79588" lon="-3.22349">
        <ele>105.9</ele>
        <time>2011-05-26T11:43:10Z</time>
      </trkpt>
      <trkpt lat="47.79588" lon="-3.22358">
        <ele>104.8</ele>
        <time>2011-05-26T11:43:12Z</time>
      </trkpt>
      <trkpt lat="47.79589" lon="-3.22367">
        <ele>104.4</ele>
        <time>2011-05-26T11:43:14Z</time>
      </trkpt>
      <trkpt lat="47.7959" lon="-3.22377">
        <ele>105.6</ele>
        <time>2011-05-26T11:43:16Z</time>
      </trkpt>
      <trkpt lat="47.7959" lon="-3.22387">
        <ele>105.6</ele>
        <time>2011-05-26T11:43:18Z</time>
      </trkpt>
      <trkpt lat="47.79591" lon="-3.22396">
        <ele>105.8</ele>
        <time>2011-05-26T11:43:20Z</time>
      </trkpt>
      <trkpt lat="47.79592" lon="-3.22407">
        <ele>105.8</ele>
        <time>2011-05-26T11:43:22Z</time>
      </trkpt>
      <trkpt lat="47.79592" lon="-3.22416">
        <ele>104.6</ele>
        <time>2011-05-26T11:43:24Z</time>
      </trkpt>
      <trkpt lat="47.79592" lon="-3.22425">
        <ele>103.7</ele>
        <time>2011-05-26T11:43:26Z</time>
      </trkpt>
      <trkpt lat="47.79593" lon="-3.22432">
        <ele>101.9</ele>
        <time>2011-05-26T11:43:28Z</time>
      </trkpt>
      <trkpt lat="47.7959" lon="-3.22439">
        <ele>100.4</ele>
        <time>2011-05-26T11:43:30Z</time>
      </trkpt>
      <trkpt lat="47.79587" lon="-3.22446">
        <ele>99.9</ele>
        <time>2011-05-26T11:43:32Z</time>
      </trkpt>
      <trkpt lat="47.79584" lon="-3.22451">
        <ele>99.7</ele>
        <time>2011-05-26T11:43:34Z</time>
      </trkpt>
      <trkpt lat="47.79578" lon="-3.22448">
        <ele>101</ele>
        <time>2011-05-26T11:43:36Z</time>
      </trkpt>
      <trkpt lat="47.79573" lon="-3.22448">
        <ele>100.7</ele>
        <time>2011-05-26T11:43:38Z</time>
      </trkpt>
      <trkpt lat="47.79568" lon="-3.22444">
        <ele>99.6</ele>
        <time>2011-05-26T11:43:42Z</time>
      </trkpt>
      <trkpt lat="47.79561" lon="-3.2244">
        <ele>103.1</ele>
        <time>2011-05-26T11:43:46Z</time>
      </trkpt>
      <trkpt lat="47.79555" lon="-3.22439">
        <ele>106.4</ele>
        <time>2011-05-26T11:43:49Z</time>
      </trkpt>
      <trkpt lat="47.79548" lon="-3.22437">
        <ele>105.2</ele>
        <time>2011-05-26T11:43:51Z</time>
      </trkpt>
      <trkpt lat="47.79542" lon="-3.22438">
        <ele>104.7</ele>
        <time>2011-05-26T11:43:53Z</time>
      </trkpt>
      <trkpt lat="47.79537" lon="-3.22438">
        <ele>104.4</ele>
        <time>2011-05-26T11:43:55Z</time>
      </trkpt>
      <trkpt lat="47.7953" lon="-3.22438">
        <ele>104.7</ele>
        <time>2011-05-26T11:43:58Z</time>
      </trkpt>
      <trkpt lat="47.79525" lon="-3.22438">
        <ele>105.4</ele>
        <time>2011-05-26T11:44:00Z</time>
      </trkpt>
      <trkpt lat="47.79521" lon="-3.22436">
        <ele>105.5</ele>
        <time>2011-05-26T11:44:02Z</time>
      </trkpt>
      <trkpt lat="47.79516" lon="-3.22437">
        <ele>105.1</ele>
        <time>2011-05-26T11:44:04Z</time>
      </trkpt>
      <trkpt lat="47.79511" lon="-3.22438">
        <ele>106.1</ele>
        <time>2011-05-26T11:44:06Z</time>
      </trkpt>
      <trkpt lat="47.79504" lon="-3.22441">
        <ele>105.9</ele>
        <time>2011-05-26T11:44:09Z</time>
      </trkpt>
      <trkpt lat="47.795" lon="-3.22444">
        <ele>106.5</ele>
        <time>2011-05-26T11:44:11Z</time>
      </trkpt>
      <trkpt lat="47.79494" lon="-3.22448">
        <ele>106.5</ele>
        <time>2011-05-26T11:44:13Z</time>
      </trkpt>
      <trkpt lat="47.79489" lon="-3.22452">
        <ele>106.8</ele>
        <time>2011-05-26T11:44:15Z</time>
      </trkpt>
      <trkpt lat="47.79484" lon="-3.22456">
        <ele>107.4</ele>
        <time>2011-05-26T11:44:17Z</time>
      </trkpt>
      <trkpt lat="47.79479" lon="-3.22459">
        <ele>107.2</ele>
        <time>2011-05-26T11:44:19Z</time>
      </trkpt>
      <trkpt lat="47.79472" lon="-3.22464">
        <ele>107.5</ele>
        <time>2011-05-26T11:44:21Z</time>
      </trkpt>
      <trkpt lat="47.79466" lon="-3.22468">
        <ele>107.2</ele>
        <time>2011-05-26T11:44:23Z</time>
      </trkpt>
      <trkpt lat="47.79462" lon="-3.22471">
        <ele>107.7</ele>
        <time>2011-05-26T11:44:24Z</time>
      </trkpt>
      <trkpt lat="47.79455" lon="-3.22476">
        <ele>108.1</ele>
        <time>2011-05-26T11:44:26Z</time>
      </trkpt>
      <trkpt lat="47.7945" lon="-3.22478">
        <ele>107.1</ele>
        <time>2011-05-26T11:44:27Z</time>
      </trkpt>
      <trkpt lat="47.79446" lon="-3.22484">
        <ele>106.7</ele>
        <time>2011-05-26T11:44:29Z</time>
      </trkpt>
      <trkpt lat="47.79449" lon="-3.22497">
        <ele>106.8</ele>
        <time>2011-05-26T11:44:31Z</time>
      </trkpt>
      <trkpt lat="47.79453" lon="-3.22506">
        <ele>106.9</ele>
        <time>2011-05-26T11:44:33Z</time>
      </trkpt>
      <trkpt lat="47.79454" lon="-3.22517">
        <ele>107.1</ele>
        <time>2011-05-26T11:44:35Z</time>
      </trkpt>
      <trkpt lat="47.79457" lon="-3.22527">
        <ele>107.9</ele>
        <time>2011-05-26T11:44:37Z</time>
      </trkpt>
      <trkpt lat="47.79458" lon="-3.22538">
        <ele>108.5</ele>
        <time>2011-05-26T11:44:39Z</time>
      </trkpt>
      <trkpt lat="47.79461" lon="-3.22547">
        <ele>108.8</ele>
        <time>2011-05-26T11:44:41Z</time>
      </trkpt>
      <trkpt lat="47.79462" lon="-3.22556">
        <ele>108.8</ele>
        <time>2011-05-26T11:44:43Z</time>
      </trkpt>
      <trkpt lat="47.79464" lon="-3.22563">
        <ele>108.7</ele>
        <time>2011-05-26T11:44:45Z</time>
      </trkpt>
      <trkpt lat="47.79466" lon="-3.22572">
        <ele>108.8</ele>
        <time>2011-05-26T11:44:47Z</time>
      </trkpt>
      <trkpt lat="47.79467" lon="-3.22582">
        <ele>108.8</ele>
        <time>2011-05-26T11:44:49Z</time>
      </trkpt>
      <trkpt lat="47.79469" lon="-3.2259">
        <ele>109.1</ele>
        <time>2011-05-26T11:44:51Z</time>
      </trkpt>
      <trkpt lat="47.7947" lon="-3.22599">
        <ele>108.8</ele>
        <time>2011-05-26T11:44:53Z</time>
      </trkpt>
      <trkpt lat="47.79471" lon="-3.22608">
        <ele>108.7</ele>
        <time>2011-05-26T11:44:55Z</time>
      </trkpt>
      <trkpt lat="47.79472" lon="-3.22617">
        <ele>109.1</ele>
        <time>2011-05-26T11:44:57Z</time>
      </trkpt>
      <trkpt lat="47.79474" lon="-3.22626">
        <ele>108.9</ele>
        <time>2011-05-26T11:44:59Z</time>
      </trkpt>
      <trkpt lat="47.79475" lon="-3.22635">
        <ele>108.3</ele>
        <time>2011-05-26T11:45:01Z</time>
      </trkpt>
      <trkpt lat="47.79476" lon="-3.22644">
        <ele>108.1</ele>
        <time>2011-05-26T11:45:03Z</time>
      </trkpt>
      <trkpt lat="47.79478" lon="-3.22654">
        <ele>107.2</ele>
        <time>2011-05-26T11:45:05Z</time>
      </trkpt>
      <trkpt lat="47.7948" lon="-3.22663">
        <ele>107.3</ele>
        <time>2011-05-26T11:45:07Z</time>
      </trkpt>
      <trkpt lat="47.79481" lon="-3.22672">
        <ele>107.7</ele>
        <time>2011-05-26T11:45:09Z</time>
      </trkpt>
      <trkpt lat="47.79482" lon="-3.2268">
        <ele>107.1</ele>
        <time>2011-05-26T11:45:11Z</time>
      </trkpt>
      <trkpt lat="47.79483" lon="-3.22689">
        <ele>107.2</ele>
        <time>2011-05-26T11:45:13Z</time>
      </trkpt>
      <trkpt lat="47.79485" lon="-3.22698">
        <ele>107</ele>
        <time>2011-05-26T11:45:15Z</time>
      </trkpt>
      <trkpt lat="47.79485" lon="-3.22708">
        <ele>107.4</ele>
        <time>2011-05-26T11:45:17Z</time>
      </trkpt>
      <trkpt lat="47.79487" lon="-3.22718">
        <ele>107.6</ele>
        <time>2011-05-26T11:45:19Z</time>
      </trkpt>
      <trkpt lat="47.79488" lon="-3.22725">
        <ele>107.6</ele>
        <time>2011-05-26T11:45:21Z</time>
      </trkpt>
      <trkpt lat="47.79489" lon="-3.22734">
        <ele>107</ele>
        <time>2011-05-26T11:45:23Z</time>
      </trkpt>
      <trkpt lat="47.7949" lon="-3.22743">
        <ele>107.2</ele>
        <time>2011-05-26T11:45:25Z</time>
      </trkpt>
      <trkpt lat="47.79492" lon="-3.22753">
        <ele>106.3</ele>
        <time>2011-05-26T11:45:27Z</time>
      </trkpt>
      <trkpt lat="47.79493" lon="-3.22763">
        <ele>104.9</ele>
        <time>2011-05-26T11:45:29Z</time>
      </trkpt>
      <trkpt lat="47.79494" lon="-3.22773">
        <ele>104.4</ele>
        <time>2011-05-26T11:45:31Z</time>
      </trkpt>
      <trkpt lat="47.79496" lon="-3.22784">
        <ele>104.1</ele>
        <time>2011-05-26T11:45:33Z</time>
      </trkpt>
      <trkpt lat="47.79497" lon="-3.22796">
        <ele>104.1</ele>
        <time>2011-05-26T11:45:35Z</time>
      </trkpt>
      <trkpt lat="47.79499" lon="-3.22807">
        <ele>105.2</ele>
        <time>2011-05-26T11:45:37Z</time>
      </trkpt>
      <trkpt lat="47.79501" lon="-3.22819">
        <ele>105.6</ele>
        <time>2011-05-26T11:45:39Z</time>
      </trkpt>
      <trkpt lat="47.79502" lon="-3.2283">
        <ele>104.9</ele>
        <time>2011-05-26T11:45:41Z</time>
      </trkpt>
      <trkpt lat="47.79503" lon="-3.22841">
        <ele>104.9</ele>
        <time>2011-05-26T11:45:43Z</time>
      </trkpt>
      <trkpt lat="47.79503" lon="-3.22852">
        <ele>104.9</ele>
        <time>2011-05-26T11:45:45Z</time>
      </trkpt>
      <trkpt lat="47.79504" lon="-3.22862">
        <ele>104.6</ele>
        <time>2011-05-26T11:45:47Z</time>
      </trkpt>
      <trkpt lat="47.79504" lon="-3.22874">
        <ele>104.5</ele>
        <time>2011-05-26T11:45:49Z</time>
      </trkpt>
      <trkpt lat="47.79504" lon="-3.22881">
        <ele>105.3</ele>
        <time>2011-05-26T11:45:52Z</time>
      </trkpt>
      <trkpt lat="47.79507" lon="-3.22887">
        <ele>105.2</ele>
        <time>2011-05-26T11:48:58Z</time>
      </trkpt>
      <trkpt lat="47.79512" lon="-3.22891">
        <ele>105.7</ele>
        <time>2011-05-26T11:49:22Z</time>
      </trkpt>
      <trkpt lat="47.79516" lon="-3.2289">
        <ele>108.9</ele>
        <time>2011-05-26T11:49:27Z</time>
      </trkpt>
      <trkpt lat="47.79522" lon="-3.2289">
        <ele>109.2</ele>
        <time>2011-05-26T11:49:30Z</time>
      </trkpt>
      <trkpt lat="47.79527" lon="-3.22888">
        <ele>110.9</ele>
        <time>2011-05-26T11:49:33Z</time>
      </trkpt>
      <trkpt lat="47.79532" lon="-3.22888">
        <ele>112.5</ele>
        <time>2011-05-26T11:49:35Z</time>
      </trkpt>
      <trkpt lat="47.79538" lon="-3.22888">
        <ele>111.6</ele>
        <time>2011-05-26T11:49:38Z</time>
      </trkpt>
      <trkpt lat="47.79543" lon="-3.2289">
        <ele>112.2</ele>
        <time>2011-05-26T11:49:55Z</time>
      </trkpt>
      <trkpt lat="47.79547" lon="-3.22894">
        <ele>111</ele>
        <time>2011-05-26T11:49:59Z</time>
      </trkpt>
      <trkpt lat="47.79549" lon="-3.229">
        <ele>118.2</ele>
        <time>2011-05-26T11:50:04Z</time>
      </trkpt>
      <trkpt lat="47.79554" lon="-3.229">
        <ele>120.4</ele>
        <time>2011-05-26T11:50:09Z</time>
      </trkpt>
      <trkpt lat="47.79558" lon="-3.22904">
        <ele>117.9</ele>
        <time>2011-05-26T11:50:17Z</time>
      </trkpt>
      <trkpt lat="47.79562" lon="-3.22908">
        <ele>120.3</ele>
        <time>2011-05-26T11:50:21Z</time>
      </trkpt>
      <trkpt lat="47.79563" lon="-3.22918">
        <ele>123</ele>
        <time>2011-05-26T11:50:23Z</time>
      </trkpt>
      <trkpt lat="47.79562" lon="-3.22927">
        <ele>126.8</ele>
        <time>2011-05-26T11:50:27Z</time>
      </trkpt>
      <trkpt lat="47.79565" lon="-3.22935">
        <ele>123.8</ele>
        <time>2011-05-26T11:50:28Z</time>
      </trkpt>
      <trkpt lat="47.79567" lon="-3.22943">
        <ele>125.4</ele>
        <time>2011-05-26T11:50:30Z</time>
      </trkpt>
      <trkpt lat="47.79572" lon="-3.22957">
        <ele>124.7</ele>
        <time>2011-05-26T11:50:32Z</time>
      </trkpt>
      <trkpt lat="47.79575" lon="-3.22966">
        <ele>124</ele>
        <time>2011-05-26T11:50:33Z</time>
      </trkpt>
      <trkpt lat="47.79579" lon="-3.22977">
        <ele>124.7</ele>
        <time>2011-05-26T11:50:35Z</time>
      </trkpt>
      <trkpt lat="47.79578" lon="-3.22984">
        <ele>128.9</ele>
        <time>2011-05-26T11:50:36Z</time>
      </trkpt>
      <trkpt lat="47.79578" lon="-3.22992">
        <ele>130.6</ele>
        <time>2011-05-26T11:50:37Z</time>
      </trkpt>
      <trkpt lat="47.79581" lon="-3.23">
        <ele>131.7</ele>
        <time>2011-05-26T11:50:38Z</time>
      </trkpt>
      <trkpt lat="47.79581" lon="-3.2301">
        <ele>136.1</ele>
        <time>2011-05-26T11:50:40Z</time>
      </trkpt>
      <trkpt lat="47.79582" lon="-3.23017">
        <ele>135.2</ele>
        <time>2011-05-26T11:50:41Z</time>
      </trkpt>
      <trkpt lat="47.79583" lon="-3.23024">
        <ele>133.6</ele>
        <time>2011-05-26T11:50:43Z</time>
      </trkpt>
      <trkpt lat="47.7958" lon="-3.2303">
        <ele>132.6</ele>
        <time>2011-05-26T11:50:46Z</time>
      </trkpt>
      <trkpt lat="47.79577" lon="-3.23037">
        <ele>129.8</ele>
        <time>2011-05-26T11:50:49Z</time>
      </trkpt>
      <trkpt lat="47.79581" lon="-3.23043">
        <ele>125</ele>
        <time>2011-05-26T11:50:50Z</time>
      </trkpt>
      <trkpt lat="47.7958" lon="-3.2305">
        <ele>124.8</ele>
        <time>2011-05-26T11:50:52Z</time>
      </trkpt>
      <trkpt lat="47.79578" lon="-3.23058">
        <ele>124.5</ele>
        <time>2011-05-26T11:50:54Z</time>
      </trkpt>
      <trkpt lat="47.79572" lon="-3.23065">
        <ele>125.1</ele>
        <time>2011-05-26T11:50:57Z</time>
      </trkpt>
      <trkpt lat="47.79573" lon="-3.23072">
        <ele>127.3</ele>
        <time>2011-05-26T11:50:59Z</time>
      </trkpt>
      <trkpt lat="47.79572" lon="-3.23078">
        <ele>127.6</ele>
        <time>2011-05-26T11:51:00Z</time>
      </trkpt>
      <trkpt lat="47.79564" lon="-3.23081">
        <ele>127.2</ele>
        <time>2011-05-26T11:51:02Z</time>
      </trkpt>
      <trkpt lat="47.79557" lon="-3.23087">
        <ele>125.6</ele>
        <time>2011-05-26T11:51:05Z</time>
      </trkpt>
      <trkpt lat="47.79552" lon="-3.23092">
        <ele>122.8</ele>
        <time>2011-05-26T11:51:06Z</time>
      </trkpt>
      <trkpt lat="47.79544" lon="-3.2309">
        <ele>119.8</ele>
        <time>2011-05-26T11:51:07Z</time>
      </trkpt>
      <trkpt lat="47.79539" lon="-3.23092">
        <ele>120</ele>
        <time>2011-05-26T11:51:08Z</time>
      </trkpt>
      <trkpt lat="47.79531" lon="-3.23095">
        <ele>118.6</ele>
        <time>2011-05-26T11:51:10Z</time>
      </trkpt>
      <trkpt lat="47.79526" lon="-3.23094">
        <ele>117.5</ele>
        <time>2011-05-26T11:51:12Z</time>
      </trkpt>
      <trkpt lat="47.79518" lon="-3.23099">
        <ele>120.8</ele>
        <time>2011-05-26T11:51:13Z</time>
      </trkpt>
      <trkpt lat="47.79513" lon="-3.23101">
        <ele>122.2</ele>
        <time>2011-05-26T11:51:14Z</time>
      </trkpt>
      <trkpt lat="47.79507" lon="-3.23101">
        <ele>120.5</ele>
        <time>2011-05-26T11:51:15Z</time>
      </trkpt>
      <trkpt lat="47.79492" lon="-3.23103">
        <ele>123.1</ele>
        <time>2011-05-26T11:51:17Z</time>
      </trkpt>
      <trkpt lat="47.79487" lon="-3.23108">
        <ele>124.5</ele>
        <time>2011-05-26T11:51:18Z</time>
      </trkpt>
      <trkpt lat="47.79486" lon="-3.23117">
        <ele>126</ele>
        <time>2011-05-26T11:51:19Z</time>
      </trkpt>
      <trkpt lat="47.79484" lon="-3.23123">
        <ele>126.1</ele>
        <time>2011-05-26T11:51:20Z</time>
      </trkpt>
      <trkpt lat="47.79481" lon="-3.23131">
        <ele>128.2</ele>
        <time>2011-05-26T11:51:22Z</time>
      </trkpt>
      <trkpt lat="47.79476" lon="-3.23136">
        <ele>129.7</ele>
        <time>2011-05-26T11:51:24Z</time>
      </trkpt>
      <trkpt lat="47.7947" lon="-3.2314">
        <ele>130.2</ele>
        <time>2011-05-26T11:51:26Z</time>
      </trkpt>
      <trkpt lat="47.79466" lon="-3.23145">
        <ele>131.2</ele>
        <time>2011-05-26T11:51:28Z</time>
      </trkpt>
      <trkpt lat="47.79459" lon="-3.23152">
        <ele>130.5</ele>
        <time>2011-05-26T11:51:30Z</time>
      </trkpt>
      <trkpt lat="47.79455" lon="-3.2316">
        <ele>130.6</ele>
        <time>2011-05-26T11:51:31Z</time>
      </trkpt>
      <trkpt lat="47.79451" lon="-3.23165">
        <ele>131.8</ele>
        <time>2011-05-26T11:51:32Z</time>
      </trkpt>
      <trkpt lat="47.79444" lon="-3.23167">
        <ele>130.9</ele>
        <time>2011-05-26T11:51:33Z</time>
      </trkpt>
      <trkpt lat="47.79439" lon="-3.23175">
        <ele>129.6</ele>
        <time>2011-05-26T11:51:35Z</time>
      </trkpt>
      <trkpt lat="47.79437" lon="-3.23183">
        <ele>128.8</ele>
        <time>2011-05-26T11:51:37Z</time>
      </trkpt>
      <trkpt lat="47.79436" lon="-3.23191">
        <ele>127.8</ele>
        <time>2011-05-26T11:51:39Z</time>
      </trkpt>
      <trkpt lat="47.79437" lon="-3.23201">
        <ele>123.5</ele>
        <time>2011-05-26T11:51:40Z</time>
      </trkpt>
      <trkpt lat="47.79437" lon="-3.2321">
        <ele>124.2</ele>
        <time>2011-05-26T11:51:41Z</time>
      </trkpt>
      <trkpt lat="47.79439" lon="-3.23224">
        <ele>120.5</ele>
        <time>2011-05-26T11:51:42Z</time>
      </trkpt>
      <trkpt lat="47.79442" lon="-3.23234">
        <ele>119.1</ele>
        <time>2011-05-26T11:51:44Z</time>
      </trkpt>
      <trkpt lat="47.79444" lon="-3.23242">
        <ele>122.8</ele>
        <time>2011-05-26T11:51:46Z</time>
      </trkpt>
      <trkpt lat="47.79444" lon="-3.23251">
        <ele>121.6</ele>
        <time>2011-05-26T11:51:49Z</time>
      </trkpt>
      <trkpt lat="47.79443" lon="-3.23257">
        <ele>118.6</ele>
        <time>2011-05-26T11:51:51Z</time>
      </trkpt>
      <trkpt lat="47.79429" lon="-3.23257">
        <ele>113.9</ele>
        <time>2011-05-26T11:51:54Z</time>
      </trkpt>
      <trkpt lat="47.79423" lon="-3.23256">
        <ele>112.9</ele>
        <time>2011-05-26T11:51:55Z</time>
      </trkpt>
      <trkpt lat="47.79414" lon="-3.23258">
        <ele>111.6</ele>
        <time>2011-05-26T11:51:57Z</time>
      </trkpt>
      <trkpt lat="47.79407" lon="-3.23266">
        <ele>111.6</ele>
        <time>2011-05-26T11:51:58Z</time>
      </trkpt>
      <trkpt lat="47.79401" lon="-3.23272">
        <ele>111.7</ele>
        <time>2011-05-26T11:51:59Z</time>
      </trkpt>
      <trkpt lat="47.79408" lon="-3.23284">
        <ele>111.8</ele>
        <time>2011-05-26T11:52:00Z</time>
      </trkpt>
      <trkpt lat="47.79409" lon="-3.23292">
        <ele>112.2</ele>
        <time>2011-05-26T11:52:01Z</time>
      </trkpt>
      <trkpt lat="47.79408" lon="-3.23299">
        <ele>112.9</ele>
        <time>2011-05-26T11:52:02Z</time>
      </trkpt>
      <trkpt lat="47.79409" lon="-3.23306">
        <ele>112.8</ele>
        <time>2011-05-26T11:52:03Z</time>
      </trkpt>
      <trkpt lat="47.79407" lon="-3.23316">
        <ele>111.7</ele>
        <time>2011-05-26T11:52:05Z</time>
      </trkpt>
      <trkpt lat="47.79407" lon="-3.23323">
        <ele>111.2</ele>
        <time>2011-05-26T11:52:06Z</time>
      </trkpt>
      <trkpt lat="47.79406" lon="-3.2333">
        <ele>110.7</ele>
        <time>2011-05-26T11:52:07Z</time>
      </trkpt>
      <trkpt lat="47.79404" lon="-3.23339">
        <ele>110.9</ele>
        <time>2011-05-26T11:52:08Z</time>
      </trkpt>
      <trkpt lat="47.79402" lon="-3.23351">
        <ele>110.5</ele>
        <time>2011-05-26T11:52:10Z</time>
      </trkpt>
      <trkpt lat="47.794" lon="-3.23364">
        <ele>109.5</ele>
        <time>2011-05-26T11:52:12Z</time>
      </trkpt>
      <trkpt lat="47.794" lon="-3.23379">
        <ele>108.9</ele>
        <time>2011-05-26T11:52:14Z</time>
      </trkpt>
      <trkpt lat="47.79399" lon="-3.23385">
        <ele>108.4</ele>
        <time>2011-05-26T11:52:15Z</time>
      </trkpt>
      <trkpt lat="47.79398" lon="-3.23398">
        <ele>108.5</ele>
        <time>2011-05-26T11:52:17Z</time>
      </trkpt>
      <trkpt lat="47.79398" lon="-3.23412">
        <ele>109.2</ele>
        <time>2011-05-26T11:52:19Z</time>
      </trkpt>
      <trkpt lat="47.79399" lon="-3.23424">
        <ele>110.4</ele>
        <time>2011-05-26T11:52:21Z</time>
      </trkpt>
      <trkpt lat="47.79398" lon="-3.23431">
        <ele>110.4</ele>
        <time>2011-05-26T11:52:22Z</time>
      </trkpt>
      <trkpt lat="47.79399" lon="-3.23444">
        <ele>110.9</ele>
        <time>2011-05-26T11:52:24Z</time>
      </trkpt>
      <trkpt lat="47.79398" lon="-3.23451">
        <ele>110.7</ele>
        <time>2011-05-26T11:52:25Z</time>
      </trkpt>
      <trkpt lat="47.79398" lon="-3.23458">
        <ele>111.3</ele>
        <time>2011-05-26T11:52:25Z</time>
      </trkpt>
      <trkpt lat="47.79398" lon="-3.23464">
        <ele>111.7</ele>
        <time>2011-05-26T11:52:26Z</time>
      </trkpt>
      <trkpt lat="47.79398" lon="-3.23478">
        <ele>111.8</ele>
        <time>2011-05-26T11:52:28Z</time>
      </trkpt>
      <trkpt lat="47.79398" lon="-3.23486">
        <ele>111.4</ele>
        <time>2011-05-26T11:52:29Z</time>
      </trkpt>
      <trkpt lat="47.79398" lon="-3.23494">
        <ele>111.1</ele>
        <time>2011-05-26T11:52:30Z</time>
      </trkpt>
      <trkpt lat="47.79398" lon="-3.23501">
        <ele>111.1</ele>
        <time>2011-05-26T11:52:31Z</time>
      </trkpt>
      <trkpt lat="47.79398" lon="-3.23508">
        <ele>111.3</ele>
        <time>2011-05-26T11:52:32Z</time>
      </trkpt>
      <trkpt lat="47.79399" lon="-3.23514">
        <ele>111.2</ele>
        <time>2011-05-26T11:52:33Z</time>
      </trkpt>
      <trkpt lat="47.79401" lon="-3.23528">
        <ele>110.6</ele>
        <time>2011-05-26T11:52:34Z</time>
      </trkpt>
      <trkpt lat="47.794" lon="-3.23535">
        <ele>110.2</ele>
        <time>2011-05-26T11:52:35Z</time>
      </trkpt>
      <trkpt lat="47.79401" lon="-3.23546">
        <ele>110.5</ele>
        <time>2011-05-26T11:52:36Z</time>
      </trkpt>
      <trkpt lat="47.79398" lon="-3.23557">
        <ele>110</ele>
        <time>2011-05-26T11:52:37Z</time>
      </trkpt>
      <trkpt lat="47.79398" lon="-3.23568">
        <ele>110.2</ele>
        <time>2011-05-26T11:52:38Z</time>
      </trkpt>
      <trkpt lat="47.79398" lon="-3.23578">
        <ele>110.4</ele>
        <time>2011-05-26T11:52:39Z</time>
      </trkpt>
      <trkpt lat="47.79397" lon="-3.23588">
        <ele>110.5</ele>
        <time>2011-05-26T11:52:40Z</time>
      </trkpt>
      <trkpt lat="47.79397" lon="-3.23597">
        <ele>110.4</ele>
        <time>2011-05-26T11:52:41Z</time>
      </trkpt>
      <trkpt lat="47.79397" lon="-3.23606">
        <ele>110.1</ele>
        <time>2011-05-26T11:52:42Z</time>
      </trkpt>
      <trkpt lat="47.79395" lon="-3.23612">
        <ele>107.6</ele>
        <time>2011-05-26T11:52:44Z</time>
      </trkpt>
      <trkpt lat="47.79391" lon="-3.2362">
        <ele>106.8</ele>
        <time>2011-05-26T11:52:46Z</time>
      </trkpt>
      <trkpt lat="47.79387" lon="-3.23624">
        <ele>105.5</ele>
        <time>2011-05-26T11:52:48Z</time>
      </trkpt>
      <trkpt lat="47.79381" lon="-3.2363">
        <ele>104.8</ele>
        <time>2011-05-26T11:52:51Z</time>
      </trkpt>
      <trkpt lat="47.79377" lon="-3.23637">
        <ele>104.9</ele>
        <time>2011-05-26T11:52:53Z</time>
      </trkpt>
      <trkpt lat="47.79371" lon="-3.23642">
        <ele>106</ele>
        <time>2011-05-26T11:52:55Z</time>
      </trkpt>
      <trkpt lat="47.79364" lon="-3.23651">
        <ele>107.4</ele>
        <time>2011-05-26T11:52:57Z</time>
      </trkpt>
      <trkpt lat="47.79362" lon="-3.23659">
        <ele>107.3</ele>
        <time>2011-05-26T11:52:58Z</time>
      </trkpt>
      <trkpt lat="47.79358" lon="-3.23663">
        <ele>108.1</ele>
        <time>2011-05-26T11:52:59Z</time>
      </trkpt>
      <trkpt lat="47.79355" lon="-3.2367">
        <ele>108</ele>
        <time>2011-05-26T11:53:00Z</time>
      </trkpt>
      <trkpt lat="47.79348" lon="-3.23677">
        <ele>107.3</ele>
        <time>2011-05-26T11:53:02Z</time>
      </trkpt>
      <trkpt lat="47.79344" lon="-3.2369">
        <ele>106.6</ele>
        <time>2011-05-26T11:53:04Z</time>
      </trkpt>
      <trkpt lat="47.79342" lon="-3.23699">
        <ele>106.8</ele>
        <time>2011-05-26T11:53:05Z</time>
      </trkpt>
      <trkpt lat="47.79338" lon="-3.23704">
        <ele>109.9</ele>
        <time>2011-05-26T11:53:09Z</time>
      </trkpt>
      <trkpt lat="47.7934" lon="-3.23718">
        <ele>107</ele>
        <time>2011-05-26T11:53:14Z</time>
      </trkpt>
      <trkpt lat="47.79333" lon="-3.23723">
        <ele>105.3</ele>
        <time>2011-05-26T11:53:14Z</time>
      </trkpt>
      <trkpt lat="47.79327" lon="-3.23733">
        <ele>105.6</ele>
        <time>2011-05-26T11:53:16Z</time>
      </trkpt>
      <trkpt lat="47.79324" lon="-3.23744">
        <ele>107.4</ele>
        <time>2011-05-26T11:53:18Z</time>
      </trkpt>
      <trkpt lat="47.79323" lon="-3.2375">
        <ele>110</ele>
        <time>2011-05-26T11:53:30Z</time>
      </trkpt>
      <trkpt lat="47.79321" lon="-3.23762">
        <ele>114.5</ele>
        <time>2011-05-26T11:53:32Z</time>
      </trkpt>
      <trkpt lat="47.79321" lon="-3.23769">
        <ele>114.8</ele>
        <time>2011-05-26T11:53:33Z</time>
      </trkpt>
      <trkpt lat="47.79322" lon="-3.23776">
        <ele>115.6</ele>
        <time>2011-05-26T11:53:36Z</time>
      </trkpt>
      <trkpt lat="47.79325" lon="-3.23781">
        <ele>124.9</ele>
        <time>2011-05-26T11:53:42Z</time>
      </trkpt>
      <trkpt lat="47.79322" lon="-3.23791">
        <ele>120.9</ele>
        <time>2011-05-26T11:53:47Z</time>
      </trkpt>
      <trkpt lat="47.79322" lon="-3.23798">
        <ele>119.4</ele>
        <time>2011-05-26T11:53:49Z</time>
      </trkpt>
      <trkpt lat="47.7932" lon="-3.23806">
        <ele>119.3</ele>
        <time>2011-05-26T11:53:51Z</time>
      </trkpt>
      <trkpt lat="47.79321" lon="-3.23814">
        <ele>119.1</ele>
        <time>2011-05-26T11:53:52Z</time>
      </trkpt>
      <trkpt lat="47.79317" lon="-3.2382">
        <ele>119.8</ele>
        <time>2011-05-26T11:53:54Z</time>
      </trkpt>
      <trkpt lat="47.79312" lon="-3.23829">
        <ele>118.9</ele>
        <time>2011-05-26T11:53:56Z</time>
      </trkpt>
      <trkpt lat="47.79317" lon="-3.23827">
        <ele>115.4</ele>
        <time>2011-05-26T11:53:57Z</time>
      </trkpt>
      <trkpt lat="47.79312" lon="-3.2383">
        <ele>113.4</ele>
        <time>2011-05-26T11:54:01Z</time>
      </trkpt>
      <trkpt lat="47.79304" lon="-3.23832">
        <ele>114.7</ele>
        <time>2011-05-26T11:54:03Z</time>
      </trkpt>
      <trkpt lat="47.79301" lon="-3.23838">
        <ele>114.1</ele>
        <time>2011-05-26T11:54:04Z</time>
      </trkpt>
      <trkpt lat="47.79295" lon="-3.23847">
        <ele>112.9</ele>
        <time>2011-05-26T11:54:06Z</time>
      </trkpt>
      <trkpt lat="47.79292" lon="-3.23858">
        <ele>113.9</ele>
        <time>2011-05-26T11:54:08Z</time>
      </trkpt>
      <trkpt lat="47.79289" lon="-3.23864">
        <ele>110.2</ele>
        <time>2011-05-26T11:54:10Z</time>
      </trkpt>
      <trkpt lat="47.79285" lon="-3.23868">
        <ele>108.4</ele>
        <time>2011-05-26T11:54:12Z</time>
      </trkpt>
      <trkpt lat="47.7928" lon="-3.23878">
        <ele>108.8</ele>
        <time>2011-05-26T11:54:14Z</time>
      </trkpt>
      <trkpt lat="47.7928" lon="-3.23885">
        <ele>108.6</ele>
        <time>2011-05-26T11:54:15Z</time>
      </trkpt>
      <trkpt lat="47.7928" lon="-3.23896">
        <ele>108.9</ele>
        <time>2011-05-26T11:54:17Z</time>
      </trkpt>
      <trkpt lat="47.79286" lon="-3.23903">
        <ele>108.1</ele>
        <time>2011-05-26T11:54:19Z</time>
      </trkpt>
      <trkpt lat="47.79289" lon="-3.23909">
        <ele>109.1</ele>
        <time>2011-05-26T11:54:22Z</time>
      </trkpt>
      <trkpt lat="47.79293" lon="-3.23913">
        <ele>105.3</ele>
        <time>2011-05-26T11:54:26Z</time>
      </trkpt>
      <trkpt lat="47.79293" lon="-3.23921">
        <ele>111.8</ele>
        <time>2011-05-26T11:54:32Z</time>
      </trkpt>
      <trkpt lat="47.79296" lon="-3.23935">
        <ele>111.7</ele>
        <time>2011-05-26T11:54:40Z</time>
      </trkpt>
      <trkpt lat="47.79301" lon="-3.23944">
        <ele>111.9</ele>
        <time>2011-05-26T11:54:42Z</time>
      </trkpt>
      <trkpt lat="47.79308" lon="-3.23947">
        <ele>109.4</ele>
        <time>2011-05-26T11:54:43Z</time>
      </trkpt>
      <trkpt lat="47.79315" lon="-3.23951">
        <ele>106.3</ele>
        <time>2011-05-26T11:54:44Z</time>
      </trkpt>
      <trkpt lat="47.79314" lon="-3.23958">
        <ele>105.4</ele>
        <time>2011-05-26T11:54:46Z</time>
      </trkpt>
      <trkpt lat="47.79317" lon="-3.23968">
        <ele>108.1</ele>
        <time>2011-05-26T11:54:50Z</time>
      </trkpt>
      <trkpt lat="47.7932" lon="-3.23974">
        <ele>106.3</ele>
        <time>2011-05-26T11:54:52Z</time>
      </trkpt>
      <trkpt lat="47.79324" lon="-3.2398">
        <ele>108.7</ele>
        <time>2011-05-26T11:54:55Z</time>
      </trkpt>
      <trkpt lat="47.7933" lon="-3.2398">
        <ele>112.1</ele>
        <time>2011-05-26T11:54:58Z</time>
      </trkpt>
      <trkpt lat="47.79333" lon="-3.23984">
        <ele>118</ele>
        <time>2011-05-26T11:55:04Z</time>
      </trkpt>
      <trkpt lat="47.7934" lon="-3.23989">
        <ele>122.6</ele>
        <time>2011-05-26T11:55:09Z</time>
      </trkpt>
      <trkpt lat="47.79344" lon="-3.23987">
        <ele>120.8</ele>
        <time>2011-05-26T11:55:11Z</time>
      </trkpt>
      <trkpt lat="47.79348" lon="-3.23984">
        <ele>119.2</ele>
        <time>2011-05-26T11:55:13Z</time>
      </trkpt>
      <trkpt lat="47.79354" lon="-3.23986">
        <ele>118.2</ele>
        <time>2011-05-26T11:55:15Z</time>
      </trkpt>
      <trkpt lat="47.7936" lon="-3.23988">
        <ele>117.9</ele>
        <time>2011-05-26T11:55:17Z</time>
      </trkpt>
      <trkpt lat="47.7937" lon="-3.2399">
        <ele>116</ele>
        <time>2011-05-26T11:55:19Z</time>
      </trkpt>
      <trkpt lat="47.79376" lon="-3.23984">
        <ele>110.6</ele>
        <time>2011-05-26T11:55:20Z</time>
      </trkpt>
      <trkpt lat="47.79382" lon="-3.23989">
        <ele>108</ele>
        <time>2011-05-26T11:55:22Z</time>
      </trkpt>
      <trkpt lat="47.79386" lon="-3.23995">
        <ele>109</ele>
        <time>2011-05-26T11:55:24Z</time>
      </trkpt>
      <trkpt lat="47.79388" lon="-3.24001">
        <ele>107.5</ele>
        <time>2011-05-26T11:55:27Z</time>
      </trkpt>
      <trkpt lat="47.79388" lon="-3.24012">
        <ele>108.6</ele>
        <time>2011-05-26T11:55:30Z</time>
      </trkpt>
      <trkpt lat="47.79389" lon="-3.2402">
        <ele>109</ele>
        <time>2011-05-26T11:55:36Z</time>
      </trkpt>
      <trkpt lat="47.79388" lon="-3.24028">
        <ele>108.3</ele>
        <time>2011-05-26T11:55:40Z</time>
      </trkpt>
      <trkpt lat="47.79384" lon="-3.24036">
        <ele>108.4</ele>
        <time>2011-05-26T11:55:43Z</time>
      </trkpt>
      <trkpt lat="47.79387" lon="-3.24044">
        <ele>111.1</ele>
        <time>2011-05-26T11:55:44Z</time>
      </trkpt>
      <trkpt lat="47.79387" lon="-3.24052">
        <ele>111.8</ele>
        <time>2011-05-26T11:55:46Z</time>
      </trkpt>
      <trkpt lat="47.79388" lon="-3.24061">
        <ele>114.1</ele>
        <time>2011-05-26T11:55:48Z</time>
      </trkpt>
      <trkpt lat="47.79388" lon="-3.24069">
        <ele>115.4</ele>
        <time>2011-05-26T11:55:50Z</time>
      </trkpt>
      <trkpt lat="47.79388" lon="-3.24076">
        <ele>117.2</ele>
        <time>2011-05-26T11:55:51Z</time>
      </trkpt>
      <trkpt lat="47.79388" lon="-3.24085">
        <ele>116.9</ele>
        <time>2011-05-26T11:55:53Z</time>
      </trkpt>
      <trkpt lat="47.79388" lon="-3.24092">
        <ele>117.6</ele>
        <time>2011-05-26T11:55:54Z</time>
      </trkpt>
      <trkpt lat="47.79391" lon="-3.241">
        <ele>115.9</ele>
        <time>2011-05-26T11:55:55Z</time>
      </trkpt>
      <trkpt lat="47.79393" lon="-3.24109">
        <ele>115.5</ele>
        <time>2011-05-26T11:55:57Z</time>
      </trkpt>
      <trkpt lat="47.79393" lon="-3.2412">
        <ele>115.3</ele>
        <time>2011-05-26T11:55:59Z</time>
      </trkpt>
      <trkpt lat="47.79392" lon="-3.24127">
        <ele>115.4</ele>
        <time>2011-05-26T11:56:01Z</time>
      </trkpt>
      <trkpt lat="47.79392" lon="-3.24137">
        <ele>117.4</ele>
        <time>2011-05-26T11:56:03Z</time>
      </trkpt>
      <trkpt lat="47.79392" lon="-3.24146">
        <ele>118.1</ele>
        <time>2011-05-26T11:56:05Z</time>
      </trkpt>
      <trkpt lat="47.79391" lon="-3.24156">
        <ele>118.4</ele>
        <time>2011-05-26T11:56:07Z</time>
      </trkpt>
      <trkpt lat="47.79392" lon="-3.24166">
        <ele>118.4</ele>
        <time>2011-05-26T11:56:09Z</time>
      </trkpt>
      <trkpt lat="47.79393" lon="-3.24173">
        <ele>118</ele>
        <time>2011-05-26T11:56:11Z</time>
      </trkpt>
      <trkpt lat="47.79392" lon="-3.24182">
        <ele>117.3</ele>
        <time>2011-05-26T11:56:13Z</time>
      </trkpt>
      <trkpt lat="47.79391" lon="-3.24192">
        <ele>117</ele>
        <time>2011-05-26T11:56:15Z</time>
      </trkpt>
      <trkpt lat="47.7939" lon="-3.242">
        <ele>116.6</ele>
        <time>2011-05-26T11:56:17Z</time>
      </trkpt>
      <trkpt lat="47.79391" lon="-3.24209">
        <ele>117.1</ele>
        <time>2011-05-26T11:56:19Z</time>
      </trkpt>
      <trkpt lat="47.79391" lon="-3.24218">
        <ele>118</ele>
        <time>2011-05-26T11:56:21Z</time>
      </trkpt>
      <trkpt lat="47.79392" lon="-3.24226">
        <ele>118.3</ele>
        <time>2011-05-26T11:56:23Z</time>
      </trkpt>
      <trkpt lat="47.79392" lon="-3.24235">
        <ele>118.8</ele>
        <time>2011-05-26T11:56:25Z</time>
      </trkpt>
      <trkpt lat="47.79392" lon="-3.24243">
        <ele>118.5</ele>
        <time>2011-05-26T11:56:27Z</time>
      </trkpt>
      <trkpt lat="47.79392" lon="-3.24254">
        <ele>118.1</ele>
        <time>2011-05-26T11:56:29Z</time>
      </trkpt>
      <trkpt lat="47.79392" lon="-3.24265">
        <ele>116.4</ele>
        <time>2011-05-26T11:56:31Z</time>
      </trkpt>
      <trkpt lat="47.79392" lon="-3.24276">
        <ele>115.6</ele>
        <time>2011-05-26T11:56:33Z</time>
      </trkpt>
      <trkpt lat="47.79393" lon="-3.24289">
        <ele>113.6</ele>
        <time>2011-05-26T11:56:35Z</time>
      </trkpt>
      <trkpt lat="47.79394" lon="-3.24298">
        <ele>113.6</ele>
        <time>2011-05-26T11:56:37Z</time>
      </trkpt>
      <trkpt lat="47.79394" lon="-3.24308">
        <ele>114.2</ele>
        <time>2011-05-26T11:56:39Z</time>
      </trkpt>
      <trkpt lat="47.79393" lon="-3.24317">
        <ele>114.4</ele>
        <time>2011-05-26T11:56:41Z</time>
      </trkpt>
      <trkpt lat="47.79393" lon="-3.24326">
        <ele>114.1</ele>
        <time>2011-05-26T11:56:43Z</time>
      </trkpt>
      <trkpt lat="47.79393" lon="-3.24336">
        <ele>114.7</ele>
        <time>2011-05-26T11:56:45Z</time>
      </trkpt>
      <trkpt lat="47.79392" lon="-3.24346">
        <ele>115</ele>
        <time>2011-05-26T11:56:47Z</time>
      </trkpt>
      <trkpt lat="47.79392" lon="-3.24355">
        <ele>115.8</ele>
        <time>2011-05-26T11:56:49Z</time>
      </trkpt>
      <trkpt lat="47.79392" lon="-3.24365">
        <ele>115.8</ele>
        <time>2011-05-26T11:56:51Z</time>
      </trkpt>
      <trkpt lat="47.79392" lon="-3.24375">
        <ele>115.2</ele>
        <time>2011-05-26T11:56:53Z</time>
      </trkpt>
      <trkpt lat="47.79391" lon="-3.24385">
        <ele>115.5</ele>
        <time>2011-05-26T11:56:55Z</time>
      </trkpt>
      <trkpt lat="47.79391" lon="-3.24396">
        <ele>115.2</ele>
        <time>2011-05-26T11:56:57Z</time>
      </trkpt>
      <trkpt lat="47.79391" lon="-3.24406">
        <ele>114.9</ele>
        <time>2011-05-26T11:56:59Z</time>
      </trkpt>
      <trkpt lat="47.79391" lon="-3.24417">
        <ele>115.6</ele>
        <time>2011-05-26T11:57:01Z</time>
      </trkpt>
      <trkpt lat="47.79391" lon="-3.24427">
        <ele>114.5</ele>
        <time>2011-05-26T11:57:03Z</time>
      </trkpt>
      <trkpt lat="47.7939" lon="-3.24438">
        <ele>113.9</ele>
        <time>2011-05-26T11:57:05Z</time>
      </trkpt>
      <trkpt lat="47.7939" lon="-3.24448">
        <ele>113.2</ele>
        <time>2011-05-26T11:57:07Z</time>
      </trkpt>
      <trkpt lat="47.7939" lon="-3.24458">
        <ele>112.6</ele>
        <time>2011-05-26T11:57:09Z</time>
      </trkpt>
      <trkpt lat="47.79391" lon="-3.2447">
        <ele>112.5</ele>
        <time>2011-05-26T11:57:11Z</time>
      </trkpt>
      <trkpt lat="47.79391" lon="-3.2448">
        <ele>112.6</ele>
        <time>2011-05-26T11:57:13Z</time>
      </trkpt>
      <trkpt lat="47.79391" lon="-3.2449">
        <ele>111.7</ele>
        <time>2011-05-26T11:57:15Z</time>
      </trkpt>
      <trkpt lat="47.79392" lon="-3.24501">
        <ele>111.8</ele>
        <time>2011-05-26T11:57:17Z</time>
      </trkpt>
      <trkpt lat="47.79394" lon="-3.24512">
        <ele>111.1</ele>
        <time>2011-05-26T11:57:19Z</time>
      </trkpt>
      <trkpt lat="47.79398" lon="-3.24511">
        <ele>111.7</ele>
        <time>2011-05-26T11:57:20Z</time>
      </trkpt>
      <trkpt lat="47.79405" lon="-3.24512">
        <ele>112</ele>
        <time>2011-05-26T11:57:22Z</time>
      </trkpt>
      <trkpt lat="47.7941" lon="-3.24511">
        <ele>110.2</ele>
        <time>2011-05-26T11:57:23Z</time>
      </trkpt>
      <trkpt lat="47.79418" lon="-3.24509">
        <ele>109</ele>
        <time>2011-05-26T11:57:25Z</time>
      </trkpt>
      <trkpt lat="47.79425" lon="-3.24507">
        <ele>110.2</ele>
        <time>2011-05-26T11:57:27Z</time>
      </trkpt>
      <trkpt lat="47.79432" lon="-3.24505">
        <ele>110.7</ele>
        <time>2011-05-26T11:57:29Z</time>
      </trkpt>
      <trkpt lat="47.79438" lon="-3.24503">
        <ele>110.3</ele>
        <time>2011-05-26T11:57:31Z</time>
      </trkpt>
      <trkpt lat="47.79445" lon="-3.24503">
        <ele>110</ele>
        <time>2011-05-26T11:57:33Z</time>
      </trkpt>
      <trkpt lat="47.79451" lon="-3.24502">
        <ele>110.3</ele>
        <time>2011-05-26T11:57:35Z</time>
      </trkpt>
      <trkpt lat="47.79457" lon="-3.245">
        <ele>111.1</ele>
        <time>2011-05-26T11:57:37Z</time>
      </trkpt>
      <trkpt lat="47.79463" lon="-3.24498">
        <ele>111.6</ele>
        <time>2011-05-26T11:57:39Z</time>
      </trkpt>
      <trkpt lat="47.7947" lon="-3.24497">
        <ele>111.6</ele>
        <time>2011-05-26T11:57:41Z</time>
      </trkpt>
      <trkpt lat="47.79476" lon="-3.24495">
        <ele>111.7</ele>
        <time>2011-05-26T11:57:43Z</time>
      </trkpt>
      <trkpt lat="47.79483" lon="-3.24494">
        <ele>111.5</ele>
        <time>2011-05-26T11:57:45Z</time>
      </trkpt>
      <trkpt lat="47.79489" lon="-3.24492">
        <ele>113.2</ele>
        <time>2011-05-26T11:57:47Z</time>
      </trkpt>
      <trkpt lat="47.79496" lon="-3.24489">
        <ele>114.5</ele>
        <time>2011-05-26T11:57:49Z</time>
      </trkpt>
      <trkpt lat="47.79502" lon="-3.24487">
        <ele>115.7</ele>
        <time>2011-05-26T11:57:51Z</time>
      </trkpt>
      <trkpt lat="47.79509" lon="-3.24485">
        <ele>115.2</ele>
        <time>2011-05-26T11:57:53Z</time>
      </trkpt>
      <trkpt lat="47.79515" lon="-3.24483">
        <ele>114.8</ele>
        <time>2011-05-26T11:57:55Z</time>
      </trkpt>
      <trkpt lat="47.79522" lon="-3.24482">
        <ele>114.7</ele>
        <time>2011-05-26T11:57:57Z</time>
      </trkpt>
      <trkpt lat="47.79529" lon="-3.24479">
        <ele>115.5</ele>
        <time>2011-05-26T11:57:59Z</time>
      </trkpt>
      <trkpt lat="47.79536" lon="-3.24477">
        <ele>116.2</ele>
        <time>2011-05-26T11:58:01Z</time>
      </trkpt>
      <trkpt lat="47.79544" lon="-3.24476">
        <ele>116.1</ele>
        <time>2011-05-26T11:58:03Z</time>
      </trkpt>
      <trkpt lat="47.79551" lon="-3.24473">
        <ele>117.1</ele>
        <time>2011-05-26T11:58:05Z</time>
      </trkpt>
      <trkpt lat="47.79558" lon="-3.24471">
        <ele>116.5</ele>
        <time>2011-05-26T11:58:07Z</time>
      </trkpt>
      <trkpt lat="47.79565" lon="-3.24467">
        <ele>116.6</ele>
        <time>2011-05-26T11:58:09Z</time>
      </trkpt>
      <trkpt lat="47.79572" lon="-3.24466">
        <ele>115.9</ele>
        <time>2011-05-26T11:58:11Z</time>
      </trkpt>
      <trkpt lat="47.79578" lon="-3.24464">
        <ele>115.6</ele>
        <time>2011-05-26T11:58:13Z</time>
      </trkpt>
      <trkpt lat="47.79584" lon="-3.24463">
        <ele>115.7</ele>
        <time>2011-05-26T11:58:15Z</time>
      </trkpt>
      <trkpt lat="47.79591" lon="-3.24461">
        <ele>115.3</ele>
        <time>2011-05-26T11:58:17Z</time>
      </trkpt>
      <trkpt lat="47.796" lon="-3.2446">
        <ele>115.4</ele>
        <time>2011-05-26T11:58:19Z</time>
      </trkpt>
      <trkpt lat="47.79607" lon="-3.24458">
        <ele>115.9</ele>
        <time>2011-05-26T11:58:21Z</time>
      </trkpt>
      <trkpt lat="47.79615" lon="-3.24456">
        <ele>116.3</ele>
        <time>2011-05-26T11:58:23Z</time>
      </trkpt>
      <trkpt lat="47.79621" lon="-3.24454">
        <ele>116.5</ele>
        <time>2011-05-26T11:58:25Z</time>
      </trkpt>
      <trkpt lat="47.79628" lon="-3.24451">
        <ele>116.5</ele>
        <time>2011-05-26T11:58:27Z</time>
      </trkpt>
      <trkpt lat="47.79636" lon="-3.24448">
        <ele>116.1</ele>
        <time>2011-05-26T11:58:29Z</time>
      </trkpt>
      <trkpt lat="47.79641" lon="-3.24446">
        <ele>115.4</ele>
        <time>2011-05-26T11:58:30Z</time>
      </trkpt>
      <trkpt lat="47.79649" lon="-3.24443">
        <ele>114.9</ele>
        <time>2011-05-26T11:58:32Z</time>
      </trkpt>
      <trkpt lat="47.79657" lon="-3.2444">
        <ele>114.9</ele>
        <time>2011-05-26T11:58:34Z</time>
      </trkpt>
      <trkpt lat="47.79664" lon="-3.24437">
        <ele>114.7</ele>
        <time>2011-05-26T11:58:36Z</time>
      </trkpt>
      <trkpt lat="47.79669" lon="-3.24436">
        <ele>115.1</ele>
        <time>2011-05-26T11:58:38Z</time>
      </trkpt>
      <trkpt lat="47.79677" lon="-3.24432">
        <ele>115.3</ele>
        <time>2011-05-26T11:58:40Z</time>
      </trkpt>
      <trkpt lat="47.79684" lon="-3.24427">
        <ele>114.8</ele>
        <time>2011-05-26T11:58:42Z</time>
      </trkpt>
      <trkpt lat="47.79691" lon="-3.24424">
        <ele>115.1</ele>
        <time>2011-05-26T11:58:44Z</time>
      </trkpt>
      <trkpt lat="47.79698" lon="-3.24419">
        <ele>115.5</ele>
        <time>2011-05-26T11:58:46Z</time>
      </trkpt>
      <trkpt lat="47.79703" lon="-3.24418">
        <ele>116.7</ele>
        <time>2011-05-26T11:58:47Z</time>
      </trkpt>
      <trkpt lat="47.79708" lon="-3.24412">
        <ele>116.6</ele>
        <time>2011-05-26T11:58:49Z</time>
      </trkpt>
      <trkpt lat="47.79713" lon="-3.24412">
        <ele>115.8</ele>
        <time>2011-05-26T11:58:51Z</time>
      </trkpt>
      <trkpt lat="47.79716" lon="-3.24407">
        <ele>117.1</ele>
        <time>2011-05-26T11:58:53Z</time>
      </trkpt>
      <trkpt lat="47.79719" lon="-3.24396">
        <ele>115.7</ele>
        <time>2011-05-26T11:58:55Z</time>
      </trkpt>
      <trkpt lat="47.79719" lon="-3.24388">
        <ele>115</ele>
        <time>2011-05-26T11:58:56Z</time>
      </trkpt>
      <trkpt lat="47.79717" lon="-3.24378">
        <ele>117.2</ele>
        <time>2011-05-26T11:58:58Z</time>
      </trkpt>
      <trkpt lat="47.79718" lon="-3.24367">
        <ele>117.8</ele>
        <time>2011-05-26T11:59:00Z</time>
      </trkpt>
      <trkpt lat="47.79726" lon="-3.2436">
        <ele>115.6</ele>
        <time>2011-05-26T11:59:02Z</time>
      </trkpt>
      <trkpt lat="47.79734" lon="-3.24356">
        <ele>115.2</ele>
        <time>2011-05-26T11:59:04Z</time>
      </trkpt>
      <trkpt lat="47.79743" lon="-3.24358">
        <ele>115.9</ele>
        <time>2011-05-26T11:59:06Z</time>
      </trkpt>
      <trkpt lat="47.79751" lon="-3.24358">
        <ele>115.5</ele>
        <time>2011-05-26T11:59:08Z</time>
      </trkpt>
      <trkpt lat="47.79759" lon="-3.24354">
        <ele>115.7</ele>
        <time>2011-05-26T11:59:10Z</time>
      </trkpt>
      <trkpt lat="47.79765" lon="-3.24351">
        <ele>115.8</ele>
        <time>2011-05-26T11:59:11Z</time>
      </trkpt>
      <trkpt lat="47.79769" lon="-3.24349">
        <ele>115.9</ele>
        <time>2011-05-26T11:59:12Z</time>
      </trkpt>
      <trkpt lat="47.79773" lon="-3.24342">
        <ele>117.6</ele>
        <time>2011-05-26T11:59:14Z</time>
      </trkpt>
      <trkpt lat="47.79778" lon="-3.24335">
        <ele>120</ele>
        <time>2011-05-26T11:59:16Z</time>
      </trkpt>
      <trkpt lat="47.79785" lon="-3.24329">
        <ele>121</ele>
        <time>2011-05-26T11:59:18Z</time>
      </trkpt>
      <trkpt lat="47.79796" lon="-3.24319">
        <ele>119.7</ele>
        <time>2011-05-26T11:59:20Z</time>
      </trkpt>
      <trkpt lat="47.79804" lon="-3.24313">
        <ele>119.7</ele>
        <time>2011-05-26T11:59:22Z</time>
      </trkpt>
      <trkpt lat="47.79808" lon="-3.24309">
        <ele>119.9</ele>
        <time>2011-05-26T11:59:23Z</time>
      </trkpt>
      <trkpt lat="47.79812" lon="-3.24305">
        <ele>119.8</ele>
        <time>2011-05-26T11:59:24Z</time>
      </trkpt>
      <trkpt lat="47.79817" lon="-3.24301">
        <ele>119.7</ele>
        <time>2011-05-26T11:59:25Z</time>
      </trkpt>
      <trkpt lat="47.79821" lon="-3.24297">
        <ele>119.7</ele>
        <time>2011-05-26T11:59:26Z</time>
      </trkpt>
      <trkpt lat="47.79827" lon="-3.2429">
        <ele>118.7</ele>
        <time>2011-05-26T11:59:28Z</time>
      </trkpt>
      <trkpt lat="47.79832" lon="-3.24287">
        <ele>118.5</ele>
        <time>2011-05-26T11:59:29Z</time>
      </trkpt>
      <trkpt lat="47.79842" lon="-3.24278">
        <ele>119.3</ele>
        <time>2011-05-26T11:59:31Z</time>
      </trkpt>
      <trkpt lat="47.79846" lon="-3.24274">
        <ele>119.3</ele>
        <time>2011-05-26T11:59:32Z</time>
      </trkpt>
      <trkpt lat="47.79851" lon="-3.24269">
        <ele>119.3</ele>
        <time>2011-05-26T11:59:33Z</time>
      </trkpt>
      <trkpt lat="47.79857" lon="-3.24263">
        <ele>119.3</ele>
        <time>2011-05-26T11:59:34Z</time>
      </trkpt>
      <trkpt lat="47.79862" lon="-3.24257">
        <ele>119.6</ele>
        <time>2011-05-26T11:59:35Z</time>
      </trkpt>
      <trkpt lat="47.79866" lon="-3.24251">
        <ele>119.5</ele>
        <time>2011-05-26T11:59:36Z</time>
      </trkpt>
      <trkpt lat="47.79874" lon="-3.24247">
        <ele>119.8</ele>
        <time>2011-05-26T11:59:37Z</time>
      </trkpt>
      <trkpt lat="47.79879" lon="-3.24244">
        <ele>119.9</ele>
        <time>2011-05-26T11:59:38Z</time>
      </trkpt>
      <trkpt lat="47.79884" lon="-3.24238">
        <ele>119.9</ele>
        <time>2011-05-26T11:59:39Z</time>
      </trkpt>
      <trkpt lat="47.79889" lon="-3.24227">
        <ele>119.5</ele>
        <time>2011-05-26T11:59:40Z</time>
      </trkpt>
      <trkpt lat="47.79894" lon="-3.24221">
        <ele>119</ele>
        <time>2011-05-26T11:59:41Z</time>
      </trkpt>
      <trkpt lat="47.799" lon="-3.24214">
        <ele>118.8</ele>
        <time>2011-05-26T11:59:42Z</time>
      </trkpt>
      <trkpt lat="47.79905" lon="-3.24211">
        <ele>120.9</ele>
        <time>2011-05-26T11:59:43Z</time>
      </trkpt>
      <trkpt lat="47.79912" lon="-3.24203">
        <ele>121.1</ele>
        <time>2011-05-26T11:59:44Z</time>
      </trkpt>
      <trkpt lat="47.79926" lon="-3.24204">
        <ele>118.1</ele>
        <time>2011-05-26T11:59:45Z</time>
      </trkpt>
      <trkpt lat="47.79934" lon="-3.24199">
        <ele>116.7</ele>
        <time>2011-05-26T11:59:46Z</time>
      </trkpt>
      <trkpt lat="47.79941" lon="-3.24188">
        <ele>115.3</ele>
        <time>2011-05-26T11:59:47Z</time>
      </trkpt>
      <trkpt lat="47.79951" lon="-3.24182">
        <ele>113.6</ele>
        <time>2011-05-26T11:59:48Z</time>
      </trkpt>
      <trkpt lat="47.79958" lon="-3.24174">
        <ele>113.2</ele>
        <time>2011-05-26T11:59:49Z</time>
      </trkpt>
      <trkpt lat="47.79967" lon="-3.24165">
        <ele>112.2</ele>
        <time>2011-05-26T11:59:50Z</time>
      </trkpt>
      <trkpt lat="47.79976" lon="-3.24157">
        <ele>113.9</ele>
        <time>2011-05-26T11:59:51Z</time>
      </trkpt>
      <trkpt lat="47.79984" lon="-3.24151">
        <ele>113.2</ele>
        <time>2011-05-26T11:59:52Z</time>
      </trkpt>
      <trkpt lat="47.79991" lon="-3.24144">
        <ele>112.2</ele>
        <time>2011-05-26T11:59:53Z</time>
      </trkpt>
      <trkpt lat="47.79999" lon="-3.24138">
        <ele>113.3</ele>
        <time>2011-05-26T11:59:54Z</time>
      </trkpt>
      <trkpt lat="47.80005" lon="-3.24135">
        <ele>112.4</ele>
        <time>2011-05-26T11:59:55Z</time>
      </trkpt>
      <trkpt lat="47.80013" lon="-3.24128">
        <ele>111.6</ele>
        <time>2011-05-26T11:59:56Z</time>
      </trkpt>
      <trkpt lat="47.8002" lon="-3.24124">
        <ele>111.7</ele>
        <time>2011-05-26T11:59:57Z</time>
      </trkpt>
      <trkpt lat="47.80026" lon="-3.24118">
        <ele>113.1</ele>
        <time>2011-05-26T11:59:58Z</time>
      </trkpt>
      <trkpt lat="47.80031" lon="-3.24114">
        <ele>114.3</ele>
        <time>2011-05-26T11:59:59Z</time>
      </trkpt>
      <trkpt lat="47.80036" lon="-3.2411">
        <ele>114.7</ele>
        <time>2011-05-26T12:00:00Z</time>
      </trkpt>
      <trkpt lat="47.80044" lon="-3.24107">
        <ele>115.1</ele>
        <time>2011-05-26T12:00:01Z</time>
      </trkpt>
      <trkpt lat="47.8005" lon="-3.24104">
        <ele>116</ele>
        <time>2011-05-26T12:00:02Z</time>
      </trkpt>
      <trkpt lat="47.80056" lon="-3.241">
        <ele>116.2</ele>
        <time>2011-05-26T12:00:03Z</time>
      </trkpt>
      <trkpt lat="47.8006" lon="-3.24096">
        <ele>116.3</ele>
        <time>2011-05-26T12:00:04Z</time>
      </trkpt>
      <trkpt lat="47.80069" lon="-3.24088">
        <ele>111.7</ele>
        <time>2011-05-26T12:00:06Z</time>
      </trkpt>
      <trkpt lat="47.80076" lon="-3.24087">
        <ele>110.9</ele>
        <time>2011-05-26T12:00:08Z</time>
      </trkpt>
      <trkpt lat="47.80084" lon="-3.24082">
        <ele>111.3</ele>
        <time>2011-05-26T12:00:11Z</time>
      </trkpt>
      <trkpt lat="47.80089" lon="-3.24078">
        <ele>111.9</ele>
        <time>2011-05-26T12:00:12Z</time>
      </trkpt>
      <trkpt lat="47.80094" lon="-3.24069">
        <ele>115.3</ele>
        <time>2011-05-26T12:00:14Z</time>
      </trkpt>
      <trkpt lat="47.80092" lon="-3.24055">
        <ele>117.3</ele>
        <time>2011-05-26T12:00:16Z</time>
      </trkpt>
      <trkpt lat="47.80092" lon="-3.24045">
        <ele>117.6</ele>
        <time>2011-05-26T12:00:18Z</time>
      </trkpt>
      <trkpt lat="47.8009" lon="-3.24035">
        <ele>117.3</ele>
        <time>2011-05-26T12:00:20Z</time>
      </trkpt>
      <trkpt lat="47.80089" lon="-3.24023">
        <ele>118.1</ele>
        <time>2011-05-26T12:00:22Z</time>
      </trkpt>
      <trkpt lat="47.80088" lon="-3.24015">
        <ele>118.4</ele>
        <time>2011-05-26T12:00:24Z</time>
      </trkpt>
      <trkpt lat="47.80089" lon="-3.24005">
        <ele>118.6</ele>
        <time>2011-05-26T12:00:26Z</time>
      </trkpt>
      <trkpt lat="47.80086" lon="-3.23996">
        <ele>120.4</ele>
        <time>2011-05-26T12:00:27Z</time>
      </trkpt>
      <trkpt lat="47.80084" lon="-3.23989">
        <ele>121.7</ele>
        <time>2011-05-26T12:00:28Z</time>
      </trkpt>
      <trkpt lat="47.80084" lon="-3.23978">
        <ele>120.3</ele>
        <time>2011-05-26T12:00:30Z</time>
      </trkpt>
      <trkpt lat="47.80078" lon="-3.2397">
        <ele>120</ele>
        <time>2011-05-26T12:00:33Z</time>
      </trkpt>
      <trkpt lat="47.80071" lon="-3.23968">
        <ele>119.5</ele>
        <time>2011-05-26T12:00:35Z</time>
      </trkpt>
      <trkpt lat="47.80066" lon="-3.23966">
        <ele>119</ele>
        <time>2011-05-26T12:00:36Z</time>
      </trkpt>
      <trkpt lat="47.80066" lon="-3.2396">
        <ele>119.3</ele>
        <time>2011-05-26T12:00:38Z</time>
      </trkpt>
      <trkpt lat="47.80066" lon="-3.23952">
        <ele>117.3</ele>
        <time>2011-05-26T12:00:40Z</time>
      </trkpt>
      <trkpt lat="47.80067" lon="-3.23946">
        <ele>116.1</ele>
        <time>2011-05-26T12:00:41Z</time>
      </trkpt>
      <trkpt lat="47.80062" lon="-3.23939">
        <ele>107.9</ele>
        <time>2011-05-26T12:00:43Z</time>
      </trkpt>
      <trkpt lat="47.8006" lon="-3.23932">
        <ele>104.5</ele>
        <time>2011-05-26T12:00:45Z</time>
      </trkpt>
      <trkpt lat="47.80057" lon="-3.23926">
        <ele>104.9</ele>
        <time>2011-05-26T12:00:47Z</time>
      </trkpt>
      <trkpt lat="47.8006" lon="-3.2392">
        <ele>99.1</ele>
        <time>2011-05-26T12:00:49Z</time>
      </trkpt>
      <trkpt lat="47.80064" lon="-3.23908">
        <ele>104.6</ele>
        <time>2011-05-26T12:00:55Z</time>
      </trkpt>
      <trkpt lat="47.80067" lon="-3.23901">
        <ele>105.2</ele>
        <time>2011-05-26T12:00:58Z</time>
      </trkpt>
      <trkpt lat="47.80072" lon="-3.239">
        <ele>108.2</ele>
        <time>2011-05-26T12:01:01Z</time>
      </trkpt>
      <trkpt lat="47.80077" lon="-3.23897">
        <ele>110</ele>
        <time>2011-05-26T12:01:03Z</time>
      </trkpt>
      <trkpt lat="47.8008" lon="-3.23892">
        <ele>111.2</ele>
        <time>2011-05-26T12:01:04Z</time>
      </trkpt>
      <trkpt lat="47.80085" lon="-3.23889">
        <ele>117.7</ele>
        <time>2011-05-26T12:01:05Z</time>
      </trkpt>
      <trkpt lat="47.80092" lon="-3.23886">
        <ele>121.1</ele>
        <time>2011-05-26T12:01:07Z</time>
      </trkpt>
      <trkpt lat="47.80096" lon="-3.23881">
        <ele>121.8</ele>
        <time>2011-05-26T12:01:09Z</time>
      </trkpt>
      <trkpt lat="47.80101" lon="-3.23874">
        <ele>121.5</ele>
        <time>2011-05-26T12:01:11Z</time>
      </trkpt>
      <trkpt lat="47.80109" lon="-3.23878">
        <ele>117.2</ele>
        <time>2011-05-26T12:01:13Z</time>
      </trkpt>
      <trkpt lat="47.80114" lon="-3.23879">
        <ele>113.9</ele>
        <time>2011-05-26T12:01:15Z</time>
      </trkpt>
      <trkpt lat="47.80119" lon="-3.23877">
        <ele>113.5</ele>
        <time>2011-05-26T12:01:17Z</time>
      </trkpt>
      <trkpt lat="47.80124" lon="-3.23875">
        <ele>113.1</ele>
        <time>2011-05-26T12:01:19Z</time>
      </trkpt>
      <trkpt lat="47.80132" lon="-3.23878">
        <ele>113.6</ele>
        <time>2011-05-26T12:01:22Z</time>
      </trkpt>
      <trkpt lat="47.80135" lon="-3.23884">
        <ele>113.2</ele>
        <time>2011-05-26T12:01:24Z</time>
      </trkpt>
      <trkpt lat="47.8014" lon="-3.23879">
        <ele>115.3</ele>
        <time>2011-05-26T12:01:27Z</time>
      </trkpt>
      <trkpt lat="47.80145" lon="-3.2387">
        <ele>116.7</ele>
        <time>2011-05-26T12:01:31Z</time>
      </trkpt>
      <trkpt lat="47.80148" lon="-3.23865">
        <ele>116.9</ele>
        <time>2011-05-26T12:01:33Z</time>
      </trkpt>
      <trkpt lat="47.80152" lon="-3.23868">
        <ele>118.3</ele>
        <time>2011-05-26T12:01:34Z</time>
      </trkpt>
      <trkpt lat="47.80158" lon="-3.23869">
        <ele>120.2</ele>
        <time>2011-05-26T12:01:36Z</time>
      </trkpt>
      <trkpt lat="47.80164" lon="-3.23869">
        <ele>121.2</ele>
        <time>2011-05-26T12:01:39Z</time>
      </trkpt>
      <trkpt lat="47.80172" lon="-3.23871">
        <ele>125.1</ele>
        <time>2011-05-26T12:01:42Z</time>
      </trkpt>
      <trkpt lat="47.80176" lon="-3.23866">
        <ele>135.8</ele>
        <time>2011-05-26T12:01:46Z</time>
      </trkpt>
      <trkpt lat="47.80181" lon="-3.23864">
        <ele>138.3</ele>
        <time>2011-05-26T12:01:48Z</time>
      </trkpt>
      <trkpt lat="47.80185" lon="-3.23855">
        <ele>139.6</ele>
        <time>2011-05-26T12:01:50Z</time>
      </trkpt>
      <trkpt lat="47.80187" lon="-3.23845">
        <ele>140</ele>
        <time>2011-05-26T12:01:52Z</time>
      </trkpt>
      <trkpt lat="47.80194" lon="-3.2384">
        <ele>141.8</ele>
        <time>2011-05-26T12:01:54Z</time>
      </trkpt>
      <trkpt lat="47.802" lon="-3.23838">
        <ele>140.7</ele>
        <time>2011-05-26T12:01:56Z</time>
      </trkpt>
      <trkpt lat="47.80206" lon="-3.23835">
        <ele>140.8</ele>
        <time>2011-05-26T12:01:58Z</time>
      </trkpt>
      <trkpt lat="47.80201" lon="-3.2383">
        <ele>138.3</ele>
        <time>2011-05-26T12:01:59Z</time>
      </trkpt>
      <trkpt lat="47.80197" lon="-3.23821">
        <ele>138.3</ele>
        <time>2011-05-26T12:02:01Z</time>
      </trkpt>
      <trkpt lat="47.802" lon="-3.23813">
        <ele>136.7</ele>
        <time>2011-05-26T12:02:03Z</time>
      </trkpt>
      <trkpt lat="47.80203" lon="-3.23806">
        <ele>136</ele>
        <time>2011-05-26T12:02:05Z</time>
      </trkpt>
      <trkpt lat="47.80209" lon="-3.23805">
        <ele>136</ele>
        <time>2011-05-26T12:02:06Z</time>
      </trkpt>
      <trkpt lat="47.80218" lon="-3.238">
        <ele>140.1</ele>
        <time>2011-05-26T12:02:09Z</time>
      </trkpt>
      <trkpt lat="47.80221" lon="-3.23793">
        <ele>141</ele>
        <time>2011-05-26T12:02:10Z</time>
      </trkpt>
      <trkpt lat="47.80224" lon="-3.23786">
        <ele>142.2</ele>
        <time>2011-05-26T12:02:11Z</time>
      </trkpt>
      <trkpt lat="47.80229" lon="-3.2378">
        <ele>142.6</ele>
        <time>2011-05-26T12:02:13Z</time>
      </trkpt>
      <trkpt lat="47.80232" lon="-3.23775">
        <ele>142.9</ele>
        <time>2011-05-26T12:02:14Z</time>
      </trkpt>
      <trkpt lat="47.80238" lon="-3.23769">
        <ele>143.9</ele>
        <time>2011-05-26T12:02:16Z</time>
      </trkpt>
      <trkpt lat="47.80244" lon="-3.23764">
        <ele>143.6</ele>
        <time>2011-05-26T12:02:17Z</time>
      </trkpt>
      <trkpt lat="47.80249" lon="-3.23761">
        <ele>143</ele>
        <time>2011-05-26T12:02:18Z</time>
      </trkpt>
      <trkpt lat="47.80261" lon="-3.23756">
        <ele>140.3</ele>
        <time>2011-05-26T12:02:20Z</time>
      </trkpt>
      <trkpt lat="47.80264" lon="-3.23752">
        <ele>140.7</ele>
        <time>2011-05-26T12:02:21Z</time>
      </trkpt>
      <trkpt lat="47.80266" lon="-3.23745">
        <ele>140.4</ele>
        <time>2011-05-26T12:02:22Z</time>
      </trkpt>
      <trkpt lat="47.80271" lon="-3.23739">
        <ele>138.8</ele>
        <time>2011-05-26T12:02:23Z</time>
      </trkpt>
      <trkpt lat="47.80279" lon="-3.23738">
        <ele>138.1</ele>
        <time>2011-05-26T12:02:24Z</time>
      </trkpt>
      <trkpt lat="47.80285" lon="-3.23739">
        <ele>139.5</ele>
        <time>2011-05-26T12:02:25Z</time>
      </trkpt>
      <trkpt lat="47.80294" lon="-3.23737">
        <ele>139.8</ele>
        <time>2011-05-26T12:02:27Z</time>
      </trkpt>
      <trkpt lat="47.80297" lon="-3.23728">
        <ele>140.7</ele>
        <time>2011-05-26T12:02:28Z</time>
      </trkpt>
      <trkpt lat="47.80303" lon="-3.23727">
        <ele>139.2</ele>
        <time>2011-05-26T12:02:29Z</time>
      </trkpt>
      <trkpt lat="47.80312" lon="-3.23728">
        <ele>135.2</ele>
        <time>2011-05-26T12:02:30Z</time>
      </trkpt>
      <trkpt lat="47.80316" lon="-3.23727">
        <ele>130.2</ele>
        <time>2011-05-26T12:02:32Z</time>
      </trkpt>
      <trkpt lat="47.80322" lon="-3.23723">
        <ele>130.4</ele>
        <time>2011-05-26T12:02:34Z</time>
      </trkpt>
      <trkpt lat="47.80328" lon="-3.23717">
        <ele>130</ele>
        <time>2011-05-26T12:02:37Z</time>
      </trkpt>
      <trkpt lat="47.80332" lon="-3.23708">
        <ele>129.5</ele>
        <time>2011-05-26T12:02:40Z</time>
      </trkpt>
      <trkpt lat="47.80335" lon="-3.23716">
        <ele>131.2</ele>
        <time>2011-05-26T12:02:42Z</time>
      </trkpt>
      <trkpt lat="47.80339" lon="-3.23709">
        <ele>126.7</ele>
        <time>2011-05-26T12:02:43Z</time>
      </trkpt>
      <trkpt lat="47.80343" lon="-3.23703">
        <ele>121.9</ele>
        <time>2011-05-26T12:02:50Z</time>
      </trkpt>
      <trkpt lat="47.80348" lon="-3.237">
        <ele>121.7</ele>
        <time>2011-05-26T12:02:55Z</time>
      </trkpt>
      <trkpt lat="47.80351" lon="-3.23705">
        <ele>121.4</ele>
        <time>2011-05-26T12:02:58Z</time>
      </trkpt>
      <trkpt lat="47.80354" lon="-3.23711">
        <ele>125.5</ele>
        <time>2011-05-26T12:03:06Z</time>
      </trkpt>
      <trkpt lat="47.80359" lon="-3.2372">
        <ele>126.9</ele>
        <time>2011-05-26T12:03:08Z</time>
      </trkpt>
      <trkpt lat="47.80365" lon="-3.2373">
        <ele>128.2</ele>
        <time>2011-05-26T12:03:10Z</time>
      </trkpt>
      <trkpt lat="47.80369" lon="-3.23737">
        <ele>132.2</ele>
        <time>2011-05-26T12:03:12Z</time>
      </trkpt>
      <trkpt lat="47.80373" lon="-3.23743">
        <ele>132.5</ele>
        <time>2011-05-26T12:03:14Z</time>
      </trkpt>
      <trkpt lat="47.80376" lon="-3.23751">
        <ele>130.4</ele>
        <time>2011-05-26T12:03:16Z</time>
      </trkpt>
      <trkpt lat="47.8038" lon="-3.23756">
        <ele>129.8</ele>
        <time>2011-05-26T12:03:18Z</time>
      </trkpt>
      <trkpt lat="47.80384" lon="-3.2376">
        <ele>129.6</ele>
        <time>2011-05-26T12:03:19Z</time>
      </trkpt>
      <trkpt lat="47.8039" lon="-3.23764">
        <ele>130.5</ele>
        <time>2011-05-26T12:03:21Z</time>
      </trkpt>
      <trkpt lat="47.80397" lon="-3.23768">
        <ele>128.7</ele>
        <time>2011-05-26T12:03:22Z</time>
      </trkpt>
      <trkpt lat="47.80403" lon="-3.23773">
        <ele>129.4</ele>
        <time>2011-05-26T12:03:25Z</time>
      </trkpt>
      <trkpt lat="47.80408" lon="-3.23774">
        <ele>130.5</ele>
        <time>2011-05-26T12:03:26Z</time>
      </trkpt>
      <trkpt lat="47.80412" lon="-3.23775">
        <ele>131.9</ele>
        <time>2011-05-26T12:03:27Z</time>
      </trkpt>
      <trkpt lat="47.8042" lon="-3.2378">
        <ele>129</ele>
        <time>2011-05-26T12:03:28Z</time>
      </trkpt>
      <trkpt lat="47.80427" lon="-3.23777">
        <ele>129.8</ele>
        <time>2011-05-26T12:03:30Z</time>
      </trkpt>
      <trkpt lat="47.80432" lon="-3.23778">
        <ele>129.1</ele>
        <time>2011-05-26T12:03:32Z</time>
      </trkpt>
      <trkpt lat="47.80439" lon="-3.23771">
        <ele>128.3</ele>
        <time>2011-05-26T12:03:34Z</time>
      </trkpt>
      <trkpt lat="47.80447" lon="-3.23767">
        <ele>128.3</ele>
        <time>2011-05-26T12:03:36Z</time>
      </trkpt>
      <trkpt lat="47.80453" lon="-3.23768">
        <ele>126.9</ele>
        <time>2011-05-26T12:03:37Z</time>
      </trkpt>
      <trkpt lat="47.80458" lon="-3.23767">
        <ele>126.3</ele>
        <time>2011-05-26T12:03:39Z</time>
      </trkpt>
      <trkpt lat="47.80463" lon="-3.23765">
        <ele>124.1</ele>
        <time>2011-05-26T12:03:40Z</time>
      </trkpt>
      <trkpt lat="47.80467" lon="-3.23761">
        <ele>122.9</ele>
        <time>2011-05-26T12:03:41Z</time>
      </trkpt>
      <trkpt lat="47.80476" lon="-3.23759">
        <ele>122.7</ele>
        <time>2011-05-26T12:03:43Z</time>
      </trkpt>
      <trkpt lat="47.80482" lon="-3.23758">
        <ele>121</ele>
        <time>2011-05-26T12:03:45Z</time>
      </trkpt>
      <trkpt lat="47.80487" lon="-3.23758">
        <ele>121.7</ele>
        <time>2011-05-26T12:03:47Z</time>
      </trkpt>
      <trkpt lat="47.80494" lon="-3.23761">
        <ele>121.6</ele>
        <time>2011-05-26T12:03:49Z</time>
      </trkpt>
      <trkpt lat="47.805" lon="-3.23756">
        <ele>121.9</ele>
        <time>2011-05-26T12:03:50Z</time>
      </trkpt>
      <trkpt lat="47.80518" lon="-3.23756">
        <ele>114.5</ele>
        <time>2011-05-26T12:03:52Z</time>
      </trkpt>
      <trkpt lat="47.80525" lon="-3.23753">
        <ele>114.1</ele>
        <time>2011-05-26T12:03:53Z</time>
      </trkpt>
      <trkpt lat="47.8053" lon="-3.23747">
        <ele>113</ele>
        <time>2011-05-26T12:03:54Z</time>
      </trkpt>
      <trkpt lat="47.80534" lon="-3.23745">
        <ele>112.5</ele>
        <time>2011-05-26T12:03:55Z</time>
      </trkpt>
      <trkpt lat="47.80539" lon="-3.23742">
        <ele>112.4</ele>
        <time>2011-05-26T12:03:57Z</time>
      </trkpt>
      <trkpt lat="47.80544" lon="-3.23735">
        <ele>111</ele>
        <time>2011-05-26T12:03:58Z</time>
      </trkpt>
      <trkpt lat="47.80547" lon="-3.23727">
        <ele>109.3</ele>
        <time>2011-05-26T12:04:00Z</time>
      </trkpt>
      <trkpt lat="47.80552" lon="-3.23726">
        <ele>108.1</ele>
        <time>2011-05-26T12:04:01Z</time>
      </trkpt>
      <trkpt lat="47.8056" lon="-3.23724">
        <ele>107.9</ele>
        <time>2011-05-26T12:04:03Z</time>
      </trkpt>
      <trkpt lat="47.80564" lon="-3.23726">
        <ele>109.4</ele>
        <time>2011-05-26T12:04:04Z</time>
      </trkpt>
      <trkpt lat="47.80571" lon="-3.23722">
        <ele>107.6</ele>
        <time>2011-05-26T12:04:05Z</time>
      </trkpt>
      <trkpt lat="47.80576" lon="-3.23722">
        <ele>108.3</ele>
        <time>2011-05-26T12:04:06Z</time>
      </trkpt>
      <trkpt lat="47.80582" lon="-3.23722">
        <ele>107.8</ele>
        <time>2011-05-26T12:04:07Z</time>
      </trkpt>
      <trkpt lat="47.8059" lon="-3.2372">
        <ele>107.9</ele>
        <time>2011-05-26T12:04:09Z</time>
      </trkpt>
      <trkpt lat="47.80598" lon="-3.23724">
        <ele>107.4</ele>
        <time>2011-05-26T12:04:11Z</time>
      </trkpt>
      <trkpt lat="47.80606" lon="-3.23718">
        <ele>107.4</ele>
        <time>2011-05-26T12:04:13Z</time>
      </trkpt>
      <trkpt lat="47.80612" lon="-3.23712">
        <ele>109</ele>
        <time>2011-05-26T12:04:14Z</time>
      </trkpt>
      <trkpt lat="47.80621" lon="-3.23712">
        <ele>110.4</ele>
        <time>2011-05-26T12:04:15Z</time>
      </trkpt>
      <trkpt lat="47.80628" lon="-3.23712">
        <ele>111.2</ele>
        <time>2011-05-26T12:04:16Z</time>
      </trkpt>
      <trkpt lat="47.80632" lon="-3.23713">
        <ele>111.3</ele>
        <time>2011-05-26T12:04:17Z</time>
      </trkpt>
      <trkpt lat="47.80637" lon="-3.23711">
        <ele>111.4</ele>
        <time>2011-05-26T12:04:18Z</time>
      </trkpt>
      <trkpt lat="47.80642" lon="-3.2371">
        <ele>111.5</ele>
        <time>2011-05-26T12:04:19Z</time>
      </trkpt>
      <trkpt lat="47.80647" lon="-3.23708">
        <ele>109.8</ele>
        <time>2011-05-26T12:04:21Z</time>
      </trkpt>
      <trkpt lat="47.80658" lon="-3.23708">
        <ele>109</ele>
        <time>2011-05-26T12:04:23Z</time>
      </trkpt>
      <trkpt lat="47.80663" lon="-3.23704">
        <ele>110.6</ele>
        <time>2011-05-26T12:04:24Z</time>
      </trkpt>
      <trkpt lat="47.80668" lon="-3.23701">
        <ele>113.2</ele>
        <time>2011-05-26T12:04:25Z</time>
      </trkpt>
      <trkpt lat="47.80674" lon="-3.237">
        <ele>113.2</ele>
        <time>2011-05-26T12:04:26Z</time>
      </trkpt>
      <trkpt lat="47.80681" lon="-3.23698">
        <ele>114.8</ele>
        <time>2011-05-26T12:04:28Z</time>
      </trkpt>
      <trkpt lat="47.80688" lon="-3.23698">
        <ele>114.3</ele>
        <time>2011-05-26T12:04:30Z</time>
      </trkpt>
      <trkpt lat="47.80695" lon="-3.237">
        <ele>114.9</ele>
        <time>2011-05-26T12:04:31Z</time>
      </trkpt>
      <trkpt lat="47.807" lon="-3.23697">
        <ele>115.2</ele>
        <time>2011-05-26T12:04:32Z</time>
      </trkpt>
      <trkpt lat="47.80706" lon="-3.2369">
        <ele>112.4</ele>
        <time>2011-05-26T12:04:33Z</time>
      </trkpt>
      <trkpt lat="47.80711" lon="-3.23687">
        <ele>113</ele>
        <time>2011-05-26T12:04:34Z</time>
      </trkpt>
      <trkpt lat="47.80714" lon="-3.2368">
        <ele>112.1</ele>
        <time>2011-05-26T12:04:35Z</time>
      </trkpt>
      <trkpt lat="47.80721" lon="-3.23671">
        <ele>112.7</ele>
        <time>2011-05-26T12:04:37Z</time>
      </trkpt>
      <trkpt lat="47.80725" lon="-3.23667">
        <ele>112.6</ele>
        <time>2011-05-26T12:04:38Z</time>
      </trkpt>
      <trkpt lat="47.80729" lon="-3.23662">
        <ele>111.5</ele>
        <time>2011-05-26T12:04:39Z</time>
      </trkpt>
      <trkpt lat="47.80733" lon="-3.23657">
        <ele>111.1</ele>
        <time>2011-05-26T12:04:40Z</time>
      </trkpt>
      <trkpt lat="47.80737" lon="-3.23652">
        <ele>111.2</ele>
        <time>2011-05-26T12:04:41Z</time>
      </trkpt>
      <trkpt lat="47.80744" lon="-3.23645">
        <ele>111.8</ele>
        <time>2011-05-26T12:04:43Z</time>
      </trkpt>
      <trkpt lat="47.80749" lon="-3.23641">
        <ele>112.1</ele>
        <time>2011-05-26T12:04:44Z</time>
      </trkpt>
      <trkpt lat="47.80753" lon="-3.23635">
        <ele>111.7</ele>
        <time>2011-05-26T12:04:45Z</time>
      </trkpt>
      <trkpt lat="47.80759" lon="-3.23628">
        <ele>112.8</ele>
        <time>2011-05-26T12:04:47Z</time>
      </trkpt>
      <trkpt lat="47.80763" lon="-3.23623">
        <ele>114</ele>
        <time>2011-05-26T12:04:48Z</time>
      </trkpt>
      <trkpt lat="47.80767" lon="-3.2362">
        <ele>113.7</ele>
        <time>2011-05-26T12:04:49Z</time>
      </trkpt>
      <trkpt lat="47.80771" lon="-3.23615">
        <ele>113</ele>
        <time>2011-05-26T12:04:50Z</time>
      </trkpt>
      <trkpt lat="47.80775" lon="-3.2361">
        <ele>113.8</ele>
        <time>2011-05-26T12:04:51Z</time>
      </trkpt>
      <trkpt lat="47.8078" lon="-3.23604">
        <ele>113.9</ele>
        <time>2011-05-26T12:04:52Z</time>
      </trkpt>
      <trkpt lat="47.80784" lon="-3.236">
        <ele>113.7</ele>
        <time>2011-05-26T12:04:53Z</time>
      </trkpt>
      <trkpt lat="47.80789" lon="-3.23595">
        <ele>113.3</ele>
        <time>2011-05-26T12:04:54Z</time>
      </trkpt>
      <trkpt lat="47.80793" lon="-3.2359">
        <ele>112.7</ele>
        <time>2011-05-26T12:04:55Z</time>
      </trkpt>
      <trkpt lat="47.80797" lon="-3.23584">
        <ele>112.4</ele>
        <time>2011-05-26T12:04:56Z</time>
      </trkpt>
      <trkpt lat="47.80801" lon="-3.23579">
        <ele>112.1</ele>
        <time>2011-05-26T12:04:57Z</time>
      </trkpt>
      <trkpt lat="47.80806" lon="-3.23574">
        <ele>112.6</ele>
        <time>2011-05-26T12:04:58Z</time>
      </trkpt>
      <trkpt lat="47.80811" lon="-3.23568">
        <ele>111.4</ele>
        <time>2011-05-26T12:04:59Z</time>
      </trkpt>
      <trkpt lat="47.80817" lon="-3.23563">
        <ele>109.1</ele>
        <time>2011-05-26T12:05:00Z</time>
      </trkpt>
      <trkpt lat="47.80822" lon="-3.23558">
        <ele>108</ele>
        <time>2011-05-26T12:05:01Z</time>
      </trkpt>
      <trkpt lat="47.80827" lon="-3.23552">
        <ele>108.6</ele>
        <time>2011-05-26T12:05:02Z</time>
      </trkpt>
      <trkpt lat="47.80831" lon="-3.23547">
        <ele>109.4</ele>
        <time>2011-05-26T12:05:03Z</time>
      </trkpt>
      <trkpt lat="47.80834" lon="-3.23543">
        <ele>109.1</ele>
        <time>2011-05-26T12:05:04Z</time>
      </trkpt>
      <trkpt lat="47.80838" lon="-3.23539">
        <ele>108.6</ele>
        <time>2011-05-26T12:05:05Z</time>
      </trkpt>
      <trkpt lat="47.80842" lon="-3.23535">
        <ele>108.4</ele>
        <time>2011-05-26T12:05:06Z</time>
      </trkpt>
      <trkpt lat="47.80846" lon="-3.23528">
        <ele>112.8</ele>
        <time>2011-05-26T12:05:08Z</time>
      </trkpt>
      <trkpt lat="47.80853" lon="-3.23523">
        <ele>112.6</ele>
        <time>2011-05-26T12:05:10Z</time>
      </trkpt>
      <trkpt lat="47.80859" lon="-3.23516">
        <ele>112</ele>
        <time>2011-05-26T12:05:12Z</time>
      </trkpt>
      <trkpt lat="47.8086" lon="-3.23503">
        <ele>110.5</ele>
        <time>2011-05-26T12:05:14Z</time>
      </trkpt>
      <trkpt lat="47.80858" lon="-3.23497">
        <ele>110.2</ele>
        <time>2011-05-26T12:05:15Z</time>
      </trkpt>
      <trkpt lat="47.80856" lon="-3.2349">
        <ele>111.4</ele>
        <time>2011-05-26T12:05:16Z</time>
      </trkpt>
      <trkpt lat="47.80854" lon="-3.23483">
        <ele>111.2</ele>
        <time>2011-05-26T12:05:17Z</time>
      </trkpt>
      <trkpt lat="47.80852" lon="-3.23476">
        <ele>110.9</ele>
        <time>2011-05-26T12:05:18Z</time>
      </trkpt>
      <trkpt lat="47.8085" lon="-3.23468">
        <ele>110.3</ele>
        <time>2011-05-26T12:05:19Z</time>
      </trkpt>
      <trkpt lat="47.80848" lon="-3.23462">
        <ele>110</ele>
        <time>2011-05-26T12:05:20Z</time>
      </trkpt>
      <trkpt lat="47.80845" lon="-3.23455">
        <ele>109.8</ele>
        <time>2011-05-26T12:05:21Z</time>
      </trkpt>
      <trkpt lat="47.80842" lon="-3.23448">
        <ele>110.1</ele>
        <time>2011-05-26T12:05:22Z</time>
      </trkpt>
      <trkpt lat="47.8084" lon="-3.23439">
        <ele>110.3</ele>
        <time>2011-05-26T12:05:23Z</time>
      </trkpt>
      <trkpt lat="47.80837" lon="-3.23433">
        <ele>110.6</ele>
        <time>2011-05-26T12:05:24Z</time>
      </trkpt>
      <trkpt lat="47.80834" lon="-3.23422">
        <ele>110.6</ele>
        <time>2011-05-26T12:05:25Z</time>
      </trkpt>
      <trkpt lat="47.80832" lon="-3.23414">
        <ele>111.2</ele>
        <time>2011-05-26T12:05:26Z</time>
      </trkpt>
      <trkpt lat="47.8083" lon="-3.23406">
        <ele>110.7</ele>
        <time>2011-05-26T12:05:27Z</time>
      </trkpt>
      <trkpt lat="47.80827" lon="-3.23398">
        <ele>111.3</ele>
        <time>2011-05-26T12:05:28Z</time>
      </trkpt>
      <trkpt lat="47.80825" lon="-3.23392">
        <ele>111.2</ele>
        <time>2011-05-26T12:05:29Z</time>
      </trkpt>
      <trkpt lat="47.80822" lon="-3.23384">
        <ele>111.7</ele>
        <time>2011-05-26T12:05:30Z</time>
      </trkpt>
      <trkpt lat="47.8082" lon="-3.23377">
        <ele>111.7</ele>
        <time>2011-05-26T12:05:31Z</time>
      </trkpt>
      <trkpt lat="47.80817" lon="-3.23371">
        <ele>112.6</ele>
        <time>2011-05-26T12:05:32Z</time>
      </trkpt>
      <trkpt lat="47.80813" lon="-3.23363">
        <ele>112.9</ele>
        <time>2011-05-26T12:05:33Z</time>
      </trkpt>
      <trkpt lat="47.80811" lon="-3.23357">
        <ele>113</ele>
        <time>2011-05-26T12:05:34Z</time>
      </trkpt>
      <trkpt lat="47.80802" lon="-3.23346">
        <ele>112.8</ele>
        <time>2011-05-26T12:05:36Z</time>
      </trkpt>
      <trkpt lat="47.80796" lon="-3.23335">
        <ele>113.1</ele>
        <time>2011-05-26T12:05:39Z</time>
      </trkpt>
      <trkpt lat="47.80796" lon="-3.23323">
        <ele>112.2</ele>
        <time>2011-05-26T12:05:40Z</time>
      </trkpt>
      <trkpt lat="47.80791" lon="-3.23307">
        <ele>111</ele>
        <time>2011-05-26T12:05:42Z</time>
      </trkpt>
      <trkpt lat="47.80788" lon="-3.23299">
        <ele>110.2</ele>
        <time>2011-05-26T12:05:44Z</time>
      </trkpt>
      <trkpt lat="47.80786" lon="-3.23291">
        <ele>109.2</ele>
        <time>2011-05-26T12:05:45Z</time>
      </trkpt>
      <trkpt lat="47.80784" lon="-3.23285">
        <ele>108.4</ele>
        <time>2011-05-26T12:05:46Z</time>
      </trkpt>
      <trkpt lat="47.80781" lon="-3.23279">
        <ele>109</ele>
        <time>2011-05-26T12:05:48Z</time>
      </trkpt>
      <trkpt lat="47.80779" lon="-3.2327">
        <ele>109.9</ele>
        <time>2011-05-26T12:05:50Z</time>
      </trkpt>
      <trkpt lat="47.80776" lon="-3.23262">
        <ele>110.9</ele>
        <time>2011-05-26T12:05:52Z</time>
      </trkpt>
      <trkpt lat="47.80773" lon="-3.23255">
        <ele>113.2</ele>
        <time>2011-05-26T12:05:54Z</time>
      </trkpt>
      <trkpt lat="47.8077" lon="-3.23247">
        <ele>113.1</ele>
        <time>2011-05-26T12:05:56Z</time>
      </trkpt>
      <trkpt lat="47.80766" lon="-3.23241">
        <ele>113.6</ele>
        <time>2011-05-26T12:05:58Z</time>
      </trkpt>
      <trkpt lat="47.80762" lon="-3.23235">
        <ele>113.8</ele>
        <time>2011-05-26T12:06:00Z</time>
      </trkpt>
      <trkpt lat="47.80759" lon="-3.23226">
        <ele>115.9</ele>
        <time>2011-05-26T12:06:02Z</time>
      </trkpt>
      <trkpt lat="47.80756" lon="-3.23218">
        <ele>116.3</ele>
        <time>2011-05-26T12:06:04Z</time>
      </trkpt>
      <trkpt lat="47.80754" lon="-3.2321">
        <ele>117.5</ele>
        <time>2011-05-26T12:06:06Z</time>
      </trkpt>
      <trkpt lat="47.80753" lon="-3.23202">
        <ele>117.9</ele>
        <time>2011-05-26T12:06:08Z</time>
      </trkpt>
      <trkpt lat="47.80752" lon="-3.23195">
        <ele>117.9</ele>
        <time>2011-05-26T12:06:10Z</time>
      </trkpt>
      <trkpt lat="47.80756" lon="-3.23186">
        <ele>115.2</ele>
        <time>2011-05-26T12:06:12Z</time>
      </trkpt>
      <trkpt lat="47.8076" lon="-3.23181">
        <ele>119.3</ele>
        <time>2011-05-26T12:06:14Z</time>
      </trkpt>
      <trkpt lat="47.80768" lon="-3.23166">
        <ele>119.1</ele>
        <time>2011-05-26T12:06:16Z</time>
      </trkpt>
      <trkpt lat="47.80772" lon="-3.23157">
        <ele>119.5</ele>
        <time>2011-05-26T12:06:17Z</time>
      </trkpt>
      <trkpt lat="47.80776" lon="-3.23149">
        <ele>120.5</ele>
        <time>2011-05-26T12:06:18Z</time>
      </trkpt>
      <trkpt lat="47.80781" lon="-3.23142">
        <ele>120.4</ele>
        <time>2011-05-26T12:06:19Z</time>
      </trkpt>
      <trkpt lat="47.80785" lon="-3.23136">
        <ele>120.6</ele>
        <time>2011-05-26T12:06:20Z</time>
      </trkpt>
      <trkpt lat="47.80787" lon="-3.23129">
        <ele>120.4</ele>
        <time>2011-05-26T12:06:21Z</time>
      </trkpt>
      <trkpt lat="47.80792" lon="-3.23127">
        <ele>119.7</ele>
        <time>2011-05-26T12:06:22Z</time>
      </trkpt>
      <trkpt lat="47.80797" lon="-3.23124">
        <ele>118.8</ele>
        <time>2011-05-26T12:06:23Z</time>
      </trkpt>
      <trkpt lat="47.80804" lon="-3.23116">
        <ele>119</ele>
        <time>2011-05-26T12:06:25Z</time>
      </trkpt>
      <trkpt lat="47.80811" lon="-3.23108">
        <ele>118.2</ele>
        <time>2011-05-26T12:06:27Z</time>
      </trkpt>
      <trkpt lat="47.80819" lon="-3.23101">
        <ele>117.4</ele>
        <time>2011-05-26T12:06:29Z</time>
      </trkpt>
      <trkpt lat="47.80823" lon="-3.23096">
        <ele>117.1</ele>
        <time>2011-05-26T12:06:30Z</time>
      </trkpt>
      <trkpt lat="47.80829" lon="-3.2309">
        <ele>117.3</ele>
        <time>2011-05-26T12:06:32Z</time>
      </trkpt>
      <trkpt lat="47.80835" lon="-3.23083">
        <ele>117.4</ele>
        <time>2011-05-26T12:06:34Z</time>
      </trkpt>
      <trkpt lat="47.8084" lon="-3.23077">
        <ele>119</ele>
        <time>2011-05-26T12:06:36Z</time>
      </trkpt>
      <trkpt lat="47.80846" lon="-3.23072">
        <ele>119.9</ele>
        <time>2011-05-26T12:06:38Z</time>
      </trkpt>
      <trkpt lat="47.80852" lon="-3.23066">
        <ele>119.4</ele>
        <time>2011-05-26T12:06:40Z</time>
      </trkpt>
      <trkpt lat="47.80857" lon="-3.23059">
        <ele>119.2</ele>
        <time>2011-05-26T12:06:42Z</time>
      </trkpt>
      <trkpt lat="47.80862" lon="-3.23053">
        <ele>119.4</ele>
        <time>2011-05-26T12:06:44Z</time>
      </trkpt>
      <trkpt lat="47.80868" lon="-3.23048">
        <ele>119.9</ele>
        <time>2011-05-26T12:06:46Z</time>
      </trkpt>
      <trkpt lat="47.80871" lon="-3.23041">
        <ele>120.6</ele>
        <time>2011-05-26T12:06:47Z</time>
      </trkpt>
      <trkpt lat="47.80876" lon="-3.23034">
        <ele>120.5</ele>
        <time>2011-05-26T12:06:49Z</time>
      </trkpt>
      <trkpt lat="47.80883" lon="-3.23027">
        <ele>119.7</ele>
        <time>2011-05-26T12:06:51Z</time>
      </trkpt>
      <trkpt lat="47.8089" lon="-3.2302">
        <ele>118.6</ele>
        <time>2011-05-26T12:06:53Z</time>
      </trkpt>
      <trkpt lat="47.80896" lon="-3.23012">
        <ele>118.9</ele>
        <time>2011-05-26T12:06:55Z</time>
      </trkpt>
      <trkpt lat="47.80903" lon="-3.23006">
        <ele>118.6</ele>
        <time>2011-05-26T12:06:57Z</time>
      </trkpt>
      <trkpt lat="47.80909" lon="-3.22999">
        <ele>118.8</ele>
        <time>2011-05-26T12:06:59Z</time>
      </trkpt>
      <trkpt lat="47.80914" lon="-3.22992">
        <ele>118.9</ele>
        <time>2011-05-26T12:07:01Z</time>
      </trkpt>
      <trkpt lat="47.80919" lon="-3.22986">
        <ele>119.6</ele>
        <time>2011-05-26T12:07:03Z</time>
      </trkpt>
      <trkpt lat="47.80925" lon="-3.2298">
        <ele>120.5</ele>
        <time>2011-05-26T12:07:05Z</time>
      </trkpt>
      <trkpt lat="47.80931" lon="-3.22976">
        <ele>121.2</ele>
        <time>2011-05-26T12:07:07Z</time>
      </trkpt>
      <trkpt lat="47.80935" lon="-3.22971">
        <ele>121.3</ele>
        <time>2011-05-26T12:07:09Z</time>
      </trkpt>
      <trkpt lat="47.80939" lon="-3.22966">
        <ele>121.6</ele>
        <time>2011-05-26T12:07:11Z</time>
      </trkpt>
      <trkpt lat="47.80944" lon="-3.2296">
        <ele>121.6</ele>
        <time>2011-05-26T12:07:13Z</time>
      </trkpt>
      <trkpt lat="47.8095" lon="-3.22954">
        <ele>121.7</ele>
        <time>2011-05-26T12:07:15Z</time>
      </trkpt>
      <trkpt lat="47.80956" lon="-3.22947">
        <ele>121</ele>
        <time>2011-05-26T12:07:17Z</time>
      </trkpt>
      <trkpt lat="47.80964" lon="-3.2294">
        <ele>119.2</ele>
        <time>2011-05-26T12:07:19Z</time>
      </trkpt>
      <trkpt lat="47.8097" lon="-3.22931">
        <ele>119.2</ele>
        <time>2011-05-26T12:07:21Z</time>
      </trkpt>
      <trkpt lat="47.80977" lon="-3.22923">
        <ele>118.7</ele>
        <time>2011-05-26T12:07:23Z</time>
      </trkpt>
      <trkpt lat="47.80984" lon="-3.22915">
        <ele>118.6</ele>
        <time>2011-05-26T12:07:25Z</time>
      </trkpt>
      <trkpt lat="47.80988" lon="-3.22911">
        <ele>119.3</ele>
        <time>2011-05-26T12:07:26Z</time>
      </trkpt>
      <trkpt lat="47.80994" lon="-3.22903">
        <ele>119.8</ele>
        <time>2011-05-26T12:07:28Z</time>
      </trkpt>
      <trkpt lat="47.80999" lon="-3.22899">
        <ele>119.3</ele>
        <time>2011-05-26T12:07:29Z</time>
      </trkpt>
      <trkpt lat="47.81002" lon="-3.22894">
        <ele>119</ele>
        <time>2011-05-26T12:07:30Z</time>
      </trkpt>
      <trkpt lat="47.8101" lon="-3.22887">
        <ele>119.3</ele>
        <time>2011-05-26T12:07:32Z</time>
      </trkpt>
      <trkpt lat="47.81016" lon="-3.22878">
        <ele>119.3</ele>
        <time>2011-05-26T12:07:34Z</time>
      </trkpt>
      <trkpt lat="47.81024" lon="-3.22871">
        <ele>120.5</ele>
        <time>2011-05-26T12:07:36Z</time>
      </trkpt>
      <trkpt lat="47.81031" lon="-3.22864">
        <ele>121.1</ele>
        <time>2011-05-26T12:07:38Z</time>
      </trkpt>
      <trkpt lat="47.81035" lon="-3.22861">
        <ele>120.9</ele>
        <time>2011-05-26T12:07:39Z</time>
      </trkpt>
      <trkpt lat="47.81042" lon="-3.22852">
        <ele>121.8</ele>
        <time>2011-05-26T12:07:41Z</time>
      </trkpt>
      <trkpt lat="47.81046" lon="-3.22848">
        <ele>122.3</ele>
        <time>2011-05-26T12:07:42Z</time>
      </trkpt>
      <trkpt lat="47.8105" lon="-3.22844">
        <ele>121.7</ele>
        <time>2011-05-26T12:07:43Z</time>
      </trkpt>
      <trkpt lat="47.81054" lon="-3.22839">
        <ele>121.6</ele>
        <time>2011-05-26T12:07:44Z</time>
      </trkpt>
      <trkpt lat="47.81058" lon="-3.22835">
        <ele>121.6</ele>
        <time>2011-05-26T12:07:45Z</time>
      </trkpt>
      <trkpt lat="47.81063" lon="-3.22827">
        <ele>121.6</ele>
        <time>2011-05-26T12:07:47Z</time>
      </trkpt>
      <trkpt lat="47.81067" lon="-3.22824">
        <ele>121.5</ele>
        <time>2011-05-26T12:07:48Z</time>
      </trkpt>
      <trkpt lat="47.81076" lon="-3.22812">
        <ele>121.4</ele>
        <time>2011-05-26T12:07:50Z</time>
      </trkpt>
      <trkpt lat="47.81081" lon="-3.22809">
        <ele>121</ele>
        <time>2011-05-26T12:07:51Z</time>
      </trkpt>
      <trkpt lat="47.81087" lon="-3.22801">
        <ele>123.1</ele>
        <time>2011-05-26T12:07:53Z</time>
      </trkpt>
      <trkpt lat="47.81092" lon="-3.22797">
        <ele>122.6</ele>
        <time>2011-05-26T12:07:54Z</time>
      </trkpt>
      <trkpt lat="47.81096" lon="-3.22793">
        <ele>122.9</ele>
        <time>2011-05-26T12:07:55Z</time>
      </trkpt>
      <trkpt lat="47.81104" lon="-3.22786">
        <ele>122.1</ele>
        <time>2011-05-26T12:07:57Z</time>
      </trkpt>
      <trkpt lat="47.81108" lon="-3.22781">
        <ele>122.5</ele>
        <time>2011-05-26T12:07:58Z</time>
      </trkpt>
      <trkpt lat="47.81112" lon="-3.22776">
        <ele>121.1</ele>
        <time>2011-05-26T12:07:59Z</time>
      </trkpt>
      <trkpt lat="47.81116" lon="-3.22771">
        <ele>119.9</ele>
        <time>2011-05-26T12:08:00Z</time>
      </trkpt>
      <trkpt lat="47.81119" lon="-3.22766">
        <ele>120</ele>
        <time>2011-05-26T12:08:01Z</time>
      </trkpt>
      <trkpt lat="47.81127" lon="-3.22757">
        <ele>119.4</ele>
        <time>2011-05-26T12:08:03Z</time>
      </trkpt>
      <trkpt lat="47.81131" lon="-3.22752">
        <ele>118.9</ele>
        <time>2011-05-26T12:08:04Z</time>
      </trkpt>
      <trkpt lat="47.81134" lon="-3.22748">
        <ele>119.4</ele>
        <time>2011-05-26T12:08:05Z</time>
      </trkpt>
      <trkpt lat="47.81139" lon="-3.22742">
        <ele>119.2</ele>
        <time>2011-05-26T12:08:06Z</time>
      </trkpt>
      <trkpt lat="47.81144" lon="-3.22737">
        <ele>119.1</ele>
        <time>2011-05-26T12:08:07Z</time>
      </trkpt>
      <trkpt lat="47.81148" lon="-3.22732">
        <ele>119.2</ele>
        <time>2011-05-26T12:08:08Z</time>
      </trkpt>
      <trkpt lat="47.81152" lon="-3.22726">
        <ele>118.7</ele>
        <time>2011-05-26T12:08:09Z</time>
      </trkpt>
      <trkpt lat="47.81156" lon="-3.22721">
        <ele>118.6</ele>
        <time>2011-05-26T12:08:10Z</time>
      </trkpt>
      <trkpt lat="47.8116" lon="-3.22717">
        <ele>118.4</ele>
        <time>2011-05-26T12:08:11Z</time>
      </trkpt>
      <trkpt lat="47.81166" lon="-3.2272">
        <ele>121.2</ele>
        <time>2011-05-26T12:08:14Z</time>
      </trkpt>
      <trkpt lat="47.81171" lon="-3.22721">
        <ele>124.6</ele>
        <time>2011-05-26T12:08:16Z</time>
      </trkpt>
      <trkpt lat="47.81176" lon="-3.2272">
        <ele>126.6</ele>
        <time>2011-05-26T12:08:18Z</time>
      </trkpt>
      <trkpt lat="47.81186" lon="-3.22716">
        <ele>128.7</ele>
        <time>2011-05-26T12:08:20Z</time>
      </trkpt>
      <trkpt lat="47.81192" lon="-3.22713">
        <ele>130.4</ele>
        <time>2011-05-26T12:08:21Z</time>
      </trkpt>
      <trkpt lat="47.81199" lon="-3.22707">
        <ele>130.8</ele>
        <time>2011-05-26T12:08:23Z</time>
      </trkpt>
      <trkpt lat="47.81203" lon="-3.22705">
        <ele>131.3</ele>
        <time>2011-05-26T12:08:24Z</time>
      </trkpt>
      <trkpt lat="47.81212" lon="-3.22699">
        <ele>131.6</ele>
        <time>2011-05-26T12:08:26Z</time>
      </trkpt>
      <trkpt lat="47.81216" lon="-3.22693">
        <ele>130</ele>
        <time>2011-05-26T12:08:28Z</time>
      </trkpt>
      <trkpt lat="47.81223" lon="-3.22692">
        <ele>130</ele>
        <time>2011-05-26T12:08:30Z</time>
      </trkpt>
      <trkpt lat="47.81228" lon="-3.22688">
        <ele>131</ele>
        <time>2011-05-26T12:08:31Z</time>
      </trkpt>
      <trkpt lat="47.81235" lon="-3.2268">
        <ele>131.2</ele>
        <time>2011-05-26T12:08:33Z</time>
      </trkpt>
      <trkpt lat="47.8124" lon="-3.22676">
        <ele>131</ele>
        <time>2011-05-26T12:08:34Z</time>
      </trkpt>
      <trkpt lat="47.81244" lon="-3.22672">
        <ele>130.6</ele>
        <time>2011-05-26T12:08:35Z</time>
      </trkpt>
      <trkpt lat="47.81245" lon="-3.22689">
        <ele>121.9</ele>
        <time>2011-05-26T12:08:36Z</time>
      </trkpt>
      <trkpt lat="47.81251" lon="-3.22674">
        <ele>121.5</ele>
        <time>2011-05-26T12:08:37Z</time>
      </trkpt>
      <trkpt lat="47.81259" lon="-3.22661">
        <ele>124.3</ele>
        <time>2011-05-26T12:08:39Z</time>
      </trkpt>
      <trkpt lat="47.81262" lon="-3.22655">
        <ele>126</ele>
        <time>2011-05-26T12:08:40Z</time>
      </trkpt>
      <trkpt lat="47.81271" lon="-3.22649">
        <ele>124.9</ele>
        <time>2011-05-26T12:08:41Z</time>
      </trkpt>
      <trkpt lat="47.81277" lon="-3.22641">
        <ele>125.8</ele>
        <time>2011-05-26T12:08:42Z</time>
      </trkpt>
      <trkpt lat="47.81278" lon="-3.22629">
        <ele>128.7</ele>
        <time>2011-05-26T12:08:43Z</time>
      </trkpt>
      <trkpt lat="47.81283" lon="-3.22623">
        <ele>129</ele>
        <time>2011-05-26T12:08:44Z</time>
      </trkpt>
      <trkpt lat="47.81286" lon="-3.22617">
        <ele>129.6</ele>
        <time>2011-05-26T12:08:46Z</time>
      </trkpt>
      <trkpt lat="47.81288" lon="-3.22611">
        <ele>128.8</ele>
        <time>2011-05-26T12:08:47Z</time>
      </trkpt>
      <trkpt lat="47.81292" lon="-3.22604">
        <ele>129.6</ele>
        <time>2011-05-26T12:08:48Z</time>
      </trkpt>
      <trkpt lat="47.81296" lon="-3.226">
        <ele>129.9</ele>
        <time>2011-05-26T12:08:49Z</time>
      </trkpt>
      <trkpt lat="47.81304" lon="-3.22599">
        <ele>122.6</ele>
        <time>2011-05-26T12:08:50Z</time>
      </trkpt>
      <trkpt lat="47.81308" lon="-3.22596">
        <ele>121.1</ele>
        <time>2011-05-26T12:08:51Z</time>
      </trkpt>
      <trkpt lat="47.81316" lon="-3.22595">
        <ele>121.1</ele>
        <time>2011-05-26T12:08:53Z</time>
      </trkpt>
      <trkpt lat="47.81322" lon="-3.2259">
        <ele>120.3</ele>
        <time>2011-05-26T12:08:55Z</time>
      </trkpt>
      <trkpt lat="47.81328" lon="-3.22582">
        <ele>117.2</ele>
        <time>2011-05-26T12:08:57Z</time>
      </trkpt>
      <trkpt lat="47.81332" lon="-3.22578">
        <ele>115.6</ele>
        <time>2011-05-26T12:08:58Z</time>
      </trkpt>
      <trkpt lat="47.8133" lon="-3.22584">
        <ele>126</ele>
        <time>2011-05-26T12:09:03Z</time>
      </trkpt>
      <trkpt lat="47.81334" lon="-3.22586">
        <ele>128.1</ele>
        <time>2011-05-26T12:09:05Z</time>
      </trkpt>
      <trkpt lat="47.81339" lon="-3.22587">
        <ele>129</ele>
        <time>2011-05-26T12:09:07Z</time>
      </trkpt>
      <trkpt lat="47.81344" lon="-3.22586">
        <ele>131.2</ele>
        <time>2011-05-26T12:09:09Z</time>
      </trkpt>
      <trkpt lat="47.81351" lon="-3.22582">
        <ele>137.1</ele>
        <time>2011-05-26T12:09:11Z</time>
      </trkpt>
      <trkpt lat="47.81358" lon="-3.22583">
        <ele>143.8</ele>
        <time>2011-05-26T12:09:13Z</time>
      </trkpt>
      <trkpt lat="47.81365" lon="-3.22588">
        <ele>147.2</ele>
        <time>2011-05-26T12:09:16Z</time>
      </trkpt>
      <trkpt lat="47.81372" lon="-3.22589">
        <ele>147.2</ele>
        <time>2011-05-26T12:09:18Z</time>
      </trkpt>
      <trkpt lat="47.81378" lon="-3.22588">
        <ele>147.6</ele>
        <time>2011-05-26T12:09:20Z</time>
      </trkpt>
      <trkpt lat="47.81384" lon="-3.22594">
        <ele>141.3</ele>
        <time>2011-05-26T12:09:22Z</time>
      </trkpt>
      <trkpt lat="47.81386" lon="-3.226">
        <ele>141.1</ele>
        <time>2011-05-26T12:09:25Z</time>
      </trkpt>
      <trkpt lat="47.8139" lon="-3.22609">
        <ele>139.3</ele>
        <time>2011-05-26T12:09:29Z</time>
      </trkpt>
      <trkpt lat="47.81393" lon="-3.22619">
        <ele>134.4</ele>
        <time>2011-05-26T12:09:31Z</time>
      </trkpt>
      <trkpt lat="47.81397" lon="-3.22624">
        <ele>133.2</ele>
        <time>2011-05-26T12:09:32Z</time>
      </trkpt>
      <trkpt lat="47.81402" lon="-3.22632">
        <ele>133</ele>
        <time>2011-05-26T12:09:35Z</time>
      </trkpt>
      <trkpt lat="47.81408" lon="-3.22642">
        <ele>133.3</ele>
        <time>2011-05-26T12:09:38Z</time>
      </trkpt>
      <trkpt lat="47.8141" lon="-3.22648">
        <ele>133</ele>
        <time>2011-05-26T12:09:39Z</time>
      </trkpt>
      <trkpt lat="47.81405" lon="-3.22648">
        <ele>133.1</ele>
        <time>2011-05-26T12:09:41Z</time>
      </trkpt>
      <trkpt lat="47.81409" lon="-3.22654">
        <ele>134.7</ele>
        <time>2011-05-26T12:09:48Z</time>
      </trkpt>
      <trkpt lat="47.81411" lon="-3.22661">
        <ele>136.8</ele>
        <time>2011-05-26T12:09:50Z</time>
      </trkpt>
      <trkpt lat="47.81414" lon="-3.22668">
        <ele>138.4</ele>
        <time>2011-05-26T12:09:51Z</time>
      </trkpt>
      <trkpt lat="47.81416" lon="-3.2268">
        <ele>147.5</ele>
        <time>2011-05-26T12:09:54Z</time>
      </trkpt>
      <trkpt lat="47.81418" lon="-3.2269">
        <ele>150.4</ele>
        <time>2011-05-26T12:09:57Z</time>
      </trkpt>
      <trkpt lat="47.81422" lon="-3.227">
        <ele>149.1</ele>
        <time>2011-05-26T12:09:58Z</time>
      </trkpt>
      <trkpt lat="47.81426" lon="-3.22713">
        <ele>149.3</ele>
        <time>2011-05-26T12:10:00Z</time>
      </trkpt>
      <trkpt lat="47.81425" lon="-3.22722">
        <ele>148.5</ele>
        <time>2011-05-26T12:10:02Z</time>
      </trkpt>
      <trkpt lat="47.81424" lon="-3.2273">
        <ele>146.5</ele>
        <time>2011-05-26T12:10:04Z</time>
      </trkpt>
      <trkpt lat="47.81427" lon="-3.22735">
        <ele>151.7</ele>
        <time>2011-05-26T12:10:07Z</time>
      </trkpt>
      <trkpt lat="47.81431" lon="-3.22743">
        <ele>156.6</ele>
        <time>2011-05-26T12:10:09Z</time>
      </trkpt>
      <trkpt lat="47.81433" lon="-3.22752">
        <ele>157.4</ele>
        <time>2011-05-26T12:10:11Z</time>
      </trkpt>
      <trkpt lat="47.81437" lon="-3.22761">
        <ele>157</ele>
        <time>2011-05-26T12:10:13Z</time>
      </trkpt>
      <trkpt lat="47.8144" lon="-3.22769">
        <ele>157.2</ele>
        <time>2011-05-26T12:10:15Z</time>
      </trkpt>
      <trkpt lat="47.81443" lon="-3.22781">
        <ele>155.2</ele>
        <time>2011-05-26T12:10:16Z</time>
      </trkpt>
      <trkpt lat="47.81445" lon="-3.22788">
        <ele>153.9</ele>
        <time>2011-05-26T12:10:18Z</time>
      </trkpt>
      <trkpt lat="47.81447" lon="-3.22794">
        <ele>151.4</ele>
        <time>2011-05-26T12:10:19Z</time>
      </trkpt>
      <trkpt lat="47.8145" lon="-3.22807">
        <ele>152.5</ele>
        <time>2011-05-26T12:10:22Z</time>
      </trkpt>
      <trkpt lat="47.81454" lon="-3.22817">
        <ele>146.9</ele>
        <time>2011-05-26T12:10:25Z</time>
      </trkpt>
      <trkpt lat="47.81451" lon="-3.22824">
        <ele>149.3</ele>
        <time>2011-05-26T12:10:26Z</time>
      </trkpt>
      <trkpt lat="47.81449" lon="-3.22834">
        <ele>148.2</ele>
        <time>2011-05-26T12:10:28Z</time>
      </trkpt>
      <trkpt lat="47.81447" lon="-3.22842">
        <ele>147.8</ele>
        <time>2011-05-26T12:10:30Z</time>
      </trkpt>
      <trkpt lat="47.81445" lon="-3.22855">
        <ele>149.2</ele>
        <time>2011-05-26T12:10:32Z</time>
      </trkpt>
      <trkpt lat="47.81443" lon="-3.22862">
        <ele>146.7</ele>
        <time>2011-05-26T12:10:33Z</time>
      </trkpt>
      <trkpt lat="47.81442" lon="-3.22869">
        <ele>141.5</ele>
        <time>2011-05-26T12:10:34Z</time>
      </trkpt>
      <trkpt lat="47.81442" lon="-3.22876">
        <ele>141.6</ele>
        <time>2011-05-26T12:10:35Z</time>
      </trkpt>
      <trkpt lat="47.81442" lon="-3.22884">
        <ele>143.2</ele>
        <time>2011-05-26T12:10:37Z</time>
      </trkpt>
      <trkpt lat="47.81446" lon="-3.22893">
        <ele>135.6</ele>
        <time>2011-05-26T12:10:40Z</time>
      </trkpt>
      <trkpt lat="47.81448" lon="-3.229">
        <ele>135.1</ele>
        <time>2011-05-26T12:10:43Z</time>
      </trkpt>
      <trkpt lat="47.81451" lon="-3.22907">
        <ele>135.1</ele>
        <time>2011-05-26T12:10:44Z</time>
      </trkpt>
      <trkpt lat="47.81453" lon="-3.22914">
        <ele>132.9</ele>
        <time>2011-05-26T12:10:45Z</time>
      </trkpt>
      <trkpt lat="47.81457" lon="-3.22926">
        <ele>132.1</ele>
        <time>2011-05-26T12:10:47Z</time>
      </trkpt>
      <trkpt lat="47.8146" lon="-3.22933">
        <ele>132</ele>
        <time>2011-05-26T12:10:48Z</time>
      </trkpt>
      <trkpt lat="47.81466" lon="-3.22934">
        <ele>131.2</ele>
        <time>2011-05-26T12:10:50Z</time>
      </trkpt>
      <trkpt lat="47.8147" lon="-3.22943">
        <ele>129.6</ele>
        <time>2011-05-26T12:10:51Z</time>
      </trkpt>
      <trkpt lat="47.81473" lon="-3.22949">
        <ele>128.6</ele>
        <time>2011-05-26T12:10:52Z</time>
      </trkpt>
      <trkpt lat="47.81479" lon="-3.22956">
        <ele>125.9</ele>
        <time>2011-05-26T12:10:54Z</time>
      </trkpt>
      <trkpt lat="47.81483" lon="-3.22961">
        <ele>125.1</ele>
        <time>2011-05-26T12:10:55Z</time>
      </trkpt>
      <trkpt lat="47.8149" lon="-3.2296">
        <ele>124.1</ele>
        <time>2011-05-26T12:10:57Z</time>
      </trkpt>
      <trkpt lat="47.81497" lon="-3.22958">
        <ele>125.3</ele>
        <time>2011-05-26T12:10:59Z</time>
      </trkpt>
      <trkpt lat="47.81504" lon="-3.22956">
        <ele>124.9</ele>
        <time>2011-05-26T12:11:01Z</time>
      </trkpt>
      <trkpt lat="47.81515" lon="-3.22959">
        <ele>121.2</ele>
        <time>2011-05-26T12:11:03Z</time>
      </trkpt>
      <trkpt lat="47.8152" lon="-3.22955">
        <ele>122.7</ele>
        <time>2011-05-26T12:11:05Z</time>
      </trkpt>
      <trkpt lat="47.81521" lon="-3.22941">
        <ele>119.3</ele>
        <time>2011-05-26T12:11:08Z</time>
      </trkpt>
      <trkpt lat="47.81524" lon="-3.22934">
        <ele>120.4</ele>
        <time>2011-05-26T12:11:09Z</time>
      </trkpt>
      <trkpt lat="47.81528" lon="-3.22925">
        <ele>119.8</ele>
        <time>2011-05-26T12:11:11Z</time>
      </trkpt>
      <trkpt lat="47.81531" lon="-3.22919">
        <ele>120</ele>
        <time>2011-05-26T12:11:12Z</time>
      </trkpt>
      <trkpt lat="47.81531" lon="-3.22911">
        <ele>118.1</ele>
        <time>2011-05-26T12:11:13Z</time>
      </trkpt>
      <trkpt lat="47.81535" lon="-3.22902">
        <ele>117.6</ele>
        <time>2011-05-26T12:11:15Z</time>
      </trkpt>
      <trkpt lat="47.8154" lon="-3.22894">
        <ele>117.2</ele>
        <time>2011-05-26T12:11:17Z</time>
      </trkpt>
      <trkpt lat="47.81544" lon="-3.22887">
        <ele>116.3</ele>
        <time>2011-05-26T12:11:19Z</time>
      </trkpt>
      <trkpt lat="47.81549" lon="-3.22877">
        <ele>116.9</ele>
        <time>2011-05-26T12:11:21Z</time>
      </trkpt>
      <trkpt lat="47.81551" lon="-3.22869">
        <ele>114.7</ele>
        <time>2011-05-26T12:11:22Z</time>
      </trkpt>
      <trkpt lat="47.81554" lon="-3.22864">
        <ele>115.3</ele>
        <time>2011-05-26T12:11:23Z</time>
      </trkpt>
      <trkpt lat="47.81558" lon="-3.22858">
        <ele>115.3</ele>
        <time>2011-05-26T12:11:24Z</time>
      </trkpt>
      <trkpt lat="47.81559" lon="-3.22851">
        <ele>113.5</ele>
        <time>2011-05-26T12:11:25Z</time>
      </trkpt>
      <trkpt lat="47.81565" lon="-3.22841">
        <ele>112.8</ele>
        <time>2011-05-26T12:11:27Z</time>
      </trkpt>
      <trkpt lat="47.81567" lon="-3.22835">
        <ele>120</ele>
        <time>2011-05-26T12:11:30Z</time>
      </trkpt>
      <trkpt lat="47.81573" lon="-3.2283">
        <ele>122</ele>
        <time>2011-05-26T12:11:32Z</time>
      </trkpt>
      <trkpt lat="47.81576" lon="-3.22824">
        <ele>121.4</ele>
        <time>2011-05-26T12:11:33Z</time>
      </trkpt>
      <trkpt lat="47.8158" lon="-3.22817">
        <ele>117.6</ele>
        <time>2011-05-26T12:11:34Z</time>
      </trkpt>
      <trkpt lat="47.81584" lon="-3.22813">
        <ele>117.6</ele>
        <time>2011-05-26T12:11:35Z</time>
      </trkpt>
      <trkpt lat="47.81587" lon="-3.22807">
        <ele>116.8</ele>
        <time>2011-05-26T12:11:36Z</time>
      </trkpt>
      <trkpt lat="47.81593" lon="-3.22799">
        <ele>118.3</ele>
        <time>2011-05-26T12:11:38Z</time>
      </trkpt>
      <trkpt lat="47.81598" lon="-3.2279">
        <ele>119.5</ele>
        <time>2011-05-26T12:11:40Z</time>
      </trkpt>
      <trkpt lat="47.81597" lon="-3.2278">
        <ele>120</ele>
        <time>2011-05-26T12:11:42Z</time>
      </trkpt>
      <trkpt lat="47.81601" lon="-3.22771">
        <ele>120.4</ele>
        <time>2011-05-26T12:11:44Z</time>
      </trkpt>
      <trkpt lat="47.81604" lon="-3.22764">
        <ele>121.5</ele>
        <time>2011-05-26T12:11:46Z</time>
      </trkpt>
      <trkpt lat="47.81607" lon="-3.22754">
        <ele>120.6</ele>
        <time>2011-05-26T12:11:48Z</time>
      </trkpt>
      <trkpt lat="47.81611" lon="-3.22747">
        <ele>122.5</ele>
        <time>2011-05-26T12:11:56Z</time>
      </trkpt>
      <trkpt lat="47.81615" lon="-3.22742">
        <ele>122.9</ele>
        <time>2011-05-26T12:11:59Z</time>
      </trkpt>
      <trkpt lat="47.8162" lon="-3.22741">
        <ele>121.8</ele>
        <time>2011-05-26T12:12:02Z</time>
      </trkpt>
      <trkpt lat="47.81622" lon="-3.22734">
        <ele>122.2</ele>
        <time>2011-05-26T12:12:06Z</time>
      </trkpt>
      <trkpt lat="47.81626" lon="-3.22733">
        <ele>119.6</ele>
        <time>2011-05-26T12:12:14Z</time>
      </trkpt>
      <trkpt lat="47.81632" lon="-3.22733">
        <ele>121</ele>
        <time>2011-05-26T12:12:21Z</time>
      </trkpt>
      <trkpt lat="47.81638" lon="-3.22736">
        <ele>116.8</ele>
        <time>2011-05-26T12:12:23Z</time>
      </trkpt>
      <trkpt lat="47.81642" lon="-3.22739">
        <ele>118.6</ele>
        <time>2011-05-26T12:12:25Z</time>
      </trkpt>
      <trkpt lat="47.81647" lon="-3.22735">
        <ele>117.6</ele>
        <time>2011-05-26T12:12:27Z</time>
      </trkpt>
      <trkpt lat="47.81651" lon="-3.22732">
        <ele>117.8</ele>
        <time>2011-05-26T12:12:29Z</time>
      </trkpt>
      <trkpt lat="47.81656" lon="-3.2273">
        <ele>117.5</ele>
        <time>2011-05-26T12:12:31Z</time>
      </trkpt>
      <trkpt lat="47.81662" lon="-3.22743">
        <ele>116.8</ele>
        <time>2011-05-26T12:12:34Z</time>
      </trkpt>
      <trkpt lat="47.81666" lon="-3.22748">
        <ele>117.9</ele>
        <time>2011-05-26T12:12:35Z</time>
      </trkpt>
      <trkpt lat="47.81672" lon="-3.22756">
        <ele>118.1</ele>
        <time>2011-05-26T12:12:37Z</time>
      </trkpt>
      <trkpt lat="47.81678" lon="-3.22761">
        <ele>119.8</ele>
        <time>2011-05-26T12:12:39Z</time>
      </trkpt>
      <trkpt lat="47.81686" lon="-3.22764">
        <ele>120.4</ele>
        <time>2011-05-26T12:12:41Z</time>
      </trkpt>
      <trkpt lat="47.81691" lon="-3.22768">
        <ele>120.3</ele>
        <time>2011-05-26T12:12:42Z</time>
      </trkpt>
      <trkpt lat="47.81698" lon="-3.22769">
        <ele>121.1</ele>
        <time>2011-05-26T12:12:44Z</time>
      </trkpt>
      <trkpt lat="47.81702" lon="-3.22767">
        <ele>121.1</ele>
        <time>2011-05-26T12:12:45Z</time>
      </trkpt>
      <trkpt lat="47.81708" lon="-3.22769">
        <ele>121</ele>
        <time>2011-05-26T12:12:47Z</time>
      </trkpt>
      <trkpt lat="47.81716" lon="-3.22764">
        <ele>121.1</ele>
        <time>2011-05-26T12:12:49Z</time>
      </trkpt>
      <trkpt lat="47.81723" lon="-3.22767">
        <ele>120.5</ele>
        <time>2011-05-26T12:12:51Z</time>
      </trkpt>
      <trkpt lat="47.81731" lon="-3.22764">
        <ele>122.3</ele>
        <time>2011-05-26T12:12:52Z</time>
      </trkpt>
      <trkpt lat="47.81731" lon="-3.22756">
        <ele>121.5</ele>
        <time>2011-05-26T12:12:53Z</time>
      </trkpt>
      <trkpt lat="47.81739" lon="-3.22752">
        <ele>122.7</ele>
        <time>2011-05-26T12:12:55Z</time>
      </trkpt>
      <trkpt lat="47.81745" lon="-3.22753">
        <ele>124.8</ele>
        <time>2011-05-26T12:12:57Z</time>
      </trkpt>
      <trkpt lat="47.81753" lon="-3.22753">
        <ele>124.6</ele>
        <time>2011-05-26T12:12:58Z</time>
      </trkpt>
      <trkpt lat="47.8176" lon="-3.22755">
        <ele>123.1</ele>
        <time>2011-05-26T12:13:00Z</time>
      </trkpt>
      <trkpt lat="47.81767" lon="-3.22756">
        <ele>121</ele>
        <time>2011-05-26T12:13:02Z</time>
      </trkpt>
      <trkpt lat="47.81773" lon="-3.22759">
        <ele>123.3</ele>
        <time>2011-05-26T12:13:04Z</time>
      </trkpt>
      <trkpt lat="47.81783" lon="-3.22761">
        <ele>123.4</ele>
        <time>2011-05-26T12:13:06Z</time>
      </trkpt>
      <trkpt lat="47.81788" lon="-3.2276">
        <ele>125.4</ele>
        <time>2011-05-26T12:13:07Z</time>
      </trkpt>
      <trkpt lat="47.81792" lon="-3.22764">
        <ele>125.3</ele>
        <time>2011-05-26T12:13:08Z</time>
      </trkpt>
      <trkpt lat="47.81802" lon="-3.2276">
        <ele>115.6</ele>
        <time>2011-05-26T12:13:10Z</time>
      </trkpt>
      <trkpt lat="47.81806" lon="-3.22755">
        <ele>115.1</ele>
        <time>2011-05-26T12:13:11Z</time>
      </trkpt>
      <trkpt lat="47.8181" lon="-3.22752">
        <ele>115.9</ele>
        <time>2011-05-26T12:13:13Z</time>
      </trkpt>
      <trkpt lat="47.81817" lon="-3.22746">
        <ele>124.5</ele>
        <time>2011-05-26T12:13:15Z</time>
      </trkpt>
      <trkpt lat="47.81821" lon="-3.22741">
        <ele>126.5</ele>
        <time>2011-05-26T12:13:17Z</time>
      </trkpt>
      <trkpt lat="47.81824" lon="-3.22734">
        <ele>125.3</ele>
        <time>2011-05-26T12:13:20Z</time>
      </trkpt>
      <trkpt lat="47.81831" lon="-3.22731">
        <ele>124.9</ele>
        <time>2011-05-26T12:13:23Z</time>
      </trkpt>
      <trkpt lat="47.81835" lon="-3.22724">
        <ele>124.6</ele>
        <time>2011-05-26T12:13:26Z</time>
      </trkpt>
      <trkpt lat="47.81843" lon="-3.2273">
        <ele>121.3</ele>
        <time>2011-05-26T12:13:27Z</time>
      </trkpt>
      <trkpt lat="47.8185" lon="-3.2273">
        <ele>118.6</ele>
        <time>2011-05-26T12:13:29Z</time>
      </trkpt>
      <trkpt lat="47.81861" lon="-3.22728">
        <ele>116.9</ele>
        <time>2011-05-26T12:13:31Z</time>
      </trkpt>
      <trkpt lat="47.81868" lon="-3.22727">
        <ele>115.9</ele>
        <time>2011-05-26T12:13:32Z</time>
      </trkpt>
      <trkpt lat="47.81873" lon="-3.22728">
        <ele>114.8</ele>
        <time>2011-05-26T12:13:33Z</time>
      </trkpt>
      <trkpt lat="47.81878" lon="-3.22729">
        <ele>114.3</ele>
        <time>2011-05-26T12:13:34Z</time>
      </trkpt>
      <trkpt lat="47.81883" lon="-3.22728">
        <ele>113.7</ele>
        <time>2011-05-26T12:13:35Z</time>
      </trkpt>
      <trkpt lat="47.8189" lon="-3.22734">
        <ele>114.7</ele>
        <time>2011-05-26T12:13:37Z</time>
      </trkpt>
      <trkpt lat="47.81894" lon="-3.22739">
        <ele>115.8</ele>
        <time>2011-05-26T12:13:38Z</time>
      </trkpt>
      <trkpt lat="47.81901" lon="-3.22746">
        <ele>116</ele>
        <time>2011-05-26T12:13:40Z</time>
      </trkpt>
      <trkpt lat="47.81907" lon="-3.22751">
        <ele>115.6</ele>
        <time>2011-05-26T12:13:42Z</time>
      </trkpt>
      <trkpt lat="47.81919" lon="-3.22758">
        <ele>116</ele>
        <time>2011-05-26T12:13:43Z</time>
      </trkpt>
      <trkpt lat="47.81925" lon="-3.22763">
        <ele>117.9</ele>
        <time>2011-05-26T12:13:44Z</time>
      </trkpt>
      <trkpt lat="47.81929" lon="-3.22766">
        <ele>121.3</ele>
        <time>2011-05-26T12:13:45Z</time>
      </trkpt>
      <trkpt lat="47.81934" lon="-3.2277">
        <ele>125.5</ele>
        <time>2011-05-26T12:13:46Z</time>
      </trkpt>
      <trkpt lat="47.8194" lon="-3.22769">
        <ele>127.1</ele>
        <time>2011-05-26T12:13:48Z</time>
      </trkpt>
      <trkpt lat="47.81945" lon="-3.22768">
        <ele>126.3</ele>
        <time>2011-05-26T12:13:50Z</time>
      </trkpt>
      <trkpt lat="47.81945" lon="-3.2276">
        <ele>129.6</ele>
        <time>2011-05-26T12:13:51Z</time>
      </trkpt>
      <trkpt lat="47.81949" lon="-3.22757">
        <ele>127.5</ele>
        <time>2011-05-26T12:13:52Z</time>
      </trkpt>
      <trkpt lat="47.81955" lon="-3.22748">
        <ele>124.8</ele>
        <time>2011-05-26T12:13:54Z</time>
      </trkpt>
      <trkpt lat="47.81959" lon="-3.22744">
        <ele>124.7</ele>
        <time>2011-05-26T12:13:56Z</time>
      </trkpt>
      <trkpt lat="47.81962" lon="-3.22736">
        <ele>125.5</ele>
        <time>2011-05-26T12:13:58Z</time>
      </trkpt>
      <trkpt lat="47.81967" lon="-3.22731">
        <ele>126.6</ele>
        <time>2011-05-26T12:14:01Z</time>
      </trkpt>
      <trkpt lat="47.81971" lon="-3.22722">
        <ele>126.3</ele>
        <time>2011-05-26T12:14:02Z</time>
      </trkpt>
      <trkpt lat="47.81973" lon="-3.22716">
        <ele>128</ele>
        <time>2011-05-26T12:14:03Z</time>
      </trkpt>
      <trkpt lat="47.81971" lon="-3.22706">
        <ele>129.2</ele>
        <time>2011-05-26T12:14:04Z</time>
      </trkpt>
      <trkpt lat="47.81974" lon="-3.22698">
        <ele>130.9</ele>
        <time>2011-05-26T12:14:06Z</time>
      </trkpt>
      <trkpt lat="47.81976" lon="-3.2269">
        <ele>131.5</ele>
        <time>2011-05-26T12:14:07Z</time>
      </trkpt>
      <trkpt lat="47.81983" lon="-3.22666">
        <ele>126.8</ele>
        <time>2011-05-26T12:14:09Z</time>
      </trkpt>
      <trkpt lat="47.81984" lon="-3.22656">
        <ele>124.6</ele>
        <time>2011-05-26T12:14:10Z</time>
      </trkpt>
      <trkpt lat="47.81986" lon="-3.22645">
        <ele>124.7</ele>
        <time>2011-05-26T12:14:12Z</time>
      </trkpt>
      <trkpt lat="47.81985" lon="-3.22637">
        <ele>123.2</ele>
        <time>2011-05-26T12:14:15Z</time>
      </trkpt>
      <trkpt lat="47.81988" lon="-3.22643">
        <ele>126.2</ele>
        <time>2011-05-26T12:14:16Z</time>
      </trkpt>
      <trkpt lat="47.81994" lon="-3.22636">
        <ele>124.1</ele>
        <time>2011-05-26T12:14:18Z</time>
      </trkpt>
      <trkpt lat="47.82002" lon="-3.22633">
        <ele>122.8</ele>
        <time>2011-05-26T12:14:20Z</time>
      </trkpt>
      <trkpt lat="47.82006" lon="-3.22632">
        <ele>122.1</ele>
        <time>2011-05-26T12:14:21Z</time>
      </trkpt>
      <trkpt lat="47.82015" lon="-3.22628">
        <ele>122</ele>
        <time>2011-05-26T12:14:23Z</time>
      </trkpt>
      <trkpt lat="47.82016" lon="-3.22621">
        <ele>120.5</ele>
        <time>2011-05-26T12:14:27Z</time>
      </trkpt>
      <trkpt lat="47.8202" lon="-3.22616">
        <ele>117.5</ele>
        <time>2011-05-26T12:14:33Z</time>
      </trkpt>
      <trkpt lat="47.82024" lon="-3.22606">
        <ele>115.7</ele>
        <time>2011-05-26T12:14:35Z</time>
      </trkpt>
      <trkpt lat="47.82029" lon="-3.22597">
        <ele>109.3</ele>
        <time>2011-05-26T12:14:39Z</time>
      </trkpt>
      <trkpt lat="47.82032" lon="-3.22592">
        <ele>107.4</ele>
        <time>2011-05-26T12:14:42Z</time>
      </trkpt>
      <trkpt lat="47.82034" lon="-3.22586">
        <ele>102.6</ele>
        <time>2011-05-26T12:14:46Z</time>
      </trkpt>
      <trkpt lat="47.82039" lon="-3.22571">
        <ele>103.5</ele>
        <time>2011-05-26T12:14:49Z</time>
      </trkpt>
      <trkpt lat="47.82041" lon="-3.22565">
        <ele>105.5</ele>
        <time>2011-05-26T12:14:50Z</time>
      </trkpt>
      <trkpt lat="47.82045" lon="-3.22558">
        <ele>109.7</ele>
        <time>2011-05-26T12:14:52Z</time>
      </trkpt>
      <trkpt lat="47.82051" lon="-3.22552">
        <ele>109.3</ele>
        <time>2011-05-26T12:14:54Z</time>
      </trkpt>
      <trkpt lat="47.82055" lon="-3.22545">
        <ele>109.1</ele>
        <time>2011-05-26T12:14:56Z</time>
      </trkpt>
      <trkpt lat="47.8206" lon="-3.22538">
        <ele>110</ele>
        <time>2011-05-26T12:14:58Z</time>
      </trkpt>
      <trkpt lat="47.82065" lon="-3.2253">
        <ele>111.5</ele>
        <time>2011-05-26T12:15:00Z</time>
      </trkpt>
      <trkpt lat="47.82069" lon="-3.22524">
        <ele>110.4</ele>
        <time>2011-05-26T12:15:02Z</time>
      </trkpt>
      <trkpt lat="47.8207" lon="-3.22516">
        <ele>110.4</ele>
        <time>2011-05-26T12:15:04Z</time>
      </trkpt>
      <trkpt lat="47.82072" lon="-3.22509">
        <ele>110.7</ele>
        <time>2011-05-26T12:15:06Z</time>
      </trkpt>
      <trkpt lat="47.82079" lon="-3.22503">
        <ele>109.3</ele>
        <time>2011-05-26T12:15:08Z</time>
      </trkpt>
      <trkpt lat="47.82085" lon="-3.22497">
        <ele>107.9</ele>
        <time>2011-05-26T12:15:10Z</time>
      </trkpt>
      <trkpt lat="47.82089" lon="-3.22492">
        <ele>107.6</ele>
        <time>2011-05-26T12:15:11Z</time>
      </trkpt>
      <trkpt lat="47.82096" lon="-3.2249">
        <ele>112.3</ele>
        <time>2011-05-26T12:15:15Z</time>
      </trkpt>
      <trkpt lat="47.821" lon="-3.22488">
        <ele>114.1</ele>
        <time>2011-05-26T12:15:17Z</time>
      </trkpt>
      <trkpt lat="47.82104" lon="-3.22485">
        <ele>113.4</ele>
        <time>2011-05-26T12:15:19Z</time>
      </trkpt>
      <trkpt lat="47.8211" lon="-3.22481">
        <ele>113.9</ele>
        <time>2011-05-26T12:15:20Z</time>
      </trkpt>
      <trkpt lat="47.82116" lon="-3.22475">
        <ele>110.7</ele>
        <time>2011-05-26T12:15:22Z</time>
      </trkpt>
      <trkpt lat="47.82123" lon="-3.2247">
        <ele>109.4</ele>
        <time>2011-05-26T12:15:24Z</time>
      </trkpt>
      <trkpt lat="47.82129" lon="-3.22466">
        <ele>109.6</ele>
        <time>2011-05-26T12:15:26Z</time>
      </trkpt>
      <trkpt lat="47.82135" lon="-3.22459">
        <ele>110.1</ele>
        <time>2011-05-26T12:15:28Z</time>
      </trkpt>
      <trkpt lat="47.82136" lon="-3.22452">
        <ele>108.2</ele>
        <time>2011-05-26T12:15:31Z</time>
      </trkpt>
      <trkpt lat="47.8214" lon="-3.22441">
        <ele>107.6</ele>
        <time>2011-05-26T12:15:33Z</time>
      </trkpt>
      <trkpt lat="47.82144" lon="-3.22435">
        <ele>106.6</ele>
        <time>2011-05-26T12:15:35Z</time>
      </trkpt>
      <trkpt lat="47.8215" lon="-3.22435">
        <ele>107.3</ele>
        <time>2011-05-26T12:15:36Z</time>
      </trkpt>
      <trkpt lat="47.82158" lon="-3.22433">
        <ele>108.9</ele>
        <time>2011-05-26T12:15:38Z</time>
      </trkpt>
      <trkpt lat="47.82162" lon="-3.22437">
        <ele>108.7</ele>
        <time>2011-05-26T12:15:40Z</time>
      </trkpt>
      <trkpt lat="47.82168" lon="-3.22439">
        <ele>103.3</ele>
        <time>2011-05-26T12:15:44Z</time>
      </trkpt>
      <trkpt lat="47.82173" lon="-3.22436">
        <ele>95.3</ele>
        <time>2011-05-26T12:15:47Z</time>
      </trkpt>
      <trkpt lat="47.82179" lon="-3.22437">
        <ele>93.6</ele>
        <time>2011-05-26T12:15:49Z</time>
      </trkpt>
      <trkpt lat="47.82184" lon="-3.22443">
        <ele>93</ele>
        <time>2011-05-26T12:15:52Z</time>
      </trkpt>
      <trkpt lat="47.8219" lon="-3.22448">
        <ele>93.3</ele>
        <time>2011-05-26T12:15:54Z</time>
      </trkpt>
      <trkpt lat="47.82195" lon="-3.2245">
        <ele>92</ele>
        <time>2011-05-26T12:15:57Z</time>
      </trkpt>
      <trkpt lat="47.822" lon="-3.22449">
        <ele>91.6</ele>
        <time>2011-05-26T12:16:00Z</time>
      </trkpt>
      <trkpt lat="47.82205" lon="-3.22449">
        <ele>91.5</ele>
        <time>2011-05-26T12:16:02Z</time>
      </trkpt>
      <trkpt lat="47.82212" lon="-3.22452">
        <ele>91.8</ele>
        <time>2011-05-26T12:16:04Z</time>
      </trkpt>
      <trkpt lat="47.82219" lon="-3.22457">
        <ele>94.2</ele>
        <time>2011-05-26T12:16:06Z</time>
      </trkpt>
      <trkpt lat="47.82225" lon="-3.22458">
        <ele>94.9</ele>
        <time>2011-05-26T12:16:08Z</time>
      </trkpt>
      <trkpt lat="47.8223" lon="-3.22463">
        <ele>95.2</ele>
        <time>2011-05-26T12:16:11Z</time>
      </trkpt>
      <trkpt lat="47.82236" lon="-3.22462">
        <ele>100.7</ele>
        <time>2011-05-26T12:16:15Z</time>
      </trkpt>
      <trkpt lat="47.82241" lon="-3.22459">
        <ele>100.9</ele>
        <time>2011-05-26T12:16:17Z</time>
      </trkpt>
      <trkpt lat="47.82248" lon="-3.22459">
        <ele>101.7</ele>
        <time>2011-05-26T12:16:19Z</time>
      </trkpt>
      <trkpt lat="47.82256" lon="-3.22458">
        <ele>103.7</ele>
        <time>2011-05-26T12:16:21Z</time>
      </trkpt>
      <trkpt lat="47.82262" lon="-3.22456">
        <ele>100.9</ele>
        <time>2011-05-26T12:16:23Z</time>
      </trkpt>
      <trkpt lat="47.82268" lon="-3.22458">
        <ele>101.2</ele>
        <time>2011-05-26T12:16:25Z</time>
      </trkpt>
      <trkpt lat="47.82274" lon="-3.22462">
        <ele>108.5</ele>
        <time>2011-05-26T12:16:28Z</time>
      </trkpt>
      <trkpt lat="47.82279" lon="-3.22455">
        <ele>115</ele>
        <time>2011-05-26T12:16:31Z</time>
      </trkpt>
      <trkpt lat="47.82283" lon="-3.22448">
        <ele>109.1</ele>
        <time>2011-05-26T12:16:32Z</time>
      </trkpt>
      <trkpt lat="47.82286" lon="-3.22441">
        <ele>109</ele>
        <time>2011-05-26T12:16:34Z</time>
      </trkpt>
      <trkpt lat="47.8229" lon="-3.22436">
        <ele>110.3</ele>
        <time>2011-05-26T12:16:35Z</time>
      </trkpt>
      <trkpt lat="47.82294" lon="-3.22426">
        <ele>105.7</ele>
        <time>2011-05-26T12:16:37Z</time>
      </trkpt>
      <trkpt lat="47.82298" lon="-3.22419">
        <ele>109.7</ele>
        <time>2011-05-26T12:16:40Z</time>
      </trkpt>
      <trkpt lat="47.82304" lon="-3.22412">
        <ele>111.1</ele>
        <time>2011-05-26T12:16:42Z</time>
      </trkpt>
      <trkpt lat="47.8231" lon="-3.2241">
        <ele>110.4</ele>
        <time>2011-05-26T12:16:44Z</time>
      </trkpt>
      <trkpt lat="47.82316" lon="-3.22403">
        <ele>107.4</ele>
        <time>2011-05-26T12:16:46Z</time>
      </trkpt>
      <trkpt lat="47.82315" lon="-3.22394">
        <ele>104.1</ele>
        <time>2011-05-26T12:16:49Z</time>
      </trkpt>
      <trkpt lat="47.82319" lon="-3.22389">
        <ele>100.8</ele>
        <time>2011-05-26T12:16:51Z</time>
      </trkpt>
      <trkpt lat="47.82323" lon="-3.22386">
        <ele>102.3</ele>
        <time>2011-05-26T12:16:53Z</time>
      </trkpt>
      <trkpt lat="47.82327" lon="-3.22378">
        <ele>102.3</ele>
        <time>2011-05-26T12:16:55Z</time>
      </trkpt>
      <trkpt lat="47.82332" lon="-3.22369">
        <ele>104.6</ele>
        <time>2011-05-26T12:16:57Z</time>
      </trkpt>
      <trkpt lat="47.82337" lon="-3.22362">
        <ele>104.6</ele>
        <time>2011-05-26T12:16:59Z</time>
      </trkpt>
      <trkpt lat="47.82341" lon="-3.22353">
        <ele>102.4</ele>
        <time>2011-05-26T12:17:01Z</time>
      </trkpt>
      <trkpt lat="47.82344" lon="-3.22349">
        <ele>102.3</ele>
        <time>2011-05-26T12:17:03Z</time>
      </trkpt>
      <trkpt lat="47.82346" lon="-3.2234">
        <ele>102.1</ele>
        <time>2011-05-26T12:17:05Z</time>
      </trkpt>
      <trkpt lat="47.82352" lon="-3.22332">
        <ele>101.4</ele>
        <time>2011-05-26T12:17:07Z</time>
      </trkpt>
      <trkpt lat="47.82356" lon="-3.22325">
        <ele>101.9</ele>
        <time>2011-05-26T12:17:09Z</time>
      </trkpt>
      <trkpt lat="47.82358" lon="-3.22316">
        <ele>103.3</ele>
        <time>2011-05-26T12:17:11Z</time>
      </trkpt>
      <trkpt lat="47.82362" lon="-3.22308">
        <ele>105.3</ele>
        <time>2011-05-26T12:17:13Z</time>
      </trkpt>
      <trkpt lat="47.82366" lon="-3.22302">
        <ele>106.9</ele>
        <time>2011-05-26T12:17:15Z</time>
      </trkpt>
      <trkpt lat="47.8237" lon="-3.22294">
        <ele>107.9</ele>
        <time>2011-05-26T12:17:17Z</time>
      </trkpt>
      <trkpt lat="47.82369" lon="-3.22282">
        <ele>108.9</ele>
        <time>2011-05-26T12:17:19Z</time>
      </trkpt>
      <trkpt lat="47.82371" lon="-3.22271">
        <ele>108.3</ele>
        <time>2011-05-26T12:17:21Z</time>
      </trkpt>
      <trkpt lat="47.82376" lon="-3.22259">
        <ele>105.9</ele>
        <time>2011-05-26T12:17:24Z</time>
      </trkpt>
      <trkpt lat="47.8238" lon="-3.2225">
        <ele>104.3</ele>
        <time>2011-05-26T12:17:26Z</time>
      </trkpt>
      <trkpt lat="47.82383" lon="-3.22239">
        <ele>104.9</ele>
        <time>2011-05-26T12:17:28Z</time>
      </trkpt>
      <trkpt lat="47.82385" lon="-3.2223">
        <ele>102.7</ele>
        <time>2011-05-26T12:17:29Z</time>
      </trkpt>
      <trkpt lat="47.82388" lon="-3.22219">
        <ele>103.5</ele>
        <time>2011-05-26T12:17:31Z</time>
      </trkpt>
      <trkpt lat="47.82389" lon="-3.22207">
        <ele>103.1</ele>
        <time>2011-05-26T12:17:33Z</time>
      </trkpt>
      <trkpt lat="47.82389" lon="-3.22198">
        <ele>103.2</ele>
        <time>2011-05-26T12:17:35Z</time>
      </trkpt>
      <trkpt lat="47.82391" lon="-3.22189">
        <ele>102.8</ele>
        <time>2011-05-26T12:17:37Z</time>
      </trkpt>
      <trkpt lat="47.82393" lon="-3.2218">
        <ele>102.2</ele>
        <time>2011-05-26T12:17:38Z</time>
      </trkpt>
      <trkpt lat="47.82394" lon="-3.22173">
        <ele>100.7</ele>
        <time>2011-05-26T12:17:39Z</time>
      </trkpt>
      <trkpt lat="47.82398" lon="-3.22166">
        <ele>101.2</ele>
        <time>2011-05-26T12:17:40Z</time>
      </trkpt>
      <trkpt lat="47.82396" lon="-3.22158">
        <ele>100.9</ele>
        <time>2011-05-26T12:17:41Z</time>
      </trkpt>
      <trkpt lat="47.82398" lon="-3.22149">
        <ele>102.1</ele>
        <time>2011-05-26T12:17:43Z</time>
      </trkpt>
      <trkpt lat="47.82397" lon="-3.22141">
        <ele>103.6</ele>
        <time>2011-05-26T12:17:45Z</time>
      </trkpt>
      <trkpt lat="47.824" lon="-3.2213">
        <ele>104.2</ele>
        <time>2011-05-26T12:17:47Z</time>
      </trkpt>
      <trkpt lat="47.82402" lon="-3.2212">
        <ele>104.6</ele>
        <time>2011-05-26T12:17:49Z</time>
      </trkpt>
      <trkpt lat="47.82397" lon="-3.22119">
        <ele>106.6</ele>
        <time>2011-05-26T12:17:50Z</time>
      </trkpt>
      <trkpt lat="47.82398" lon="-3.22107">
        <ele>107.1</ele>
        <time>2011-05-26T12:17:52Z</time>
      </trkpt>
      <trkpt lat="47.82396" lon="-3.22098">
        <ele>108.1</ele>
        <time>2011-05-26T12:17:53Z</time>
      </trkpt>
      <trkpt lat="47.82391" lon="-3.22092">
        <ele>103.7</ele>
        <time>2011-05-26T12:17:54Z</time>
      </trkpt>
      <trkpt lat="47.82387" lon="-3.22085">
        <ele>103.5</ele>
        <time>2011-05-26T12:17:56Z</time>
      </trkpt>
      <trkpt lat="47.82382" lon="-3.22082">
        <ele>104</ele>
        <time>2011-05-26T12:17:58Z</time>
      </trkpt>
      <trkpt lat="47.82377" lon="-3.22081">
        <ele>106.7</ele>
        <time>2011-05-26T12:18:01Z</time>
      </trkpt>
      <trkpt lat="47.82373" lon="-3.22076">
        <ele>107.2</ele>
        <time>2011-05-26T12:18:04Z</time>
      </trkpt>
      <trkpt lat="47.82378" lon="-3.22071">
        <ele>104.4</ele>
        <time>2011-05-26T12:18:09Z</time>
      </trkpt>
      <trkpt lat="47.82383" lon="-3.22071">
        <ele>103.2</ele>
        <time>2011-05-26T12:18:11Z</time>
      </trkpt>
      <trkpt lat="47.82389" lon="-3.22072">
        <ele>101.7</ele>
        <time>2011-05-26T12:18:13Z</time>
      </trkpt>
      <trkpt lat="47.82396" lon="-3.22069">
        <ele>101.1</ele>
        <time>2011-05-26T12:18:15Z</time>
      </trkpt>
      <trkpt lat="47.82402" lon="-3.22063">
        <ele>100.2</ele>
        <time>2011-05-26T12:18:17Z</time>
      </trkpt>
      <trkpt lat="47.82408" lon="-3.22052">
        <ele>99.5</ele>
        <time>2011-05-26T12:18:19Z</time>
      </trkpt>
      <trkpt lat="47.82409" lon="-3.22043">
        <ele>99.4</ele>
        <time>2011-05-26T12:18:20Z</time>
      </trkpt>
      <trkpt lat="47.8241" lon="-3.22036">
        <ele>100</ele>
        <time>2011-05-26T12:18:21Z</time>
      </trkpt>
      <trkpt lat="47.82412" lon="-3.22028">
        <ele>99.6</ele>
        <time>2011-05-26T12:18:22Z</time>
      </trkpt>
      <trkpt lat="47.82412" lon="-3.22019">
        <ele>98.9</ele>
        <time>2011-05-26T12:18:23Z</time>
      </trkpt>
      <trkpt lat="47.82412" lon="-3.22011">
        <ele>98.8</ele>
        <time>2011-05-26T12:18:24Z</time>
      </trkpt>
      <trkpt lat="47.82412" lon="-3.22004">
        <ele>98.9</ele>
        <time>2011-05-26T12:18:25Z</time>
      </trkpt>
      <trkpt lat="47.82412" lon="-3.21996">
        <ele>98.6</ele>
        <time>2011-05-26T12:18:26Z</time>
      </trkpt>
      <trkpt lat="47.82412" lon="-3.21986">
        <ele>99.7</ele>
        <time>2011-05-26T12:18:27Z</time>
      </trkpt>
      <trkpt lat="47.82414" lon="-3.21979">
        <ele>99.7</ele>
        <time>2011-05-26T12:18:29Z</time>
      </trkpt>
      <trkpt lat="47.82415" lon="-3.21971">
        <ele>99.2</ele>
        <time>2011-05-26T12:18:31Z</time>
      </trkpt>
      <trkpt lat="47.82412" lon="-3.21961">
        <ele>98.2</ele>
        <time>2011-05-26T12:18:33Z</time>
      </trkpt>
      <trkpt lat="47.8241" lon="-3.21954">
        <ele>99.2</ele>
        <time>2011-05-26T12:18:34Z</time>
      </trkpt>
      <trkpt lat="47.82407" lon="-3.21948">
        <ele>101.8</ele>
        <time>2011-05-26T12:18:35Z</time>
      </trkpt>
      <trkpt lat="47.824" lon="-3.21945">
        <ele>103.4</ele>
        <time>2011-05-26T12:18:37Z</time>
      </trkpt>
      <trkpt lat="47.8239" lon="-3.21942">
        <ele>101.8</ele>
        <time>2011-05-26T12:18:39Z</time>
      </trkpt>
      <trkpt lat="47.82385" lon="-3.21938">
        <ele>103</ele>
        <time>2011-05-26T12:18:41Z</time>
      </trkpt>
      <trkpt lat="47.82381" lon="-3.21935">
        <ele>103.5</ele>
        <time>2011-05-26T12:18:42Z</time>
      </trkpt>
      <trkpt lat="47.82374" lon="-3.21931">
        <ele>105.3</ele>
        <time>2011-05-26T12:18:43Z</time>
      </trkpt>
      <trkpt lat="47.82369" lon="-3.21929">
        <ele>105.6</ele>
        <time>2011-05-26T12:18:44Z</time>
      </trkpt>
      <trkpt lat="47.82358" lon="-3.21926">
        <ele>104.1</ele>
        <time>2011-05-26T12:18:45Z</time>
      </trkpt>
      <trkpt lat="47.82349" lon="-3.21923">
        <ele>103.9</ele>
        <time>2011-05-26T12:18:46Z</time>
      </trkpt>
      <trkpt lat="47.82345" lon="-3.21922">
        <ele>103.7</ele>
        <time>2011-05-26T12:18:47Z</time>
      </trkpt>
      <trkpt lat="47.82339" lon="-3.2192">
        <ele>104.4</ele>
        <time>2011-05-26T12:18:48Z</time>
      </trkpt>
      <trkpt lat="47.82332" lon="-3.21915">
        <ele>105</ele>
        <time>2011-05-26T12:18:50Z</time>
      </trkpt>
      <trkpt lat="47.82322" lon="-3.21914">
        <ele>104.8</ele>
        <time>2011-05-26T12:18:52Z</time>
      </trkpt>
      <trkpt lat="47.82315" lon="-3.21914">
        <ele>104.7</ele>
        <time>2011-05-26T12:18:54Z</time>
      </trkpt>
      <trkpt lat="47.82305" lon="-3.21913">
        <ele>106.5</ele>
        <time>2011-05-26T12:18:56Z</time>
      </trkpt>
      <trkpt lat="47.823" lon="-3.21905">
        <ele>106.9</ele>
        <time>2011-05-26T12:18:58Z</time>
      </trkpt>
      <trkpt lat="47.82296" lon="-3.21901">
        <ele>111.4</ele>
        <time>2011-05-26T12:19:01Z</time>
      </trkpt>
      <trkpt lat="47.82295" lon="-3.21885">
        <ele>109.9</ele>
        <time>2011-05-26T12:19:04Z</time>
      </trkpt>
      <trkpt lat="47.82295" lon="-3.21878">
        <ele>108.6</ele>
        <time>2011-05-26T12:19:05Z</time>
      </trkpt>
      <trkpt lat="47.82296" lon="-3.2187">
        <ele>109.2</ele>
        <time>2011-05-26T12:19:06Z</time>
      </trkpt>
      <trkpt lat="47.82297" lon="-3.2186">
        <ele>108.9</ele>
        <time>2011-05-26T12:19:07Z</time>
      </trkpt>
      <trkpt lat="47.82299" lon="-3.21852">
        <ele>109</ele>
        <time>2011-05-26T12:19:08Z</time>
      </trkpt>
      <trkpt lat="47.82302" lon="-3.21838">
        <ele>109.1</ele>
        <time>2011-05-26T12:19:09Z</time>
      </trkpt>
      <trkpt lat="47.82304" lon="-3.21823">
        <ele>109.7</ele>
        <time>2011-05-26T12:19:11Z</time>
      </trkpt>
      <trkpt lat="47.82304" lon="-3.21808">
        <ele>110.4</ele>
        <time>2011-05-26T12:19:12Z</time>
      </trkpt>
      <trkpt lat="47.82305" lon="-3.21799">
        <ele>110.4</ele>
        <time>2011-05-26T12:19:13Z</time>
      </trkpt>
      <trkpt lat="47.82307" lon="-3.21792">
        <ele>111.6</ele>
        <time>2011-05-26T12:19:14Z</time>
      </trkpt>
      <trkpt lat="47.82308" lon="-3.21784">
        <ele>112.2</ele>
        <time>2011-05-26T12:19:15Z</time>
      </trkpt>
      <trkpt lat="47.82306" lon="-3.21771">
        <ele>112.8</ele>
        <time>2011-05-26T12:19:17Z</time>
      </trkpt>
      <trkpt lat="47.82305" lon="-3.21764">
        <ele>112.6</ele>
        <time>2011-05-26T12:19:18Z</time>
      </trkpt>
      <trkpt lat="47.82297" lon="-3.21758">
        <ele>112.3</ele>
        <time>2011-05-26T12:19:20Z</time>
      </trkpt>
      <trkpt lat="47.82292" lon="-3.21755">
        <ele>112.5</ele>
        <time>2011-05-26T12:19:21Z</time>
      </trkpt>
      <trkpt lat="47.82288" lon="-3.2175">
        <ele>113.2</ele>
        <time>2011-05-26T12:19:23Z</time>
      </trkpt>
      <trkpt lat="47.82282" lon="-3.21743">
        <ele>115.8</ele>
        <time>2011-05-26T12:19:25Z</time>
      </trkpt>
      <trkpt lat="47.82281" lon="-3.21737">
        <ele>115.2</ele>
        <time>2011-05-26T12:19:26Z</time>
      </trkpt>
      <trkpt lat="47.82273" lon="-3.21729">
        <ele>115.7</ele>
        <time>2011-05-26T12:19:27Z</time>
      </trkpt>
      <trkpt lat="47.82273" lon="-3.21716">
        <ele>115.7</ele>
        <time>2011-05-26T12:19:28Z</time>
      </trkpt>
      <trkpt lat="47.82271" lon="-3.21709">
        <ele>115.9</ele>
        <time>2011-05-26T12:19:29Z</time>
      </trkpt>
      <trkpt lat="47.82264" lon="-3.21706">
        <ele>117.3</ele>
        <time>2011-05-26T12:19:31Z</time>
      </trkpt>
      <trkpt lat="47.82264" lon="-3.21691">
        <ele>119.4</ele>
        <time>2011-05-26T12:19:34Z</time>
      </trkpt>
      <trkpt lat="47.82266" lon="-3.21684">
        <ele>118.9</ele>
        <time>2011-05-26T12:19:35Z</time>
      </trkpt>
      <trkpt lat="47.82268" lon="-3.21672">
        <ele>119.3</ele>
        <time>2011-05-26T12:19:37Z</time>
      </trkpt>
      <trkpt lat="47.82273" lon="-3.21661">
        <ele>119.1</ele>
        <time>2011-05-26T12:19:38Z</time>
      </trkpt>
      <trkpt lat="47.82276" lon="-3.21655">
        <ele>120.2</ele>
        <time>2011-05-26T12:19:39Z</time>
      </trkpt>
      <trkpt lat="47.8228" lon="-3.21638">
        <ele>118.9</ele>
        <time>2011-05-26T12:19:41Z</time>
      </trkpt>
      <trkpt lat="47.82276" lon="-3.21629">
        <ele>120.5</ele>
        <time>2011-05-26T12:19:42Z</time>
      </trkpt>
      <trkpt lat="47.82278" lon="-3.21619">
        <ele>121.6</ele>
        <time>2011-05-26T12:19:44Z</time>
      </trkpt>
      <trkpt lat="47.82279" lon="-3.2161">
        <ele>123.2</ele>
        <time>2011-05-26T12:19:45Z</time>
      </trkpt>
      <trkpt lat="47.82275" lon="-3.21599">
        <ele>122.7</ele>
        <time>2011-05-26T12:19:47Z</time>
      </trkpt>
      <trkpt lat="47.82276" lon="-3.21591">
        <ele>127.7</ele>
        <time>2011-05-26T12:19:49Z</time>
      </trkpt>
      <trkpt lat="47.82274" lon="-3.21583">
        <ele>123</ele>
        <time>2011-05-26T12:19:50Z</time>
      </trkpt>
      <trkpt lat="47.82272" lon="-3.21569">
        <ele>120.9</ele>
        <time>2011-05-26T12:19:52Z</time>
      </trkpt>
      <trkpt lat="47.82272" lon="-3.21561">
        <ele>120.3</ele>
        <time>2011-05-26T12:19:53Z</time>
      </trkpt>
      <trkpt lat="47.82272" lon="-3.21553">
        <ele>120.3</ele>
        <time>2011-05-26T12:19:55Z</time>
      </trkpt>
      <trkpt lat="47.82267" lon="-3.2154">
        <ele>116.6</ele>
        <time>2011-05-26T12:19:56Z</time>
      </trkpt>
      <trkpt lat="47.82264" lon="-3.21534">
        <ele>115.8</ele>
        <time>2011-05-26T12:19:57Z</time>
      </trkpt>
      <trkpt lat="47.8226" lon="-3.21529">
        <ele>118.8</ele>
        <time>2011-05-26T12:19:59Z</time>
      </trkpt>
      <trkpt lat="47.82258" lon="-3.21521">
        <ele>116.7</ele>
        <time>2011-05-26T12:20:00Z</time>
      </trkpt>
      <trkpt lat="47.82255" lon="-3.21513">
        <ele>119.9</ele>
        <time>2011-05-26T12:20:02Z</time>
      </trkpt>
      <trkpt lat="47.8225" lon="-3.21508">
        <ele>120</ele>
        <time>2011-05-26T12:20:04Z</time>
      </trkpt>
      <trkpt lat="47.82245" lon="-3.215">
        <ele>121.1</ele>
        <time>2011-05-26T12:20:06Z</time>
      </trkpt>
      <trkpt lat="47.82242" lon="-3.21488">
        <ele>122.1</ele>
        <time>2011-05-26T12:20:08Z</time>
      </trkpt>
      <trkpt lat="47.82241" lon="-3.2148">
        <ele>124</ele>
        <time>2011-05-26T12:20:10Z</time>
      </trkpt>
      <trkpt lat="47.82239" lon="-3.2147">
        <ele>124.8</ele>
        <time>2011-05-26T12:20:12Z</time>
      </trkpt>
      <trkpt lat="47.82236" lon="-3.21462">
        <ele>129.4</ele>
        <time>2011-05-26T12:20:14Z</time>
      </trkpt>
      <trkpt lat="47.82233" lon="-3.21456">
        <ele>131</ele>
        <time>2011-05-26T12:20:16Z</time>
      </trkpt>
      <trkpt lat="47.8223" lon="-3.21443">
        <ele>134.2</ele>
        <time>2011-05-26T12:20:19Z</time>
      </trkpt>
      <trkpt lat="47.82225" lon="-3.2144">
        <ele>134.6</ele>
        <time>2011-05-26T12:20:20Z</time>
      </trkpt>
      <trkpt lat="47.82227" lon="-3.21429">
        <ele>134.3</ele>
        <time>2011-05-26T12:20:22Z</time>
      </trkpt>
      <trkpt lat="47.82228" lon="-3.2142">
        <ele>133.5</ele>
        <time>2011-05-26T12:20:24Z</time>
      </trkpt>
      <trkpt lat="47.82224" lon="-3.21414">
        <ele>136.6</ele>
        <time>2011-05-26T12:20:27Z</time>
      </trkpt>
      <trkpt lat="47.82218" lon="-3.21404">
        <ele>139.6</ele>
        <time>2011-05-26T12:20:29Z</time>
      </trkpt>
      <trkpt lat="47.8222" lon="-3.2139">
        <ele>139.9</ele>
        <time>2011-05-26T12:20:31Z</time>
      </trkpt>
      <trkpt lat="47.82222" lon="-3.21381">
        <ele>140.2</ele>
        <time>2011-05-26T12:20:33Z</time>
      </trkpt>
      <trkpt lat="47.82222" lon="-3.2137">
        <ele>139.1</ele>
        <time>2011-05-26T12:20:35Z</time>
      </trkpt>
      <trkpt lat="47.82223" lon="-3.21357">
        <ele>138.5</ele>
        <time>2011-05-26T12:20:37Z</time>
      </trkpt>
      <trkpt lat="47.82223" lon="-3.21345">
        <ele>138</ele>
        <time>2011-05-26T12:20:39Z</time>
      </trkpt>
      <trkpt lat="47.82225" lon="-3.21338">
        <ele>134.7</ele>
        <time>2011-05-26T12:20:40Z</time>
      </trkpt>
      <trkpt lat="47.82226" lon="-3.21327">
        <ele>131.1</ele>
        <time>2011-05-26T12:20:42Z</time>
      </trkpt>
      <trkpt lat="47.82225" lon="-3.21318">
        <ele>134.5</ele>
        <time>2011-05-26T12:20:44Z</time>
      </trkpt>
      <trkpt lat="47.82225" lon="-3.21309">
        <ele>136.8</ele>
        <time>2011-05-26T12:20:46Z</time>
      </trkpt>
      <trkpt lat="47.82223" lon="-3.21301">
        <ele>136.4</ele>
        <time>2011-05-26T12:20:48Z</time>
      </trkpt>
      <trkpt lat="47.82223" lon="-3.21294">
        <ele>136.1</ele>
        <time>2011-05-26T12:20:49Z</time>
      </trkpt>
      <trkpt lat="47.82223" lon="-3.21284">
        <ele>136.3</ele>
        <time>2011-05-26T12:20:51Z</time>
      </trkpt>
      <trkpt lat="47.82224" lon="-3.2127">
        <ele>135.6</ele>
        <time>2011-05-26T12:20:53Z</time>
      </trkpt>
      <trkpt lat="47.82225" lon="-3.21256">
        <ele>133.8</ele>
        <time>2011-05-26T12:20:55Z</time>
      </trkpt>
      <trkpt lat="47.82227" lon="-3.21245">
        <ele>132.8</ele>
        <time>2011-05-26T12:20:57Z</time>
      </trkpt>
      <trkpt lat="47.82227" lon="-3.21237">
        <ele>129.9</ele>
        <time>2011-05-26T12:20:59Z</time>
      </trkpt>
      <trkpt lat="47.82228" lon="-3.21229">
        <ele>130.3</ele>
        <time>2011-05-26T12:21:02Z</time>
      </trkpt>
      <trkpt lat="47.82231" lon="-3.21224">
        <ele>130.4</ele>
        <time>2011-05-26T12:21:06Z</time>
      </trkpt>
      <trkpt lat="47.82228" lon="-3.21237">
        <ele>131.2</ele>
        <time>2011-05-26T12:21:24Z</time>
      </trkpt>
      <trkpt lat="47.82228" lon="-3.21244">
        <ele>129.7</ele>
        <time>2011-05-26T12:21:26Z</time>
      </trkpt>
      <trkpt lat="47.82228" lon="-3.21251">
        <ele>126.5</ele>
        <time>2011-05-26T12:21:32Z</time>
      </trkpt>
      <trkpt lat="47.82231" lon="-3.21257">
        <ele>126</ele>
        <time>2011-05-26T12:21:36Z</time>
      </trkpt>
      <trkpt lat="47.82233" lon="-3.21262">
        <ele>125.2</ele>
        <time>2011-05-26T12:21:40Z</time>
      </trkpt>
      <trkpt lat="47.82242" lon="-3.21268">
        <ele>117.7</ele>
        <time>2011-05-26T12:21:44Z</time>
      </trkpt>
      <trkpt lat="47.82248" lon="-3.21272">
        <ele>114.4</ele>
        <time>2011-05-26T12:21:47Z</time>
      </trkpt>
      <trkpt lat="47.82252" lon="-3.21272">
        <ele>110.9</ele>
        <time>2011-05-26T12:21:51Z</time>
      </trkpt>
      <trkpt lat="47.82257" lon="-3.2127">
        <ele>110.7</ele>
        <time>2011-05-26T12:21:54Z</time>
      </trkpt>
      <trkpt lat="47.82263" lon="-3.21268">
        <ele>112.8</ele>
        <time>2011-05-26T12:21:57Z</time>
      </trkpt>
      <trkpt lat="47.82268" lon="-3.21265">
        <ele>112.8</ele>
        <time>2011-05-26T12:21:59Z</time>
      </trkpt>
      <trkpt lat="47.82274" lon="-3.21264">
        <ele>111.6</ele>
        <time>2011-05-26T12:22:00Z</time>
      </trkpt>
      <trkpt lat="47.82281" lon="-3.21259">
        <ele>108.1</ele>
        <time>2011-05-26T12:22:03Z</time>
      </trkpt>
      <trkpt lat="47.82288" lon="-3.21265">
        <ele>109.1</ele>
        <time>2011-05-26T12:22:05Z</time>
      </trkpt>
      <trkpt lat="47.82295" lon="-3.21271">
        <ele>111.9</ele>
        <time>2011-05-26T12:22:08Z</time>
      </trkpt>
      <trkpt lat="47.82299" lon="-3.21276">
        <ele>112.6</ele>
        <time>2011-05-26T12:22:10Z</time>
      </trkpt>
      <trkpt lat="47.82306" lon="-3.2128">
        <ele>112.7</ele>
        <time>2011-05-26T12:22:12Z</time>
      </trkpt>
      <trkpt lat="47.82312" lon="-3.21287">
        <ele>112.6</ele>
        <time>2011-05-26T12:22:14Z</time>
      </trkpt>
      <trkpt lat="47.82318" lon="-3.21295">
        <ele>114</ele>
        <time>2011-05-26T12:22:16Z</time>
      </trkpt>
      <trkpt lat="47.82322" lon="-3.21301">
        <ele>114.3</ele>
        <time>2011-05-26T12:22:17Z</time>
      </trkpt>
      <trkpt lat="47.82326" lon="-3.21304">
        <ele>114.2</ele>
        <time>2011-05-26T12:22:18Z</time>
      </trkpt>
      <trkpt lat="47.82331" lon="-3.21314">
        <ele>113.8</ele>
        <time>2011-05-26T12:22:19Z</time>
      </trkpt>
      <trkpt lat="47.82337" lon="-3.21321">
        <ele>112.1</ele>
        <time>2011-05-26T12:22:20Z</time>
      </trkpt>
      <trkpt lat="47.82341" lon="-3.21325">
        <ele>112.9</ele>
        <time>2011-05-26T12:22:21Z</time>
      </trkpt>
      <trkpt lat="47.82346" lon="-3.21328">
        <ele>113.5</ele>
        <time>2011-05-26T12:22:22Z</time>
      </trkpt>
      <trkpt lat="47.82352" lon="-3.21337">
        <ele>113.9</ele>
        <time>2011-05-26T12:22:23Z</time>
      </trkpt>
      <trkpt lat="47.82356" lon="-3.21344">
        <ele>115.1</ele>
        <time>2011-05-26T12:22:24Z</time>
      </trkpt>
      <trkpt lat="47.8236" lon="-3.2135">
        <ele>115.1</ele>
        <time>2011-05-26T12:22:25Z</time>
      </trkpt>
      <trkpt lat="47.82364" lon="-3.21354">
        <ele>115.1</ele>
        <time>2011-05-26T12:22:26Z</time>
      </trkpt>
      <trkpt lat="47.82372" lon="-3.21362">
        <ele>111</ele>
        <time>2011-05-26T12:22:29Z</time>
      </trkpt>
      <trkpt lat="47.8238" lon="-3.21367">
        <ele>110.5</ele>
        <time>2011-05-26T12:22:31Z</time>
      </trkpt>
      <trkpt lat="47.82387" lon="-3.21371">
        <ele>110.6</ele>
        <time>2011-05-26T12:22:33Z</time>
      </trkpt>
      <trkpt lat="47.82391" lon="-3.21374">
        <ele>111.3</ele>
        <time>2011-05-26T12:22:34Z</time>
      </trkpt>
      <trkpt lat="47.82398" lon="-3.21383">
        <ele>112.3</ele>
        <time>2011-05-26T12:22:36Z</time>
      </trkpt>
      <trkpt lat="47.82404" lon="-3.21397">
        <ele>112.6</ele>
        <time>2011-05-26T12:22:38Z</time>
      </trkpt>
      <trkpt lat="47.82406" lon="-3.21404">
        <ele>113</ele>
        <time>2011-05-26T12:22:39Z</time>
      </trkpt>
      <trkpt lat="47.82411" lon="-3.21412">
        <ele>112.6</ele>
        <time>2011-05-26T12:22:41Z</time>
      </trkpt>
      <trkpt lat="47.82415" lon="-3.21419">
        <ele>115.2</ele>
        <time>2011-05-26T12:22:42Z</time>
      </trkpt>
      <trkpt lat="47.82421" lon="-3.21431">
        <ele>116.4</ele>
        <time>2011-05-26T12:22:44Z</time>
      </trkpt>
      <trkpt lat="47.82428" lon="-3.21449">
        <ele>117.6</ele>
        <time>2011-05-26T12:22:45Z</time>
      </trkpt>
      <trkpt lat="47.82431" lon="-3.21454">
        <ele>117.7</ele>
        <time>2011-05-26T12:22:46Z</time>
      </trkpt>
      <trkpt lat="47.82439" lon="-3.2146">
        <ele>117.7</ele>
        <time>2011-05-26T12:22:47Z</time>
      </trkpt>
      <trkpt lat="47.82445" lon="-3.21462">
        <ele>118.5</ele>
        <time>2011-05-26T12:22:48Z</time>
      </trkpt>
      <trkpt lat="47.82451" lon="-3.21462">
        <ele>119.1</ele>
        <time>2011-05-26T12:22:49Z</time>
      </trkpt>
      <trkpt lat="47.82456" lon="-3.21463">
        <ele>119.1</ele>
        <time>2011-05-26T12:22:50Z</time>
      </trkpt>
      <trkpt lat="47.8246" lon="-3.21459">
        <ele>120.3</ele>
        <time>2011-05-26T12:22:51Z</time>
      </trkpt>
      <trkpt lat="47.82467" lon="-3.21459">
        <ele>119.7</ele>
        <time>2011-05-26T12:22:53Z</time>
      </trkpt>
      <trkpt lat="47.82473" lon="-3.2146">
        <ele>120.2</ele>
        <time>2011-05-26T12:22:54Z</time>
      </trkpt>
      <trkpt lat="47.82476" lon="-3.21456">
        <ele>123.5</ele>
        <time>2011-05-26T12:22:56Z</time>
      </trkpt>
      <trkpt lat="47.8248" lon="-3.21451">
        <ele>126.1</ele>
        <time>2011-05-26T12:22:58Z</time>
      </trkpt>
      <trkpt lat="47.82486" lon="-3.21451">
        <ele>124.4</ele>
        <time>2011-05-26T12:23:00Z</time>
      </trkpt>
      <trkpt lat="47.82494" lon="-3.21455">
        <ele>121.6</ele>
        <time>2011-05-26T12:23:02Z</time>
      </trkpt>
      <trkpt lat="47.825" lon="-3.21456">
        <ele>124.5</ele>
        <time>2011-05-26T12:23:04Z</time>
      </trkpt>
      <trkpt lat="47.82506" lon="-3.21457">
        <ele>124.8</ele>
        <time>2011-05-26T12:23:06Z</time>
      </trkpt>
      <trkpt lat="47.82511" lon="-3.21459">
        <ele>122.7</ele>
        <time>2011-05-26T12:23:08Z</time>
      </trkpt>
      <trkpt lat="47.82517" lon="-3.21459">
        <ele>122.2</ele>
        <time>2011-05-26T12:23:10Z</time>
      </trkpt>
      <trkpt lat="47.82522" lon="-3.21461">
        <ele>125</ele>
        <time>2011-05-26T12:23:12Z</time>
      </trkpt>
      <trkpt lat="47.82528" lon="-3.21463">
        <ele>124.4</ele>
        <time>2011-05-26T12:23:14Z</time>
      </trkpt>
      <trkpt lat="47.82534" lon="-3.21463">
        <ele>133.4</ele>
        <time>2011-05-26T12:23:18Z</time>
      </trkpt>
      <trkpt lat="47.82541" lon="-3.21462">
        <ele>132</ele>
        <time>2011-05-26T12:23:20Z</time>
      </trkpt>
      <trkpt lat="47.82546" lon="-3.2146">
        <ele>131.5</ele>
        <time>2011-05-26T12:23:22Z</time>
      </trkpt>
      <trkpt lat="47.82553" lon="-3.21459">
        <ele>130.4</ele>
        <time>2011-05-26T12:23:24Z</time>
      </trkpt>
      <trkpt lat="47.82558" lon="-3.21456">
        <ele>130.8</ele>
        <time>2011-05-26T12:23:26Z</time>
      </trkpt>
      <trkpt lat="47.82564" lon="-3.21449">
        <ele>131.7</ele>
        <time>2011-05-26T12:23:28Z</time>
      </trkpt>
      <trkpt lat="47.82565" lon="-3.21441">
        <ele>132.1</ele>
        <time>2011-05-26T12:23:30Z</time>
      </trkpt>
      <trkpt lat="47.82564" lon="-3.21432">
        <ele>131.6</ele>
        <time>2011-05-26T12:23:32Z</time>
      </trkpt>
      <trkpt lat="47.82566" lon="-3.21422">
        <ele>132.3</ele>
        <time>2011-05-26T12:23:34Z</time>
      </trkpt>
      <trkpt lat="47.82568" lon="-3.21412">
        <ele>132.6</ele>
        <time>2011-05-26T12:23:36Z</time>
      </trkpt>
      <trkpt lat="47.8257" lon="-3.21402">
        <ele>131.5</ele>
        <time>2011-05-26T12:23:38Z</time>
      </trkpt>
      <trkpt lat="47.82571" lon="-3.21395">
        <ele>129.3</ele>
        <time>2011-05-26T12:23:39Z</time>
      </trkpt>
      <trkpt lat="47.82571" lon="-3.21385">
        <ele>127.4</ele>
        <time>2011-05-26T12:23:41Z</time>
      </trkpt>
      <trkpt lat="47.8257" lon="-3.21376">
        <ele>128.8</ele>
        <time>2011-05-26T12:23:43Z</time>
      </trkpt>
      <trkpt lat="47.82571" lon="-3.21368">
        <ele>129.7</ele>
        <time>2011-05-26T12:23:45Z</time>
      </trkpt>
      <trkpt lat="47.82572" lon="-3.21359">
        <ele>130</ele>
        <time>2011-05-26T12:23:47Z</time>
      </trkpt>
      <trkpt lat="47.82573" lon="-3.21352">
        <ele>130.5</ele>
        <time>2011-05-26T12:23:49Z</time>
      </trkpt>
      <trkpt lat="47.82578" lon="-3.21343">
        <ele>130.9</ele>
        <time>2011-05-26T12:23:52Z</time>
      </trkpt>
      <trkpt lat="47.82583" lon="-3.21335">
        <ele>130.7</ele>
        <time>2011-05-26T12:23:54Z</time>
      </trkpt>
      <trkpt lat="47.82588" lon="-3.21328">
        <ele>130.7</ele>
        <time>2011-05-26T12:23:56Z</time>
      </trkpt>
      <trkpt lat="47.82595" lon="-3.21325">
        <ele>131.3</ele>
        <time>2011-05-26T12:23:58Z</time>
      </trkpt>
      <trkpt lat="47.82601" lon="-3.21322">
        <ele>131.6</ele>
        <time>2011-05-26T12:24:00Z</time>
      </trkpt>
      <trkpt lat="47.82608" lon="-3.2132">
        <ele>132.1</ele>
        <time>2011-05-26T12:24:02Z</time>
      </trkpt>
      <trkpt lat="47.82618" lon="-3.21322">
        <ele>129.6</ele>
        <time>2011-05-26T12:24:04Z</time>
      </trkpt>
      <trkpt lat="47.82623" lon="-3.21315">
        <ele>129.7</ele>
        <time>2011-05-26T12:24:06Z</time>
      </trkpt>
      <trkpt lat="47.8263" lon="-3.21314">
        <ele>127.6</ele>
        <time>2011-05-26T12:24:08Z</time>
      </trkpt>
      <trkpt lat="47.82636" lon="-3.21312">
        <ele>126.2</ele>
        <time>2011-05-26T12:24:10Z</time>
      </trkpt>
      <trkpt lat="47.82641" lon="-3.21307">
        <ele>125.9</ele>
        <time>2011-05-26T12:24:12Z</time>
      </trkpt>
      <trkpt lat="47.82647" lon="-3.21304">
        <ele>124.2</ele>
        <time>2011-05-26T12:24:13Z</time>
      </trkpt>
      <trkpt lat="47.82655" lon="-3.21301">
        <ele>123.6</ele>
        <time>2011-05-26T12:24:15Z</time>
      </trkpt>
      <trkpt lat="47.8266" lon="-3.21293">
        <ele>123.1</ele>
        <time>2011-05-26T12:24:17Z</time>
      </trkpt>
      <trkpt lat="47.82661" lon="-3.21284">
        <ele>124.9</ele>
        <time>2011-05-26T12:24:20Z</time>
      </trkpt>
      <trkpt lat="47.82662" lon="-3.21276">
        <ele>126.2</ele>
        <time>2011-05-26T12:24:22Z</time>
      </trkpt>
      <trkpt lat="47.82666" lon="-3.21269">
        <ele>126.6</ele>
        <time>2011-05-26T12:24:24Z</time>
      </trkpt>
      <trkpt lat="47.82667" lon="-3.2126">
        <ele>125.6</ele>
        <time>2011-05-26T12:24:26Z</time>
      </trkpt>
      <trkpt lat="47.82669" lon="-3.21251">
        <ele>124.2</ele>
        <time>2011-05-26T12:24:27Z</time>
      </trkpt>
      <trkpt lat="47.82675" lon="-3.21242">
        <ele>123.3</ele>
        <time>2011-05-26T12:24:28Z</time>
      </trkpt>
      <trkpt lat="47.82679" lon="-3.21237">
        <ele>124</ele>
        <time>2011-05-26T12:24:29Z</time>
      </trkpt>
      <trkpt lat="47.82683" lon="-3.21226">
        <ele>124.1</ele>
        <time>2011-05-26T12:24:31Z</time>
      </trkpt>
      <trkpt lat="47.82689" lon="-3.21217">
        <ele>124.8</ele>
        <time>2011-05-26T12:24:33Z</time>
      </trkpt>
      <trkpt lat="47.82692" lon="-3.21209">
        <ele>123.5</ele>
        <time>2011-05-26T12:24:34Z</time>
      </trkpt>
      <trkpt lat="47.82696" lon="-3.21194">
        <ele>121.2</ele>
        <time>2011-05-26T12:24:36Z</time>
      </trkpt>
      <trkpt lat="47.827" lon="-3.21188">
        <ele>120.9</ele>
        <time>2011-05-26T12:24:37Z</time>
      </trkpt>
      <trkpt lat="47.82703" lon="-3.21182">
        <ele>120</ele>
        <time>2011-05-26T12:24:38Z</time>
      </trkpt>
      <trkpt lat="47.82707" lon="-3.21176">
        <ele>120</ele>
        <time>2011-05-26T12:24:39Z</time>
      </trkpt>
      <trkpt lat="47.8271" lon="-3.2117">
        <ele>119.5</ele>
        <time>2011-05-26T12:24:40Z</time>
      </trkpt>
      <trkpt lat="47.82714" lon="-3.21164">
        <ele>120.5</ele>
        <time>2011-05-26T12:24:41Z</time>
      </trkpt>
      <trkpt lat="47.82718" lon="-3.21158">
        <ele>119.7</ele>
        <time>2011-05-26T12:24:42Z</time>
      </trkpt>
      <trkpt lat="47.82721" lon="-3.21151">
        <ele>119.2</ele>
        <time>2011-05-26T12:24:43Z</time>
      </trkpt>
      <trkpt lat="47.82725" lon="-3.21144">
        <ele>119.2</ele>
        <time>2011-05-26T12:24:44Z</time>
      </trkpt>
      <trkpt lat="47.82728" lon="-3.21138">
        <ele>120.1</ele>
        <time>2011-05-26T12:24:45Z</time>
      </trkpt>
      <trkpt lat="47.82727" lon="-3.21124">
        <ele>124.2</ele>
        <time>2011-05-26T12:24:47Z</time>
      </trkpt>
      <trkpt lat="47.82735" lon="-3.2112">
        <ele>127.9</ele>
        <time>2011-05-26T12:24:50Z</time>
      </trkpt>
      <trkpt lat="47.8274" lon="-3.21117">
        <ele>129.5</ele>
        <time>2011-05-26T12:24:51Z</time>
      </trkpt>
      <trkpt lat="47.8275" lon="-3.21113">
        <ele>133.8</ele>
        <time>2011-05-26T12:24:52Z</time>
      </trkpt>
      <trkpt lat="47.82758" lon="-3.2111">
        <ele>135.2</ele>
        <time>2011-05-26T12:24:53Z</time>
      </trkpt>
      <trkpt lat="47.82764" lon="-3.21107">
        <ele>135.7</ele>
        <time>2011-05-26T12:24:54Z</time>
      </trkpt>
      <trkpt lat="47.8277" lon="-3.21104">
        <ele>134.8</ele>
        <time>2011-05-26T12:24:55Z</time>
      </trkpt>
      <trkpt lat="47.82775" lon="-3.21101">
        <ele>135</ele>
        <time>2011-05-26T12:24:56Z</time>
      </trkpt>
      <trkpt lat="47.8278" lon="-3.21098">
        <ele>133.5</ele>
        <time>2011-05-26T12:24:57Z</time>
      </trkpt>
      <trkpt lat="47.82787" lon="-3.21092">
        <ele>132.8</ele>
        <time>2011-05-26T12:24:58Z</time>
      </trkpt>
      <trkpt lat="47.82793" lon="-3.21089">
        <ele>132</ele>
        <time>2011-05-26T12:24:59Z</time>
      </trkpt>
      <trkpt lat="47.82799" lon="-3.21085">
        <ele>131.1</ele>
        <time>2011-05-26T12:25:00Z</time>
      </trkpt>
      <trkpt lat="47.82804" lon="-3.21081">
        <ele>130.8</ele>
        <time>2011-05-26T12:25:01Z</time>
      </trkpt>
      <trkpt lat="47.8281" lon="-3.21074">
        <ele>129.2</ele>
        <time>2011-05-26T12:25:02Z</time>
      </trkpt>
      <trkpt lat="47.82815" lon="-3.21068">
        <ele>128.1</ele>
        <time>2011-05-26T12:25:03Z</time>
      </trkpt>
      <trkpt lat="47.82823" lon="-3.2106">
        <ele>125.4</ele>
        <time>2011-05-26T12:25:04Z</time>
      </trkpt>
      <trkpt lat="47.82827" lon="-3.21054">
        <ele>125.3</ele>
        <time>2011-05-26T12:25:05Z</time>
      </trkpt>
      <trkpt lat="47.82831" lon="-3.21048">
        <ele>124.2</ele>
        <time>2011-05-26T12:25:06Z</time>
      </trkpt>
      <trkpt lat="47.82837" lon="-3.21042">
        <ele>125.2</ele>
        <time>2011-05-26T12:25:07Z</time>
      </trkpt>
      <trkpt lat="47.8284" lon="-3.21034">
        <ele>126.7</ele>
        <time>2011-05-26T12:25:08Z</time>
      </trkpt>
      <trkpt lat="47.82845" lon="-3.21022">
        <ele>125.3</ele>
        <time>2011-05-26T12:25:10Z</time>
      </trkpt>
      <trkpt lat="47.82851" lon="-3.21016">
        <ele>123.2</ele>
        <time>2011-05-26T12:25:11Z</time>
      </trkpt>
      <trkpt lat="47.82854" lon="-3.2101">
        <ele>123.2</ele>
        <time>2011-05-26T12:25:12Z</time>
      </trkpt>
      <trkpt lat="47.82856" lon="-3.20993">
        <ele>121.3</ele>
        <time>2011-05-26T12:25:13Z</time>
      </trkpt>
      <trkpt lat="47.8286" lon="-3.20984">
        <ele>120.8</ele>
        <time>2011-05-26T12:25:15Z</time>
      </trkpt>
      <trkpt lat="47.82863" lon="-3.20988">
        <ele>119.9</ele>
        <time>2011-05-26T12:25:17Z</time>
      </trkpt>
      <trkpt lat="47.8287" lon="-3.20994">
        <ele>119.9</ele>
        <time>2011-05-26T12:25:18Z</time>
      </trkpt>
      <trkpt lat="47.82873" lon="-3.21008">
        <ele>120.7</ele>
        <time>2011-05-26T12:25:23Z</time>
      </trkpt>
      <trkpt lat="47.82874" lon="-3.21024">
        <ele>121.5</ele>
        <time>2011-05-26T12:25:24Z</time>
      </trkpt>
      <trkpt lat="47.82876" lon="-3.21031">
        <ele>121.7</ele>
        <time>2011-05-26T12:25:25Z</time>
      </trkpt>
      <trkpt lat="47.82878" lon="-3.21042">
        <ele>121.6</ele>
        <time>2011-05-26T12:25:26Z</time>
      </trkpt>
      <trkpt lat="47.82881" lon="-3.21054">
        <ele>121.8</ele>
        <time>2011-05-26T12:25:27Z</time>
      </trkpt>
      <trkpt lat="47.82889" lon="-3.21071">
        <ele>119.5</ele>
        <time>2011-05-26T12:25:28Z</time>
      </trkpt>
      <trkpt lat="47.82891" lon="-3.21077">
        <ele>119.5</ele>
        <time>2011-05-26T12:25:29Z</time>
      </trkpt>
      <trkpt lat="47.8289" lon="-3.21094">
        <ele>118.1</ele>
        <time>2011-05-26T12:25:30Z</time>
      </trkpt>
      <trkpt lat="47.82892" lon="-3.21104">
        <ele>117.3</ele>
        <time>2011-05-26T12:25:31Z</time>
      </trkpt>
      <trkpt lat="47.82889" lon="-3.21111">
        <ele>114.6</ele>
        <time>2011-05-26T12:25:33Z</time>
      </trkpt>
      <trkpt lat="47.82895" lon="-3.21109">
        <ele>114.7</ele>
        <time>2011-05-26T12:25:35Z</time>
      </trkpt>
      <trkpt lat="47.829" lon="-3.21109">
        <ele>112.7</ele>
        <time>2011-05-26T12:25:36Z</time>
      </trkpt>
      <trkpt lat="47.82905" lon="-3.21103">
        <ele>110.3</ele>
        <time>2011-05-26T12:25:38Z</time>
      </trkpt>
      <trkpt lat="47.82908" lon="-3.21097">
        <ele>110.7</ele>
        <time>2011-05-26T12:25:39Z</time>
      </trkpt>
      <trkpt lat="47.82913" lon="-3.21092">
        <ele>104.1</ele>
        <time>2011-05-26T12:25:41Z</time>
      </trkpt>
      <trkpt lat="47.82917" lon="-3.21096">
        <ele>107</ele>
        <time>2011-05-26T12:25:49Z</time>
      </trkpt>
      <trkpt lat="47.82925" lon="-3.21102">
        <ele>107.4</ele>
        <time>2011-05-26T12:25:50Z</time>
      </trkpt>
      <trkpt lat="47.82931" lon="-3.21108">
        <ele>107.6</ele>
        <time>2011-05-26T12:25:52Z</time>
      </trkpt>
      <trkpt lat="47.82938" lon="-3.21111">
        <ele>104.6</ele>
        <time>2011-05-26T12:25:54Z</time>
      </trkpt>
      <trkpt lat="47.82941" lon="-3.21116">
        <ele>100.9</ele>
        <time>2011-05-26T12:25:57Z</time>
      </trkpt>
      <trkpt lat="47.82946" lon="-3.2112">
        <ele>97.5</ele>
        <time>2011-05-26T12:26:02Z</time>
      </trkpt>
      <trkpt lat="47.82947" lon="-3.21129">
        <ele>95.4</ele>
        <time>2011-05-26T12:26:05Z</time>
      </trkpt>
      <trkpt lat="47.82951" lon="-3.21129">
        <ele>99</ele>
        <time>2011-05-26T12:26:10Z</time>
      </trkpt>
      <trkpt lat="47.82957" lon="-3.21134">
        <ele>98.5</ele>
        <time>2011-05-26T12:26:13Z</time>
      </trkpt>
      <trkpt lat="47.8296" lon="-3.21143">
        <ele>97.7</ele>
        <time>2011-05-26T12:26:16Z</time>
      </trkpt>
      <trkpt lat="47.82964" lon="-3.2115">
        <ele>97.3</ele>
        <time>2011-05-26T12:26:18Z</time>
      </trkpt>
      <trkpt lat="47.82966" lon="-3.2116">
        <ele>95.7</ele>
        <time>2011-05-26T12:26:20Z</time>
      </trkpt>
      <trkpt lat="47.8297" lon="-3.21169">
        <ele>93</ele>
        <time>2011-05-26T12:26:22Z</time>
      </trkpt>
      <trkpt lat="47.82966" lon="-3.21181">
        <ele>88.1</ele>
        <time>2011-05-26T12:26:24Z</time>
      </trkpt>
      <trkpt lat="47.82963" lon="-3.21173">
        <ele>80.3</ele>
        <time>2011-05-26T12:26:27Z</time>
      </trkpt>
      <trkpt lat="47.82959" lon="-3.21177">
        <ele>73.9</ele>
        <time>2011-05-26T12:26:29Z</time>
      </trkpt>
      <trkpt lat="47.82963" lon="-3.2118">
        <ele>67.8</ele>
        <time>2011-05-26T12:26:37Z</time>
      </trkpt>
      <trkpt lat="47.82964" lon="-3.21187">
        <ele>68.4</ele>
        <time>2011-05-26T12:27:05Z</time>
      </trkpt>
      <trkpt lat="47.82968" lon="-3.21183">
        <ele>71.4</ele>
        <time>2011-05-26T12:27:25Z</time>
      </trkpt>
      <trkpt lat="47.82971" lon="-3.21177">
        <ele>70.8</ele>
        <time>2011-05-26T12:27:27Z</time>
      </trkpt>
      <trkpt lat="47.82975" lon="-3.21169">
        <ele>69.9</ele>
        <time>2011-05-26T12:27:29Z</time>
      </trkpt>
      <trkpt lat="47.82979" lon="-3.2116">
        <ele>68.3</ele>
        <time>2011-05-26T12:27:31Z</time>
      </trkpt>
      <trkpt lat="47.82985" lon="-3.21153">
        <ele>68.5</ele>
        <time>2011-05-26T12:27:33Z</time>
      </trkpt>
      <trkpt lat="47.82988" lon="-3.21142">
        <ele>67.8</ele>
        <time>2011-05-26T12:27:35Z</time>
      </trkpt>
      <trkpt lat="47.82993" lon="-3.21133">
        <ele>66.6</ele>
        <time>2011-05-26T12:27:37Z</time>
      </trkpt>
      <trkpt lat="47.82998" lon="-3.21127">
        <ele>66.3</ele>
        <time>2011-05-26T12:27:39Z</time>
      </trkpt>
      <trkpt lat="47.83005" lon="-3.21122">
        <ele>66.4</ele>
        <time>2011-05-26T12:27:41Z</time>
      </trkpt>
      <trkpt lat="47.83012" lon="-3.21115">
        <ele>66.9</ele>
        <time>2011-05-26T12:27:43Z</time>
      </trkpt>
      <trkpt lat="47.83016" lon="-3.21111">
        <ele>67.1</ele>
        <time>2011-05-26T12:27:44Z</time>
      </trkpt>
      <trkpt lat="47.83023" lon="-3.21102">
        <ele>66.2</ele>
        <time>2011-05-26T12:27:46Z</time>
      </trkpt>
      <trkpt lat="47.83033" lon="-3.21101">
        <ele>68.3</ele>
        <time>2011-05-26T12:27:48Z</time>
      </trkpt>
      <trkpt lat="47.83041" lon="-3.21099">
        <ele>69.3</ele>
        <time>2011-05-26T12:27:50Z</time>
      </trkpt>
      <trkpt lat="47.83047" lon="-3.21096">
        <ele>68.8</ele>
        <time>2011-05-26T12:27:52Z</time>
      </trkpt>
      <trkpt lat="47.83051" lon="-3.2109">
        <ele>68.4</ele>
        <time>2011-05-26T12:27:53Z</time>
      </trkpt>
      <trkpt lat="47.83064" lon="-3.21079">
        <ele>66.4</ele>
        <time>2011-05-26T12:27:55Z</time>
      </trkpt>
      <trkpt lat="47.83069" lon="-3.21075">
        <ele>65.5</ele>
        <time>2011-05-26T12:27:56Z</time>
      </trkpt>
      <trkpt lat="47.83074" lon="-3.21071">
        <ele>66.2</ele>
        <time>2011-05-26T12:27:57Z</time>
      </trkpt>
      <trkpt lat="47.83078" lon="-3.21065">
        <ele>65.1</ele>
        <time>2011-05-26T12:27:58Z</time>
      </trkpt>
      <trkpt lat="47.83084" lon="-3.21063">
        <ele>65.7</ele>
        <time>2011-05-26T12:27:59Z</time>
      </trkpt>
      <trkpt lat="47.83088" lon="-3.21058">
        <ele>64.8</ele>
        <time>2011-05-26T12:28:00Z</time>
      </trkpt>
      <trkpt lat="47.83091" lon="-3.21054">
        <ele>63.8</ele>
        <time>2011-05-26T12:28:01Z</time>
      </trkpt>
      <trkpt lat="47.83096" lon="-3.2105">
        <ele>63.3</ele>
        <time>2011-05-26T12:28:02Z</time>
      </trkpt>
      <trkpt lat="47.831" lon="-3.21048">
        <ele>63.4</ele>
        <time>2011-05-26T12:28:03Z</time>
      </trkpt>
      <trkpt lat="47.83106" lon="-3.21043">
        <ele>63.5</ele>
        <time>2011-05-26T12:28:04Z</time>
      </trkpt>
      <trkpt lat="47.8311" lon="-3.21039">
        <ele>63.6</ele>
        <time>2011-05-26T12:28:05Z</time>
      </trkpt>
      <trkpt lat="47.83114" lon="-3.21035">
        <ele>63.7</ele>
        <time>2011-05-26T12:28:06Z</time>
      </trkpt>
      <trkpt lat="47.83119" lon="-3.21032">
        <ele>63.7</ele>
        <time>2011-05-26T12:28:07Z</time>
      </trkpt>
      <trkpt lat="47.83123" lon="-3.21027">
        <ele>63.9</ele>
        <time>2011-05-26T12:28:08Z</time>
      </trkpt>
      <trkpt lat="47.83127" lon="-3.21024">
        <ele>64</ele>
        <time>2011-05-26T12:28:09Z</time>
      </trkpt>
      <trkpt lat="47.83132" lon="-3.21021">
        <ele>63.9</ele>
        <time>2011-05-26T12:28:10Z</time>
      </trkpt>
      <trkpt lat="47.83136" lon="-3.21016">
        <ele>64.2</ele>
        <time>2011-05-26T12:28:11Z</time>
      </trkpt>
      <trkpt lat="47.83142" lon="-3.21013">
        <ele>63.9</ele>
        <time>2011-05-26T12:28:12Z</time>
      </trkpt>
      <trkpt lat="47.83146" lon="-3.21008">
        <ele>62.5</ele>
        <time>2011-05-26T12:28:13Z</time>
      </trkpt>
      <trkpt lat="47.83152" lon="-3.21003">
        <ele>62.4</ele>
        <time>2011-05-26T12:28:14Z</time>
      </trkpt>
      <trkpt lat="47.83156" lon="-3.21">
        <ele>63.4</ele>
        <time>2011-05-26T12:28:15Z</time>
      </trkpt>
      <trkpt lat="47.83163" lon="-3.20994">
        <ele>64</ele>
        <time>2011-05-26T12:28:17Z</time>
      </trkpt>
      <trkpt lat="47.8317" lon="-3.20988">
        <ele>64.1</ele>
        <time>2011-05-26T12:28:19Z</time>
      </trkpt>
      <trkpt lat="47.83177" lon="-3.20983">
        <ele>64.7</ele>
        <time>2011-05-26T12:28:21Z</time>
      </trkpt>
      <trkpt lat="47.83181" lon="-3.20978">
        <ele>64.6</ele>
        <time>2011-05-26T12:28:22Z</time>
      </trkpt>
      <trkpt lat="47.83185" lon="-3.20975">
        <ele>64.6</ele>
        <time>2011-05-26T12:28:23Z</time>
      </trkpt>
      <trkpt lat="47.83193" lon="-3.2097">
        <ele>64.6</ele>
        <time>2011-05-26T12:28:25Z</time>
      </trkpt>
      <trkpt lat="47.83199" lon="-3.20962">
        <ele>63.2</ele>
        <time>2011-05-26T12:28:26Z</time>
      </trkpt>
      <trkpt lat="47.83204" lon="-3.20958">
        <ele>62.1</ele>
        <time>2011-05-26T12:28:27Z</time>
      </trkpt>
      <trkpt lat="47.83209" lon="-3.20954">
        <ele>61</ele>
        <time>2011-05-26T12:28:28Z</time>
      </trkpt>
      <trkpt lat="47.83215" lon="-3.2095">
        <ele>60</ele>
        <time>2011-05-26T12:28:29Z</time>
      </trkpt>
      <trkpt lat="47.8322" lon="-3.20947">
        <ele>59.6</ele>
        <time>2011-05-26T12:28:30Z</time>
      </trkpt>
      <trkpt lat="47.83224" lon="-3.20944">
        <ele>59.4</ele>
        <time>2011-05-26T12:28:31Z</time>
      </trkpt>
      <trkpt lat="47.83229" lon="-3.20941">
        <ele>59.4</ele>
        <time>2011-05-26T12:28:32Z</time>
      </trkpt>
      <trkpt lat="47.83233" lon="-3.20938">
        <ele>59.1</ele>
        <time>2011-05-26T12:28:33Z</time>
      </trkpt>
      <trkpt lat="47.83238" lon="-3.20934">
        <ele>58.7</ele>
        <time>2011-05-26T12:28:34Z</time>
      </trkpt>
      <trkpt lat="47.83246" lon="-3.2093">
        <ele>58.1</ele>
        <time>2011-05-26T12:28:36Z</time>
      </trkpt>
      <trkpt lat="47.83255" lon="-3.20926">
        <ele>58</ele>
        <time>2011-05-26T12:28:38Z</time>
      </trkpt>
      <trkpt lat="47.83259" lon="-3.20921">
        <ele>57.2</ele>
        <time>2011-05-26T12:28:39Z</time>
      </trkpt>
      <trkpt lat="47.83266" lon="-3.20917">
        <ele>57.7</ele>
        <time>2011-05-26T12:28:41Z</time>
      </trkpt>
      <trkpt lat="47.83275" lon="-3.20912">
        <ele>58.2</ele>
        <time>2011-05-26T12:28:43Z</time>
      </trkpt>
      <trkpt lat="47.8328" lon="-3.2091">
        <ele>58.3</ele>
        <time>2011-05-26T12:28:44Z</time>
      </trkpt>
      <trkpt lat="47.83284" lon="-3.20907">
        <ele>57.7</ele>
        <time>2011-05-26T12:28:45Z</time>
      </trkpt>
      <trkpt lat="47.83289" lon="-3.20905">
        <ele>57.2</ele>
        <time>2011-05-26T12:28:46Z</time>
      </trkpt>
      <trkpt lat="47.83294" lon="-3.20902">
        <ele>56.9</ele>
        <time>2011-05-26T12:28:47Z</time>
      </trkpt>
      <trkpt lat="47.83298" lon="-3.209">
        <ele>56.2</ele>
        <time>2011-05-26T12:28:48Z</time>
      </trkpt>
      <trkpt lat="47.83306" lon="-3.20892">
        <ele>55.7</ele>
        <time>2011-05-26T12:28:50Z</time>
      </trkpt>
      <trkpt lat="47.8331" lon="-3.20889">
        <ele>54.4</ele>
        <time>2011-05-26T12:28:51Z</time>
      </trkpt>
      <trkpt lat="47.83318" lon="-3.20882">
        <ele>53.5</ele>
        <time>2011-05-26T12:28:53Z</time>
      </trkpt>
      <trkpt lat="47.83323" lon="-3.20879">
        <ele>53.5</ele>
        <time>2011-05-26T12:28:54Z</time>
      </trkpt>
      <trkpt lat="47.83326" lon="-3.20874">
        <ele>53.1</ele>
        <time>2011-05-26T12:28:55Z</time>
      </trkpt>
      <trkpt lat="47.8333" lon="-3.20869">
        <ele>52.6</ele>
        <time>2011-05-26T12:28:56Z</time>
      </trkpt>
      <trkpt lat="47.83335" lon="-3.20865">
        <ele>51.7</ele>
        <time>2011-05-26T12:28:57Z</time>
      </trkpt>
      <trkpt lat="47.83339" lon="-3.20862">
        <ele>50.7</ele>
        <time>2011-05-26T12:28:58Z</time>
      </trkpt>
      <trkpt lat="47.83344" lon="-3.20857">
        <ele>50.9</ele>
        <time>2011-05-26T12:28:59Z</time>
      </trkpt>
      <trkpt lat="47.83351" lon="-3.20849">
        <ele>51.4</ele>
        <time>2011-05-26T12:29:01Z</time>
      </trkpt>
      <trkpt lat="47.83358" lon="-3.2084">
        <ele>51.2</ele>
        <time>2011-05-26T12:29:03Z</time>
      </trkpt>
      <trkpt lat="47.83364" lon="-3.20831">
        <ele>51.7</ele>
        <time>2011-05-26T12:29:05Z</time>
      </trkpt>
      <trkpt lat="47.8337" lon="-3.20832">
        <ele>52</ele>
        <time>2011-05-26T12:29:07Z</time>
      </trkpt>
      <trkpt lat="47.83375" lon="-3.20827">
        <ele>52</ele>
        <time>2011-05-26T12:29:09Z</time>
      </trkpt>
      <trkpt lat="47.83382" lon="-3.20822">
        <ele>51.8</ele>
        <time>2011-05-26T12:29:10Z</time>
      </trkpt>
      <trkpt lat="47.83387" lon="-3.20817">
        <ele>50.9</ele>
        <time>2011-05-26T12:29:11Z</time>
      </trkpt>
      <trkpt lat="47.83391" lon="-3.20808">
        <ele>49.8</ele>
        <time>2011-05-26T12:29:12Z</time>
      </trkpt>
      <trkpt lat="47.83394" lon="-3.20801">
        <ele>50.3</ele>
        <time>2011-05-26T12:29:13Z</time>
      </trkpt>
      <trkpt lat="47.83395" lon="-3.20793">
        <ele>50.1</ele>
        <time>2011-05-26T12:29:14Z</time>
      </trkpt>
      <trkpt lat="47.83398" lon="-3.20785">
        <ele>50.2</ele>
        <time>2011-05-26T12:29:15Z</time>
      </trkpt>
      <trkpt lat="47.83404" lon="-3.20775">
        <ele>49.9</ele>
        <time>2011-05-26T12:29:17Z</time>
      </trkpt>
      <trkpt lat="47.83407" lon="-3.20771">
        <ele>50.5</ele>
        <time>2011-05-26T12:29:18Z</time>
      </trkpt>
      <trkpt lat="47.83411" lon="-3.20765">
        <ele>50.5</ele>
        <time>2011-05-26T12:29:19Z</time>
      </trkpt>
      <trkpt lat="47.83417" lon="-3.2076">
        <ele>49.3</ele>
        <time>2011-05-26T12:29:20Z</time>
      </trkpt>
      <trkpt lat="47.8342" lon="-3.20756">
        <ele>50</ele>
        <time>2011-05-26T12:29:21Z</time>
      </trkpt>
      <trkpt lat="47.83424" lon="-3.20751">
        <ele>51.1</ele>
        <time>2011-05-26T12:29:22Z</time>
      </trkpt>
      <trkpt lat="47.83428" lon="-3.20745">
        <ele>51.5</ele>
        <time>2011-05-26T12:29:23Z</time>
      </trkpt>
      <trkpt lat="47.83434" lon="-3.20735">
        <ele>50.9</ele>
        <time>2011-05-26T12:29:25Z</time>
      </trkpt>
      <trkpt lat="47.83437" lon="-3.20729">
        <ele>51</ele>
        <time>2011-05-26T12:29:26Z</time>
      </trkpt>
      <trkpt lat="47.83441" lon="-3.20725">
        <ele>52.3</ele>
        <time>2011-05-26T12:29:27Z</time>
      </trkpt>
      <trkpt lat="47.83444" lon="-3.2072">
        <ele>53.3</ele>
        <time>2011-05-26T12:29:28Z</time>
      </trkpt>
      <trkpt lat="47.83448" lon="-3.20716">
        <ele>53.1</ele>
        <time>2011-05-26T12:29:29Z</time>
      </trkpt>
      <trkpt lat="47.83452" lon="-3.20711">
        <ele>53.3</ele>
        <time>2011-05-26T12:29:30Z</time>
      </trkpt>
      <trkpt lat="47.83455" lon="-3.20706">
        <ele>52.5</ele>
        <time>2011-05-26T12:29:31Z</time>
      </trkpt>
      <trkpt lat="47.83461" lon="-3.20697">
        <ele>53.2</ele>
        <time>2011-05-26T12:29:33Z</time>
      </trkpt>
      <trkpt lat="47.83467" lon="-3.20687">
        <ele>53.7</ele>
        <time>2011-05-26T12:29:35Z</time>
      </trkpt>
      <trkpt lat="47.83473" lon="-3.20679">
        <ele>54.3</ele>
        <time>2011-05-26T12:29:38Z</time>
      </trkpt>
      <trkpt lat="47.83479" lon="-3.2068">
        <ele>54.9</ele>
        <time>2011-05-26T12:29:39Z</time>
      </trkpt>
      <trkpt lat="47.83484" lon="-3.20676">
        <ele>56</ele>
        <time>2011-05-26T12:29:40Z</time>
      </trkpt>
      <trkpt lat="47.83487" lon="-3.2067">
        <ele>56.4</ele>
        <time>2011-05-26T12:29:41Z</time>
      </trkpt>
      <trkpt lat="47.83491" lon="-3.20664">
        <ele>56.6</ele>
        <time>2011-05-26T12:29:42Z</time>
      </trkpt>
      <trkpt lat="47.83495" lon="-3.20659">
        <ele>57.3</ele>
        <time>2011-05-26T12:29:43Z</time>
      </trkpt>
      <trkpt lat="47.83497" lon="-3.20652">
        <ele>56.6</ele>
        <time>2011-05-26T12:29:44Z</time>
      </trkpt>
      <trkpt lat="47.835" lon="-3.20646">
        <ele>57.1</ele>
        <time>2011-05-26T12:29:45Z</time>
      </trkpt>
      <trkpt lat="47.83507" lon="-3.20638">
        <ele>57.3</ele>
        <time>2011-05-26T12:29:47Z</time>
      </trkpt>
      <trkpt lat="47.83511" lon="-3.20633">
        <ele>56.9</ele>
        <time>2011-05-26T12:29:48Z</time>
      </trkpt>
      <trkpt lat="47.83514" lon="-3.20626">
        <ele>55.2</ele>
        <time>2011-05-26T12:29:49Z</time>
      </trkpt>
      <trkpt lat="47.83517" lon="-3.2062">
        <ele>53.9</ele>
        <time>2011-05-26T12:29:50Z</time>
      </trkpt>
      <trkpt lat="47.8352" lon="-3.20614">
        <ele>53.7</ele>
        <time>2011-05-26T12:29:51Z</time>
      </trkpt>
      <trkpt lat="47.83527" lon="-3.20604">
        <ele>53.3</ele>
        <time>2011-05-26T12:29:53Z</time>
      </trkpt>
      <trkpt lat="47.83531" lon="-3.20599">
        <ele>53.3</ele>
        <time>2011-05-26T12:29:54Z</time>
      </trkpt>
      <trkpt lat="47.83535" lon="-3.20594">
        <ele>52.9</ele>
        <time>2011-05-26T12:29:55Z</time>
      </trkpt>
      <trkpt lat="47.83542" lon="-3.20587">
        <ele>53.2</ele>
        <time>2011-05-26T12:29:57Z</time>
      </trkpt>
      <trkpt lat="47.83546" lon="-3.2058">
        <ele>53</ele>
        <time>2011-05-26T12:29:58Z</time>
      </trkpt>
      <trkpt lat="47.8355" lon="-3.20577">
        <ele>53.1</ele>
        <time>2011-05-26T12:29:59Z</time>
      </trkpt>
      <trkpt lat="47.83557" lon="-3.20575">
        <ele>53.4</ele>
        <time>2011-05-26T12:30:01Z</time>
      </trkpt>
      <trkpt lat="47.83566" lon="-3.20564">
        <ele>53.8</ele>
        <time>2011-05-26T12:30:03Z</time>
      </trkpt>
      <trkpt lat="47.83572" lon="-3.2056">
        <ele>53.7</ele>
        <time>2011-05-26T12:30:04Z</time>
      </trkpt>
      <trkpt lat="47.83576" lon="-3.20554">
        <ele>53</ele>
        <time>2011-05-26T12:30:05Z</time>
      </trkpt>
      <trkpt lat="47.83581" lon="-3.20551">
        <ele>52.6</ele>
        <time>2011-05-26T12:30:06Z</time>
      </trkpt>
      <trkpt lat="47.83589" lon="-3.20548">
        <ele>53.2</ele>
        <time>2011-05-26T12:30:08Z</time>
      </trkpt>
      <trkpt lat="47.83597" lon="-3.20545">
        <ele>53.4</ele>
        <time>2011-05-26T12:30:10Z</time>
      </trkpt>
      <trkpt lat="47.83601" lon="-3.20542">
        <ele>53.9</ele>
        <time>2011-05-26T12:30:11Z</time>
      </trkpt>
      <trkpt lat="47.83609" lon="-3.20535">
        <ele>54.7</ele>
        <time>2011-05-26T12:30:13Z</time>
      </trkpt>
      <trkpt lat="47.83616" lon="-3.20529">
        <ele>56.5</ele>
        <time>2011-05-26T12:30:15Z</time>
      </trkpt>
      <trkpt lat="47.83625" lon="-3.20522">
        <ele>56</ele>
        <time>2011-05-26T12:30:17Z</time>
      </trkpt>
      <trkpt lat="47.83632" lon="-3.20517">
        <ele>55</ele>
        <time>2011-05-26T12:30:19Z</time>
      </trkpt>
      <trkpt lat="47.83639" lon="-3.20515">
        <ele>55.2</ele>
        <time>2011-05-26T12:30:21Z</time>
      </trkpt>
      <trkpt lat="47.83646" lon="-3.20513">
        <ele>54.6</ele>
        <time>2011-05-26T12:30:22Z</time>
      </trkpt>
      <trkpt lat="47.83651" lon="-3.20511">
        <ele>55.3</ele>
        <time>2011-05-26T12:30:23Z</time>
      </trkpt>
      <trkpt lat="47.83656" lon="-3.2051">
        <ele>55.2</ele>
        <time>2011-05-26T12:30:24Z</time>
      </trkpt>
      <trkpt lat="47.83661" lon="-3.20508">
        <ele>53.3</ele>
        <time>2011-05-26T12:30:25Z</time>
      </trkpt>
      <trkpt lat="47.83666" lon="-3.20505">
        <ele>51.2</ele>
        <time>2011-05-26T12:30:26Z</time>
      </trkpt>
      <trkpt lat="47.83671" lon="-3.20503">
        <ele>50.5</ele>
        <time>2011-05-26T12:30:27Z</time>
      </trkpt>
      <trkpt lat="47.83676" lon="-3.20503">
        <ele>50.1</ele>
        <time>2011-05-26T12:30:28Z</time>
      </trkpt>
      <trkpt lat="47.8368" lon="-3.20499">
        <ele>51</ele>
        <time>2011-05-26T12:30:29Z</time>
      </trkpt>
      <trkpt lat="47.8369" lon="-3.20502">
        <ele>51.3</ele>
        <time>2011-05-26T12:30:31Z</time>
      </trkpt>
      <trkpt lat="47.83695" lon="-3.20501">
        <ele>51.4</ele>
        <time>2011-05-26T12:30:32Z</time>
      </trkpt>
      <trkpt lat="47.837" lon="-3.205">
        <ele>51.6</ele>
        <time>2011-05-26T12:30:33Z</time>
      </trkpt>
      <trkpt lat="47.83705" lon="-3.205">
        <ele>51.7</ele>
        <time>2011-05-26T12:30:34Z</time>
      </trkpt>
      <trkpt lat="47.83704" lon="-3.20513">
        <ele>55.5</ele>
        <time>2011-05-26T12:30:36Z</time>
      </trkpt>
      <trkpt lat="47.83708" lon="-3.20518">
        <ele>58.8</ele>
        <time>2011-05-26T12:30:38Z</time>
      </trkpt>
      <trkpt lat="47.83713" lon="-3.20527">
        <ele>59</ele>
        <time>2011-05-26T12:30:40Z</time>
      </trkpt>
      <trkpt lat="47.83724" lon="-3.20523">
        <ele>58.8</ele>
        <time>2011-05-26T12:30:41Z</time>
      </trkpt>
      <trkpt lat="47.83731" lon="-3.20522">
        <ele>58.8</ele>
        <time>2011-05-26T12:30:42Z</time>
      </trkpt>
      <trkpt lat="47.83737" lon="-3.20522">
        <ele>58.4</ele>
        <time>2011-05-26T12:30:43Z</time>
      </trkpt>
      <trkpt lat="47.83743" lon="-3.20523">
        <ele>58.6</ele>
        <time>2011-05-26T12:30:44Z</time>
      </trkpt>
      <trkpt lat="47.83751" lon="-3.20524">
        <ele>59.5</ele>
        <time>2011-05-26T12:30:45Z</time>
      </trkpt>
      <trkpt lat="47.83756" lon="-3.20525">
        <ele>59.4</ele>
        <time>2011-05-26T12:30:46Z</time>
      </trkpt>
      <trkpt lat="47.83762" lon="-3.20526">
        <ele>59.5</ele>
        <time>2011-05-26T12:30:47Z</time>
      </trkpt>
      <trkpt lat="47.83767" lon="-3.20525">
        <ele>59.9</ele>
        <time>2011-05-26T12:30:48Z</time>
      </trkpt>
      <trkpt lat="47.83772" lon="-3.20527">
        <ele>61.2</ele>
        <time>2011-05-26T12:30:49Z</time>
      </trkpt>
      <trkpt lat="47.83777" lon="-3.20528">
        <ele>61.6</ele>
        <time>2011-05-26T12:30:50Z</time>
      </trkpt>
      <trkpt lat="47.83783" lon="-3.20529">
        <ele>61.6</ele>
        <time>2011-05-26T12:30:51Z</time>
      </trkpt>
      <trkpt lat="47.83787" lon="-3.20531">
        <ele>62.2</ele>
        <time>2011-05-26T12:30:52Z</time>
      </trkpt>
      <trkpt lat="47.83795" lon="-3.20535">
        <ele>62.1</ele>
        <time>2011-05-26T12:30:54Z</time>
      </trkpt>
      <trkpt lat="47.838" lon="-3.20538">
        <ele>62.8</ele>
        <time>2011-05-26T12:30:55Z</time>
      </trkpt>
      <trkpt lat="47.83806" lon="-3.20542">
        <ele>66</ele>
        <time>2011-05-26T12:30:57Z</time>
      </trkpt>
      <trkpt lat="47.83812" lon="-3.20549">
        <ele>68.6</ele>
        <time>2011-05-26T12:30:59Z</time>
      </trkpt>
      <trkpt lat="47.83818" lon="-3.20551">
        <ele>68</ele>
        <time>2011-05-26T12:31:00Z</time>
      </trkpt>
      <trkpt lat="47.83824" lon="-3.20552">
        <ele>67.7</ele>
        <time>2011-05-26T12:31:01Z</time>
      </trkpt>
      <trkpt lat="47.83829" lon="-3.20553">
        <ele>67.3</ele>
        <time>2011-05-26T12:31:02Z</time>
      </trkpt>
      <trkpt lat="47.83834" lon="-3.20553">
        <ele>69.2</ele>
        <time>2011-05-26T12:31:03Z</time>
      </trkpt>
      <trkpt lat="47.83843" lon="-3.20554">
        <ele>73.3</ele>
        <time>2011-05-26T12:31:05Z</time>
      </trkpt>
      <trkpt lat="47.83853" lon="-3.20553">
        <ele>73.4</ele>
        <time>2011-05-26T12:31:07Z</time>
      </trkpt>
      <trkpt lat="47.83859" lon="-3.20552">
        <ele>73.1</ele>
        <time>2011-05-26T12:31:08Z</time>
      </trkpt>
      <trkpt lat="47.83865" lon="-3.2055">
        <ele>73.3</ele>
        <time>2011-05-26T12:31:09Z</time>
      </trkpt>
      <trkpt lat="47.83873" lon="-3.20552">
        <ele>73.1</ele>
        <time>2011-05-26T12:31:11Z</time>
      </trkpt>
      <trkpt lat="47.83878" lon="-3.20551">
        <ele>72</ele>
        <time>2011-05-26T12:31:12Z</time>
      </trkpt>
      <trkpt lat="47.83883" lon="-3.2055">
        <ele>71.6</ele>
        <time>2011-05-26T12:31:13Z</time>
      </trkpt>
      <trkpt lat="47.83889" lon="-3.2055">
        <ele>71.7</ele>
        <time>2011-05-26T12:31:14Z</time>
      </trkpt>
      <trkpt lat="47.83894" lon="-3.2055">
        <ele>73.4</ele>
        <time>2011-05-26T12:31:15Z</time>
      </trkpt>
      <trkpt lat="47.83899" lon="-3.2055">
        <ele>73.3</ele>
        <time>2011-05-26T12:31:16Z</time>
      </trkpt>
      <trkpt lat="47.83905" lon="-3.20548">
        <ele>73.4</ele>
        <time>2011-05-26T12:31:17Z</time>
      </trkpt>
      <trkpt lat="47.83911" lon="-3.20548">
        <ele>72</ele>
        <time>2011-05-26T12:31:18Z</time>
      </trkpt>
      <trkpt lat="47.83917" lon="-3.20547">
        <ele>71.9</ele>
        <time>2011-05-26T12:31:19Z</time>
      </trkpt>
      <trkpt lat="47.83922" lon="-3.20546">
        <ele>71.9</ele>
        <time>2011-05-26T12:31:20Z</time>
      </trkpt>
      <trkpt lat="47.8393" lon="-3.20544">
        <ele>69.6</ele>
        <time>2011-05-26T12:31:21Z</time>
      </trkpt>
      <trkpt lat="47.83936" lon="-3.20543">
        <ele>69.2</ele>
        <time>2011-05-26T12:31:22Z</time>
      </trkpt>
      <trkpt lat="47.8394" lon="-3.20537">
        <ele>69.8</ele>
        <time>2011-05-26T12:31:23Z</time>
      </trkpt>
      <trkpt lat="47.83947" lon="-3.20533">
        <ele>67.3</ele>
        <time>2011-05-26T12:31:24Z</time>
      </trkpt>
      <trkpt lat="47.83952" lon="-3.20529">
        <ele>67.4</ele>
        <time>2011-05-26T12:31:25Z</time>
      </trkpt>
      <trkpt lat="47.8396" lon="-3.20528">
        <ele>64.9</ele>
        <time>2011-05-26T12:31:27Z</time>
      </trkpt>
      <trkpt lat="47.83965" lon="-3.20528">
        <ele>63.9</ele>
        <time>2011-05-26T12:31:28Z</time>
      </trkpt>
      <trkpt lat="47.83974" lon="-3.20527">
        <ele>64.3</ele>
        <time>2011-05-26T12:31:30Z</time>
      </trkpt>
      <trkpt lat="47.8398" lon="-3.20527">
        <ele>64.4</ele>
        <time>2011-05-26T12:31:31Z</time>
      </trkpt>
      <trkpt lat="47.83989" lon="-3.20528">
        <ele>64.5</ele>
        <time>2011-05-26T12:31:33Z</time>
      </trkpt>
      <trkpt lat="47.83996" lon="-3.20529">
        <ele>63.8</ele>
        <time>2011-05-26T12:31:34Z</time>
      </trkpt>
      <trkpt lat="47.84" lon="-3.20532">
        <ele>63.7</ele>
        <time>2011-05-26T12:31:35Z</time>
      </trkpt>
      <trkpt lat="47.84005" lon="-3.2053">
        <ele>63.8</ele>
        <time>2011-05-26T12:31:36Z</time>
      </trkpt>
      <trkpt lat="47.8401" lon="-3.20533">
        <ele>63.6</ele>
        <time>2011-05-26T12:31:37Z</time>
      </trkpt>
      <trkpt lat="47.84015" lon="-3.20532">
        <ele>63.8</ele>
        <time>2011-05-26T12:31:38Z</time>
      </trkpt>
      <trkpt lat="47.8402" lon="-3.20533">
        <ele>63.9</ele>
        <time>2011-05-26T12:31:39Z</time>
      </trkpt>
      <trkpt lat="47.84026" lon="-3.20533">
        <ele>64.1</ele>
        <time>2011-05-26T12:31:40Z</time>
      </trkpt>
      <trkpt lat="47.84033" lon="-3.20537">
        <ele>65</ele>
        <time>2011-05-26T12:31:42Z</time>
      </trkpt>
      <trkpt lat="47.84037" lon="-3.20539">
        <ele>65.2</ele>
        <time>2011-05-26T12:31:43Z</time>
      </trkpt>
      <trkpt lat="47.84043" lon="-3.20541">
        <ele>64.6</ele>
        <time>2011-05-26T12:31:44Z</time>
      </trkpt>
      <trkpt lat="47.84048" lon="-3.20542">
        <ele>64.1</ele>
        <time>2011-05-26T12:31:45Z</time>
      </trkpt>
      <trkpt lat="47.84055" lon="-3.20544">
        <ele>62.4</ele>
        <time>2011-05-26T12:31:46Z</time>
      </trkpt>
      <trkpt lat="47.8406" lon="-3.20544">
        <ele>62</ele>
        <time>2011-05-26T12:31:47Z</time>
      </trkpt>
      <trkpt lat="47.84068" lon="-3.20551">
        <ele>60.5</ele>
        <time>2011-05-26T12:31:49Z</time>
      </trkpt>
      <trkpt lat="47.84073" lon="-3.20552">
        <ele>60.3</ele>
        <time>2011-05-26T12:31:50Z</time>
      </trkpt>
      <trkpt lat="47.84078" lon="-3.20554">
        <ele>60.3</ele>
        <time>2011-05-26T12:31:51Z</time>
      </trkpt>
      <trkpt lat="47.84081" lon="-3.20559">
        <ele>60.5</ele>
        <time>2011-05-26T12:31:52Z</time>
      </trkpt>
      <trkpt lat="47.84088" lon="-3.20563">
        <ele>58.4</ele>
        <time>2011-05-26T12:31:55Z</time>
      </trkpt>
      <trkpt lat="47.84092" lon="-3.20572">
        <ele>57.7</ele>
        <time>2011-05-26T12:31:56Z</time>
      </trkpt>
      <trkpt lat="47.84094" lon="-3.20582">
        <ele>56.5</ele>
        <time>2011-05-26T12:31:58Z</time>
      </trkpt>
      <trkpt lat="47.84097" lon="-3.20589">
        <ele>57.5</ele>
        <time>2011-05-26T12:32:00Z</time>
      </trkpt>
      <trkpt lat="47.84099" lon="-3.20595">
        <ele>56.9</ele>
        <time>2011-05-26T12:32:02Z</time>
      </trkpt>
      <trkpt lat="47.84108" lon="-3.20592">
        <ele>57.3</ele>
        <time>2011-05-26T12:32:03Z</time>
      </trkpt>
      <trkpt lat="47.84113" lon="-3.20598">
        <ele>58.2</ele>
        <time>2011-05-26T12:32:05Z</time>
      </trkpt>
      <trkpt lat="47.84123" lon="-3.20598">
        <ele>58.5</ele>
        <time>2011-05-26T12:32:08Z</time>
      </trkpt>
      <trkpt lat="47.84127" lon="-3.20595">
        <ele>58.8</ele>
        <time>2011-05-26T12:32:09Z</time>
      </trkpt>
      <trkpt lat="47.84132" lon="-3.20587">
        <ele>59</ele>
        <time>2011-05-26T12:32:12Z</time>
      </trkpt>
      <trkpt lat="47.84137" lon="-3.20579">
        <ele>63</ele>
        <time>2011-05-26T12:32:15Z</time>
      </trkpt>
      <trkpt lat="47.84144" lon="-3.20575">
        <ele>63</ele>
        <time>2011-05-26T12:32:18Z</time>
      </trkpt>
      <trkpt lat="47.84149" lon="-3.20569">
        <ele>63.1</ele>
        <time>2011-05-26T12:32:20Z</time>
      </trkpt>
      <trkpt lat="47.84152" lon="-3.2056">
        <ele>63</ele>
        <time>2011-05-26T12:32:21Z</time>
      </trkpt>
      <trkpt lat="47.84157" lon="-3.20555">
        <ele>62.4</ele>
        <time>2011-05-26T12:32:23Z</time>
      </trkpt>
      <trkpt lat="47.84154" lon="-3.20548">
        <ele>64.1</ele>
        <time>2011-05-26T12:32:25Z</time>
      </trkpt>
      <trkpt lat="47.84161" lon="-3.20542">
        <ele>64.1</ele>
        <time>2011-05-26T12:32:28Z</time>
      </trkpt>
      <trkpt lat="47.84165" lon="-3.20536">
        <ele>63.9</ele>
        <time>2011-05-26T12:32:30Z</time>
      </trkpt>
      <trkpt lat="47.84169" lon="-3.20525">
        <ele>62.5</ele>
        <time>2011-05-26T12:32:32Z</time>
      </trkpt>
      <trkpt lat="47.84175" lon="-3.20514">
        <ele>57.4</ele>
        <time>2011-05-26T12:32:33Z</time>
      </trkpt>
      <trkpt lat="47.84177" lon="-3.20508">
        <ele>58</ele>
        <time>2011-05-26T12:32:34Z</time>
      </trkpt>
      <trkpt lat="47.84182" lon="-3.20503">
        <ele>57.3</ele>
        <time>2011-05-26T12:32:36Z</time>
      </trkpt>
      <trkpt lat="47.84183" lon="-3.20493">
        <ele>56.9</ele>
        <time>2011-05-26T12:32:37Z</time>
      </trkpt>
      <trkpt lat="47.84184" lon="-3.20479">
        <ele>56.9</ele>
        <time>2011-05-26T12:32:39Z</time>
      </trkpt>
      <trkpt lat="47.84188" lon="-3.20467">
        <ele>56.9</ele>
        <time>2011-05-26T12:32:41Z</time>
      </trkpt>
      <trkpt lat="47.84185" lon="-3.20461">
        <ele>56.5</ele>
        <time>2011-05-26T12:32:42Z</time>
      </trkpt>
      <trkpt lat="47.84185" lon="-3.20448">
        <ele>56.8</ele>
        <time>2011-05-26T12:32:44Z</time>
      </trkpt>
      <trkpt lat="47.84184" lon="-3.2044">
        <ele>59.1</ele>
        <time>2011-05-26T12:32:51Z</time>
      </trkpt>
      <trkpt lat="47.84181" lon="-3.20435">
        <ele>61.6</ele>
        <time>2011-05-26T12:32:52Z</time>
      </trkpt>
      <trkpt lat="47.84175" lon="-3.20428">
        <ele>66.1</ele>
        <time>2011-05-26T12:32:54Z</time>
      </trkpt>
      <trkpt lat="47.84173" lon="-3.20421">
        <ele>68</ele>
        <time>2011-05-26T12:32:56Z</time>
      </trkpt>
      <trkpt lat="47.84171" lon="-3.20413">
        <ele>74.6</ele>
        <time>2011-05-26T12:32:59Z</time>
      </trkpt>
      <trkpt lat="47.84171" lon="-3.20403">
        <ele>78.7</ele>
        <time>2011-05-26T12:33:04Z</time>
      </trkpt>
      <trkpt lat="47.84172" lon="-3.20396">
        <ele>80</ele>
        <time>2011-05-26T12:33:07Z</time>
      </trkpt>
      <trkpt lat="47.84171" lon="-3.20387">
        <ele>79.4</ele>
        <time>2011-05-26T12:33:08Z</time>
      </trkpt>
      <trkpt lat="47.84171" lon="-3.20379">
        <ele>79.5</ele>
        <time>2011-05-26T12:33:13Z</time>
      </trkpt>
      <trkpt lat="47.84168" lon="-3.20372">
        <ele>80.1</ele>
        <time>2011-05-26T12:33:15Z</time>
      </trkpt>
      <trkpt lat="47.84167" lon="-3.20365">
        <ele>79.7</ele>
        <time>2011-05-26T12:33:18Z</time>
      </trkpt>
      <trkpt lat="47.84163" lon="-3.20358">
        <ele>79.6</ele>
        <time>2011-05-26T12:33:20Z</time>
      </trkpt>
      <trkpt lat="47.84158" lon="-3.2035">
        <ele>81</ele>
        <time>2011-05-26T12:33:22Z</time>
      </trkpt>
      <trkpt lat="47.84154" lon="-3.20347">
        <ele>82.9</ele>
        <time>2011-05-26T12:33:23Z</time>
      </trkpt>
      <trkpt lat="47.84158" lon="-3.2035">
        <ele>91.7</ele>
        <time>2011-05-26T12:33:28Z</time>
      </trkpt>
      <trkpt lat="47.84154" lon="-3.20345">
        <ele>95.2</ele>
        <time>2011-05-26T12:33:46Z</time>
      </trkpt>
      <trkpt lat="47.84149" lon="-3.20336">
        <ele>96</ele>
        <time>2011-05-26T12:33:47Z</time>
      </trkpt>
      <trkpt lat="47.84142" lon="-3.2033">
        <ele>94.2</ele>
        <time>2011-05-26T12:33:48Z</time>
      </trkpt>
      <trkpt lat="47.84139" lon="-3.20324">
        <ele>94.9</ele>
        <time>2011-05-26T12:33:50Z</time>
      </trkpt>
      <trkpt lat="47.84132" lon="-3.2032">
        <ele>95</ele>
        <time>2011-05-26T12:33:57Z</time>
      </trkpt>
      <trkpt lat="47.84127" lon="-3.20316">
        <ele>92.1</ele>
        <time>2011-05-26T12:33:59Z</time>
      </trkpt>
      <trkpt lat="47.84125" lon="-3.2031">
        <ele>88.4</ele>
        <time>2011-05-26T12:34:01Z</time>
      </trkpt>
      <trkpt lat="47.84123" lon="-3.20302">
        <ele>88.1</ele>
        <time>2011-05-26T12:34:04Z</time>
      </trkpt>
      <trkpt lat="47.84118" lon="-3.20297">
        <ele>87.8</ele>
        <time>2011-05-26T12:34:07Z</time>
      </trkpt>
      <trkpt lat="47.84112" lon="-3.20289">
        <ele>87.1</ele>
        <time>2011-05-26T12:34:12Z</time>
      </trkpt>
      <trkpt lat="47.84107" lon="-3.20285">
        <ele>89.7</ele>
        <time>2011-05-26T12:34:14Z</time>
      </trkpt>
      <trkpt lat="47.84102" lon="-3.20277">
        <ele>90.4</ele>
        <time>2011-05-26T12:34:16Z</time>
      </trkpt>
      <trkpt lat="47.84097" lon="-3.20279">
        <ele>92.6</ele>
        <time>2011-05-26T12:34:18Z</time>
      </trkpt>
      <trkpt lat="47.84091" lon="-3.20274">
        <ele>90.5</ele>
        <time>2011-05-26T12:34:20Z</time>
      </trkpt>
      <trkpt lat="47.84087" lon="-3.20269">
        <ele>90.1</ele>
        <time>2011-05-26T12:34:23Z</time>
      </trkpt>
      <trkpt lat="47.84083" lon="-3.20262">
        <ele>91.2</ele>
        <time>2011-05-26T12:34:26Z</time>
      </trkpt>
      <trkpt lat="47.84079" lon="-3.20255">
        <ele>92.1</ele>
        <time>2011-05-26T12:34:30Z</time>
      </trkpt>
      <trkpt lat="47.84075" lon="-3.20245">
        <ele>92.1</ele>
        <time>2011-05-26T12:34:33Z</time>
      </trkpt>
      <trkpt lat="47.84072" lon="-3.20238">
        <ele>92.5</ele>
        <time>2011-05-26T12:34:36Z</time>
      </trkpt>
      <trkpt lat="47.84069" lon="-3.20232">
        <ele>91.6</ele>
        <time>2011-05-26T12:34:37Z</time>
      </trkpt>
      <trkpt lat="47.84066" lon="-3.20227">
        <ele>94.6</ele>
        <time>2011-05-26T12:34:39Z</time>
      </trkpt>
      <trkpt lat="47.84061" lon="-3.20226">
        <ele>99</ele>
        <time>2011-05-26T12:34:44Z</time>
      </trkpt>
      <trkpt lat="47.84058" lon="-3.20218">
        <ele>97.3</ele>
        <time>2011-05-26T12:34:49Z</time>
      </trkpt>
      <trkpt lat="47.84054" lon="-3.20212">
        <ele>98.1</ele>
        <time>2011-05-26T12:34:51Z</time>
      </trkpt>
      <trkpt lat="47.8405" lon="-3.20216">
        <ele>99.8</ele>
        <time>2011-05-26T12:34:53Z</time>
      </trkpt>
      <trkpt lat="47.84045" lon="-3.20216">
        <ele>98.8</ele>
        <time>2011-05-26T12:34:57Z</time>
      </trkpt>
      <trkpt lat="47.84043" lon="-3.2021">
        <ele>95.9</ele>
        <time>2011-05-26T12:34:58Z</time>
      </trkpt>
      <trkpt lat="47.8404" lon="-3.20204">
        <ele>92.7</ele>
        <time>2011-05-26T12:35:01Z</time>
      </trkpt>
      <trkpt lat="47.84038" lon="-3.20197">
        <ele>93.2</ele>
        <time>2011-05-26T12:35:03Z</time>
      </trkpt>
      <trkpt lat="47.84034" lon="-3.2019">
        <ele>94.1</ele>
        <time>2011-05-26T12:35:06Z</time>
      </trkpt>
      <trkpt lat="47.84033" lon="-3.20197">
        <ele>95.1</ele>
        <time>2011-05-26T12:35:08Z</time>
      </trkpt>
      <trkpt lat="47.84028" lon="-3.20199">
        <ele>98.4</ele>
        <time>2011-05-26T12:35:12Z</time>
      </trkpt>
      <trkpt lat="47.84023" lon="-3.20192">
        <ele>99.8</ele>
        <time>2011-05-26T12:35:16Z</time>
      </trkpt>
      <trkpt lat="47.8402" lon="-3.20188">
        <ele>101.2</ele>
        <time>2011-05-26T12:35:20Z</time>
      </trkpt>
      <trkpt lat="47.84015" lon="-3.20182">
        <ele>102.7</ele>
        <time>2011-05-26T12:35:23Z</time>
      </trkpt>
      <trkpt lat="47.84013" lon="-3.20176">
        <ele>102.9</ele>
        <time>2011-05-26T12:35:24Z</time>
      </trkpt>
      <trkpt lat="47.8401" lon="-3.20169">
        <ele>104.6</ele>
        <time>2011-05-26T12:35:27Z</time>
      </trkpt>
      <trkpt lat="47.84007" lon="-3.20161">
        <ele>106.8</ele>
        <time>2011-05-26T12:35:29Z</time>
      </trkpt>
      <trkpt lat="47.84004" lon="-3.20154">
        <ele>108.6</ele>
        <time>2011-05-26T12:35:32Z</time>
      </trkpt>
      <trkpt lat="47.84" lon="-3.20156">
        <ele>116</ele>
        <time>2011-05-26T12:35:41Z</time>
      </trkpt>
      <trkpt lat="47.83997" lon="-3.20148">
        <ele>116.6</ele>
        <time>2011-05-26T12:35:44Z</time>
      </trkpt>
      <trkpt lat="47.83993" lon="-3.20141">
        <ele>117</ele>
        <time>2011-05-26T12:35:48Z</time>
      </trkpt>
      <trkpt lat="47.83988" lon="-3.20139">
        <ele>117.4</ele>
        <time>2011-05-26T12:35:50Z</time>
      </trkpt>
      <trkpt lat="47.83986" lon="-3.20131">
        <ele>118.3</ele>
        <time>2011-05-26T12:35:54Z</time>
      </trkpt>
      <trkpt lat="47.83981" lon="-3.20122">
        <ele>119.4</ele>
        <time>2011-05-26T12:35:59Z</time>
      </trkpt>
      <trkpt lat="47.83977" lon="-3.20116">
        <ele>119.1</ele>
        <time>2011-05-26T12:36:02Z</time>
      </trkpt>
      <trkpt lat="47.83973" lon="-3.20113">
        <ele>120.2</ele>
        <time>2011-05-26T12:36:03Z</time>
      </trkpt>
      <trkpt lat="47.83969" lon="-3.20106">
        <ele>121.4</ele>
        <time>2011-05-26T12:36:08Z</time>
      </trkpt>
      <trkpt lat="47.83972" lon="-3.20098">
        <ele>119.9</ele>
        <time>2011-05-26T12:36:11Z</time>
      </trkpt>
      <trkpt lat="47.83972" lon="-3.20091">
        <ele>118.6</ele>
        <time>2011-05-26T12:36:12Z</time>
      </trkpt>
      <trkpt lat="47.83967" lon="-3.20086">
        <ele>116.5</ele>
        <time>2011-05-26T12:36:15Z</time>
      </trkpt>
      <trkpt lat="47.83962" lon="-3.20085">
        <ele>118.7</ele>
        <time>2011-05-26T12:36:23Z</time>
      </trkpt>
      <trkpt lat="47.83956" lon="-3.20086">
        <ele>115.7</ele>
        <time>2011-05-26T12:36:33Z</time>
      </trkpt>
      <trkpt lat="47.83951" lon="-3.20088">
        <ele>114.5</ele>
        <time>2011-05-26T12:36:37Z</time>
      </trkpt>
      <trkpt lat="47.83948" lon="-3.20094">
        <ele>114.2</ele>
        <time>2011-05-26T12:36:46Z</time>
      </trkpt>
      <trkpt lat="47.83944" lon="-3.20098">
        <ele>113.3</ele>
        <time>2011-05-26T12:36:50Z</time>
      </trkpt>
      <trkpt lat="47.83938" lon="-3.20098">
        <ele>110.7</ele>
        <time>2011-05-26T12:36:53Z</time>
      </trkpt>
      <trkpt lat="47.83931" lon="-3.20097">
        <ele>113</ele>
        <time>2011-05-26T12:36:56Z</time>
      </trkpt>
      <trkpt lat="47.83926" lon="-3.20097">
        <ele>115.2</ele>
        <time>2011-05-26T12:36:59Z</time>
      </trkpt>
      <trkpt lat="47.83921" lon="-3.201">
        <ele>114.1</ele>
        <time>2011-05-26T12:37:01Z</time>
      </trkpt>
      <trkpt lat="47.83921" lon="-3.20107">
        <ele>117.6</ele>
        <time>2011-05-26T12:37:08Z</time>
      </trkpt>
      <trkpt lat="47.83917" lon="-3.20111">
        <ele>121.4</ele>
        <time>2011-05-26T12:37:15Z</time>
      </trkpt>
      <trkpt lat="47.83913" lon="-3.20116">
        <ele>127.1</ele>
        <time>2011-05-26T12:37:19Z</time>
      </trkpt>
      <trkpt lat="47.83907" lon="-3.20119">
        <ele>126.6</ele>
        <time>2011-05-26T12:37:22Z</time>
      </trkpt>
      <trkpt lat="47.83902" lon="-3.20121">
        <ele>128.7</ele>
        <time>2011-05-26T12:37:25Z</time>
      </trkpt>
      <trkpt lat="47.83899" lon="-3.20126">
        <ele>125.3</ele>
        <time>2011-05-26T12:37:28Z</time>
      </trkpt>
      <trkpt lat="47.83894" lon="-3.20128">
        <ele>127.4</ele>
        <time>2011-05-26T12:37:34Z</time>
      </trkpt>
      <trkpt lat="47.8389" lon="-3.2013">
        <ele>127.3</ele>
        <time>2011-05-26T12:37:36Z</time>
      </trkpt>
      <trkpt lat="47.83884" lon="-3.2013">
        <ele>129.7</ele>
        <time>2011-05-26T12:37:39Z</time>
      </trkpt>
      <trkpt lat="47.83878" lon="-3.20134">
        <ele>130.4</ele>
        <time>2011-05-26T12:37:41Z</time>
      </trkpt>
      <trkpt lat="47.83873" lon="-3.20138">
        <ele>131.5</ele>
        <time>2011-05-26T12:37:44Z</time>
      </trkpt>
      <trkpt lat="47.83869" lon="-3.20143">
        <ele>131.4</ele>
        <time>2011-05-26T12:37:52Z</time>
      </trkpt>
      <trkpt lat="47.83862" lon="-3.2014">
        <ele>131.8</ele>
        <time>2011-05-26T12:37:55Z</time>
      </trkpt>
      <trkpt lat="47.83854" lon="-3.20143">
        <ele>131.2</ele>
        <time>2011-05-26T12:37:59Z</time>
      </trkpt>
      <trkpt lat="47.83852" lon="-3.20149">
        <ele>129.6</ele>
        <time>2011-05-26T12:38:01Z</time>
      </trkpt>
      <trkpt lat="47.83848" lon="-3.20154">
        <ele>129.1</ele>
        <time>2011-05-26T12:38:03Z</time>
      </trkpt>
      <trkpt lat="47.83842" lon="-3.20161">
        <ele>123.4</ele>
        <time>2011-05-26T12:38:05Z</time>
      </trkpt>
      <trkpt lat="47.83834" lon="-3.2016">
        <ele>122.1</ele>
        <time>2011-05-26T12:38:07Z</time>
      </trkpt>
      <trkpt lat="47.83829" lon="-3.20158">
        <ele>122.8</ele>
        <time>2011-05-26T12:38:09Z</time>
      </trkpt>
      <trkpt lat="47.83824" lon="-3.20159">
        <ele>127</ele>
        <time>2011-05-26T12:38:11Z</time>
      </trkpt>
      <trkpt lat="47.83821" lon="-3.20164">
        <ele>129.5</ele>
        <time>2011-05-26T12:38:13Z</time>
      </trkpt>
      <trkpt lat="47.8382" lon="-3.20171">
        <ele>137.5</ele>
        <time>2011-05-26T12:38:23Z</time>
      </trkpt>
      <trkpt lat="47.83815" lon="-3.20172">
        <ele>138.3</ele>
        <time>2011-05-26T12:38:26Z</time>
      </trkpt>
      <trkpt lat="47.8381" lon="-3.20173">
        <ele>141.7</ele>
        <time>2011-05-26T12:38:30Z</time>
      </trkpt>
      <trkpt lat="47.83805" lon="-3.20176">
        <ele>143.4</ele>
        <time>2011-05-26T12:38:33Z</time>
      </trkpt>
      <trkpt lat="47.83795" lon="-3.20177">
        <ele>142.9</ele>
        <time>2011-05-26T12:38:35Z</time>
      </trkpt>
      <trkpt lat="47.83788" lon="-3.20176">
        <ele>141.4</ele>
        <time>2011-05-26T12:38:37Z</time>
      </trkpt>
      <trkpt lat="47.83782" lon="-3.20173">
        <ele>141.4</ele>
        <time>2011-05-26T12:38:39Z</time>
      </trkpt>
      <trkpt lat="47.83776" lon="-3.20171">
        <ele>141.3</ele>
        <time>2011-05-26T12:38:42Z</time>
      </trkpt>
      <trkpt lat="47.83771" lon="-3.20169">
        <ele>141.1</ele>
        <time>2011-05-26T12:38:44Z</time>
      </trkpt>
      <trkpt lat="47.83765" lon="-3.20163">
        <ele>140.6</ele>
        <time>2011-05-26T12:38:46Z</time>
      </trkpt>
      <trkpt lat="47.8376" lon="-3.2016">
        <ele>139.8</ele>
        <time>2011-05-26T12:38:48Z</time>
      </trkpt>
      <trkpt lat="47.83756" lon="-3.20155">
        <ele>140.6</ele>
        <time>2011-05-26T12:38:50Z</time>
      </trkpt>
      <trkpt lat="47.83751" lon="-3.20151">
        <ele>141.6</ele>
        <time>2011-05-26T12:38:52Z</time>
      </trkpt>
      <trkpt lat="47.83745" lon="-3.20145">
        <ele>141</ele>
        <time>2011-05-26T12:38:54Z</time>
      </trkpt>
      <trkpt lat="47.8374" lon="-3.2014">
        <ele>140.6</ele>
        <time>2011-05-26T12:38:56Z</time>
      </trkpt>
      <trkpt lat="47.83737" lon="-3.20133">
        <ele>138.8</ele>
        <time>2011-05-26T12:38:57Z</time>
      </trkpt>
      <trkpt lat="47.83733" lon="-3.20128">
        <ele>138.1</ele>
        <time>2011-05-26T12:38:58Z</time>
      </trkpt>
      <trkpt lat="47.83727" lon="-3.20121">
        <ele>137.8</ele>
        <time>2011-05-26T12:39:00Z</time>
      </trkpt>
      <trkpt lat="47.8372" lon="-3.20113">
        <ele>136.2</ele>
        <time>2011-05-26T12:39:02Z</time>
      </trkpt>
      <trkpt lat="47.83714" lon="-3.20107">
        <ele>136.1</ele>
        <time>2011-05-26T12:39:04Z</time>
      </trkpt>
      <trkpt lat="47.83709" lon="-3.20101">
        <ele>135.5</ele>
        <time>2011-05-26T12:39:06Z</time>
      </trkpt>
      <trkpt lat="47.83703" lon="-3.20095">
        <ele>135</ele>
        <time>2011-05-26T12:39:08Z</time>
      </trkpt>
      <trkpt lat="47.83696" lon="-3.20088">
        <ele>133.9</ele>
        <time>2011-05-26T12:39:10Z</time>
      </trkpt>
      <trkpt lat="47.8369" lon="-3.2008">
        <ele>137.5</ele>
        <time>2011-05-26T12:39:13Z</time>
      </trkpt>
      <trkpt lat="47.83683" lon="-3.20074">
        <ele>136.4</ele>
        <time>2011-05-26T12:39:15Z</time>
      </trkpt>
      <trkpt lat="47.83677" lon="-3.20066">
        <ele>135.9</ele>
        <time>2011-05-26T12:39:17Z</time>
      </trkpt>
      <trkpt lat="47.83672" lon="-3.20063">
        <ele>136.4</ele>
        <time>2011-05-26T12:39:19Z</time>
      </trkpt>
      <trkpt lat="47.83666" lon="-3.20055">
        <ele>134.2</ele>
        <time>2011-05-26T12:39:21Z</time>
      </trkpt>
      <trkpt lat="47.83661" lon="-3.20049">
        <ele>133.9</ele>
        <time>2011-05-26T12:39:23Z</time>
      </trkpt>
      <trkpt lat="47.83656" lon="-3.20046">
        <ele>134.3</ele>
        <time>2011-05-26T12:39:25Z</time>
      </trkpt>
      <trkpt lat="47.83651" lon="-3.20044">
        <ele>135.4</ele>
        <time>2011-05-26T12:39:27Z</time>
      </trkpt>
      <trkpt lat="47.83645" lon="-3.20041">
        <ele>133.9</ele>
        <time>2011-05-26T12:39:29Z</time>
      </trkpt>
      <trkpt lat="47.8364" lon="-3.20042">
        <ele>132.8</ele>
        <time>2011-05-26T12:39:31Z</time>
      </trkpt>
      <trkpt lat="47.83635" lon="-3.20042">
        <ele>131.2</ele>
        <time>2011-05-26T12:39:33Z</time>
      </trkpt>
      <trkpt lat="47.83627" lon="-3.20043">
        <ele>130</ele>
        <time>2011-05-26T12:39:36Z</time>
      </trkpt>
      <trkpt lat="47.83621" lon="-3.20043">
        <ele>130.1</ele>
        <time>2011-05-26T12:39:38Z</time>
      </trkpt>
      <trkpt lat="47.83615" lon="-3.20041">
        <ele>130.8</ele>
        <time>2011-05-26T12:39:40Z</time>
      </trkpt>
      <trkpt lat="47.83608" lon="-3.20041">
        <ele>129.7</ele>
        <time>2011-05-26T12:39:42Z</time>
      </trkpt>
      <trkpt lat="47.83601" lon="-3.20041">
        <ele>128.3</ele>
        <time>2011-05-26T12:39:44Z</time>
      </trkpt>
      <trkpt lat="47.83593" lon="-3.20038">
        <ele>127.6</ele>
        <time>2011-05-26T12:39:46Z</time>
      </trkpt>
      <trkpt lat="47.83586" lon="-3.20032">
        <ele>127.1</ele>
        <time>2011-05-26T12:39:48Z</time>
      </trkpt>
      <trkpt lat="47.83582" lon="-3.20022">
        <ele>127.4</ele>
        <time>2011-05-26T12:39:50Z</time>
      </trkpt>
      <trkpt lat="47.8358" lon="-3.20012">
        <ele>127.5</ele>
        <time>2011-05-26T12:39:52Z</time>
      </trkpt>
      <trkpt lat="47.83578" lon="-3.20002">
        <ele>128</ele>
        <time>2011-05-26T12:39:54Z</time>
      </trkpt>
      <trkpt lat="47.83577" lon="-3.1999">
        <ele>127.7</ele>
        <time>2011-05-26T12:39:56Z</time>
      </trkpt>
      <trkpt lat="47.83576" lon="-3.19979">
        <ele>127.7</ele>
        <time>2011-05-26T12:39:58Z</time>
      </trkpt>
      <trkpt lat="47.83574" lon="-3.19968">
        <ele>127.7</ele>
        <time>2011-05-26T12:40:00Z</time>
      </trkpt>
      <trkpt lat="47.83575" lon="-3.19957">
        <ele>128</ele>
        <time>2011-05-26T12:40:02Z</time>
      </trkpt>
      <trkpt lat="47.83574" lon="-3.19945">
        <ele>128.4</ele>
        <time>2011-05-26T12:40:04Z</time>
      </trkpt>
      <trkpt lat="47.83573" lon="-3.19933">
        <ele>128.7</ele>
        <time>2011-05-26T12:40:06Z</time>
      </trkpt>
      <trkpt lat="47.83572" lon="-3.1992">
        <ele>127.6</ele>
        <time>2011-05-26T12:40:08Z</time>
      </trkpt>
      <trkpt lat="47.83572" lon="-3.19913">
        <ele>127.5</ele>
        <time>2011-05-26T12:40:09Z</time>
      </trkpt>
      <trkpt lat="47.83571" lon="-3.199">
        <ele>128</ele>
        <time>2011-05-26T12:40:11Z</time>
      </trkpt>
      <trkpt lat="47.8357" lon="-3.19888">
        <ele>128.3</ele>
        <time>2011-05-26T12:40:13Z</time>
      </trkpt>
      <trkpt lat="47.8357" lon="-3.19881">
        <ele>128</ele>
        <time>2011-05-26T12:40:14Z</time>
      </trkpt>
      <trkpt lat="47.83569" lon="-3.19874">
        <ele>127.7</ele>
        <time>2011-05-26T12:40:15Z</time>
      </trkpt>
      <trkpt lat="47.83568" lon="-3.19861">
        <ele>126.8</ele>
        <time>2011-05-26T12:40:17Z</time>
      </trkpt>
      <trkpt lat="47.83567" lon="-3.19855">
        <ele>126.7</ele>
        <time>2011-05-26T12:40:18Z</time>
      </trkpt>
      <trkpt lat="47.83565" lon="-3.19841">
        <ele>127.4</ele>
        <time>2011-05-26T12:40:20Z</time>
      </trkpt>
      <trkpt lat="47.83564" lon="-3.19834">
        <ele>127.4</ele>
        <time>2011-05-26T12:40:21Z</time>
      </trkpt>
      <trkpt lat="47.83563" lon="-3.19826">
        <ele>127.1</ele>
        <time>2011-05-26T12:40:22Z</time>
      </trkpt>
      <trkpt lat="47.83561" lon="-3.19813">
        <ele>126.8</ele>
        <time>2011-05-26T12:40:24Z</time>
      </trkpt>
      <trkpt lat="47.8356" lon="-3.19806">
        <ele>126.7</ele>
        <time>2011-05-26T12:40:25Z</time>
      </trkpt>
      <trkpt lat="47.83558" lon="-3.19794">
        <ele>127</ele>
        <time>2011-05-26T12:40:27Z</time>
      </trkpt>
      <trkpt lat="47.83557" lon="-3.19783">
        <ele>127.5</ele>
        <time>2011-05-26T12:40:29Z</time>
      </trkpt>
      <trkpt lat="47.83556" lon="-3.19771">
        <ele>127.2</ele>
        <time>2011-05-26T12:40:31Z</time>
      </trkpt>
      <trkpt lat="47.83553" lon="-3.19762">
        <ele>126.9</ele>
        <time>2011-05-26T12:40:33Z</time>
      </trkpt>
      <trkpt lat="47.8355" lon="-3.19751">
        <ele>127.1</ele>
        <time>2011-05-26T12:40:35Z</time>
      </trkpt>
      <trkpt lat="47.83547" lon="-3.19742">
        <ele>127.8</ele>
        <time>2011-05-26T12:40:37Z</time>
      </trkpt>
      <trkpt lat="47.83544" lon="-3.19731">
        <ele>128.4</ele>
        <time>2011-05-26T12:40:39Z</time>
      </trkpt>
      <trkpt lat="47.8354" lon="-3.19719">
        <ele>128.2</ele>
        <time>2011-05-26T12:40:41Z</time>
      </trkpt>
      <trkpt lat="47.83537" lon="-3.19709">
        <ele>129</ele>
        <time>2011-05-26T12:40:43Z</time>
      </trkpt>
      <trkpt lat="47.83533" lon="-3.19698">
        <ele>129.7</ele>
        <time>2011-05-26T12:40:45Z</time>
      </trkpt>
      <trkpt lat="47.8353" lon="-3.19688">
        <ele>129.9</ele>
        <time>2011-05-26T12:40:47Z</time>
      </trkpt>
      <trkpt lat="47.83526" lon="-3.19675">
        <ele>129.5</ele>
        <time>2011-05-26T12:40:49Z</time>
      </trkpt>
      <trkpt lat="47.83522" lon="-3.19665">
        <ele>130.1</ele>
        <time>2011-05-26T12:40:51Z</time>
      </trkpt>
      <trkpt lat="47.83519" lon="-3.19654">
        <ele>130.1</ele>
        <time>2011-05-26T12:40:53Z</time>
      </trkpt>
      <trkpt lat="47.83515" lon="-3.19644">
        <ele>130.7</ele>
        <time>2011-05-26T12:40:55Z</time>
      </trkpt>
      <trkpt lat="47.83512" lon="-3.19635">
        <ele>132.8</ele>
        <time>2011-05-26T12:40:57Z</time>
      </trkpt>
      <trkpt lat="47.83509" lon="-3.19626">
        <ele>132.8</ele>
        <time>2011-05-26T12:40:59Z</time>
      </trkpt>
      <trkpt lat="47.83506" lon="-3.19615">
        <ele>133.7</ele>
        <time>2011-05-26T12:41:01Z</time>
      </trkpt>
      <trkpt lat="47.83502" lon="-3.19605">
        <ele>134</ele>
        <time>2011-05-26T12:41:03Z</time>
      </trkpt>
      <trkpt lat="47.83498" lon="-3.19596">
        <ele>134.9</ele>
        <time>2011-05-26T12:41:05Z</time>
      </trkpt>
      <trkpt lat="47.83495" lon="-3.19585">
        <ele>134.8</ele>
        <time>2011-05-26T12:41:07Z</time>
      </trkpt>
      <trkpt lat="47.83492" lon="-3.19573">
        <ele>135</ele>
        <time>2011-05-26T12:41:09Z</time>
      </trkpt>
      <trkpt lat="47.83488" lon="-3.19562">
        <ele>135.3</ele>
        <time>2011-05-26T12:41:11Z</time>
      </trkpt>
      <trkpt lat="47.83484" lon="-3.1955">
        <ele>134.8</ele>
        <time>2011-05-26T12:41:13Z</time>
      </trkpt>
      <trkpt lat="47.83482" lon="-3.19544">
        <ele>134.8</ele>
        <time>2011-05-26T12:41:14Z</time>
      </trkpt>
      <trkpt lat="47.83476" lon="-3.19532">
        <ele>133.9</ele>
        <time>2011-05-26T12:41:16Z</time>
      </trkpt>
      <trkpt lat="47.83474" lon="-3.19525">
        <ele>134.1</ele>
        <time>2011-05-26T12:41:17Z</time>
      </trkpt>
      <trkpt lat="47.83472" lon="-3.19519">
        <ele>134.4</ele>
        <time>2011-05-26T12:41:18Z</time>
      </trkpt>
      <trkpt lat="47.83468" lon="-3.19508">
        <ele>134.2</ele>
        <time>2011-05-26T12:41:20Z</time>
      </trkpt>
      <trkpt lat="47.83466" lon="-3.19502">
        <ele>134.7</ele>
        <time>2011-05-26T12:41:21Z</time>
      </trkpt>
      <trkpt lat="47.83461" lon="-3.1949">
        <ele>135.4</ele>
        <time>2011-05-26T12:41:23Z</time>
      </trkpt>
      <trkpt lat="47.83457" lon="-3.19479">
        <ele>135.4</ele>
        <time>2011-05-26T12:41:25Z</time>
      </trkpt>
      <trkpt lat="47.83453" lon="-3.19467">
        <ele>135.6</ele>
        <time>2011-05-26T12:41:27Z</time>
      </trkpt>
      <trkpt lat="47.83449" lon="-3.19455">
        <ele>135.3</ele>
        <time>2011-05-26T12:41:29Z</time>
      </trkpt>
      <trkpt lat="47.83446" lon="-3.19444">
        <ele>135.2</ele>
        <time>2011-05-26T12:41:31Z</time>
      </trkpt>
      <trkpt lat="47.83442" lon="-3.19434">
        <ele>135.1</ele>
        <time>2011-05-26T12:41:33Z</time>
      </trkpt>
      <trkpt lat="47.83438" lon="-3.19425">
        <ele>135.2</ele>
        <time>2011-05-26T12:41:35Z</time>
      </trkpt>
      <trkpt lat="47.83432" lon="-3.19419">
        <ele>135.2</ele>
        <time>2011-05-26T12:41:37Z</time>
      </trkpt>
      <trkpt lat="47.83423" lon="-3.19418">
        <ele>135.4</ele>
        <time>2011-05-26T12:41:39Z</time>
      </trkpt>
      <trkpt lat="47.83415" lon="-3.1942">
        <ele>135.5</ele>
        <time>2011-05-26T12:41:41Z</time>
      </trkpt>
      <trkpt lat="47.83411" lon="-3.19422">
        <ele>135.9</ele>
        <time>2011-05-26T12:41:42Z</time>
      </trkpt>
      <trkpt lat="47.83403" lon="-3.19424">
        <ele>135.7</ele>
        <time>2011-05-26T12:41:44Z</time>
      </trkpt>
      <trkpt lat="47.83394" lon="-3.19427">
        <ele>136.3</ele>
        <time>2011-05-26T12:41:46Z</time>
      </trkpt>
      <trkpt lat="47.8339" lon="-3.19429">
        <ele>136.7</ele>
        <time>2011-05-26T12:41:47Z</time>
      </trkpt>
      <trkpt lat="47.83385" lon="-3.1943">
        <ele>136.6</ele>
        <time>2011-05-26T12:41:48Z</time>
      </trkpt>
      <trkpt lat="47.8338" lon="-3.19431">
        <ele>136.4</ele>
        <time>2011-05-26T12:41:49Z</time>
      </trkpt>
      <trkpt lat="47.83376" lon="-3.19433">
        <ele>136.4</ele>
        <time>2011-05-26T12:41:50Z</time>
      </trkpt>
      <trkpt lat="47.83371" lon="-3.19435">
        <ele>136.5</ele>
        <time>2011-05-26T12:41:51Z</time>
      </trkpt>
      <trkpt lat="47.83362" lon="-3.19439">
        <ele>136.5</ele>
        <time>2011-05-26T12:41:53Z</time>
      </trkpt>
      <trkpt lat="47.83358" lon="-3.19441">
        <ele>136.9</ele>
        <time>2011-05-26T12:41:54Z</time>
      </trkpt>
      <trkpt lat="47.83349" lon="-3.19444">
        <ele>137.1</ele>
        <time>2011-05-26T12:41:56Z</time>
      </trkpt>
      <trkpt lat="47.83344" lon="-3.19447">
        <ele>137.1</ele>
        <time>2011-05-26T12:41:57Z</time>
      </trkpt>
      <trkpt lat="47.8334" lon="-3.19449">
        <ele>136.5</ele>
        <time>2011-05-26T12:41:58Z</time>
      </trkpt>
      <trkpt lat="47.83331" lon="-3.19451">
        <ele>136.9</ele>
        <time>2011-05-26T12:42:00Z</time>
      </trkpt>
      <trkpt lat="47.83326" lon="-3.19453">
        <ele>137.1</ele>
        <time>2011-05-26T12:42:01Z</time>
      </trkpt>
      <trkpt lat="47.83321" lon="-3.19455">
        <ele>137.1</ele>
        <time>2011-05-26T12:42:02Z</time>
      </trkpt>
      <trkpt lat="47.83316" lon="-3.19458">
        <ele>137.1</ele>
        <time>2011-05-26T12:42:03Z</time>
      </trkpt>
      <trkpt lat="47.83312" lon="-3.1946">
        <ele>137</ele>
        <time>2011-05-26T12:42:04Z</time>
      </trkpt>
      <trkpt lat="47.83306" lon="-3.19462">
        <ele>136.4</ele>
        <time>2011-05-26T12:42:05Z</time>
      </trkpt>
      <trkpt lat="47.83301" lon="-3.19464">
        <ele>136.3</ele>
        <time>2011-05-26T12:42:06Z</time>
      </trkpt>
      <trkpt lat="47.83297" lon="-3.19466">
        <ele>136.8</ele>
        <time>2011-05-26T12:42:07Z</time>
      </trkpt>
      <trkpt lat="47.83292" lon="-3.1947">
        <ele>136.2</ele>
        <time>2011-05-26T12:42:08Z</time>
      </trkpt>
      <trkpt lat="47.83287" lon="-3.19473">
        <ele>136.3</ele>
        <time>2011-05-26T12:42:09Z</time>
      </trkpt>
      <trkpt lat="47.83282" lon="-3.19476">
        <ele>136.3</ele>
        <time>2011-05-26T12:42:10Z</time>
      </trkpt>
      <trkpt lat="47.83276" lon="-3.19479">
        <ele>136.3</ele>
        <time>2011-05-26T12:42:11Z</time>
      </trkpt>
      <trkpt lat="47.83271" lon="-3.19482">
        <ele>135.7</ele>
        <time>2011-05-26T12:42:12Z</time>
      </trkpt>
      <trkpt lat="47.83266" lon="-3.19485">
        <ele>135.4</ele>
        <time>2011-05-26T12:42:13Z</time>
      </trkpt>
      <trkpt lat="47.8326" lon="-3.19489">
        <ele>135.9</ele>
        <time>2011-05-26T12:42:14Z</time>
      </trkpt>
      <trkpt lat="47.83256" lon="-3.19493">
        <ele>135.2</ele>
        <time>2011-05-26T12:42:15Z</time>
      </trkpt>
      <trkpt lat="47.8325" lon="-3.19498">
        <ele>134.6</ele>
        <time>2011-05-26T12:42:16Z</time>
      </trkpt>
      <trkpt lat="47.83244" lon="-3.19504">
        <ele>134.6</ele>
        <time>2011-05-26T12:42:17Z</time>
      </trkpt>
      <trkpt lat="47.8324" lon="-3.1951">
        <ele>134.6</ele>
        <time>2011-05-26T12:42:18Z</time>
      </trkpt>
      <trkpt lat="47.83235" lon="-3.19515">
        <ele>134.5</ele>
        <time>2011-05-26T12:42:19Z</time>
      </trkpt>
      <trkpt lat="47.83229" lon="-3.19526">
        <ele>132.6</ele>
        <time>2011-05-26T12:42:21Z</time>
      </trkpt>
      <trkpt lat="47.83226" lon="-3.19533">
        <ele>132.4</ele>
        <time>2011-05-26T12:42:22Z</time>
      </trkpt>
      <trkpt lat="47.83223" lon="-3.19539">
        <ele>132.6</ele>
        <time>2011-05-26T12:42:23Z</time>
      </trkpt>
      <trkpt lat="47.8322" lon="-3.19545">
        <ele>132</ele>
        <time>2011-05-26T12:42:24Z</time>
      </trkpt>
      <trkpt lat="47.83216" lon="-3.19551">
        <ele>132.6</ele>
        <time>2011-05-26T12:42:25Z</time>
      </trkpt>
      <trkpt lat="47.83213" lon="-3.19558">
        <ele>132.8</ele>
        <time>2011-05-26T12:42:26Z</time>
      </trkpt>
      <trkpt lat="47.8321" lon="-3.19565">
        <ele>133.2</ele>
        <time>2011-05-26T12:42:27Z</time>
      </trkpt>
      <trkpt lat="47.83208" lon="-3.19572">
        <ele>133.2</ele>
        <time>2011-05-26T12:42:28Z</time>
      </trkpt>
      <trkpt lat="47.83205" lon="-3.19578">
        <ele>133.6</ele>
        <time>2011-05-26T12:42:29Z</time>
      </trkpt>
      <trkpt lat="47.83203" lon="-3.19585">
        <ele>134.4</ele>
        <time>2011-05-26T12:42:30Z</time>
      </trkpt>
      <trkpt lat="47.832" lon="-3.1959">
        <ele>134.9</ele>
        <time>2011-05-26T12:42:31Z</time>
      </trkpt>
      <trkpt lat="47.83196" lon="-3.19596">
        <ele>134.5</ele>
        <time>2011-05-26T12:42:32Z</time>
      </trkpt>
      <trkpt lat="47.83192" lon="-3.19606">
        <ele>133.7</ele>
        <time>2011-05-26T12:42:34Z</time>
      </trkpt>
      <trkpt lat="47.83188" lon="-3.19612">
        <ele>133.6</ele>
        <time>2011-05-26T12:42:35Z</time>
      </trkpt>
      <trkpt lat="47.83187" lon="-3.19619">
        <ele>131.7</ele>
        <time>2011-05-26T12:42:36Z</time>
      </trkpt>
      <trkpt lat="47.83187" lon="-3.19628">
        <ele>129.1</ele>
        <time>2011-05-26T12:42:37Z</time>
      </trkpt>
      <trkpt lat="47.83187" lon="-3.19636">
        <ele>128.4</ele>
        <time>2011-05-26T12:42:38Z</time>
      </trkpt>
      <trkpt lat="47.83188" lon="-3.19646">
        <ele>129.4</ele>
        <time>2011-05-26T12:42:40Z</time>
      </trkpt>
      <trkpt lat="47.83186" lon="-3.19653">
        <ele>130.2</ele>
        <time>2011-05-26T12:42:42Z</time>
      </trkpt>
      <trkpt lat="47.83183" lon="-3.1966">
        <ele>130.3</ele>
        <time>2011-05-26T12:42:43Z</time>
      </trkpt>
      <trkpt lat="47.83176" lon="-3.19666">
        <ele>131.2</ele>
        <time>2011-05-26T12:42:44Z</time>
      </trkpt>
      <trkpt lat="47.83173" lon="-3.1967">
        <ele>131.7</ele>
        <time>2011-05-26T12:42:45Z</time>
      </trkpt>
      <trkpt lat="47.83169" lon="-3.19675">
        <ele>131.7</ele>
        <time>2011-05-26T12:42:46Z</time>
      </trkpt>
      <trkpt lat="47.83162" lon="-3.19684">
        <ele>133.2</ele>
        <time>2011-05-26T12:42:48Z</time>
      </trkpt>
      <trkpt lat="47.83158" lon="-3.19688">
        <ele>132.8</ele>
        <time>2011-05-26T12:42:50Z</time>
      </trkpt>
      <trkpt lat="47.83153" lon="-3.19696">
        <ele>134</ele>
        <time>2011-05-26T12:42:53Z</time>
      </trkpt>
      <trkpt lat="47.83146" lon="-3.19702">
        <ele>134.3</ele>
        <time>2011-05-26T12:42:55Z</time>
      </trkpt>
      <trkpt lat="47.83139" lon="-3.19706">
        <ele>134</ele>
        <time>2011-05-26T12:42:56Z</time>
      </trkpt>
      <trkpt lat="47.83133" lon="-3.19712">
        <ele>134.2</ele>
        <time>2011-05-26T12:42:58Z</time>
      </trkpt>
      <trkpt lat="47.83125" lon="-3.19717">
        <ele>134.9</ele>
        <time>2011-05-26T12:43:00Z</time>
      </trkpt>
      <trkpt lat="47.83121" lon="-3.19722">
        <ele>136.3</ele>
        <time>2011-05-26T12:43:02Z</time>
      </trkpt>
      <trkpt lat="47.83114" lon="-3.19724">
        <ele>136.6</ele>
        <time>2011-05-26T12:43:05Z</time>
      </trkpt>
      <trkpt lat="47.83108" lon="-3.19725">
        <ele>136.4</ele>
        <time>2011-05-26T12:43:06Z</time>
      </trkpt>
      <trkpt lat="47.83102" lon="-3.19729">
        <ele>138.9</ele>
        <time>2011-05-26T12:43:08Z</time>
      </trkpt>
      <trkpt lat="47.83103" lon="-3.19737">
        <ele>137.8</ele>
        <time>2011-05-26T12:43:10Z</time>
      </trkpt>
      <trkpt lat="47.83097" lon="-3.19746">
        <ele>139.6</ele>
        <time>2011-05-26T12:43:13Z</time>
      </trkpt>
      <trkpt lat="47.83088" lon="-3.19756">
        <ele>144</ele>
        <time>2011-05-26T12:43:15Z</time>
      </trkpt>
      <trkpt lat="47.83084" lon="-3.19761">
        <ele>146.8</ele>
        <time>2011-05-26T12:43:16Z</time>
      </trkpt>
      <trkpt lat="47.83078" lon="-3.19764">
        <ele>150.1</ele>
        <time>2011-05-26T12:43:18Z</time>
      </trkpt>
      <trkpt lat="47.83073" lon="-3.19767">
        <ele>151.4</ele>
        <time>2011-05-26T12:43:20Z</time>
      </trkpt>
      <trkpt lat="47.83072" lon="-3.19778">
        <ele>159.2</ele>
        <time>2011-05-26T12:43:22Z</time>
      </trkpt>
      <trkpt lat="47.83068" lon="-3.1979">
        <ele>162.3</ele>
        <time>2011-05-26T12:43:25Z</time>
      </trkpt>
      <trkpt lat="47.83064" lon="-3.19797">
        <ele>161.2</ele>
        <time>2011-05-26T12:43:26Z</time>
      </trkpt>
      <trkpt lat="47.83064" lon="-3.19805">
        <ele>161.6</ele>
        <time>2011-05-26T12:43:27Z</time>
      </trkpt>
      <trkpt lat="47.83053" lon="-3.19817">
        <ele>159.1</ele>
        <time>2011-05-26T12:43:29Z</time>
      </trkpt>
      <trkpt lat="47.83044" lon="-3.19824">
        <ele>157.5</ele>
        <time>2011-05-26T12:43:30Z</time>
      </trkpt>
      <trkpt lat="47.83042" lon="-3.19831">
        <ele>156.9</ele>
        <time>2011-05-26T12:43:31Z</time>
      </trkpt>
      <trkpt lat="47.8304" lon="-3.19838">
        <ele>156.1</ele>
        <time>2011-05-26T12:43:32Z</time>
      </trkpt>
      <trkpt lat="47.83035" lon="-3.19842">
        <ele>155.4</ele>
        <time>2011-05-26T12:43:33Z</time>
      </trkpt>
      <trkpt lat="47.8303" lon="-3.19851">
        <ele>153</ele>
        <time>2011-05-26T12:43:34Z</time>
      </trkpt>
      <trkpt lat="47.83025" lon="-3.19857">
        <ele>152.9</ele>
        <time>2011-05-26T12:43:36Z</time>
      </trkpt>
      <trkpt lat="47.83016" lon="-3.19856">
        <ele>151.7</ele>
        <time>2011-05-26T12:43:37Z</time>
      </trkpt>
      <trkpt lat="47.82997" lon="-3.1986">
        <ele>147.6</ele>
        <time>2011-05-26T12:43:38Z</time>
      </trkpt>
      <trkpt lat="47.82978" lon="-3.19863">
        <ele>147.6</ele>
        <time>2011-05-26T12:43:39Z</time>
      </trkpt>
      <trkpt lat="47.82968" lon="-3.19865">
        <ele>147.7</ele>
        <time>2011-05-26T12:43:40Z</time>
      </trkpt>
      <trkpt lat="47.82958" lon="-3.19865">
        <ele>147.7</ele>
        <time>2011-05-26T12:43:41Z</time>
      </trkpt>
      <trkpt lat="47.82945" lon="-3.19864">
        <ele>150.7</ele>
        <time>2011-05-26T12:43:42Z</time>
      </trkpt>
      <trkpt lat="47.82934" lon="-3.19865">
        <ele>151.2</ele>
        <time>2011-05-26T12:43:43Z</time>
      </trkpt>
      <trkpt lat="47.82925" lon="-3.19869">
        <ele>150.3</ele>
        <time>2011-05-26T12:43:44Z</time>
      </trkpt>
      <trkpt lat="47.82918" lon="-3.19869">
        <ele>149.3</ele>
        <time>2011-05-26T12:43:45Z</time>
      </trkpt>
      <trkpt lat="47.82911" lon="-3.19866">
        <ele>148.2</ele>
        <time>2011-05-26T12:43:46Z</time>
      </trkpt>
      <trkpt lat="47.82898" lon="-3.19868">
        <ele>147.5</ele>
        <time>2011-05-26T12:43:47Z</time>
      </trkpt>
      <trkpt lat="47.8289" lon="-3.19868">
        <ele>147.8</ele>
        <time>2011-05-26T12:43:48Z</time>
      </trkpt>
      <trkpt lat="47.82876" lon="-3.19869">
        <ele>147.8</ele>
        <time>2011-05-26T12:43:49Z</time>
      </trkpt>
      <trkpt lat="47.82869" lon="-3.19867">
        <ele>148</ele>
        <time>2011-05-26T12:43:50Z</time>
      </trkpt>
      <trkpt lat="47.82853" lon="-3.19866">
        <ele>144.9</ele>
        <time>2011-05-26T12:43:51Z</time>
      </trkpt>
      <trkpt lat="47.82846" lon="-3.19866">
        <ele>142.6</ele>
        <time>2011-05-26T12:43:52Z</time>
      </trkpt>
      <trkpt lat="47.82839" lon="-3.19867">
        <ele>142.1</ele>
        <time>2011-05-26T12:43:53Z</time>
      </trkpt>
      <trkpt lat="47.82834" lon="-3.19866">
        <ele>142.5</ele>
        <time>2011-05-26T12:43:54Z</time>
      </trkpt>
      <trkpt lat="47.82824" lon="-3.19863">
        <ele>139.1</ele>
        <time>2011-05-26T12:43:55Z</time>
      </trkpt>
      <trkpt lat="47.82816" lon="-3.19862">
        <ele>136.7</ele>
        <time>2011-05-26T12:43:56Z</time>
      </trkpt>
      <trkpt lat="47.8281" lon="-3.19862">
        <ele>136.4</ele>
        <time>2011-05-26T12:43:57Z</time>
      </trkpt>
      <trkpt lat="47.82804" lon="-3.19862">
        <ele>136</ele>
        <time>2011-05-26T12:43:58Z</time>
      </trkpt>
      <trkpt lat="47.82799" lon="-3.19862">
        <ele>136.1</ele>
        <time>2011-05-26T12:43:59Z</time>
      </trkpt>
      <trkpt lat="47.82791" lon="-3.19864">
        <ele>137.1</ele>
        <time>2011-05-26T12:44:01Z</time>
      </trkpt>
      <trkpt lat="47.82786" lon="-3.19866">
        <ele>136.2</ele>
        <time>2011-05-26T12:44:02Z</time>
      </trkpt>
      <trkpt lat="47.82776" lon="-3.19866">
        <ele>136.3</ele>
        <time>2011-05-26T12:44:04Z</time>
      </trkpt>
      <trkpt lat="47.8277" lon="-3.19868">
        <ele>135.4</ele>
        <time>2011-05-26T12:44:07Z</time>
      </trkpt>
      <trkpt lat="47.8276" lon="-3.19872">
        <ele>134.9</ele>
        <time>2011-05-26T12:44:08Z</time>
      </trkpt>
      <trkpt lat="47.82754" lon="-3.19873">
        <ele>133.6</ele>
        <time>2011-05-26T12:44:09Z</time>
      </trkpt>
      <trkpt lat="47.82741" lon="-3.19884">
        <ele>132.6</ele>
        <time>2011-05-26T12:44:11Z</time>
      </trkpt>
      <trkpt lat="47.82736" lon="-3.19886">
        <ele>132.6</ele>
        <time>2011-05-26T12:44:12Z</time>
      </trkpt>
      <trkpt lat="47.82731" lon="-3.19888">
        <ele>132.9</ele>
        <time>2011-05-26T12:44:13Z</time>
      </trkpt>
      <trkpt lat="47.82725" lon="-3.19898">
        <ele>133</ele>
        <time>2011-05-26T12:44:14Z</time>
      </trkpt>
      <trkpt lat="47.82719" lon="-3.19908">
        <ele>132.6</ele>
        <time>2011-05-26T12:44:15Z</time>
      </trkpt>
      <trkpt lat="47.82713" lon="-3.19918">
        <ele>133</ele>
        <time>2011-05-26T12:44:16Z</time>
      </trkpt>
      <trkpt lat="47.82707" lon="-3.19924">
        <ele>132.4</ele>
        <time>2011-05-26T12:44:17Z</time>
      </trkpt>
      <trkpt lat="47.827" lon="-3.19946">
        <ele>130.9</ele>
        <time>2011-05-26T12:44:19Z</time>
      </trkpt>
      <trkpt lat="47.82694" lon="-3.19954">
        <ele>130.8</ele>
        <time>2011-05-26T12:44:20Z</time>
      </trkpt>
      <trkpt lat="47.82688" lon="-3.19958">
        <ele>128.6</ele>
        <time>2011-05-26T12:44:21Z</time>
      </trkpt>
      <trkpt lat="47.82682" lon="-3.19964">
        <ele>129.8</ele>
        <time>2011-05-26T12:44:22Z</time>
      </trkpt>
      <trkpt lat="47.82679" lon="-3.1998">
        <ele>129.7</ele>
        <time>2011-05-26T12:44:23Z</time>
      </trkpt>
      <trkpt lat="47.82675" lon="-3.1999">
        <ele>129.3</ele>
        <time>2011-05-26T12:44:24Z</time>
      </trkpt>
      <trkpt lat="47.82673" lon="-3.20004">
        <ele>129.3</ele>
        <time>2011-05-26T12:44:25Z</time>
      </trkpt>
      <trkpt lat="47.82669" lon="-3.2001">
        <ele>129.9</ele>
        <time>2011-05-26T12:44:26Z</time>
      </trkpt>
      <trkpt lat="47.82665" lon="-3.20018">
        <ele>129.2</ele>
        <time>2011-05-26T12:44:27Z</time>
      </trkpt>
      <trkpt lat="47.82661" lon="-3.20026">
        <ele>127.3</ele>
        <time>2011-05-26T12:44:28Z</time>
      </trkpt>
      <trkpt lat="47.82657" lon="-3.20034">
        <ele>127.2</ele>
        <time>2011-05-26T12:44:29Z</time>
      </trkpt>
      <trkpt lat="47.82652" lon="-3.2004">
        <ele>127.4</ele>
        <time>2011-05-26T12:44:30Z</time>
      </trkpt>
      <trkpt lat="47.82647" lon="-3.20044">
        <ele>127.9</ele>
        <time>2011-05-26T12:44:31Z</time>
      </trkpt>
      <trkpt lat="47.82642" lon="-3.2005">
        <ele>128.6</ele>
        <time>2011-05-26T12:44:32Z</time>
      </trkpt>
      <trkpt lat="47.82638" lon="-3.20058">
        <ele>128.7</ele>
        <time>2011-05-26T12:44:33Z</time>
      </trkpt>
      <trkpt lat="47.82633" lon="-3.20062">
        <ele>128.9</ele>
        <time>2011-05-26T12:44:34Z</time>
      </trkpt>
      <trkpt lat="47.82632" lon="-3.20076">
        <ele>126.6</ele>
        <time>2011-05-26T12:44:35Z</time>
      </trkpt>
      <trkpt lat="47.82629" lon="-3.20088">
        <ele>124.2</ele>
        <time>2011-05-26T12:44:36Z</time>
      </trkpt>
      <trkpt lat="47.82626" lon="-3.20097">
        <ele>124.7</ele>
        <time>2011-05-26T12:44:37Z</time>
      </trkpt>
      <trkpt lat="47.82623" lon="-3.20105">
        <ele>124</ele>
        <time>2011-05-26T12:44:38Z</time>
      </trkpt>
      <trkpt lat="47.82622" lon="-3.20116">
        <ele>124</ele>
        <time>2011-05-26T12:44:39Z</time>
      </trkpt>
      <trkpt lat="47.82618" lon="-3.20126">
        <ele>124.5</ele>
        <time>2011-05-26T12:44:40Z</time>
      </trkpt>
      <trkpt lat="47.82615" lon="-3.20138">
        <ele>124.4</ele>
        <time>2011-05-26T12:44:41Z</time>
      </trkpt>
      <trkpt lat="47.82611" lon="-3.20148">
        <ele>125.5</ele>
        <time>2011-05-26T12:44:42Z</time>
      </trkpt>
      <trkpt lat="47.82612" lon="-3.20158">
        <ele>126.2</ele>
        <time>2011-05-26T12:44:43Z</time>
      </trkpt>
      <trkpt lat="47.82613" lon="-3.20167">
        <ele>126.5</ele>
        <time>2011-05-26T12:44:44Z</time>
      </trkpt>
      <trkpt lat="47.82606" lon="-3.20174">
        <ele>129.7</ele>
        <time>2011-05-26T12:44:46Z</time>
      </trkpt>
      <trkpt lat="47.82599" lon="-3.20178">
        <ele>130.3</ele>
        <time>2011-05-26T12:44:48Z</time>
      </trkpt>
      <trkpt lat="47.82598" lon="-3.20187">
        <ele>130.4</ele>
        <time>2011-05-26T12:44:49Z</time>
      </trkpt>
      <trkpt lat="47.82596" lon="-3.20194">
        <ele>131.2</ele>
        <time>2011-05-26T12:44:50Z</time>
      </trkpt>
      <trkpt lat="47.82595" lon="-3.20205">
        <ele>131.1</ele>
        <time>2011-05-26T12:44:52Z</time>
      </trkpt>
      <trkpt lat="47.82596" lon="-3.20212">
        <ele>130.5</ele>
        <time>2011-05-26T12:44:53Z</time>
      </trkpt>
      <trkpt lat="47.82595" lon="-3.20221">
        <ele>130.9</ele>
        <time>2011-05-26T12:44:54Z</time>
      </trkpt>
      <trkpt lat="47.82594" lon="-3.20227">
        <ele>131.1</ele>
        <time>2011-05-26T12:44:55Z</time>
      </trkpt>
      <trkpt lat="47.82595" lon="-3.20236">
        <ele>130.8</ele>
        <time>2011-05-26T12:44:56Z</time>
      </trkpt>
      <trkpt lat="47.82593" lon="-3.20242">
        <ele>130.9</ele>
        <time>2011-05-26T12:44:57Z</time>
      </trkpt>
      <trkpt lat="47.82586" lon="-3.20234">
        <ele>131.7</ele>
        <time>2011-05-26T12:44:58Z</time>
      </trkpt>
      <trkpt lat="47.8258" lon="-3.20242">
        <ele>132.9</ele>
        <time>2011-05-26T12:45:01Z</time>
      </trkpt>
      <trkpt lat="47.82576" lon="-3.20255">
        <ele>133.6</ele>
        <time>2011-05-26T12:45:03Z</time>
      </trkpt>
      <trkpt lat="47.82572" lon="-3.20266">
        <ele>132.6</ele>
        <time>2011-05-26T12:45:04Z</time>
      </trkpt>
      <trkpt lat="47.82572" lon="-3.20278">
        <ele>129.8</ele>
        <time>2011-05-26T12:45:05Z</time>
      </trkpt>
      <trkpt lat="47.82568" lon="-3.20282">
        <ele>128.9</ele>
        <time>2011-05-26T12:45:06Z</time>
      </trkpt>
      <trkpt lat="47.82576" lon="-3.20286">
        <ele>129.6</ele>
        <time>2011-05-26T12:45:07Z</time>
      </trkpt>
      <trkpt lat="47.82561" lon="-3.20278">
        <ele>127.2</ele>
        <time>2011-05-26T12:45:09Z</time>
      </trkpt>
      <trkpt lat="47.82556" lon="-3.20274">
        <ele>126</ele>
        <time>2011-05-26T12:45:11Z</time>
      </trkpt>
      <trkpt lat="47.82547" lon="-3.2027">
        <ele>125.5</ele>
        <time>2011-05-26T12:45:13Z</time>
      </trkpt>
      <trkpt lat="47.82542" lon="-3.20267">
        <ele>124.9</ele>
        <time>2011-05-26T12:45:14Z</time>
      </trkpt>
      <trkpt lat="47.82534" lon="-3.20259">
        <ele>124.7</ele>
        <time>2011-05-26T12:45:16Z</time>
      </trkpt>
      <trkpt lat="47.82531" lon="-3.20255">
        <ele>126.1</ele>
        <time>2011-05-26T12:45:17Z</time>
      </trkpt>
      <trkpt lat="47.82526" lon="-3.2025">
        <ele>125.5</ele>
        <time>2011-05-26T12:45:18Z</time>
      </trkpt>
      <trkpt lat="47.82522" lon="-3.20246">
        <ele>125.4</ele>
        <time>2011-05-26T12:45:19Z</time>
      </trkpt>
      <trkpt lat="47.82517" lon="-3.20243">
        <ele>124.7</ele>
        <time>2011-05-26T12:45:20Z</time>
      </trkpt>
      <trkpt lat="47.82512" lon="-3.20238">
        <ele>124.2</ele>
        <time>2011-05-26T12:45:21Z</time>
      </trkpt>
      <trkpt lat="47.82508" lon="-3.20234">
        <ele>123.5</ele>
        <time>2011-05-26T12:45:22Z</time>
      </trkpt>
      <trkpt lat="47.82503" lon="-3.2023">
        <ele>123.4</ele>
        <time>2011-05-26T12:45:23Z</time>
      </trkpt>
      <trkpt lat="47.82498" lon="-3.20225">
        <ele>123.1</ele>
        <time>2011-05-26T12:45:24Z</time>
      </trkpt>
      <trkpt lat="47.82494" lon="-3.2022">
        <ele>122.9</ele>
        <time>2011-05-26T12:45:25Z</time>
      </trkpt>
      <trkpt lat="47.82488" lon="-3.20215">
        <ele>123.1</ele>
        <time>2011-05-26T12:45:26Z</time>
      </trkpt>
      <trkpt lat="47.82484" lon="-3.2021">
        <ele>123.4</ele>
        <time>2011-05-26T12:45:27Z</time>
      </trkpt>
      <trkpt lat="47.8248" lon="-3.20206">
        <ele>123.1</ele>
        <time>2011-05-26T12:45:28Z</time>
      </trkpt>
      <trkpt lat="47.82474" lon="-3.20202">
        <ele>123.8</ele>
        <time>2011-05-26T12:45:29Z</time>
      </trkpt>
      <trkpt lat="47.82466" lon="-3.20196">
        <ele>123.1</ele>
        <time>2011-05-26T12:45:30Z</time>
      </trkpt>
      <trkpt lat="47.8246" lon="-3.2019">
        <ele>122</ele>
        <time>2011-05-26T12:45:31Z</time>
      </trkpt>
      <trkpt lat="47.82454" lon="-3.20184">
        <ele>121.7</ele>
        <time>2011-05-26T12:45:32Z</time>
      </trkpt>
      <trkpt lat="47.82448" lon="-3.20177">
        <ele>122.2</ele>
        <time>2011-05-26T12:45:33Z</time>
      </trkpt>
      <trkpt lat="47.82443" lon="-3.20173">
        <ele>122.3</ele>
        <time>2011-05-26T12:45:34Z</time>
      </trkpt>
      <trkpt lat="47.82438" lon="-3.20167">
        <ele>121.5</ele>
        <time>2011-05-26T12:45:35Z</time>
      </trkpt>
      <trkpt lat="47.82438" lon="-3.20153">
        <ele>121</ele>
        <time>2011-05-26T12:45:36Z</time>
      </trkpt>
      <trkpt lat="47.82436" lon="-3.20145">
        <ele>122</ele>
        <time>2011-05-26T12:45:37Z</time>
      </trkpt>
      <trkpt lat="47.82436" lon="-3.20137">
        <ele>122.3</ele>
        <time>2011-05-26T12:45:38Z</time>
      </trkpt>
      <trkpt lat="47.8244" lon="-3.20128">
        <ele>122</ele>
        <time>2011-05-26T12:45:40Z</time>
      </trkpt>
      <trkpt lat="47.82443" lon="-3.2012">
        <ele>122</ele>
        <time>2011-05-26T12:45:41Z</time>
      </trkpt>
      <trkpt lat="47.82445" lon="-3.20113">
        <ele>122.5</ele>
        <time>2011-05-26T12:45:42Z</time>
      </trkpt>
      <trkpt lat="47.82448" lon="-3.20107">
        <ele>122.2</ele>
        <time>2011-05-26T12:45:43Z</time>
      </trkpt>
      <trkpt lat="47.8245" lon="-3.20096">
        <ele>122.4</ele>
        <time>2011-05-26T12:45:45Z</time>
      </trkpt>
      <trkpt lat="47.8245" lon="-3.20089">
        <ele>121.5</ele>
        <time>2011-05-26T12:45:46Z</time>
      </trkpt>
      <trkpt lat="47.82454" lon="-3.20081">
        <ele>121.5</ele>
        <time>2011-05-26T12:45:47Z</time>
      </trkpt>
      <trkpt lat="47.82456" lon="-3.20075">
        <ele>121.4</ele>
        <time>2011-05-26T12:45:48Z</time>
      </trkpt>
      <trkpt lat="47.82459" lon="-3.20068">
        <ele>121.1</ele>
        <time>2011-05-26T12:45:49Z</time>
      </trkpt>
      <trkpt lat="47.82462" lon="-3.20062">
        <ele>120.8</ele>
        <time>2011-05-26T12:45:50Z</time>
      </trkpt>
      <trkpt lat="47.82466" lon="-3.20056">
        <ele>120.5</ele>
        <time>2011-05-26T12:45:51Z</time>
      </trkpt>
      <trkpt lat="47.82469" lon="-3.20051">
        <ele>119.3</ele>
        <time>2011-05-26T12:45:52Z</time>
      </trkpt>
      <trkpt lat="47.82471" lon="-3.20043">
        <ele>119.6</ele>
        <time>2011-05-26T12:45:53Z</time>
      </trkpt>
      <trkpt lat="47.8247" lon="-3.20034">
        <ele>120.6</ele>
        <time>2011-05-26T12:45:54Z</time>
      </trkpt>
      <trkpt lat="47.82466" lon="-3.20029">
        <ele>120.7</ele>
        <time>2011-05-26T12:45:55Z</time>
      </trkpt>
      <trkpt lat="47.8246" lon="-3.20024">
        <ele>120.6</ele>
        <time>2011-05-26T12:45:56Z</time>
      </trkpt>
      <trkpt lat="47.82455" lon="-3.20022">
        <ele>120.6</ele>
        <time>2011-05-26T12:45:57Z</time>
      </trkpt>
      <trkpt lat="47.82449" lon="-3.20018">
        <ele>121</ele>
        <time>2011-05-26T12:45:58Z</time>
      </trkpt>
      <trkpt lat="47.82444" lon="-3.20014">
        <ele>120.8</ele>
        <time>2011-05-26T12:45:59Z</time>
      </trkpt>
      <trkpt lat="47.82441" lon="-3.20007">
        <ele>121.2</ele>
        <time>2011-05-26T12:46:00Z</time>
      </trkpt>
      <trkpt lat="47.82437" lon="-3.20001">
        <ele>121.4</ele>
        <time>2011-05-26T12:46:01Z</time>
      </trkpt>
      <trkpt lat="47.82433" lon="-3.19994">
        <ele>120.8</ele>
        <time>2011-05-26T12:46:02Z</time>
      </trkpt>
      <trkpt lat="47.82431" lon="-3.19986">
        <ele>121.2</ele>
        <time>2011-05-26T12:46:03Z</time>
      </trkpt>
      <trkpt lat="47.82429" lon="-3.19978">
        <ele>121.4</ele>
        <time>2011-05-26T12:46:04Z</time>
      </trkpt>
      <trkpt lat="47.82427" lon="-3.1997">
        <ele>121.6</ele>
        <time>2011-05-26T12:46:05Z</time>
      </trkpt>
      <trkpt lat="47.82424" lon="-3.19962">
        <ele>121.5</ele>
        <time>2011-05-26T12:46:06Z</time>
      </trkpt>
      <trkpt lat="47.82425" lon="-3.19955">
        <ele>121.3</ele>
        <time>2011-05-26T12:46:07Z</time>
      </trkpt>
      <trkpt lat="47.82424" lon="-3.19946">
        <ele>121.8</ele>
        <time>2011-05-26T12:46:08Z</time>
      </trkpt>
      <trkpt lat="47.82423" lon="-3.19933">
        <ele>119.4</ele>
        <time>2011-05-26T12:46:09Z</time>
      </trkpt>
      <trkpt lat="47.82423" lon="-3.19926">
        <ele>119.4</ele>
        <time>2011-05-26T12:46:10Z</time>
      </trkpt>
      <trkpt lat="47.82423" lon="-3.19917">
        <ele>119.2</ele>
        <time>2011-05-26T12:46:11Z</time>
      </trkpt>
      <trkpt lat="47.82422" lon="-3.19908">
        <ele>119.8</ele>
        <time>2011-05-26T12:46:12Z</time>
      </trkpt>
      <trkpt lat="47.82423" lon="-3.19898">
        <ele>120.8</ele>
        <time>2011-05-26T12:46:14Z</time>
      </trkpt>
      <trkpt lat="47.82426" lon="-3.19886">
        <ele>121.5</ele>
        <time>2011-05-26T12:46:16Z</time>
      </trkpt>
      <trkpt lat="47.82428" lon="-3.19872">
        <ele>121.2</ele>
        <time>2011-05-26T12:46:18Z</time>
      </trkpt>
      <trkpt lat="47.82426" lon="-3.19854">
        <ele>119.6</ele>
        <time>2011-05-26T12:46:19Z</time>
      </trkpt>
      <trkpt lat="47.82425" lon="-3.19846">
        <ele>118.6</ele>
        <time>2011-05-26T12:46:20Z</time>
      </trkpt>
      <trkpt lat="47.82424" lon="-3.19836">
        <ele>118.2</ele>
        <time>2011-05-26T12:46:21Z</time>
      </trkpt>
      <trkpt lat="47.82426" lon="-3.19827">
        <ele>119.1</ele>
        <time>2011-05-26T12:46:22Z</time>
      </trkpt>
      <trkpt lat="47.82426" lon="-3.1982">
        <ele>119.1</ele>
        <time>2011-05-26T12:46:23Z</time>
      </trkpt>
      <trkpt lat="47.82428" lon="-3.19811">
        <ele>121.2</ele>
        <time>2011-05-26T12:46:25Z</time>
      </trkpt>
      <trkpt lat="47.82427" lon="-3.19798">
        <ele>120.9</ele>
        <time>2011-05-26T12:46:28Z</time>
      </trkpt>
      <trkpt lat="47.82427" lon="-3.1979">
        <ele>122.3</ele>
        <time>2011-05-26T12:46:29Z</time>
      </trkpt>
      <trkpt lat="47.82425" lon="-3.1978">
        <ele>122.2</ele>
        <time>2011-05-26T12:46:31Z</time>
      </trkpt>
      <trkpt lat="47.82425" lon="-3.19768">
        <ele>123.2</ele>
        <time>2011-05-26T12:46:33Z</time>
      </trkpt>
      <trkpt lat="47.82425" lon="-3.19755">
        <ele>122.6</ele>
        <time>2011-05-26T12:46:35Z</time>
      </trkpt>
      <trkpt lat="47.82425" lon="-3.19744">
        <ele>122.8</ele>
        <time>2011-05-26T12:46:37Z</time>
      </trkpt>
      <trkpt lat="47.82426" lon="-3.19732">
        <ele>121.6</ele>
        <time>2011-05-26T12:46:39Z</time>
      </trkpt>
      <trkpt lat="47.82428" lon="-3.19719">
        <ele>122.6</ele>
        <time>2011-05-26T12:46:41Z</time>
      </trkpt>
      <trkpt lat="47.82428" lon="-3.19707">
        <ele>121.9</ele>
        <time>2011-05-26T12:46:43Z</time>
      </trkpt>
      <trkpt lat="47.82429" lon="-3.19695">
        <ele>122.6</ele>
        <time>2011-05-26T12:46:45Z</time>
      </trkpt>
      <trkpt lat="47.82429" lon="-3.19684">
        <ele>122.5</ele>
        <time>2011-05-26T12:46:47Z</time>
      </trkpt>
      <trkpt lat="47.8243" lon="-3.19671">
        <ele>123.2</ele>
        <time>2011-05-26T12:46:49Z</time>
      </trkpt>
      <trkpt lat="47.82432" lon="-3.19659">
        <ele>123.3</ele>
        <time>2011-05-26T12:46:51Z</time>
      </trkpt>
      <trkpt lat="47.82431" lon="-3.19644">
        <ele>122.8</ele>
        <time>2011-05-26T12:46:53Z</time>
      </trkpt>
      <trkpt lat="47.82431" lon="-3.19634">
        <ele>124.2</ele>
        <time>2011-05-26T12:46:55Z</time>
      </trkpt>
      <trkpt lat="47.82431" lon="-3.19624">
        <ele>124.2</ele>
        <time>2011-05-26T12:46:57Z</time>
      </trkpt>
      <trkpt lat="47.82432" lon="-3.19613">
        <ele>124.8</ele>
        <time>2011-05-26T12:46:59Z</time>
      </trkpt>
      <trkpt lat="47.82432" lon="-3.19605">
        <ele>123.9</ele>
        <time>2011-05-26T12:47:00Z</time>
      </trkpt>
      <trkpt lat="47.82431" lon="-3.19592">
        <ele>123.8</ele>
        <time>2011-05-26T12:47:02Z</time>
      </trkpt>
      <trkpt lat="47.82431" lon="-3.19581">
        <ele>124.5</ele>
        <time>2011-05-26T12:47:04Z</time>
      </trkpt>
      <trkpt lat="47.82431" lon="-3.19569">
        <ele>124.8</ele>
        <time>2011-05-26T12:47:06Z</time>
      </trkpt>
      <trkpt lat="47.82431" lon="-3.19558">
        <ele>125.1</ele>
        <time>2011-05-26T12:47:08Z</time>
      </trkpt>
      <trkpt lat="47.82431" lon="-3.1955">
        <ele>126</ele>
        <time>2011-05-26T12:47:09Z</time>
      </trkpt>
      <trkpt lat="47.82428" lon="-3.19543">
        <ele>125.1</ele>
        <time>2011-05-26T12:47:10Z</time>
      </trkpt>
      <trkpt lat="47.82429" lon="-3.19536">
        <ele>127.1</ele>
        <time>2011-05-26T12:47:12Z</time>
      </trkpt>
      <trkpt lat="47.82427" lon="-3.19526">
        <ele>125.6</ele>
        <time>2011-05-26T12:47:13Z</time>
      </trkpt>
      <trkpt lat="47.82426" lon="-3.19518">
        <ele>124.6</ele>
        <time>2011-05-26T12:47:14Z</time>
      </trkpt>
      <trkpt lat="47.82424" lon="-3.19512">
        <ele>124.7</ele>
        <time>2011-05-26T12:47:15Z</time>
      </trkpt>
      <trkpt lat="47.82423" lon="-3.19505">
        <ele>124.7</ele>
        <time>2011-05-26T12:47:16Z</time>
      </trkpt>
      <trkpt lat="47.82421" lon="-3.19494">
        <ele>125.7</ele>
        <time>2011-05-26T12:47:18Z</time>
      </trkpt>
      <trkpt lat="47.8242" lon="-3.19487">
        <ele>125.8</ele>
        <time>2011-05-26T12:47:19Z</time>
      </trkpt>
      <trkpt lat="47.82417" lon="-3.19475">
        <ele>126</ele>
        <time>2011-05-26T12:47:21Z</time>
      </trkpt>
      <trkpt lat="47.82414" lon="-3.19469">
        <ele>125.4</ele>
        <time>2011-05-26T12:47:22Z</time>
      </trkpt>
      <trkpt lat="47.82411" lon="-3.19463">
        <ele>125.5</ele>
        <time>2011-05-26T12:47:23Z</time>
      </trkpt>
      <trkpt lat="47.82404" lon="-3.19459">
        <ele>128.2</ele>
        <time>2011-05-26T12:47:25Z</time>
      </trkpt>
      <trkpt lat="47.82398" lon="-3.19452">
        <ele>126.5</ele>
        <time>2011-05-26T12:47:26Z</time>
      </trkpt>
      <trkpt lat="47.82394" lon="-3.19447">
        <ele>126.2</ele>
        <time>2011-05-26T12:47:27Z</time>
      </trkpt>
      <trkpt lat="47.82384" lon="-3.1944">
        <ele>126.2</ele>
        <time>2011-05-26T12:47:29Z</time>
      </trkpt>
      <trkpt lat="47.82379" lon="-3.19436">
        <ele>125.8</ele>
        <time>2011-05-26T12:47:30Z</time>
      </trkpt>
      <trkpt lat="47.82375" lon="-3.19432">
        <ele>125.7</ele>
        <time>2011-05-26T12:47:31Z</time>
      </trkpt>
      <trkpt lat="47.82369" lon="-3.1943">
        <ele>125.4</ele>
        <time>2011-05-26T12:47:32Z</time>
      </trkpt>
      <trkpt lat="47.82365" lon="-3.19426">
        <ele>126.8</ele>
        <time>2011-05-26T12:47:33Z</time>
      </trkpt>
      <trkpt lat="47.82359" lon="-3.19424">
        <ele>126.2</ele>
        <time>2011-05-26T12:47:34Z</time>
      </trkpt>
      <trkpt lat="47.82354" lon="-3.19424">
        <ele>126.1</ele>
        <time>2011-05-26T12:47:35Z</time>
      </trkpt>
      <trkpt lat="47.82348" lon="-3.19422">
        <ele>125.6</ele>
        <time>2011-05-26T12:47:36Z</time>
      </trkpt>
      <trkpt lat="47.82342" lon="-3.1942">
        <ele>125.3</ele>
        <time>2011-05-26T12:47:37Z</time>
      </trkpt>
      <trkpt lat="47.82336" lon="-3.19419">
        <ele>125.7</ele>
        <time>2011-05-26T12:47:38Z</time>
      </trkpt>
      <trkpt lat="47.82331" lon="-3.19418">
        <ele>126.1</ele>
        <time>2011-05-26T12:47:39Z</time>
      </trkpt>
      <trkpt lat="47.82326" lon="-3.19417">
        <ele>125.9</ele>
        <time>2011-05-26T12:47:40Z</time>
      </trkpt>
      <trkpt lat="47.82322" lon="-3.19419">
        <ele>125.6</ele>
        <time>2011-05-26T12:47:41Z</time>
      </trkpt>
      <trkpt lat="47.82313" lon="-3.19423">
        <ele>125</ele>
        <time>2011-05-26T12:47:43Z</time>
      </trkpt>
      <trkpt lat="47.82318" lon="-3.19429">
        <ele>125</ele>
        <time>2011-05-26T12:47:44Z</time>
      </trkpt>
      <trkpt lat="47.82319" lon="-3.19437">
        <ele>125.4</ele>
        <time>2011-05-26T12:47:45Z</time>
      </trkpt>
      <trkpt lat="47.82317" lon="-3.19444">
        <ele>124.6</ele>
        <time>2011-05-26T12:47:46Z</time>
      </trkpt>
      <trkpt lat="47.82316" lon="-3.19451">
        <ele>124.8</ele>
        <time>2011-05-26T12:47:47Z</time>
      </trkpt>
      <trkpt lat="47.82313" lon="-3.19464">
        <ele>123.7</ele>
        <time>2011-05-26T12:47:49Z</time>
      </trkpt>
      <trkpt lat="47.8231" lon="-3.19476">
        <ele>123.1</ele>
        <time>2011-05-26T12:47:51Z</time>
      </trkpt>
      <trkpt lat="47.82308" lon="-3.19489">
        <ele>123.4</ele>
        <time>2011-05-26T12:47:53Z</time>
      </trkpt>
      <trkpt lat="47.82307" lon="-3.19503">
        <ele>123.4</ele>
        <time>2011-05-26T12:47:55Z</time>
      </trkpt>
      <trkpt lat="47.82302" lon="-3.1951">
        <ele>122.9</ele>
        <time>2011-05-26T12:47:56Z</time>
      </trkpt>
      <trkpt lat="47.82304" lon="-3.19518">
        <ele>123.4</ele>
        <time>2011-05-26T12:47:57Z</time>
      </trkpt>
      <trkpt lat="47.82301" lon="-3.19526">
        <ele>123.6</ele>
        <time>2011-05-26T12:47:59Z</time>
      </trkpt>
      <trkpt lat="47.82302" lon="-3.19537">
        <ele>122.9</ele>
        <time>2011-05-26T12:48:00Z</time>
      </trkpt>
      <trkpt lat="47.823" lon="-3.19544">
        <ele>122.2</ele>
        <time>2011-05-26T12:48:01Z</time>
      </trkpt>
      <trkpt lat="47.82298" lon="-3.19551">
        <ele>121.7</ele>
        <time>2011-05-26T12:48:02Z</time>
      </trkpt>
      <trkpt lat="47.82296" lon="-3.19563">
        <ele>121.4</ele>
        <time>2011-05-26T12:48:04Z</time>
      </trkpt>
      <trkpt lat="47.82295" lon="-3.1957">
        <ele>120.9</ele>
        <time>2011-05-26T12:48:05Z</time>
      </trkpt>
      <trkpt lat="47.82293" lon="-3.19576">
        <ele>120.6</ele>
        <time>2011-05-26T12:48:06Z</time>
      </trkpt>
      <trkpt lat="47.82292" lon="-3.19583">
        <ele>120.3</ele>
        <time>2011-05-26T12:48:07Z</time>
      </trkpt>
      <trkpt lat="47.82288" lon="-3.19593">
        <ele>120</ele>
        <time>2011-05-26T12:48:09Z</time>
      </trkpt>
      <trkpt lat="47.82287" lon="-3.196">
        <ele>120.5</ele>
        <time>2011-05-26T12:48:10Z</time>
      </trkpt>
      <trkpt lat="47.82286" lon="-3.19607">
        <ele>119.6</ele>
        <time>2011-05-26T12:48:11Z</time>
      </trkpt>
      <trkpt lat="47.82285" lon="-3.19615">
        <ele>119.1</ele>
        <time>2011-05-26T12:48:12Z</time>
      </trkpt>
      <trkpt lat="47.82284" lon="-3.19622">
        <ele>118.9</ele>
        <time>2011-05-26T12:48:13Z</time>
      </trkpt>
      <trkpt lat="47.82283" lon="-3.19631">
        <ele>118.1</ele>
        <time>2011-05-26T12:48:14Z</time>
      </trkpt>
      <trkpt lat="47.82283" lon="-3.19639">
        <ele>118.3</ele>
        <time>2011-05-26T12:48:15Z</time>
      </trkpt>
      <trkpt lat="47.82281" lon="-3.19646">
        <ele>118.9</ele>
        <time>2011-05-26T12:48:16Z</time>
      </trkpt>
      <trkpt lat="47.82282" lon="-3.19652">
        <ele>118.8</ele>
        <time>2011-05-26T12:48:17Z</time>
      </trkpt>
      <trkpt lat="47.82282" lon="-3.19664">
        <ele>118.9</ele>
        <time>2011-05-26T12:48:19Z</time>
      </trkpt>
      <trkpt lat="47.82279" lon="-3.19673">
        <ele>119.5</ele>
        <time>2011-05-26T12:48:20Z</time>
      </trkpt>
      <trkpt lat="47.82277" lon="-3.19679">
        <ele>119.7</ele>
        <time>2011-05-26T12:48:21Z</time>
      </trkpt>
      <trkpt lat="47.82274" lon="-3.19687">
        <ele>119.2</ele>
        <time>2011-05-26T12:48:22Z</time>
      </trkpt>
      <trkpt lat="47.82272" lon="-3.19694">
        <ele>119.2</ele>
        <time>2011-05-26T12:48:23Z</time>
      </trkpt>
      <trkpt lat="47.82269" lon="-3.19698">
        <ele>119.4</ele>
        <time>2011-05-26T12:48:24Z</time>
      </trkpt>
      <trkpt lat="47.82265" lon="-3.19703">
        <ele>119.9</ele>
        <time>2011-05-26T12:48:25Z</time>
      </trkpt>
      <trkpt lat="47.82266" lon="-3.19712">
        <ele>120.1</ele>
        <time>2011-05-26T12:48:27Z</time>
      </trkpt>
      <trkpt lat="47.82261" lon="-3.19717">
        <ele>118.2</ele>
        <time>2011-05-26T12:48:28Z</time>
      </trkpt>
      <trkpt lat="47.82258" lon="-3.19722">
        <ele>118.5</ele>
        <time>2011-05-26T12:48:29Z</time>
      </trkpt>
      <trkpt lat="47.82254" lon="-3.19732">
        <ele>118.8</ele>
        <time>2011-05-26T12:48:30Z</time>
      </trkpt>
      <trkpt lat="47.82248" lon="-3.1974">
        <ele>118.9</ele>
        <time>2011-05-26T12:48:31Z</time>
      </trkpt>
      <trkpt lat="47.82243" lon="-3.19746">
        <ele>118.5</ele>
        <time>2011-05-26T12:48:32Z</time>
      </trkpt>
      <trkpt lat="47.8224" lon="-3.1976">
        <ele>117.2</ele>
        <time>2011-05-26T12:48:34Z</time>
      </trkpt>
      <trkpt lat="47.82235" lon="-3.1977">
        <ele>115.5</ele>
        <time>2011-05-26T12:48:36Z</time>
      </trkpt>
      <trkpt lat="47.82234" lon="-3.19778">
        <ele>116.4</ele>
        <time>2011-05-26T12:48:37Z</time>
      </trkpt>
      <trkpt lat="47.82231" lon="-3.19784">
        <ele>116.9</ele>
        <time>2011-05-26T12:48:38Z</time>
      </trkpt>
      <trkpt lat="47.82229" lon="-3.19791">
        <ele>117</ele>
        <time>2011-05-26T12:48:39Z</time>
      </trkpt>
      <trkpt lat="47.82223" lon="-3.19802">
        <ele>116.7</ele>
        <time>2011-05-26T12:48:41Z</time>
      </trkpt>
      <trkpt lat="47.82221" lon="-3.19811">
        <ele>115.6</ele>
        <time>2011-05-26T12:48:42Z</time>
      </trkpt>
      <trkpt lat="47.82219" lon="-3.19818">
        <ele>115.5</ele>
        <time>2011-05-26T12:48:43Z</time>
      </trkpt>
      <trkpt lat="47.82218" lon="-3.19824">
        <ele>115.1</ele>
        <time>2011-05-26T12:48:44Z</time>
      </trkpt>
      <trkpt lat="47.82213" lon="-3.1983">
        <ele>113.8</ele>
        <time>2011-05-26T12:48:45Z</time>
      </trkpt>
      <trkpt lat="47.82212" lon="-3.19841">
        <ele>115.9</ele>
        <time>2011-05-26T12:48:47Z</time>
      </trkpt>
      <trkpt lat="47.8221" lon="-3.19847">
        <ele>117.4</ele>
        <time>2011-05-26T12:48:48Z</time>
      </trkpt>
      <trkpt lat="47.82207" lon="-3.19853">
        <ele>117.6</ele>
        <time>2011-05-26T12:48:49Z</time>
      </trkpt>
      <trkpt lat="47.82205" lon="-3.1986">
        <ele>118</ele>
        <time>2011-05-26T12:48:50Z</time>
      </trkpt>
      <trkpt lat="47.82201" lon="-3.1987">
        <ele>116.5</ele>
        <time>2011-05-26T12:48:52Z</time>
      </trkpt>
      <trkpt lat="47.82198" lon="-3.19876">
        <ele>116.4</ele>
        <time>2011-05-26T12:48:53Z</time>
      </trkpt>
      <trkpt lat="47.82195" lon="-3.19883">
        <ele>117.2</ele>
        <time>2011-05-26T12:48:54Z</time>
      </trkpt>
      <trkpt lat="47.82192" lon="-3.19891">
        <ele>118</ele>
        <time>2011-05-26T12:48:55Z</time>
      </trkpt>
      <trkpt lat="47.8219" lon="-3.19898">
        <ele>118.2</ele>
        <time>2011-05-26T12:48:56Z</time>
      </trkpt>
      <trkpt lat="47.82184" lon="-3.19906">
        <ele>117.7</ele>
        <time>2011-05-26T12:48:58Z</time>
      </trkpt>
      <trkpt lat="47.8218" lon="-3.19915">
        <ele>117</ele>
        <time>2011-05-26T12:49:00Z</time>
      </trkpt>
      <trkpt lat="47.82177" lon="-3.19927">
        <ele>116</ele>
        <time>2011-05-26T12:49:02Z</time>
      </trkpt>
      <trkpt lat="47.82174" lon="-3.19934">
        <ele>115</ele>
        <time>2011-05-26T12:49:03Z</time>
      </trkpt>
      <trkpt lat="47.8217" lon="-3.19946">
        <ele>114.6</ele>
        <time>2011-05-26T12:49:05Z</time>
      </trkpt>
      <trkpt lat="47.82167" lon="-3.19955">
        <ele>115.2</ele>
        <time>2011-05-26T12:49:07Z</time>
      </trkpt>
      <trkpt lat="47.82164" lon="-3.19967">
        <ele>115</ele>
        <time>2011-05-26T12:49:09Z</time>
      </trkpt>
      <trkpt lat="47.8216" lon="-3.19978">
        <ele>115.3</ele>
        <time>2011-05-26T12:49:11Z</time>
      </trkpt>
      <trkpt lat="47.82157" lon="-3.19984">
        <ele>115.1</ele>
        <time>2011-05-26T12:49:12Z</time>
      </trkpt>
      <trkpt lat="47.82153" lon="-3.19995">
        <ele>116.7</ele>
        <time>2011-05-26T12:49:14Z</time>
      </trkpt>
      <trkpt lat="47.82148" lon="-3.20006">
        <ele>116.9</ele>
        <time>2011-05-26T12:49:16Z</time>
      </trkpt>
      <trkpt lat="47.82144" lon="-3.20017">
        <ele>117.1</ele>
        <time>2011-05-26T12:49:18Z</time>
      </trkpt>
      <trkpt lat="47.8214" lon="-3.20028">
        <ele>117.8</ele>
        <time>2011-05-26T12:49:20Z</time>
      </trkpt>
      <trkpt lat="47.82136" lon="-3.20038">
        <ele>117.4</ele>
        <time>2011-05-26T12:49:22Z</time>
      </trkpt>
      <trkpt lat="47.82132" lon="-3.20048">
        <ele>116.9</ele>
        <time>2011-05-26T12:49:24Z</time>
      </trkpt>
      <trkpt lat="47.82129" lon="-3.2006">
        <ele>117.4</ele>
        <time>2011-05-26T12:49:26Z</time>
      </trkpt>
      <trkpt lat="47.82124" lon="-3.2006">
        <ele>117.9</ele>
        <time>2011-05-26T12:49:27Z</time>
      </trkpt>
      <trkpt lat="47.82118" lon="-3.20064">
        <ele>117.3</ele>
        <time>2011-05-26T12:49:29Z</time>
      </trkpt>
      <trkpt lat="47.82111" lon="-3.20062">
        <ele>118.4</ele>
        <time>2011-05-26T12:49:31Z</time>
      </trkpt>
      <trkpt lat="47.82105" lon="-3.20058">
        <ele>119</ele>
        <time>2011-05-26T12:49:33Z</time>
      </trkpt>
      <trkpt lat="47.82098" lon="-3.20054">
        <ele>119</ele>
        <time>2011-05-26T12:49:35Z</time>
      </trkpt>
      <trkpt lat="47.8209" lon="-3.2005">
        <ele>119.2</ele>
        <time>2011-05-26T12:49:37Z</time>
      </trkpt>
      <trkpt lat="47.82083" lon="-3.20047">
        <ele>119.5</ele>
        <time>2011-05-26T12:49:39Z</time>
      </trkpt>
      <trkpt lat="47.82076" lon="-3.20044">
        <ele>119.6</ele>
        <time>2011-05-26T12:49:41Z</time>
      </trkpt>
      <trkpt lat="47.82068" lon="-3.20041">
        <ele>120.8</ele>
        <time>2011-05-26T12:49:43Z</time>
      </trkpt>
      <trkpt lat="47.82061" lon="-3.20037">
        <ele>120.1</ele>
        <time>2011-05-26T12:49:45Z</time>
      </trkpt>
      <trkpt lat="47.82053" lon="-3.20034">
        <ele>119.4</ele>
        <time>2011-05-26T12:49:47Z</time>
      </trkpt>
      <trkpt lat="47.82045" lon="-3.20032">
        <ele>120</ele>
        <time>2011-05-26T12:49:49Z</time>
      </trkpt>
      <trkpt lat="47.82037" lon="-3.2003">
        <ele>120.4</ele>
        <time>2011-05-26T12:49:51Z</time>
      </trkpt>
      <trkpt lat="47.82029" lon="-3.20027">
        <ele>119.9</ele>
        <time>2011-05-26T12:49:53Z</time>
      </trkpt>
      <trkpt lat="47.82021" lon="-3.20024">
        <ele>119.8</ele>
        <time>2011-05-26T12:49:55Z</time>
      </trkpt>
      <trkpt lat="47.82013" lon="-3.2002">
        <ele>119.2</ele>
        <time>2011-05-26T12:49:57Z</time>
      </trkpt>
      <trkpt lat="47.82006" lon="-3.20018">
        <ele>120.3</ele>
        <time>2011-05-26T12:49:59Z</time>
      </trkpt>
      <trkpt lat="47.81997" lon="-3.20016">
        <ele>121.1</ele>
        <time>2011-05-26T12:50:01Z</time>
      </trkpt>
      <trkpt lat="47.81989" lon="-3.20013">
        <ele>121.3</ele>
        <time>2011-05-26T12:50:03Z</time>
      </trkpt>
      <trkpt lat="47.8198" lon="-3.20011">
        <ele>121.5</ele>
        <time>2011-05-26T12:50:05Z</time>
      </trkpt>
      <trkpt lat="47.81972" lon="-3.20007">
        <ele>121.5</ele>
        <time>2011-05-26T12:50:07Z</time>
      </trkpt>
      <trkpt lat="47.81965" lon="-3.20005">
        <ele>120.7</ele>
        <time>2011-05-26T12:50:09Z</time>
      </trkpt>
      <trkpt lat="47.81957" lon="-3.20002">
        <ele>120.9</ele>
        <time>2011-05-26T12:50:11Z</time>
      </trkpt>
      <trkpt lat="47.81949" lon="-3.2">
        <ele>120.4</ele>
        <time>2011-05-26T12:50:13Z</time>
      </trkpt>
      <trkpt lat="47.81941" lon="-3.19997">
        <ele>120.5</ele>
        <time>2011-05-26T12:50:15Z</time>
      </trkpt>
      <trkpt lat="47.81933" lon="-3.19994">
        <ele>120.4</ele>
        <time>2011-05-26T12:50:17Z</time>
      </trkpt>
      <trkpt lat="47.81924" lon="-3.19991">
        <ele>120</ele>
        <time>2011-05-26T12:50:19Z</time>
      </trkpt>
      <trkpt lat="47.81916" lon="-3.19988">
        <ele>120.1</ele>
        <time>2011-05-26T12:50:21Z</time>
      </trkpt>
      <trkpt lat="47.81912" lon="-3.19987">
        <ele>119.6</ele>
        <time>2011-05-26T12:50:22Z</time>
      </trkpt>
      <trkpt lat="47.81907" lon="-3.19985">
        <ele>119.4</ele>
        <time>2011-05-26T12:50:23Z</time>
      </trkpt>
      <trkpt lat="47.81899" lon="-3.19982">
        <ele>119.3</ele>
        <time>2011-05-26T12:50:25Z</time>
      </trkpt>
      <trkpt lat="47.81894" lon="-3.1998">
        <ele>118.9</ele>
        <time>2011-05-26T12:50:26Z</time>
      </trkpt>
      <trkpt lat="47.81889" lon="-3.19978">
        <ele>118.3</ele>
        <time>2011-05-26T12:50:27Z</time>
      </trkpt>
      <trkpt lat="47.81885" lon="-3.19976">
        <ele>118.2</ele>
        <time>2011-05-26T12:50:28Z</time>
      </trkpt>
      <trkpt lat="47.81875" lon="-3.19973">
        <ele>117.4</ele>
        <time>2011-05-26T12:50:30Z</time>
      </trkpt>
      <trkpt lat="47.8187" lon="-3.19971">
        <ele>117.3</ele>
        <time>2011-05-26T12:50:31Z</time>
      </trkpt>
      <trkpt lat="47.81862" lon="-3.19969">
        <ele>117.4</ele>
        <time>2011-05-26T12:50:33Z</time>
      </trkpt>
      <trkpt lat="47.81857" lon="-3.19967">
        <ele>117.1</ele>
        <time>2011-05-26T12:50:34Z</time>
      </trkpt>
      <trkpt lat="47.81848" lon="-3.19963">
        <ele>117</ele>
        <time>2011-05-26T12:50:36Z</time>
      </trkpt>
      <trkpt lat="47.81843" lon="-3.19962">
        <ele>117.2</ele>
        <time>2011-05-26T12:50:37Z</time>
      </trkpt>
      <trkpt lat="47.81838" lon="-3.19961">
        <ele>117.2</ele>
        <time>2011-05-26T12:50:38Z</time>
      </trkpt>
      <trkpt lat="47.81833" lon="-3.19959">
        <ele>117.2</ele>
        <time>2011-05-26T12:50:39Z</time>
      </trkpt>
      <trkpt lat="47.81828" lon="-3.19958">
        <ele>116.4</ele>
        <time>2011-05-26T12:50:40Z</time>
      </trkpt>
      <trkpt lat="47.81824" lon="-3.19956">
        <ele>116.3</ele>
        <time>2011-05-26T12:50:41Z</time>
      </trkpt>
      <trkpt lat="47.81819" lon="-3.19954">
        <ele>116.4</ele>
        <time>2011-05-26T12:50:42Z</time>
      </trkpt>
      <trkpt lat="47.81814" lon="-3.19952">
        <ele>116.7</ele>
        <time>2011-05-26T12:50:43Z</time>
      </trkpt>
      <trkpt lat="47.81805" lon="-3.1995">
        <ele>116.7</ele>
        <time>2011-05-26T12:50:45Z</time>
      </trkpt>
      <trkpt lat="47.81796" lon="-3.19947">
        <ele>116.2</ele>
        <time>2011-05-26T12:50:47Z</time>
      </trkpt>
      <trkpt lat="47.81791" lon="-3.19945">
        <ele>116.5</ele>
        <time>2011-05-26T12:50:48Z</time>
      </trkpt>
      <trkpt lat="47.81786" lon="-3.19943">
        <ele>116.2</ele>
        <time>2011-05-26T12:50:49Z</time>
      </trkpt>
      <trkpt lat="47.81781" lon="-3.19941">
        <ele>116.3</ele>
        <time>2011-05-26T12:50:50Z</time>
      </trkpt>
      <trkpt lat="47.81776" lon="-3.19939">
        <ele>115.7</ele>
        <time>2011-05-26T12:50:51Z</time>
      </trkpt>
      <trkpt lat="47.81771" lon="-3.19937">
        <ele>116.4</ele>
        <time>2011-05-26T12:50:52Z</time>
      </trkpt>
      <trkpt lat="47.81766" lon="-3.19935">
        <ele>116.5</ele>
        <time>2011-05-26T12:50:53Z</time>
      </trkpt>
      <trkpt lat="47.81761" lon="-3.19933">
        <ele>115.9</ele>
        <time>2011-05-26T12:50:54Z</time>
      </trkpt>
      <trkpt lat="47.81756" lon="-3.19931">
        <ele>115.8</ele>
        <time>2011-05-26T12:50:55Z</time>
      </trkpt>
      <trkpt lat="47.81751" lon="-3.19929">
        <ele>116.8</ele>
        <time>2011-05-26T12:50:56Z</time>
      </trkpt>
      <trkpt lat="47.81746" lon="-3.19927">
        <ele>116.9</ele>
        <time>2011-05-26T12:50:57Z</time>
      </trkpt>
      <trkpt lat="47.8174" lon="-3.19925">
        <ele>116.4</ele>
        <time>2011-05-26T12:50:58Z</time>
      </trkpt>
      <trkpt lat="47.81735" lon="-3.19923">
        <ele>116.4</ele>
        <time>2011-05-26T12:50:59Z</time>
      </trkpt>
      <trkpt lat="47.8173" lon="-3.19921">
        <ele>116.4</ele>
        <time>2011-05-26T12:51:00Z</time>
      </trkpt>
      <trkpt lat="47.81726" lon="-3.1992">
        <ele>115.8</ele>
        <time>2011-05-26T12:51:01Z</time>
      </trkpt>
      <trkpt lat="47.8172" lon="-3.19918">
        <ele>115.5</ele>
        <time>2011-05-26T12:51:02Z</time>
      </trkpt>
      <trkpt lat="47.81715" lon="-3.19916">
        <ele>115.9</ele>
        <time>2011-05-26T12:51:03Z</time>
      </trkpt>
      <trkpt lat="47.81711" lon="-3.19915">
        <ele>115.8</ele>
        <time>2011-05-26T12:51:04Z</time>
      </trkpt>
      <trkpt lat="47.81706" lon="-3.19916">
        <ele>115.5</ele>
        <time>2011-05-26T12:51:05Z</time>
      </trkpt>
      <trkpt lat="47.81703" lon="-3.19921">
        <ele>115.3</ele>
        <time>2011-05-26T12:51:06Z</time>
      </trkpt>
      <trkpt lat="47.81701" lon="-3.19928">
        <ele>115.7</ele>
        <time>2011-05-26T12:51:07Z</time>
      </trkpt>
      <trkpt lat="47.817" lon="-3.19936">
        <ele>115.5</ele>
        <time>2011-05-26T12:51:08Z</time>
      </trkpt>
      <trkpt lat="47.81699" lon="-3.19943">
        <ele>115.6</ele>
        <time>2011-05-26T12:51:09Z</time>
      </trkpt>
      <trkpt lat="47.81698" lon="-3.1995">
        <ele>115.3</ele>
        <time>2011-05-26T12:51:10Z</time>
      </trkpt>
      <trkpt lat="47.81698" lon="-3.19957">
        <ele>114.8</ele>
        <time>2011-05-26T12:51:11Z</time>
      </trkpt>
      <trkpt lat="47.81697" lon="-3.1997">
        <ele>115.1</ele>
        <time>2011-05-26T12:51:13Z</time>
      </trkpt>
      <trkpt lat="47.81696" lon="-3.19976">
        <ele>115.1</ele>
        <time>2011-05-26T12:51:14Z</time>
      </trkpt>
      <trkpt lat="47.81696" lon="-3.19984">
        <ele>115.1</ele>
        <time>2011-05-26T12:51:15Z</time>
      </trkpt>
      <trkpt lat="47.81695" lon="-3.1999">
        <ele>115.2</ele>
        <time>2011-05-26T12:51:16Z</time>
      </trkpt>
      <trkpt lat="47.81694" lon="-3.20002">
        <ele>115.5</ele>
        <time>2011-05-26T12:51:18Z</time>
      </trkpt>
      <trkpt lat="47.81694" lon="-3.20012">
        <ele>115.3</ele>
        <time>2011-05-26T12:51:20Z</time>
      </trkpt>
      <trkpt lat="47.81692" lon="-3.20023">
        <ele>115.4</ele>
        <time>2011-05-26T12:51:22Z</time>
      </trkpt>
      <trkpt lat="47.81692" lon="-3.20035">
        <ele>116.4</ele>
        <time>2011-05-26T12:51:24Z</time>
      </trkpt>
      <trkpt lat="47.81691" lon="-3.20047">
        <ele>116.3</ele>
        <time>2011-05-26T12:51:26Z</time>
      </trkpt>
      <trkpt lat="47.8169" lon="-3.20058">
        <ele>116.7</ele>
        <time>2011-05-26T12:51:28Z</time>
      </trkpt>
      <trkpt lat="47.81689" lon="-3.20069">
        <ele>117.1</ele>
        <time>2011-05-26T12:51:30Z</time>
      </trkpt>
      <trkpt lat="47.81689" lon="-3.20081">
        <ele>117.6</ele>
        <time>2011-05-26T12:51:32Z</time>
      </trkpt>
      <trkpt lat="47.81688" lon="-3.20093">
        <ele>117.6</ele>
        <time>2011-05-26T12:51:34Z</time>
      </trkpt>
      <trkpt lat="47.81686" lon="-3.20105">
        <ele>117.5</ele>
        <time>2011-05-26T12:51:36Z</time>
      </trkpt>
      <trkpt lat="47.81685" lon="-3.20116">
        <ele>117.9</ele>
        <time>2011-05-26T12:51:38Z</time>
      </trkpt>
      <trkpt lat="47.81684" lon="-3.20128">
        <ele>117.8</ele>
        <time>2011-05-26T12:51:40Z</time>
      </trkpt>
      <trkpt lat="47.81683" lon="-3.20139">
        <ele>117.9</ele>
        <time>2011-05-26T12:51:42Z</time>
      </trkpt>
      <trkpt lat="47.81681" lon="-3.2015">
        <ele>117.2</ele>
        <time>2011-05-26T12:51:44Z</time>
      </trkpt>
      <trkpt lat="47.81681" lon="-3.20162">
        <ele>116.9</ele>
        <time>2011-05-26T12:51:46Z</time>
      </trkpt>
      <trkpt lat="47.81679" lon="-3.20172">
        <ele>116.8</ele>
        <time>2011-05-26T12:51:48Z</time>
      </trkpt>
      <trkpt lat="47.8168" lon="-3.20183">
        <ele>117.7</ele>
        <time>2011-05-26T12:51:50Z</time>
      </trkpt>
      <trkpt lat="47.81681" lon="-3.20195">
        <ele>117.3</ele>
        <time>2011-05-26T12:51:52Z</time>
      </trkpt>
      <trkpt lat="47.8168" lon="-3.20204">
        <ele>116.3</ele>
        <time>2011-05-26T12:51:53Z</time>
      </trkpt>
      <trkpt lat="47.81679" lon="-3.20214">
        <ele>115.3</ele>
        <time>2011-05-26T12:51:55Z</time>
      </trkpt>
      <trkpt lat="47.81674" lon="-3.20215">
        <ele>118.7</ele>
        <time>2011-05-26T12:51:56Z</time>
      </trkpt>
      <trkpt lat="47.8167" lon="-3.20226">
        <ele>119.1</ele>
        <time>2011-05-26T12:51:58Z</time>
      </trkpt>
      <trkpt lat="47.81667" lon="-3.20238">
        <ele>118.7</ele>
        <time>2011-05-26T12:52:00Z</time>
      </trkpt>
      <trkpt lat="47.81669" lon="-3.20245">
        <ele>118.3</ele>
        <time>2011-05-26T12:52:03Z</time>
      </trkpt>
      <trkpt lat="47.81664" lon="-3.20239">
        <ele>120.5</ele>
        <time>2011-05-26T12:52:07Z</time>
      </trkpt>
      <trkpt lat="47.81659" lon="-3.20243">
        <ele>120.8</ele>
        <time>2011-05-26T12:52:09Z</time>
      </trkpt>
      <trkpt lat="47.81652" lon="-3.20248">
        <ele>121.3</ele>
        <time>2011-05-26T12:52:12Z</time>
      </trkpt>
      <trkpt lat="47.81646" lon="-3.2025">
        <ele>121.5</ele>
        <time>2011-05-26T12:52:14Z</time>
      </trkpt>
      <trkpt lat="47.8164" lon="-3.20247">
        <ele>120.1</ele>
        <time>2011-05-26T12:52:15Z</time>
      </trkpt>
      <trkpt lat="47.81635" lon="-3.20246">
        <ele>120.1</ele>
        <time>2011-05-26T12:52:16Z</time>
      </trkpt>
      <trkpt lat="47.81625" lon="-3.20249">
        <ele>122.1</ele>
        <time>2011-05-26T12:52:18Z</time>
      </trkpt>
      <trkpt lat="47.81626" lon="-3.20258">
        <ele>121.4</ele>
        <time>2011-05-26T12:52:21Z</time>
      </trkpt>
      <trkpt lat="47.81616" lon="-3.20263">
        <ele>126.3</ele>
        <time>2011-05-26T12:52:23Z</time>
      </trkpt>
      <trkpt lat="47.81608" lon="-3.20271">
        <ele>130</ele>
        <time>2011-05-26T12:52:25Z</time>
      </trkpt>
      <trkpt lat="47.816" lon="-3.20272">
        <ele>132.5</ele>
        <time>2011-05-26T12:52:26Z</time>
      </trkpt>
      <trkpt lat="47.81596" lon="-3.20277">
        <ele>134.5</ele>
        <time>2011-05-26T12:52:27Z</time>
      </trkpt>
      <trkpt lat="47.81588" lon="-3.20277">
        <ele>134.6</ele>
        <time>2011-05-26T12:52:29Z</time>
      </trkpt>
      <trkpt lat="47.81582" lon="-3.2028">
        <ele>133.2</ele>
        <time>2011-05-26T12:52:31Z</time>
      </trkpt>
      <trkpt lat="47.81579" lon="-3.20288">
        <ele>128.3</ele>
        <time>2011-05-26T12:52:34Z</time>
      </trkpt>
      <trkpt lat="47.81578" lon="-3.20296">
        <ele>125.3</ele>
        <time>2011-05-26T12:52:37Z</time>
      </trkpt>
      <trkpt lat="47.81579" lon="-3.20303">
        <ele>126.4</ele>
        <time>2011-05-26T12:52:39Z</time>
      </trkpt>
      <trkpt lat="47.8158" lon="-3.20311">
        <ele>125.9</ele>
        <time>2011-05-26T12:52:41Z</time>
      </trkpt>
      <trkpt lat="47.81577" lon="-3.20319">
        <ele>126.7</ele>
        <time>2011-05-26T12:52:43Z</time>
      </trkpt>
      <trkpt lat="47.81575" lon="-3.2033">
        <ele>126.9</ele>
        <time>2011-05-26T12:52:45Z</time>
      </trkpt>
      <trkpt lat="47.81565" lon="-3.20339">
        <ele>126.8</ele>
        <time>2011-05-26T12:52:47Z</time>
      </trkpt>
      <trkpt lat="47.81559" lon="-3.20342">
        <ele>131</ele>
        <time>2011-05-26T12:52:48Z</time>
      </trkpt>
      <trkpt lat="47.81554" lon="-3.20349">
        <ele>134</ele>
        <time>2011-05-26T12:52:50Z</time>
      </trkpt>
      <trkpt lat="47.8155" lon="-3.20354">
        <ele>133.5</ele>
        <time>2011-05-26T12:52:51Z</time>
      </trkpt>
      <trkpt lat="47.81545" lon="-3.20365">
        <ele>131.3</ele>
        <time>2011-05-26T12:52:52Z</time>
      </trkpt>
      <trkpt lat="47.8154" lon="-3.20373">
        <ele>132.5</ele>
        <time>2011-05-26T12:52:54Z</time>
      </trkpt>
      <trkpt lat="47.81537" lon="-3.20379">
        <ele>133.4</ele>
        <time>2011-05-26T12:52:57Z</time>
      </trkpt>
      <trkpt lat="47.81534" lon="-3.20385">
        <ele>133.4</ele>
        <time>2011-05-26T12:52:59Z</time>
      </trkpt>
      <trkpt lat="47.8153" lon="-3.2039">
        <ele>134.5</ele>
        <time>2011-05-26T12:53:01Z</time>
      </trkpt>
      <trkpt lat="47.81529" lon="-3.204">
        <ele>133.3</ele>
        <time>2011-05-26T12:53:03Z</time>
      </trkpt>
      <trkpt lat="47.81517" lon="-3.20406">
        <ele>130.8</ele>
        <time>2011-05-26T12:53:05Z</time>
      </trkpt>
      <trkpt lat="47.81509" lon="-3.20409">
        <ele>128.6</ele>
        <time>2011-05-26T12:53:06Z</time>
      </trkpt>
      <trkpt lat="47.81504" lon="-3.20414">
        <ele>128.6</ele>
        <time>2011-05-26T12:53:07Z</time>
      </trkpt>
      <trkpt lat="47.81498" lon="-3.2042">
        <ele>133.6</ele>
        <time>2011-05-26T12:53:10Z</time>
      </trkpt>
      <trkpt lat="47.81491" lon="-3.20423">
        <ele>132.9</ele>
        <time>2011-05-26T12:53:12Z</time>
      </trkpt>
      <trkpt lat="47.81483" lon="-3.20428">
        <ele>132</ele>
        <time>2011-05-26T12:53:15Z</time>
      </trkpt>
      <trkpt lat="47.8148" lon="-3.20436">
        <ele>137.2</ele>
        <time>2011-05-26T12:53:17Z</time>
      </trkpt>
      <trkpt lat="47.81475" lon="-3.20446">
        <ele>143</ele>
        <time>2011-05-26T12:53:19Z</time>
      </trkpt>
      <trkpt lat="47.81472" lon="-3.20451">
        <ele>142</ele>
        <time>2011-05-26T12:53:20Z</time>
      </trkpt>
      <trkpt lat="47.8147" lon="-3.20458">
        <ele>145</ele>
        <time>2011-05-26T12:53:21Z</time>
      </trkpt>
      <trkpt lat="47.81468" lon="-3.20471">
        <ele>144.6</ele>
        <time>2011-05-26T12:53:22Z</time>
      </trkpt>
      <trkpt lat="47.81466" lon="-3.20478">
        <ele>146.5</ele>
        <time>2011-05-26T12:53:23Z</time>
      </trkpt>
      <trkpt lat="47.81462" lon="-3.20492">
        <ele>150.4</ele>
        <time>2011-05-26T12:53:25Z</time>
      </trkpt>
      <trkpt lat="47.81456" lon="-3.20499">
        <ele>147.8</ele>
        <time>2011-05-26T12:53:26Z</time>
      </trkpt>
      <trkpt lat="47.81452" lon="-3.20507">
        <ele>147.3</ele>
        <time>2011-05-26T12:53:28Z</time>
      </trkpt>
      <trkpt lat="47.81444" lon="-3.20502">
        <ele>147.5</ele>
        <time>2011-05-26T12:53:30Z</time>
      </trkpt>
      <trkpt lat="47.81436" lon="-3.20507">
        <ele>145.1</ele>
        <time>2011-05-26T12:53:32Z</time>
      </trkpt>
      <trkpt lat="47.81436" lon="-3.20517">
        <ele>144.5</ele>
        <time>2011-05-26T12:53:34Z</time>
      </trkpt>
      <trkpt lat="47.81436" lon="-3.20528">
        <ele>144.4</ele>
        <time>2011-05-26T12:53:36Z</time>
      </trkpt>
      <trkpt lat="47.81433" lon="-3.20535">
        <ele>145.8</ele>
        <time>2011-05-26T12:53:38Z</time>
      </trkpt>
      <trkpt lat="47.81426" lon="-3.20549">
        <ele>148.7</ele>
        <time>2011-05-26T12:53:40Z</time>
      </trkpt>
      <trkpt lat="47.81421" lon="-3.20555">
        <ele>149.8</ele>
        <time>2011-05-26T12:53:42Z</time>
      </trkpt>
      <trkpt lat="47.81415" lon="-3.20555">
        <ele>146.2</ele>
        <time>2011-05-26T12:53:43Z</time>
      </trkpt>
      <trkpt lat="47.8141" lon="-3.20557">
        <ele>145.3</ele>
        <time>2011-05-26T12:53:45Z</time>
      </trkpt>
      <trkpt lat="47.81406" lon="-3.20563">
        <ele>146.4</ele>
        <time>2011-05-26T12:53:46Z</time>
      </trkpt>
      <trkpt lat="47.81398" lon="-3.20569">
        <ele>142.7</ele>
        <time>2011-05-26T12:53:48Z</time>
      </trkpt>
      <trkpt lat="47.81393" lon="-3.20572">
        <ele>141.2</ele>
        <time>2011-05-26T12:53:49Z</time>
      </trkpt>
      <trkpt lat="47.81386" lon="-3.20577">
        <ele>140.1</ele>
        <time>2011-05-26T12:53:51Z</time>
      </trkpt>
      <trkpt lat="47.81382" lon="-3.20585">
        <ele>137.3</ele>
        <time>2011-05-26T12:53:52Z</time>
      </trkpt>
      <trkpt lat="47.81386" lon="-3.20594">
        <ele>137.6</ele>
        <time>2011-05-26T12:53:54Z</time>
      </trkpt>
      <trkpt lat="47.81388" lon="-3.20602">
        <ele>135.2</ele>
        <time>2011-05-26T12:53:55Z</time>
      </trkpt>
      <trkpt lat="47.81386" lon="-3.20617">
        <ele>133.3</ele>
        <time>2011-05-26T12:53:57Z</time>
      </trkpt>
      <trkpt lat="47.81385" lon="-3.20636">
        <ele>130.1</ele>
        <time>2011-05-26T12:53:59Z</time>
      </trkpt>
      <trkpt lat="47.81386" lon="-3.20643">
        <ele>128</ele>
        <time>2011-05-26T12:54:00Z</time>
      </trkpt>
      <trkpt lat="47.81388" lon="-3.20649">
        <ele>127.8</ele>
        <time>2011-05-26T12:54:01Z</time>
      </trkpt>
      <trkpt lat="47.81389" lon="-3.20656">
        <ele>126.5</ele>
        <time>2011-05-26T12:54:02Z</time>
      </trkpt>
      <trkpt lat="47.81386" lon="-3.20669">
        <ele>123.2</ele>
        <time>2011-05-26T12:54:04Z</time>
      </trkpt>
      <trkpt lat="47.81383" lon="-3.20679">
        <ele>120.4</ele>
        <time>2011-05-26T12:54:06Z</time>
      </trkpt>
      <trkpt lat="47.8138" lon="-3.20686">
        <ele>119.8</ele>
        <time>2011-05-26T12:54:08Z</time>
      </trkpt>
      <trkpt lat="47.81378" lon="-3.20694">
        <ele>119.5</ele>
        <time>2011-05-26T12:54:10Z</time>
      </trkpt>
      <trkpt lat="47.81376" lon="-3.207">
        <ele>119.2</ele>
        <time>2011-05-26T12:54:13Z</time>
      </trkpt>
      <trkpt lat="47.81371" lon="-3.20708">
        <ele>118.8</ele>
        <time>2011-05-26T12:54:15Z</time>
      </trkpt>
      <trkpt lat="47.81371" lon="-3.20721">
        <ele>118.4</ele>
        <time>2011-05-26T12:54:17Z</time>
      </trkpt>
      <trkpt lat="47.81375" lon="-3.20728">
        <ele>121.8</ele>
        <time>2011-05-26T12:54:18Z</time>
      </trkpt>
      <trkpt lat="47.81377" lon="-3.20739">
        <ele>123.6</ele>
        <time>2011-05-26T12:54:20Z</time>
      </trkpt>
      <trkpt lat="47.81377" lon="-3.20747">
        <ele>124.7</ele>
        <time>2011-05-26T12:54:22Z</time>
      </trkpt>
      <trkpt lat="47.81377" lon="-3.2076">
        <ele>125.3</ele>
        <time>2011-05-26T12:54:25Z</time>
      </trkpt>
      <trkpt lat="47.81378" lon="-3.20776">
        <ele>126.1</ele>
        <time>2011-05-26T12:54:27Z</time>
      </trkpt>
      <trkpt lat="47.81375" lon="-3.20786">
        <ele>124.7</ele>
        <time>2011-05-26T12:54:28Z</time>
      </trkpt>
      <trkpt lat="47.81376" lon="-3.20806">
        <ele>124.1</ele>
        <time>2011-05-26T12:54:30Z</time>
      </trkpt>
      <trkpt lat="47.8137" lon="-3.20812">
        <ele>127.4</ele>
        <time>2011-05-26T12:54:32Z</time>
      </trkpt>
      <trkpt lat="47.81364" lon="-3.20818">
        <ele>125.6</ele>
        <time>2011-05-26T12:54:33Z</time>
      </trkpt>
      <trkpt lat="47.81362" lon="-3.2083">
        <ele>123.8</ele>
        <time>2011-05-26T12:54:35Z</time>
      </trkpt>
      <trkpt lat="47.81361" lon="-3.20842">
        <ele>125.7</ele>
        <time>2011-05-26T12:54:37Z</time>
      </trkpt>
      <trkpt lat="47.81358" lon="-3.20853">
        <ele>127.8</ele>
        <time>2011-05-26T12:54:39Z</time>
      </trkpt>
      <trkpt lat="47.81355" lon="-3.20862">
        <ele>127.1</ele>
        <time>2011-05-26T12:54:41Z</time>
      </trkpt>
      <trkpt lat="47.81352" lon="-3.2087">
        <ele>126.5</ele>
        <time>2011-05-26T12:54:43Z</time>
      </trkpt>
      <trkpt lat="47.81345" lon="-3.20867">
        <ele>128.3</ele>
        <time>2011-05-26T12:54:45Z</time>
      </trkpt>
      <trkpt lat="47.81341" lon="-3.2087">
        <ele>128</ele>
        <time>2011-05-26T12:54:47Z</time>
      </trkpt>
      <trkpt lat="47.81338" lon="-3.20876">
        <ele>129.1</ele>
        <time>2011-05-26T12:54:49Z</time>
      </trkpt>
      <trkpt lat="47.81336" lon="-3.20884">
        <ele>129.7</ele>
        <time>2011-05-26T12:54:50Z</time>
      </trkpt>
      <trkpt lat="47.81334" lon="-3.20893">
        <ele>130.1</ele>
        <time>2011-05-26T12:54:51Z</time>
      </trkpt>
      <trkpt lat="47.81328" lon="-3.20898">
        <ele>130.5</ele>
        <time>2011-05-26T12:54:52Z</time>
      </trkpt>
      <trkpt lat="47.81323" lon="-3.20911">
        <ele>130</ele>
        <time>2011-05-26T12:54:54Z</time>
      </trkpt>
      <trkpt lat="47.81319" lon="-3.20922">
        <ele>129.6</ele>
        <time>2011-05-26T12:54:56Z</time>
      </trkpt>
      <trkpt lat="47.81319" lon="-3.20929">
        <ele>130.3</ele>
        <time>2011-05-26T12:54:58Z</time>
      </trkpt>
      <trkpt lat="47.81316" lon="-3.20935">
        <ele>130.5</ele>
        <time>2011-05-26T12:55:00Z</time>
      </trkpt>
      <trkpt lat="47.8131" lon="-3.2094">
        <ele>136.5</ele>
        <time>2011-05-26T12:55:03Z</time>
      </trkpt>
      <trkpt lat="47.81303" lon="-3.20941">
        <ele>135.6</ele>
        <time>2011-05-26T12:55:04Z</time>
      </trkpt>
      <trkpt lat="47.81298" lon="-3.20943">
        <ele>135.4</ele>
        <time>2011-05-26T12:55:05Z</time>
      </trkpt>
      <trkpt lat="47.8129" lon="-3.20945">
        <ele>134.3</ele>
        <time>2011-05-26T12:55:06Z</time>
      </trkpt>
      <trkpt lat="47.81278" lon="-3.20946">
        <ele>133.4</ele>
        <time>2011-05-26T12:55:08Z</time>
      </trkpt>
      <trkpt lat="47.81272" lon="-3.2095">
        <ele>132.2</ele>
        <time>2011-05-26T12:55:09Z</time>
      </trkpt>
      <trkpt lat="47.81266" lon="-3.20952">
        <ele>130.2</ele>
        <time>2011-05-26T12:55:10Z</time>
      </trkpt>
      <trkpt lat="47.8126" lon="-3.20954">
        <ele>128.7</ele>
        <time>2011-05-26T12:55:11Z</time>
      </trkpt>
      <trkpt lat="47.81255" lon="-3.20955">
        <ele>129.1</ele>
        <time>2011-05-26T12:55:12Z</time>
      </trkpt>
      <trkpt lat="47.81251" lon="-3.20963">
        <ele>129</ele>
        <time>2011-05-26T12:55:13Z</time>
      </trkpt>
      <trkpt lat="47.81243" lon="-3.20969">
        <ele>130.4</ele>
        <time>2011-05-26T12:55:15Z</time>
      </trkpt>
      <trkpt lat="47.81238" lon="-3.20974">
        <ele>130.8</ele>
        <time>2011-05-26T12:55:16Z</time>
      </trkpt>
      <trkpt lat="47.81233" lon="-3.20977">
        <ele>131.2</ele>
        <time>2011-05-26T12:55:17Z</time>
      </trkpt>
      <trkpt lat="47.81227" lon="-3.20984">
        <ele>129.3</ele>
        <time>2011-05-26T12:55:19Z</time>
      </trkpt>
      <trkpt lat="47.81218" lon="-3.20986">
        <ele>129.8</ele>
        <time>2011-05-26T12:55:21Z</time>
      </trkpt>
      <trkpt lat="47.81214" lon="-3.2099">
        <ele>129.3</ele>
        <time>2011-05-26T12:55:22Z</time>
      </trkpt>
      <trkpt lat="47.81207" lon="-3.20996">
        <ele>127.4</ele>
        <time>2011-05-26T12:55:24Z</time>
      </trkpt>
      <trkpt lat="47.81202" lon="-3.20998">
        <ele>124</ele>
        <time>2011-05-26T12:55:26Z</time>
      </trkpt>
      <trkpt lat="47.81194" lon="-3.21004">
        <ele>123.1</ele>
        <time>2011-05-26T12:55:28Z</time>
      </trkpt>
      <trkpt lat="47.81189" lon="-3.21007">
        <ele>122.6</ele>
        <time>2011-05-26T12:55:29Z</time>
      </trkpt>
      <trkpt lat="47.81184" lon="-3.21012">
        <ele>124.1</ele>
        <time>2011-05-26T12:55:30Z</time>
      </trkpt>
      <trkpt lat="47.8118" lon="-3.21015">
        <ele>125.1</ele>
        <time>2011-05-26T12:55:31Z</time>
      </trkpt>
      <trkpt lat="47.81176" lon="-3.21018">
        <ele>123.5</ele>
        <time>2011-05-26T12:55:32Z</time>
      </trkpt>
      <trkpt lat="47.81167" lon="-3.21023">
        <ele>123.3</ele>
        <time>2011-05-26T12:55:34Z</time>
      </trkpt>
      <trkpt lat="47.81162" lon="-3.21026">
        <ele>123.4</ele>
        <time>2011-05-26T12:55:35Z</time>
      </trkpt>
      <trkpt lat="47.81158" lon="-3.21028">
        <ele>123.5</ele>
        <time>2011-05-26T12:55:36Z</time>
      </trkpt>
      <trkpt lat="47.8115" lon="-3.21035">
        <ele>121.7</ele>
        <time>2011-05-26T12:55:38Z</time>
      </trkpt>
      <trkpt lat="47.81146" lon="-3.21038">
        <ele>122.1</ele>
        <time>2011-05-26T12:55:39Z</time>
      </trkpt>
      <trkpt lat="47.81141" lon="-3.21041">
        <ele>121.6</ele>
        <time>2011-05-26T12:55:40Z</time>
      </trkpt>
      <trkpt lat="47.81137" lon="-3.21044">
        <ele>122</ele>
        <time>2011-05-26T12:55:41Z</time>
      </trkpt>
      <trkpt lat="47.81132" lon="-3.21047">
        <ele>121.7</ele>
        <time>2011-05-26T12:55:42Z</time>
      </trkpt>
      <trkpt lat="47.81125" lon="-3.21054">
        <ele>121.1</ele>
        <time>2011-05-26T12:55:44Z</time>
      </trkpt>
      <trkpt lat="47.81121" lon="-3.21057">
        <ele>121.3</ele>
        <time>2011-05-26T12:55:45Z</time>
      </trkpt>
      <trkpt lat="47.81117" lon="-3.21068">
        <ele>120.9</ele>
        <time>2011-05-26T12:55:47Z</time>
      </trkpt>
      <trkpt lat="47.81116" lon="-3.21078">
        <ele>119.5</ele>
        <time>2011-05-26T12:55:49Z</time>
      </trkpt>
      <trkpt lat="47.81116" lon="-3.2109">
        <ele>119.4</ele>
        <time>2011-05-26T12:55:51Z</time>
      </trkpt>
      <trkpt lat="47.81117" lon="-3.21102">
        <ele>119.2</ele>
        <time>2011-05-26T12:55:53Z</time>
      </trkpt>
      <trkpt lat="47.81119" lon="-3.21114">
        <ele>119</ele>
        <time>2011-05-26T12:55:55Z</time>
      </trkpt>
      <trkpt lat="47.81121" lon="-3.21126">
        <ele>119.1</ele>
        <time>2011-05-26T12:55:57Z</time>
      </trkpt>
      <trkpt lat="47.81124" lon="-3.21136">
        <ele>119.1</ele>
        <time>2011-05-26T12:55:59Z</time>
      </trkpt>
      <trkpt lat="47.81126" lon="-3.21146">
        <ele>119.2</ele>
        <time>2011-05-26T12:56:01Z</time>
      </trkpt>
      <trkpt lat="47.81128" lon="-3.21157">
        <ele>118.4</ele>
        <time>2011-05-26T12:56:03Z</time>
      </trkpt>
      <trkpt lat="47.81131" lon="-3.21168">
        <ele>118.4</ele>
        <time>2011-05-26T12:56:05Z</time>
      </trkpt>
      <trkpt lat="47.81133" lon="-3.21179">
        <ele>118.4</ele>
        <time>2011-05-26T12:56:07Z</time>
      </trkpt>
      <trkpt lat="47.81135" lon="-3.2119">
        <ele>117.9</ele>
        <time>2011-05-26T12:56:09Z</time>
      </trkpt>
      <trkpt lat="47.81137" lon="-3.212">
        <ele>117.5</ele>
        <time>2011-05-26T12:56:11Z</time>
      </trkpt>
      <trkpt lat="47.81138" lon="-3.21208">
        <ele>118.1</ele>
        <time>2011-05-26T12:56:14Z</time>
      </trkpt>
      <trkpt lat="47.81139" lon="-3.21215">
        <ele>119.6</ele>
        <time>2011-05-26T12:56:17Z</time>
      </trkpt>
      <trkpt lat="47.81135" lon="-3.21212">
        <ele>120.1</ele>
        <time>2011-05-26T12:56:18Z</time>
      </trkpt>
      <trkpt lat="47.81136" lon="-3.21218">
        <ele>121.6</ele>
        <time>2011-05-26T12:56:20Z</time>
      </trkpt>
      <trkpt lat="47.81133" lon="-3.21225">
        <ele>129.2</ele>
        <time>2011-05-26T12:56:24Z</time>
      </trkpt>
      <trkpt lat="47.81135" lon="-3.21235">
        <ele>129</ele>
        <time>2011-05-26T12:56:27Z</time>
      </trkpt>
      <trkpt lat="47.81139" lon="-3.21245">
        <ele>129.2</ele>
        <time>2011-05-26T12:56:29Z</time>
      </trkpt>
      <trkpt lat="47.81144" lon="-3.21259">
        <ele>127.5</ele>
        <time>2011-05-26T12:56:31Z</time>
      </trkpt>
      <trkpt lat="47.81144" lon="-3.21259">
        <ele>127.5</ele>
        <time>2011-05-26T12:56:31Z</time>
      </trkpt>
      <trkpt lat="47.81144" lon="-3.21259">
        <ele>127.5</ele>
        <time>2011-05-26T12:56:32Z</time>
      </trkpt>
      <trkpt lat="47.81145" lon="-3.21266">
        <ele>127</ele>
        <time>2011-05-26T12:56:38Z</time>
      </trkpt>
      <trkpt lat="47.8115" lon="-3.21274">
        <ele>123.6</ele>
        <time>2011-05-26T12:56:40Z</time>
      </trkpt>
      <trkpt lat="47.8115" lon="-3.21274">
        <ele>123.6</ele>
        <time>2011-05-26T12:56:40Z</time>
      </trkpt>
      <trkpt lat="47.8115" lon="-3.21274">
        <ele>123.6</ele>
        <time>2011-05-26T12:56:41Z</time>
      </trkpt>
      <trkpt lat="47.81156" lon="-3.21299">
        <ele>116.8</ele>
        <time>2011-05-26T12:56:42Z</time>
      </trkpt>
      <trkpt lat="47.81157" lon="-3.2131">
        <ele>113.2</ele>
        <time>2011-05-26T12:56:43Z</time>
      </trkpt>
      <trkpt lat="47.81162" lon="-3.2133">
        <ele>109.8</ele>
        <time>2011-05-26T12:56:44Z</time>
      </trkpt>
      <trkpt lat="47.81165" lon="-3.21343">
        <ele>109.1</ele>
        <time>2011-05-26T12:56:45Z</time>
      </trkpt>
      <trkpt lat="47.81166" lon="-3.21359">
        <ele>107.2</ele>
        <time>2011-05-26T12:56:46Z</time>
      </trkpt>
      <trkpt lat="47.81164" lon="-3.2137">
        <ele>107.5</ele>
        <time>2011-05-26T12:56:47Z</time>
      </trkpt>
      <trkpt lat="47.81164" lon="-3.2138">
        <ele>110.4</ele>
        <time>2011-05-26T12:56:48Z</time>
      </trkpt>
      <trkpt lat="47.81166" lon="-3.21395">
        <ele>112.1</ele>
        <time>2011-05-26T12:56:50Z</time>
      </trkpt>
      <trkpt lat="47.81162" lon="-3.21399">
        <ele>112.8</ele>
        <time>2011-05-26T12:56:51Z</time>
      </trkpt>
      <trkpt lat="47.81165" lon="-3.21406">
        <ele>114.2</ele>
        <time>2011-05-26T12:56:52Z</time>
      </trkpt>
      <trkpt lat="47.81167" lon="-3.21413">
        <ele>116.3</ele>
        <time>2011-05-26T12:56:53Z</time>
      </trkpt>
      <trkpt lat="47.81163" lon="-3.21424">
        <ele>116.3</ele>
        <time>2011-05-26T12:56:55Z</time>
      </trkpt>
      <trkpt lat="47.81159" lon="-3.2143">
        <ele>116.7</ele>
        <time>2011-05-26T12:56:56Z</time>
      </trkpt>
      <trkpt lat="47.81147" lon="-3.2143">
        <ele>118.2</ele>
        <time>2011-05-26T12:56:57Z</time>
      </trkpt>
      <trkpt lat="47.81135" lon="-3.21429">
        <ele>119.9</ele>
        <time>2011-05-26T12:56:58Z</time>
      </trkpt>
      <trkpt lat="47.81126" lon="-3.21437">
        <ele>119.5</ele>
        <time>2011-05-26T12:57:00Z</time>
      </trkpt>
      <trkpt lat="47.81119" lon="-3.21442">
        <ele>119.4</ele>
        <time>2011-05-26T12:57:02Z</time>
      </trkpt>
      <trkpt lat="47.81111" lon="-3.21444">
        <ele>119.5</ele>
        <time>2011-05-26T12:57:04Z</time>
      </trkpt>
      <trkpt lat="47.81102" lon="-3.21448">
        <ele>119.9</ele>
        <time>2011-05-26T12:57:06Z</time>
      </trkpt>
      <trkpt lat="47.81097" lon="-3.21451">
        <ele>120.2</ele>
        <time>2011-05-26T12:57:07Z</time>
      </trkpt>
      <trkpt lat="47.81088" lon="-3.21452">
        <ele>120.2</ele>
        <time>2011-05-26T12:57:09Z</time>
      </trkpt>
      <trkpt lat="47.81084" lon="-3.21453">
        <ele>119.8</ele>
        <time>2011-05-26T12:57:10Z</time>
      </trkpt>
      <trkpt lat="47.81079" lon="-3.21456">
        <ele>119.7</ele>
        <time>2011-05-26T12:57:11Z</time>
      </trkpt>
      <trkpt lat="47.8107" lon="-3.2146">
        <ele>119.9</ele>
        <time>2011-05-26T12:57:13Z</time>
      </trkpt>
      <trkpt lat="47.81066" lon="-3.21462">
        <ele>120.2</ele>
        <time>2011-05-26T12:57:14Z</time>
      </trkpt>
      <trkpt lat="47.81061" lon="-3.21464">
        <ele>119.8</ele>
        <time>2011-05-26T12:57:15Z</time>
      </trkpt>
      <trkpt lat="47.81053" lon="-3.21469">
        <ele>119.5</ele>
        <time>2011-05-26T12:57:17Z</time>
      </trkpt>
      <trkpt lat="47.81048" lon="-3.2147">
        <ele>119.4</ele>
        <time>2011-05-26T12:57:18Z</time>
      </trkpt>
      <trkpt lat="47.81038" lon="-3.21476">
        <ele>118.9</ele>
        <time>2011-05-26T12:57:20Z</time>
      </trkpt>
      <trkpt lat="47.81034" lon="-3.21477">
        <ele>118.9</ele>
        <time>2011-05-26T12:57:21Z</time>
      </trkpt>
      <trkpt lat="47.81029" lon="-3.21478">
        <ele>119.1</ele>
        <time>2011-05-26T12:57:22Z</time>
      </trkpt>
      <trkpt lat="47.81025" lon="-3.21482">
        <ele>119</ele>
        <time>2011-05-26T12:57:23Z</time>
      </trkpt>
      <trkpt lat="47.81019" lon="-3.21487">
        <ele>119.9</ele>
        <time>2011-05-26T12:57:25Z</time>
      </trkpt>
      <trkpt lat="47.81015" lon="-3.21495">
        <ele>119</ele>
        <time>2011-05-26T12:57:27Z</time>
      </trkpt>
      <trkpt lat="47.81015" lon="-3.21502">
        <ele>117.2</ele>
        <time>2011-05-26T12:57:29Z</time>
      </trkpt>
      <trkpt lat="47.81019" lon="-3.21508">
        <ele>119</ele>
        <time>2011-05-26T12:57:30Z</time>
      </trkpt>
      <trkpt lat="47.81024" lon="-3.2152">
        <ele>118.6</ele>
        <time>2011-05-26T12:57:31Z</time>
      </trkpt>
      <trkpt lat="47.81026" lon="-3.21527">
        <ele>118.6</ele>
        <time>2011-05-26T12:57:32Z</time>
      </trkpt>
      <trkpt lat="47.81029" lon="-3.21531">
        <ele>119.9</ele>
        <time>2011-05-26T12:57:33Z</time>
      </trkpt>
      <trkpt lat="47.81032" lon="-3.2154">
        <ele>121.8</ele>
        <time>2011-05-26T12:57:34Z</time>
      </trkpt>
      <trkpt lat="47.81035" lon="-3.21545">
        <ele>121.1</ele>
        <time>2011-05-26T12:57:35Z</time>
      </trkpt>
      <trkpt lat="47.8104" lon="-3.21562">
        <ele>121.8</ele>
        <time>2011-05-26T12:57:37Z</time>
      </trkpt>
      <trkpt lat="47.8104" lon="-3.2157">
        <ele>122.2</ele>
        <time>2011-05-26T12:57:38Z</time>
      </trkpt>
      <trkpt lat="47.81043" lon="-3.21576">
        <ele>121.1</ele>
        <time>2011-05-26T12:57:39Z</time>
      </trkpt>
      <trkpt lat="47.81042" lon="-3.21584">
        <ele>121.8</ele>
        <time>2011-05-26T12:57:40Z</time>
      </trkpt>
      <trkpt lat="47.81035" lon="-3.21589">
        <ele>122.8</ele>
        <time>2011-05-26T12:57:41Z</time>
      </trkpt>
      <trkpt lat="47.81034" lon="-3.21598">
        <ele>121.8</ele>
        <time>2011-05-26T12:57:42Z</time>
      </trkpt>
      <trkpt lat="47.81031" lon="-3.21605">
        <ele>121.9</ele>
        <time>2011-05-26T12:57:43Z</time>
      </trkpt>
      <trkpt lat="47.81029" lon="-3.21615">
        <ele>119.6</ele>
        <time>2011-05-26T12:57:45Z</time>
      </trkpt>
      <trkpt lat="47.81024" lon="-3.21624">
        <ele>119.1</ele>
        <time>2011-05-26T12:57:47Z</time>
      </trkpt>
      <trkpt lat="47.81021" lon="-3.21629">
        <ele>119.6</ele>
        <time>2011-05-26T12:57:48Z</time>
      </trkpt>
      <trkpt lat="47.81016" lon="-3.21634">
        <ele>119.5</ele>
        <time>2011-05-26T12:57:49Z</time>
      </trkpt>
      <trkpt lat="47.81012" lon="-3.21639">
        <ele>119.6</ele>
        <time>2011-05-26T12:57:50Z</time>
      </trkpt>
      <trkpt lat="47.81009" lon="-3.21645">
        <ele>118.7</ele>
        <time>2011-05-26T12:57:51Z</time>
      </trkpt>
      <trkpt lat="47.81005" lon="-3.21649">
        <ele>119</ele>
        <time>2011-05-26T12:57:52Z</time>
      </trkpt>
      <trkpt lat="47.81001" lon="-3.21655">
        <ele>119.1</ele>
        <time>2011-05-26T12:57:53Z</time>
      </trkpt>
      <trkpt lat="47.80997" lon="-3.21659">
        <ele>119.5</ele>
        <time>2011-05-26T12:57:54Z</time>
      </trkpt>
      <trkpt lat="47.80992" lon="-3.21664">
        <ele>118.7</ele>
        <time>2011-05-26T12:57:55Z</time>
      </trkpt>
      <trkpt lat="47.80988" lon="-3.21668">
        <ele>118.2</ele>
        <time>2011-05-26T12:57:56Z</time>
      </trkpt>
      <trkpt lat="47.80983" lon="-3.21673">
        <ele>118.1</ele>
        <time>2011-05-26T12:57:57Z</time>
      </trkpt>
      <trkpt lat="47.8098" lon="-3.21678">
        <ele>118.5</ele>
        <time>2011-05-26T12:57:58Z</time>
      </trkpt>
      <trkpt lat="47.80975" lon="-3.21684">
        <ele>118.8</ele>
        <time>2011-05-26T12:57:59Z</time>
      </trkpt>
      <trkpt lat="47.80971" lon="-3.21689">
        <ele>118.6</ele>
        <time>2011-05-26T12:58:00Z</time>
      </trkpt>
      <trkpt lat="47.80967" lon="-3.21693">
        <ele>118</ele>
        <time>2011-05-26T12:58:01Z</time>
      </trkpt>
      <trkpt lat="47.80963" lon="-3.21699">
        <ele>117.9</ele>
        <time>2011-05-26T12:58:02Z</time>
      </trkpt>
      <trkpt lat="47.8096" lon="-3.21704">
        <ele>117.7</ele>
        <time>2011-05-26T12:58:03Z</time>
      </trkpt>
      <trkpt lat="47.80956" lon="-3.2171">
        <ele>117.6</ele>
        <time>2011-05-26T12:58:04Z</time>
      </trkpt>
      <trkpt lat="47.80952" lon="-3.21717">
        <ele>118</ele>
        <time>2011-05-26T12:58:05Z</time>
      </trkpt>
      <trkpt lat="47.80949" lon="-3.21724">
        <ele>118.3</ele>
        <time>2011-05-26T12:58:06Z</time>
      </trkpt>
      <trkpt lat="47.80947" lon="-3.2173">
        <ele>118.3</ele>
        <time>2011-05-26T12:58:07Z</time>
      </trkpt>
      <trkpt lat="47.80944" lon="-3.21737">
        <ele>118.6</ele>
        <time>2011-05-26T12:58:08Z</time>
      </trkpt>
      <trkpt lat="47.8094" lon="-3.21741">
        <ele>117.8</ele>
        <time>2011-05-26T12:58:09Z</time>
      </trkpt>
      <trkpt lat="47.80935" lon="-3.21745">
        <ele>117.6</ele>
        <time>2011-05-26T12:58:10Z</time>
      </trkpt>
      <trkpt lat="47.8093" lon="-3.21748">
        <ele>117.3</ele>
        <time>2011-05-26T12:58:11Z</time>
      </trkpt>
      <trkpt lat="47.80926" lon="-3.21742">
        <ele>117.8</ele>
        <time>2011-05-26T12:58:12Z</time>
      </trkpt>
      <trkpt lat="47.80921" lon="-3.21738">
        <ele>117.9</ele>
        <time>2011-05-26T12:58:13Z</time>
      </trkpt>
      <trkpt lat="47.80918" lon="-3.21732">
        <ele>118.2</ele>
        <time>2011-05-26T12:58:14Z</time>
      </trkpt>
      <trkpt lat="47.80915" lon="-3.21726">
        <ele>117.3</ele>
        <time>2011-05-26T12:58:15Z</time>
      </trkpt>
      <trkpt lat="47.80912" lon="-3.21721">
        <ele>116</ele>
        <time>2011-05-26T12:58:16Z</time>
      </trkpt>
      <trkpt lat="47.80908" lon="-3.21712">
        <ele>117.7</ele>
        <time>2011-05-26T12:58:18Z</time>
      </trkpt>
      <trkpt lat="47.80904" lon="-3.21706">
        <ele>119.7</ele>
        <time>2011-05-26T12:58:20Z</time>
      </trkpt>
      <trkpt lat="47.80901" lon="-3.21696">
        <ele>122.8</ele>
        <time>2011-05-26T12:58:23Z</time>
      </trkpt>
      <trkpt lat="47.80897" lon="-3.21688">
        <ele>124.8</ele>
        <time>2011-05-26T12:58:25Z</time>
      </trkpt>
      <trkpt lat="47.80893" lon="-3.21682">
        <ele>125.8</ele>
        <time>2011-05-26T12:58:27Z</time>
      </trkpt>
      <trkpt lat="47.80891" lon="-3.21667">
        <ele>126.2</ele>
        <time>2011-05-26T12:58:29Z</time>
      </trkpt>
      <trkpt lat="47.80887" lon="-3.21658">
        <ele>126.4</ele>
        <time>2011-05-26T12:58:31Z</time>
      </trkpt>
      <trkpt lat="47.80883" lon="-3.21645">
        <ele>125.5</ele>
        <time>2011-05-26T12:58:32Z</time>
      </trkpt>
      <trkpt lat="47.80877" lon="-3.21637">
        <ele>125.2</ele>
        <time>2011-05-26T12:58:34Z</time>
      </trkpt>
      <trkpt lat="47.80871" lon="-3.21635">
        <ele>126.1</ele>
        <time>2011-05-26T12:58:36Z</time>
      </trkpt>
      <trkpt lat="47.80865" lon="-3.21635">
        <ele>126.8</ele>
        <time>2011-05-26T12:58:38Z</time>
      </trkpt>
      <trkpt lat="47.80861" lon="-3.21643">
        <ele>126.1</ele>
        <time>2011-05-26T12:58:39Z</time>
      </trkpt>
      <trkpt lat="47.80856" lon="-3.2164">
        <ele>126.4</ele>
        <time>2011-05-26T12:58:40Z</time>
      </trkpt>
      <trkpt lat="47.80846" lon="-3.21643">
        <ele>125.9</ele>
        <time>2011-05-26T12:58:41Z</time>
      </trkpt>
      <trkpt lat="47.80839" lon="-3.21643">
        <ele>125.2</ele>
        <time>2011-05-26T12:58:43Z</time>
      </trkpt>
      <trkpt lat="47.80833" lon="-3.21642">
        <ele>127</ele>
        <time>2011-05-26T12:58:44Z</time>
      </trkpt>
      <trkpt lat="47.80828" lon="-3.21644">
        <ele>129</ele>
        <time>2011-05-26T12:58:45Z</time>
      </trkpt>
      <trkpt lat="47.80824" lon="-3.21645">
        <ele>129.6</ele>
        <time>2011-05-26T12:58:46Z</time>
      </trkpt>
      <trkpt lat="47.80819" lon="-3.21647">
        <ele>129.3</ele>
        <time>2011-05-26T12:58:47Z</time>
      </trkpt>
      <trkpt lat="47.80814" lon="-3.21648">
        <ele>128.8</ele>
        <time>2011-05-26T12:58:48Z</time>
      </trkpt>
      <trkpt lat="47.80809" lon="-3.21649">
        <ele>126</ele>
        <time>2011-05-26T12:58:49Z</time>
      </trkpt>
      <trkpt lat="47.80805" lon="-3.2165">
        <ele>127.3</ele>
        <time>2011-05-26T12:58:50Z</time>
      </trkpt>
      <trkpt lat="47.80799" lon="-3.21653">
        <ele>125.4</ele>
        <time>2011-05-26T12:58:51Z</time>
      </trkpt>
      <trkpt lat="47.80794" lon="-3.21661">
        <ele>123.6</ele>
        <time>2011-05-26T12:58:52Z</time>
      </trkpt>
      <trkpt lat="47.80789" lon="-3.21664">
        <ele>123.3</ele>
        <time>2011-05-26T12:58:53Z</time>
      </trkpt>
      <trkpt lat="47.80785" lon="-3.21669">
        <ele>122.5</ele>
        <time>2011-05-26T12:58:54Z</time>
      </trkpt>
      <trkpt lat="47.8078" lon="-3.21672">
        <ele>122</ele>
        <time>2011-05-26T12:58:55Z</time>
      </trkpt>
      <trkpt lat="47.80776" lon="-3.21676">
        <ele>122.2</ele>
        <time>2011-05-26T12:58:56Z</time>
      </trkpt>
      <trkpt lat="47.8077" lon="-3.21679">
        <ele>122.3</ele>
        <time>2011-05-26T12:58:57Z</time>
      </trkpt>
      <trkpt lat="47.80766" lon="-3.21682">
        <ele>121.2</ele>
        <time>2011-05-26T12:58:58Z</time>
      </trkpt>
      <trkpt lat="47.80762" lon="-3.21686">
        <ele>120.5</ele>
        <time>2011-05-26T12:58:59Z</time>
      </trkpt>
      <trkpt lat="47.80757" lon="-3.21689">
        <ele>120.7</ele>
        <time>2011-05-26T12:59:00Z</time>
      </trkpt>
      <trkpt lat="47.80753" lon="-3.21693">
        <ele>120.4</ele>
        <time>2011-05-26T12:59:01Z</time>
      </trkpt>
      <trkpt lat="47.80748" lon="-3.21696">
        <ele>119.9</ele>
        <time>2011-05-26T12:59:02Z</time>
      </trkpt>
      <trkpt lat="47.80743" lon="-3.217">
        <ele>119.7</ele>
        <time>2011-05-26T12:59:03Z</time>
      </trkpt>
      <trkpt lat="47.80738" lon="-3.21703">
        <ele>119.8</ele>
        <time>2011-05-26T12:59:04Z</time>
      </trkpt>
      <trkpt lat="47.80733" lon="-3.21706">
        <ele>119</ele>
        <time>2011-05-26T12:59:05Z</time>
      </trkpt>
      <trkpt lat="47.80728" lon="-3.21708">
        <ele>118.6</ele>
        <time>2011-05-26T12:59:06Z</time>
      </trkpt>
      <trkpt lat="47.80724" lon="-3.21713">
        <ele>117.5</ele>
        <time>2011-05-26T12:59:07Z</time>
      </trkpt>
      <trkpt lat="47.8072" lon="-3.21716">
        <ele>117.7</ele>
        <time>2011-05-26T12:59:08Z</time>
      </trkpt>
      <trkpt lat="47.80716" lon="-3.21718">
        <ele>118</ele>
        <time>2011-05-26T12:59:09Z</time>
      </trkpt>
      <trkpt lat="47.80711" lon="-3.21722">
        <ele>117</ele>
        <time>2011-05-26T12:59:10Z</time>
      </trkpt>
      <trkpt lat="47.80703" lon="-3.21728">
        <ele>117.2</ele>
        <time>2011-05-26T12:59:12Z</time>
      </trkpt>
      <trkpt lat="47.80699" lon="-3.21733">
        <ele>117.8</ele>
        <time>2011-05-26T12:59:13Z</time>
      </trkpt>
      <trkpt lat="47.80695" lon="-3.21735">
        <ele>117.5</ele>
        <time>2011-05-26T12:59:14Z</time>
      </trkpt>
      <trkpt lat="47.80691" lon="-3.21738">
        <ele>117.9</ele>
        <time>2011-05-26T12:59:15Z</time>
      </trkpt>
      <trkpt lat="47.80686" lon="-3.21741">
        <ele>117.7</ele>
        <time>2011-05-26T12:59:16Z</time>
      </trkpt>
      <trkpt lat="47.80681" lon="-3.21744">
        <ele>117.6</ele>
        <time>2011-05-26T12:59:17Z</time>
      </trkpt>
      <trkpt lat="47.80677" lon="-3.21747">
        <ele>117.5</ele>
        <time>2011-05-26T12:59:18Z</time>
      </trkpt>
      <trkpt lat="47.80672" lon="-3.2175">
        <ele>117</ele>
        <time>2011-05-26T12:59:19Z</time>
      </trkpt>
      <trkpt lat="47.80664" lon="-3.21755">
        <ele>116.2</ele>
        <time>2011-05-26T12:59:21Z</time>
      </trkpt>
      <trkpt lat="47.8066" lon="-3.21758">
        <ele>115.9</ele>
        <time>2011-05-26T12:59:22Z</time>
      </trkpt>
      <trkpt lat="47.80654" lon="-3.21762">
        <ele>115.6</ele>
        <time>2011-05-26T12:59:23Z</time>
      </trkpt>
      <trkpt lat="47.8065" lon="-3.21766">
        <ele>115.7</ele>
        <time>2011-05-26T12:59:24Z</time>
      </trkpt>
      <trkpt lat="47.80645" lon="-3.21769">
        <ele>116.1</ele>
        <time>2011-05-26T12:59:25Z</time>
      </trkpt>
      <trkpt lat="47.8064" lon="-3.21773">
        <ele>115.7</ele>
        <time>2011-05-26T12:59:26Z</time>
      </trkpt>
      <trkpt lat="47.80635" lon="-3.21776">
        <ele>115.1</ele>
        <time>2011-05-26T12:59:27Z</time>
      </trkpt>
      <trkpt lat="47.80631" lon="-3.21779">
        <ele>115.3</ele>
        <time>2011-05-26T12:59:28Z</time>
      </trkpt>
      <trkpt lat="47.80626" lon="-3.21783">
        <ele>114.8</ele>
        <time>2011-05-26T12:59:29Z</time>
      </trkpt>
      <trkpt lat="47.80622" lon="-3.21786">
        <ele>114.9</ele>
        <time>2011-05-26T12:59:30Z</time>
      </trkpt>
      <trkpt lat="47.80617" lon="-3.2179">
        <ele>114.3</ele>
        <time>2011-05-26T12:59:31Z</time>
      </trkpt>
      <trkpt lat="47.80611" lon="-3.21793">
        <ele>113.6</ele>
        <time>2011-05-26T12:59:32Z</time>
      </trkpt>
      <trkpt lat="47.80606" lon="-3.21796">
        <ele>113.1</ele>
        <time>2011-05-26T12:59:33Z</time>
      </trkpt>
      <trkpt lat="47.80601" lon="-3.218">
        <ele>112.8</ele>
        <time>2011-05-26T12:59:34Z</time>
      </trkpt>
      <trkpt lat="47.80596" lon="-3.21802">
        <ele>112.5</ele>
        <time>2011-05-26T12:59:35Z</time>
      </trkpt>
      <trkpt lat="47.80591" lon="-3.21806">
        <ele>112.4</ele>
        <time>2011-05-26T12:59:36Z</time>
      </trkpt>
      <trkpt lat="47.80587" lon="-3.2181">
        <ele>112.4</ele>
        <time>2011-05-26T12:59:37Z</time>
      </trkpt>
      <trkpt lat="47.80582" lon="-3.21813">
        <ele>111.8</ele>
        <time>2011-05-26T12:59:38Z</time>
      </trkpt>
      <trkpt lat="47.80578" lon="-3.21818">
        <ele>111.6</ele>
        <time>2011-05-26T12:59:39Z</time>
      </trkpt>
      <trkpt lat="47.80573" lon="-3.21822">
        <ele>112.7</ele>
        <time>2011-05-26T12:59:40Z</time>
      </trkpt>
      <trkpt lat="47.80569" lon="-3.21824">
        <ele>112.6</ele>
        <time>2011-05-26T12:59:41Z</time>
      </trkpt>
      <trkpt lat="47.80564" lon="-3.21831">
        <ele>111.8</ele>
        <time>2011-05-26T12:59:42Z</time>
      </trkpt>
      <trkpt lat="47.80558" lon="-3.21834">
        <ele>111.8</ele>
        <time>2011-05-26T12:59:43Z</time>
      </trkpt>
      <trkpt lat="47.80552" lon="-3.21838">
        <ele>111.5</ele>
        <time>2011-05-26T12:59:44Z</time>
      </trkpt>
      <trkpt lat="47.80546" lon="-3.21838">
        <ele>110.2</ele>
        <time>2011-05-26T12:59:45Z</time>
      </trkpt>
      <trkpt lat="47.80539" lon="-3.21841">
        <ele>109.7</ele>
        <time>2011-05-26T12:59:46Z</time>
      </trkpt>
      <trkpt lat="47.80534" lon="-3.21844">
        <ele>109</ele>
        <time>2011-05-26T12:59:47Z</time>
      </trkpt>
      <trkpt lat="47.80528" lon="-3.21848">
        <ele>108.6</ele>
        <time>2011-05-26T12:59:48Z</time>
      </trkpt>
      <trkpt lat="47.80522" lon="-3.21852">
        <ele>108.5</ele>
        <time>2011-05-26T12:59:49Z</time>
      </trkpt>
      <trkpt lat="47.80516" lon="-3.21857">
        <ele>108.5</ele>
        <time>2011-05-26T12:59:50Z</time>
      </trkpt>
      <trkpt lat="47.8051" lon="-3.2186">
        <ele>107.8</ele>
        <time>2011-05-26T12:59:51Z</time>
      </trkpt>
      <trkpt lat="47.80505" lon="-3.21864">
        <ele>108.1</ele>
        <time>2011-05-26T12:59:52Z</time>
      </trkpt>
      <trkpt lat="47.805" lon="-3.21876">
        <ele>107.6</ele>
        <time>2011-05-26T12:59:54Z</time>
      </trkpt>
      <trkpt lat="47.80494" lon="-3.21877">
        <ele>107.9</ele>
        <time>2011-05-26T12:59:55Z</time>
      </trkpt>
      <trkpt lat="47.80485" lon="-3.21879">
        <ele>108.2</ele>
        <time>2011-05-26T12:59:56Z</time>
      </trkpt>
      <trkpt lat="47.80477" lon="-3.21886">
        <ele>108.1</ele>
        <time>2011-05-26T12:59:57Z</time>
      </trkpt>
      <trkpt lat="47.80468" lon="-3.21891">
        <ele>108.1</ele>
        <time>2011-05-26T12:59:58Z</time>
      </trkpt>
      <trkpt lat="47.80461" lon="-3.21896">
        <ele>108.4</ele>
        <time>2011-05-26T12:59:59Z</time>
      </trkpt>
      <trkpt lat="47.80457" lon="-3.219">
        <ele>108.3</ele>
        <time>2011-05-26T13:00:00Z</time>
      </trkpt>
      <trkpt lat="47.80452" lon="-3.21896">
        <ele>108.1</ele>
        <time>2011-05-26T13:00:02Z</time>
      </trkpt>
      <trkpt lat="47.80452" lon="-3.21886">
        <ele>108.4</ele>
        <time>2011-05-26T13:00:03Z</time>
      </trkpt>
      <trkpt lat="47.80448" lon="-3.21878">
        <ele>108.4</ele>
        <time>2011-05-26T13:00:04Z</time>
      </trkpt>
      <trkpt lat="47.80445" lon="-3.21871">
        <ele>108.5</ele>
        <time>2011-05-26T13:00:05Z</time>
      </trkpt>
      <trkpt lat="47.80442" lon="-3.21863">
        <ele>108.8</ele>
        <time>2011-05-26T13:00:06Z</time>
      </trkpt>
      <trkpt lat="47.80438" lon="-3.21856">
        <ele>109.2</ele>
        <time>2011-05-26T13:00:07Z</time>
      </trkpt>
      <trkpt lat="47.80436" lon="-3.21848">
        <ele>109.2</ele>
        <time>2011-05-26T13:00:08Z</time>
      </trkpt>
      <trkpt lat="47.80434" lon="-3.21838">
        <ele>109.8</ele>
        <time>2011-05-26T13:00:09Z</time>
      </trkpt>
      <trkpt lat="47.80432" lon="-3.2183">
        <ele>109.4</ele>
        <time>2011-05-26T13:00:10Z</time>
      </trkpt>
      <trkpt lat="47.80427" lon="-3.21816">
        <ele>109.6</ele>
        <time>2011-05-26T13:00:11Z</time>
      </trkpt>
      <trkpt lat="47.80424" lon="-3.21802">
        <ele>109.9</ele>
        <time>2011-05-26T13:00:12Z</time>
      </trkpt>
      <trkpt lat="47.80419" lon="-3.21782">
        <ele>110.5</ele>
        <time>2011-05-26T13:00:13Z</time>
      </trkpt>
      <trkpt lat="47.80415" lon="-3.21767">
        <ele>111.4</ele>
        <time>2011-05-26T13:00:14Z</time>
      </trkpt>
      <trkpt lat="47.80411" lon="-3.21753">
        <ele>111.2</ele>
        <time>2011-05-26T13:00:15Z</time>
      </trkpt>
      <trkpt lat="47.80407" lon="-3.21739">
        <ele>111.2</ele>
        <time>2011-05-26T13:00:16Z</time>
      </trkpt>
      <trkpt lat="47.80401" lon="-3.21722">
        <ele>110.7</ele>
        <time>2011-05-26T13:00:17Z</time>
      </trkpt>
      <trkpt lat="47.80397" lon="-3.21708">
        <ele>110.9</ele>
        <time>2011-05-26T13:00:18Z</time>
      </trkpt>
      <trkpt lat="47.80392" lon="-3.21692">
        <ele>110.9</ele>
        <time>2011-05-26T13:00:19Z</time>
      </trkpt>
      <trkpt lat="47.80387" lon="-3.21678">
        <ele>110.8</ele>
        <time>2011-05-26T13:00:20Z</time>
      </trkpt>
      <trkpt lat="47.80384" lon="-3.21663">
        <ele>110.8</ele>
        <time>2011-05-26T13:00:21Z</time>
      </trkpt>
      <trkpt lat="47.80378" lon="-3.2165">
        <ele>110.4</ele>
        <time>2011-05-26T13:00:22Z</time>
      </trkpt>
      <trkpt lat="47.80374" lon="-3.21638">
        <ele>110.6</ele>
        <time>2011-05-26T13:00:23Z</time>
      </trkpt>
      <trkpt lat="47.8037" lon="-3.21619">
        <ele>113.4</ele>
        <time>2011-05-26T13:00:25Z</time>
      </trkpt>
      <trkpt lat="47.80366" lon="-3.21606">
        <ele>112</ele>
        <time>2011-05-26T13:00:26Z</time>
      </trkpt>
      <trkpt lat="47.80362" lon="-3.21602">
        <ele>112.1</ele>
        <time>2011-05-26T13:00:27Z</time>
      </trkpt>
      <trkpt lat="47.80357" lon="-3.21602">
        <ele>112.3</ele>
        <time>2011-05-26T13:00:28Z</time>
      </trkpt>
      <trkpt lat="47.80351" lon="-3.21601">
        <ele>111.2</ele>
        <time>2011-05-26T13:00:29Z</time>
      </trkpt>
      <trkpt lat="47.80345" lon="-3.21601">
        <ele>110.8</ele>
        <time>2011-05-26T13:00:30Z</time>
      </trkpt>
      <trkpt lat="47.80336" lon="-3.21599">
        <ele>110</ele>
        <time>2011-05-26T13:00:31Z</time>
      </trkpt>
      <trkpt lat="47.80328" lon="-3.21597">
        <ele>108.7</ele>
        <time>2011-05-26T13:00:32Z</time>
      </trkpt>
      <trkpt lat="47.8032" lon="-3.21597">
        <ele>108.9</ele>
        <time>2011-05-26T13:00:33Z</time>
      </trkpt>
      <trkpt lat="47.80309" lon="-3.21596">
        <ele>107.4</ele>
        <time>2011-05-26T13:00:34Z</time>
      </trkpt>
      <trkpt lat="47.803" lon="-3.21594">
        <ele>106.4</ele>
        <time>2011-05-26T13:00:35Z</time>
      </trkpt>
      <trkpt lat="47.80292" lon="-3.21596">
        <ele>106</ele>
        <time>2011-05-26T13:00:36Z</time>
      </trkpt>
      <trkpt lat="47.80287" lon="-3.21598">
        <ele>105.2</ele>
        <time>2011-05-26T13:00:37Z</time>
      </trkpt>
      <trkpt lat="47.8028" lon="-3.21599">
        <ele>105</ele>
        <time>2011-05-26T13:00:38Z</time>
      </trkpt>
      <trkpt lat="47.80275" lon="-3.216">
        <ele>105.5</ele>
        <time>2011-05-26T13:00:41Z</time>
      </trkpt>
      <trkpt lat="47.8027" lon="-3.21596">
        <ele>105.4</ele>
        <time>2011-05-26T13:00:43Z</time>
      </trkpt>
      <trkpt lat="47.80265" lon="-3.21595">
        <ele>105.8</ele>
        <time>2011-05-26T13:00:46Z</time>
      </trkpt>
      <trkpt lat="47.8026" lon="-3.21594">
        <ele>108.2</ele>
        <time>2011-05-26T13:00:48Z</time>
      </trkpt>
      <trkpt lat="47.80257" lon="-3.21588">
        <ele>114</ele>
        <time>2011-05-26T13:00:55Z</time>
      </trkpt>
      <trkpt lat="47.80253" lon="-3.21582">
        <ele>113.6</ele>
        <time>2011-05-26T13:00:57Z</time>
      </trkpt>
      <trkpt lat="47.80247" lon="-3.21578">
        <ele>108.3</ele>
        <time>2011-05-26T13:01:00Z</time>
      </trkpt>
      <trkpt lat="47.80244" lon="-3.21582">
        <ele>109</ele>
        <time>2011-05-26T13:01:04Z</time>
      </trkpt>
      <trkpt lat="47.80236" lon="-3.21582">
        <ele>111.6</ele>
        <time>2011-05-26T13:01:08Z</time>
      </trkpt>
      <trkpt lat="47.80232" lon="-3.21583">
        <ele>115</ele>
        <time>2011-05-26T13:01:10Z</time>
      </trkpt>
      <trkpt lat="47.80226" lon="-3.21585">
        <ele>115.5</ele>
        <time>2011-05-26T13:01:13Z</time>
      </trkpt>
      <trkpt lat="47.8022" lon="-3.21587">
        <ele>120.2</ele>
        <time>2011-05-26T13:01:20Z</time>
      </trkpt>
      <trkpt lat="47.80216" lon="-3.21597">
        <ele>118.6</ele>
        <time>2011-05-26T13:01:24Z</time>
      </trkpt>
      <trkpt lat="47.80212" lon="-3.21602">
        <ele>116</ele>
        <time>2011-05-26T13:01:27Z</time>
      </trkpt>
      <trkpt lat="47.8021" lon="-3.2161">
        <ele>117.1</ele>
        <time>2011-05-26T13:01:29Z</time>
      </trkpt>
      <trkpt lat="47.80201" lon="-3.21608">
        <ele>123.7</ele>
        <time>2011-05-26T13:01:30Z</time>
      </trkpt>
      <trkpt lat="47.80195" lon="-3.21609">
        <ele>127.8</ele>
        <time>2011-05-26T13:01:35Z</time>
      </trkpt>
      <trkpt lat="47.80188" lon="-3.21612">
        <ele>124.1</ele>
        <time>2011-05-26T13:01:40Z</time>
      </trkpt>
      <trkpt lat="47.80183" lon="-3.21602">
        <ele>127.1</ele>
        <time>2011-05-26T13:01:47Z</time>
      </trkpt>
      <trkpt lat="47.80179" lon="-3.21596">
        <ele>129.9</ele>
        <time>2011-05-26T13:01:52Z</time>
      </trkpt>
      <trkpt lat="47.80181" lon="-3.21589">
        <ele>133.6</ele>
        <time>2011-05-26T13:01:55Z</time>
      </trkpt>
      <trkpt lat="47.80179" lon="-3.21583">
        <ele>136.8</ele>
        <time>2011-05-26T13:02:03Z</time>
      </trkpt>
      <trkpt lat="47.80183" lon="-3.21579">
        <ele>136.6</ele>
        <time>2011-05-26T13:02:05Z</time>
      </trkpt>
      <trkpt lat="47.80186" lon="-3.21572">
        <ele>136.6</ele>
        <time>2011-05-26T13:02:11Z</time>
      </trkpt>
      <trkpt lat="47.80191" lon="-3.21567">
        <ele>137.1</ele>
        <time>2011-05-26T13:02:20Z</time>
      </trkpt>
      <trkpt lat="47.80196" lon="-3.21565">
        <ele>137.4</ele>
        <time>2011-05-26T13:02:23Z</time>
      </trkpt>
      <trkpt lat="47.80201" lon="-3.21565">
        <ele>141.4</ele>
        <time>2011-05-26T13:02:27Z</time>
      </trkpt>
      <trkpt lat="47.80206" lon="-3.21565">
        <ele>145.7</ele>
        <time>2011-05-26T13:02:29Z</time>
      </trkpt>
      <trkpt lat="47.80213" lon="-3.21556">
        <ele>144.8</ele>
        <time>2011-05-26T13:02:32Z</time>
      </trkpt>
      <trkpt lat="47.80218" lon="-3.21547">
        <ele>139.1</ele>
        <time>2011-05-26T13:02:34Z</time>
      </trkpt>
      <trkpt lat="47.80214" lon="-3.21538">
        <ele>135.3</ele>
        <time>2011-05-26T13:02:36Z</time>
      </trkpt>
      <trkpt lat="47.80211" lon="-3.2153">
        <ele>133.6</ele>
        <time>2011-05-26T13:02:39Z</time>
      </trkpt>
      <trkpt lat="47.80211" lon="-3.21522">
        <ele>130.4</ele>
        <time>2011-05-26T13:02:42Z</time>
      </trkpt>
      <trkpt lat="47.8021" lon="-3.21512">
        <ele>129.3</ele>
        <time>2011-05-26T13:02:46Z</time>
      </trkpt>
      <trkpt lat="47.80207" lon="-3.21507">
        <ele>128</ele>
        <time>2011-05-26T13:02:48Z</time>
      </trkpt>
      <trkpt lat="47.80202" lon="-3.21502">
        <ele>126.9</ele>
        <time>2011-05-26T13:02:50Z</time>
      </trkpt>
      <trkpt lat="47.80202" lon="-3.21491">
        <ele>124.6</ele>
        <time>2011-05-26T13:02:52Z</time>
      </trkpt>
      <trkpt lat="47.80196" lon="-3.21483">
        <ele>134.2</ele>
        <time>2011-05-26T13:02:56Z</time>
      </trkpt>
      <trkpt lat="47.80193" lon="-3.21478">
        <ele>136.8</ele>
        <time>2011-05-26T13:02:58Z</time>
      </trkpt>
      <trkpt lat="47.80191" lon="-3.21469">
        <ele>135.2</ele>
        <time>2011-05-26T13:03:00Z</time>
      </trkpt>
      <trkpt lat="47.80192" lon="-3.21453">
        <ele>135.2</ele>
        <time>2011-05-26T13:03:02Z</time>
      </trkpt>
      <trkpt lat="47.80192" lon="-3.21445">
        <ele>134.2</ele>
        <time>2011-05-26T13:03:03Z</time>
      </trkpt>
      <trkpt lat="47.80187" lon="-3.21436">
        <ele>134.7</ele>
        <time>2011-05-26T13:03:04Z</time>
      </trkpt>
      <trkpt lat="47.80184" lon="-3.21431">
        <ele>137.5</ele>
        <time>2011-05-26T13:03:05Z</time>
      </trkpt>
      <trkpt lat="47.80181" lon="-3.21418">
        <ele>136.4</ele>
        <time>2011-05-26T13:03:07Z</time>
      </trkpt>
      <trkpt lat="47.80181" lon="-3.214">
        <ele>132.3</ele>
        <time>2011-05-26T13:03:09Z</time>
      </trkpt>
      <trkpt lat="47.80178" lon="-3.21386">
        <ele>132.4</ele>
        <time>2011-05-26T13:03:11Z</time>
      </trkpt>
      <trkpt lat="47.80174" lon="-3.21374">
        <ele>132.5</ele>
        <time>2011-05-26T13:03:13Z</time>
      </trkpt>
      <trkpt lat="47.80167" lon="-3.21361">
        <ele>132.3</ele>
        <time>2011-05-26T13:03:15Z</time>
      </trkpt>
      <trkpt lat="47.8016" lon="-3.2135">
        <ele>135.2</ele>
        <time>2011-05-26T13:03:16Z</time>
      </trkpt>
      <trkpt lat="47.80156" lon="-3.21341">
        <ele>135.8</ele>
        <time>2011-05-26T13:03:18Z</time>
      </trkpt>
      <trkpt lat="47.80152" lon="-3.21337">
        <ele>139.9</ele>
        <time>2011-05-26T13:03:20Z</time>
      </trkpt>
      <trkpt lat="47.8015" lon="-3.21329">
        <ele>137.6</ele>
        <time>2011-05-26T13:03:21Z</time>
      </trkpt>
      <trkpt lat="47.80145" lon="-3.21322">
        <ele>136.9</ele>
        <time>2011-05-26T13:03:23Z</time>
      </trkpt>
      <trkpt lat="47.80143" lon="-3.21314">
        <ele>133.9</ele>
        <time>2011-05-26T13:03:25Z</time>
      </trkpt>
      <trkpt lat="47.80139" lon="-3.2131">
        <ele>131.3</ele>
        <time>2011-05-26T13:03:26Z</time>
      </trkpt>
      <trkpt lat="47.80137" lon="-3.21303">
        <ele>129.1</ele>
        <time>2011-05-26T13:03:27Z</time>
      </trkpt>
      <trkpt lat="47.80134" lon="-3.21297">
        <ele>129.2</ele>
        <time>2011-05-26T13:03:29Z</time>
      </trkpt>
      <trkpt lat="47.80126" lon="-3.21292">
        <ele>122.4</ele>
        <time>2011-05-26T13:03:30Z</time>
      </trkpt>
      <trkpt lat="47.80121" lon="-3.21288">
        <ele>122.7</ele>
        <time>2011-05-26T13:03:32Z</time>
      </trkpt>
      <trkpt lat="47.80118" lon="-3.21283">
        <ele>122.4</ele>
        <time>2011-05-26T13:03:36Z</time>
      </trkpt>
      <trkpt lat="47.80112" lon="-3.21281">
        <ele>121.3</ele>
        <time>2011-05-26T13:03:38Z</time>
      </trkpt>
      <trkpt lat="47.80108" lon="-3.21277">
        <ele>119.6</ele>
        <time>2011-05-26T13:03:41Z</time>
      </trkpt>
      <trkpt lat="47.80103" lon="-3.21279">
        <ele>120.7</ele>
        <time>2011-05-26T13:03:44Z</time>
      </trkpt>
      <trkpt lat="47.80098" lon="-3.21278">
        <ele>117.3</ele>
        <time>2011-05-26T13:03:53Z</time>
      </trkpt>
      <trkpt lat="47.80095" lon="-3.2127">
        <ele>117.8</ele>
        <time>2011-05-26T13:03:57Z</time>
      </trkpt>
      <trkpt lat="47.80087" lon="-3.21257">
        <ele>119.9</ele>
        <time>2011-05-26T13:04:00Z</time>
      </trkpt>
      <trkpt lat="47.80083" lon="-3.2125">
        <ele>121.9</ele>
        <time>2011-05-26T13:04:02Z</time>
      </trkpt>
      <trkpt lat="47.80079" lon="-3.21245">
        <ele>127.4</ele>
        <time>2011-05-26T13:04:04Z</time>
      </trkpt>
      <trkpt lat="47.80079" lon="-3.21238">
        <ele>128.3</ele>
        <time>2011-05-26T13:04:06Z</time>
      </trkpt>
      <trkpt lat="47.80082" lon="-3.21233">
        <ele>130.4</ele>
        <time>2011-05-26T13:04:07Z</time>
      </trkpt>
      <trkpt lat="47.80084" lon="-3.21221">
        <ele>131.5</ele>
        <time>2011-05-26T13:04:09Z</time>
      </trkpt>
      <trkpt lat="47.80086" lon="-3.21212">
        <ele>132.7</ele>
        <time>2011-05-26T13:04:11Z</time>
      </trkpt>
      <trkpt lat="47.80091" lon="-3.21207">
        <ele>125.8</ele>
        <time>2011-05-26T13:04:14Z</time>
      </trkpt>
      <trkpt lat="47.80096" lon="-3.21197">
        <ele>124</ele>
        <time>2011-05-26T13:04:17Z</time>
      </trkpt>
      <trkpt lat="47.801" lon="-3.21185">
        <ele>122.7</ele>
        <time>2011-05-26T13:04:19Z</time>
      </trkpt>
      <trkpt lat="47.80098" lon="-3.21177">
        <ele>120.8</ele>
        <time>2011-05-26T13:04:21Z</time>
      </trkpt>
      <trkpt lat="47.80102" lon="-3.21154">
        <ele>114.2</ele>
        <time>2011-05-26T13:04:23Z</time>
      </trkpt>
      <trkpt lat="47.80109" lon="-3.21162">
        <ele>114</ele>
        <time>2011-05-26T13:04:24Z</time>
      </trkpt>
      <trkpt lat="47.80116" lon="-3.21161">
        <ele>114.4</ele>
        <time>2011-05-26T13:04:26Z</time>
      </trkpt>
      <trkpt lat="47.80119" lon="-3.21152">
        <ele>112.6</ele>
        <time>2011-05-26T13:04:27Z</time>
      </trkpt>
      <trkpt lat="47.80127" lon="-3.21144">
        <ele>113.5</ele>
        <time>2011-05-26T13:04:28Z</time>
      </trkpt>
      <trkpt lat="47.80131" lon="-3.21137">
        <ele>113.2</ele>
        <time>2011-05-26T13:04:29Z</time>
      </trkpt>
      <trkpt lat="47.80134" lon="-3.21131">
        <ele>114.8</ele>
        <time>2011-05-26T13:04:30Z</time>
      </trkpt>
      <trkpt lat="47.80137" lon="-3.21122">
        <ele>113.4</ele>
        <time>2011-05-26T13:04:32Z</time>
      </trkpt>
      <trkpt lat="47.80141" lon="-3.21118">
        <ele>112.4</ele>
        <time>2011-05-26T13:04:34Z</time>
      </trkpt>
      <trkpt lat="47.80138" lon="-3.2111">
        <ele>112.1</ele>
        <time>2011-05-26T13:04:35Z</time>
      </trkpt>
      <trkpt lat="47.80137" lon="-3.21102">
        <ele>109</ele>
        <time>2011-05-26T13:04:37Z</time>
      </trkpt>
      <trkpt lat="47.80136" lon="-3.21092">
        <ele>105.4</ele>
        <time>2011-05-26T13:04:39Z</time>
      </trkpt>
      <trkpt lat="47.80132" lon="-3.21084">
        <ele>105.2</ele>
        <time>2011-05-26T13:04:41Z</time>
      </trkpt>
      <trkpt lat="47.8013" lon="-3.21076">
        <ele>104.9</ele>
        <time>2011-05-26T13:04:43Z</time>
      </trkpt>
      <trkpt lat="47.80127" lon="-3.21067">
        <ele>105.4</ele>
        <time>2011-05-26T13:04:45Z</time>
      </trkpt>
      <trkpt lat="47.80125" lon="-3.2106">
        <ele>104.9</ele>
        <time>2011-05-26T13:04:47Z</time>
      </trkpt>
      <trkpt lat="47.80119" lon="-3.21055">
        <ele>104.7</ele>
        <time>2011-05-26T13:04:49Z</time>
      </trkpt>
      <trkpt lat="47.80111" lon="-3.21038">
        <ele>98.2</ele>
        <time>2011-05-26T13:04:50Z</time>
      </trkpt>
      <trkpt lat="47.80109" lon="-3.21031">
        <ele>96.9</ele>
        <time>2011-05-26T13:04:51Z</time>
      </trkpt>
      <trkpt lat="47.80105" lon="-3.21025">
        <ele>95.8</ele>
        <time>2011-05-26T13:04:52Z</time>
      </trkpt>
      <trkpt lat="47.80102" lon="-3.21012">
        <ele>95.3</ele>
        <time>2011-05-26T13:04:54Z</time>
      </trkpt>
      <trkpt lat="47.80105" lon="-3.21001">
        <ele>94.7</ele>
        <time>2011-05-26T13:04:55Z</time>
      </trkpt>
      <trkpt lat="47.80106" lon="-3.20992">
        <ele>93.3</ele>
        <time>2011-05-26T13:04:57Z</time>
      </trkpt>
      <trkpt lat="47.80107" lon="-3.20979">
        <ele>91.9</ele>
        <time>2011-05-26T13:04:59Z</time>
      </trkpt>
      <trkpt lat="47.8011" lon="-3.20968">
        <ele>90.8</ele>
        <time>2011-05-26T13:05:01Z</time>
      </trkpt>
      <trkpt lat="47.80114" lon="-3.20963">
        <ele>90.1</ele>
        <time>2011-05-26T13:05:03Z</time>
      </trkpt>
      <trkpt lat="47.80116" lon="-3.20955">
        <ele>88.9</ele>
        <time>2011-05-26T13:05:06Z</time>
      </trkpt>
      <trkpt lat="47.80118" lon="-3.20948">
        <ele>88.3</ele>
        <time>2011-05-26T13:05:08Z</time>
      </trkpt>
      <trkpt lat="47.80119" lon="-3.2094">
        <ele>87.3</ele>
        <time>2011-05-26T13:05:10Z</time>
      </trkpt>
      <trkpt lat="47.80122" lon="-3.20934">
        <ele>87.3</ele>
        <time>2011-05-26T13:05:12Z</time>
      </trkpt>
      <trkpt lat="47.80126" lon="-3.20926">
        <ele>86.9</ele>
        <time>2011-05-26T13:05:14Z</time>
      </trkpt>
      <trkpt lat="47.80125" lon="-3.20919">
        <ele>86.8</ele>
        <time>2011-05-26T13:05:15Z</time>
      </trkpt>
      <trkpt lat="47.80121" lon="-3.20912">
        <ele>88.3</ele>
        <time>2011-05-26T13:05:16Z</time>
      </trkpt>
      <trkpt lat="47.80125" lon="-3.20906">
        <ele>88.4</ele>
        <time>2011-05-26T13:05:18Z</time>
      </trkpt>
      <trkpt lat="47.80127" lon="-3.20897">
        <ele>89.5</ele>
        <time>2011-05-26T13:05:20Z</time>
      </trkpt>
      <trkpt lat="47.80128" lon="-3.20891">
        <ele>89.1</ele>
        <time>2011-05-26T13:05:22Z</time>
      </trkpt>
      <trkpt lat="47.80129" lon="-3.20883">
        <ele>90</ele>
        <time>2011-05-26T13:05:24Z</time>
      </trkpt>
      <trkpt lat="47.80128" lon="-3.20873">
        <ele>89.3</ele>
        <time>2011-05-26T13:05:26Z</time>
      </trkpt>
      <trkpt lat="47.80124" lon="-3.20866">
        <ele>91.8</ele>
        <time>2011-05-26T13:05:28Z</time>
      </trkpt>
      <trkpt lat="47.80118" lon="-3.20862">
        <ele>90.7</ele>
        <time>2011-05-26T13:05:30Z</time>
      </trkpt>
      <trkpt lat="47.8011" lon="-3.20857">
        <ele>90.6</ele>
        <time>2011-05-26T13:05:32Z</time>
      </trkpt>
      <trkpt lat="47.80105" lon="-3.20853">
        <ele>91.8</ele>
        <time>2011-05-26T13:05:33Z</time>
      </trkpt>
      <trkpt lat="47.80101" lon="-3.20851">
        <ele>92.2</ele>
        <time>2011-05-26T13:05:34Z</time>
      </trkpt>
      <trkpt lat="47.80096" lon="-3.20848">
        <ele>91.9</ele>
        <time>2011-05-26T13:05:35Z</time>
      </trkpt>
      <trkpt lat="47.80088" lon="-3.20844">
        <ele>91.9</ele>
        <time>2011-05-26T13:05:37Z</time>
      </trkpt>
      <trkpt lat="47.80083" lon="-3.20843">
        <ele>91.6</ele>
        <time>2011-05-26T13:05:38Z</time>
      </trkpt>
      <trkpt lat="47.80078" lon="-3.2084">
        <ele>91.8</ele>
        <time>2011-05-26T13:05:39Z</time>
      </trkpt>
      <trkpt lat="47.80073" lon="-3.20838">
        <ele>89.6</ele>
        <time>2011-05-26T13:05:40Z</time>
      </trkpt>
      <trkpt lat="47.80068" lon="-3.20835">
        <ele>89.3</ele>
        <time>2011-05-26T13:05:41Z</time>
      </trkpt>
      <trkpt lat="47.80063" lon="-3.20833">
        <ele>89.8</ele>
        <time>2011-05-26T13:05:42Z</time>
      </trkpt>
      <trkpt lat="47.80056" lon="-3.20829">
        <ele>91.1</ele>
        <time>2011-05-26T13:05:44Z</time>
      </trkpt>
      <trkpt lat="47.80047" lon="-3.20825">
        <ele>91.1</ele>
        <time>2011-05-26T13:05:46Z</time>
      </trkpt>
      <trkpt lat="47.80042" lon="-3.20822">
        <ele>91.6</ele>
        <time>2011-05-26T13:05:47Z</time>
      </trkpt>
      <trkpt lat="47.80035" lon="-3.20816">
        <ele>91.6</ele>
        <time>2011-05-26T13:05:49Z</time>
      </trkpt>
      <trkpt lat="47.80028" lon="-3.20811">
        <ele>92.4</ele>
        <time>2011-05-26T13:05:51Z</time>
      </trkpt>
      <trkpt lat="47.80021" lon="-3.20808">
        <ele>91.7</ele>
        <time>2011-05-26T13:05:53Z</time>
      </trkpt>
      <trkpt lat="47.80015" lon="-3.20804">
        <ele>92.9</ele>
        <time>2011-05-26T13:05:55Z</time>
      </trkpt>
      <trkpt lat="47.80008" lon="-3.20799">
        <ele>94.7</ele>
        <time>2011-05-26T13:05:57Z</time>
      </trkpt>
      <trkpt lat="47.80006" lon="-3.20793">
        <ele>95.3</ele>
        <time>2011-05-26T13:05:59Z</time>
      </trkpt>
      <trkpt lat="47.80004" lon="-3.20786">
        <ele>96.1</ele>
        <time>2011-05-26T13:06:01Z</time>
      </trkpt>
      <trkpt lat="47.80001" lon="-3.2078">
        <ele>97.7</ele>
        <time>2011-05-26T13:06:03Z</time>
      </trkpt>
      <trkpt lat="47.79996" lon="-3.20776">
        <ele>100.2</ele>
        <time>2011-05-26T13:06:06Z</time>
      </trkpt>
      <trkpt lat="47.7999" lon="-3.20767">
        <ele>100.4</ele>
        <time>2011-05-26T13:06:07Z</time>
      </trkpt>
      <trkpt lat="47.79986" lon="-3.20762">
        <ele>100.7</ele>
        <time>2011-05-26T13:06:08Z</time>
      </trkpt>
      <trkpt lat="47.79982" lon="-3.20756">
        <ele>100.7</ele>
        <time>2011-05-26T13:06:09Z</time>
      </trkpt>
      <trkpt lat="47.79976" lon="-3.2075">
        <ele>101.6</ele>
        <time>2011-05-26T13:06:10Z</time>
      </trkpt>
      <trkpt lat="47.79972" lon="-3.20745">
        <ele>101.5</ele>
        <time>2011-05-26T13:06:11Z</time>
      </trkpt>
      <trkpt lat="47.79966" lon="-3.20736">
        <ele>101.2</ele>
        <time>2011-05-26T13:06:13Z</time>
      </trkpt>
      <trkpt lat="47.79963" lon="-3.20727">
        <ele>100.3</ele>
        <time>2011-05-26T13:06:15Z</time>
      </trkpt>
      <trkpt lat="47.79958" lon="-3.20719">
        <ele>101</ele>
        <time>2011-05-26T13:06:17Z</time>
      </trkpt>
      <trkpt lat="47.79953" lon="-3.2071">
        <ele>102.4</ele>
        <time>2011-05-26T13:06:19Z</time>
      </trkpt>
      <trkpt lat="47.7995" lon="-3.20705">
        <ele>103.4</ele>
        <time>2011-05-26T13:06:20Z</time>
      </trkpt>
      <trkpt lat="47.79945" lon="-3.20695">
        <ele>101.3</ele>
        <time>2011-05-26T13:06:21Z</time>
      </trkpt>
      <trkpt lat="47.79937" lon="-3.20688">
        <ele>99.3</ele>
        <time>2011-05-26T13:06:22Z</time>
      </trkpt>
      <trkpt lat="47.79931" lon="-3.20679">
        <ele>95.7</ele>
        <time>2011-05-26T13:06:23Z</time>
      </trkpt>
      <trkpt lat="47.79927" lon="-3.20671">
        <ele>95.5</ele>
        <time>2011-05-26T13:06:24Z</time>
      </trkpt>
      <trkpt lat="47.79922" lon="-3.2066">
        <ele>96.1</ele>
        <time>2011-05-26T13:06:26Z</time>
      </trkpt>
      <trkpt lat="47.79918" lon="-3.20653">
        <ele>96</ele>
        <time>2011-05-26T13:06:27Z</time>
      </trkpt>
      <trkpt lat="47.79915" lon="-3.20648">
        <ele>95.6</ele>
        <time>2011-05-26T13:06:28Z</time>
      </trkpt>
      <trkpt lat="47.7991" lon="-3.20642">
        <ele>95.1</ele>
        <time>2011-05-26T13:06:29Z</time>
      </trkpt>
      <trkpt lat="47.79904" lon="-3.20636">
        <ele>94</ele>
        <time>2011-05-26T13:06:30Z</time>
      </trkpt>
      <trkpt lat="47.799" lon="-3.2063">
        <ele>92.5</ele>
        <time>2011-05-26T13:06:31Z</time>
      </trkpt>
      <trkpt lat="47.79893" lon="-3.20623">
        <ele>90.8</ele>
        <time>2011-05-26T13:06:32Z</time>
      </trkpt>
      <trkpt lat="47.79887" lon="-3.20615">
        <ele>88.7</ele>
        <time>2011-05-26T13:06:33Z</time>
      </trkpt>
      <trkpt lat="47.79883" lon="-3.20605">
        <ele>89</ele>
        <time>2011-05-26T13:06:34Z</time>
      </trkpt>
      <trkpt lat="47.7988" lon="-3.20596">
        <ele>89.1</ele>
        <time>2011-05-26T13:06:35Z</time>
      </trkpt>
      <trkpt lat="47.79876" lon="-3.20585">
        <ele>90.1</ele>
        <time>2011-05-26T13:06:36Z</time>
      </trkpt>
      <trkpt lat="47.79874" lon="-3.20576">
        <ele>88.4</ele>
        <time>2011-05-26T13:06:37Z</time>
      </trkpt>
      <trkpt lat="47.7987" lon="-3.20566">
        <ele>86.7</ele>
        <time>2011-05-26T13:06:38Z</time>
      </trkpt>
      <trkpt lat="47.79868" lon="-3.20556">
        <ele>86.4</ele>
        <time>2011-05-26T13:06:39Z</time>
      </trkpt>
      <trkpt lat="47.79866" lon="-3.20546">
        <ele>85.6</ele>
        <time>2011-05-26T13:06:40Z</time>
      </trkpt>
      <trkpt lat="47.79864" lon="-3.20535">
        <ele>86</ele>
        <time>2011-05-26T13:06:41Z</time>
      </trkpt>
      <trkpt lat="47.79863" lon="-3.20524">
        <ele>85.3</ele>
        <time>2011-05-26T13:06:42Z</time>
      </trkpt>
      <trkpt lat="47.79861" lon="-3.20512">
        <ele>85.1</ele>
        <time>2011-05-26T13:06:43Z</time>
      </trkpt>
      <trkpt lat="47.7986" lon="-3.205">
        <ele>84.5</ele>
        <time>2011-05-26T13:06:44Z</time>
      </trkpt>
      <trkpt lat="47.79859" lon="-3.20488">
        <ele>84.1</ele>
        <time>2011-05-26T13:06:45Z</time>
      </trkpt>
      <trkpt lat="47.79857" lon="-3.20479">
        <ele>83.1</ele>
        <time>2011-05-26T13:06:46Z</time>
      </trkpt>
      <trkpt lat="47.79855" lon="-3.20468">
        <ele>82.6</ele>
        <time>2011-05-26T13:06:47Z</time>
      </trkpt>
      <trkpt lat="47.79855" lon="-3.2045">
        <ele>82.4</ele>
        <time>2011-05-26T13:06:48Z</time>
      </trkpt>
      <trkpt lat="47.79855" lon="-3.20433">
        <ele>83.8</ele>
        <time>2011-05-26T13:06:49Z</time>
      </trkpt>
      <trkpt lat="47.79855" lon="-3.20423">
        <ele>83.1</ele>
        <time>2011-05-26T13:06:50Z</time>
      </trkpt>
      <trkpt lat="47.79852" lon="-3.20408">
        <ele>82.4</ele>
        <time>2011-05-26T13:06:51Z</time>
      </trkpt>
      <trkpt lat="47.79851" lon="-3.20394">
        <ele>83</ele>
        <time>2011-05-26T13:06:52Z</time>
      </trkpt>
      <trkpt lat="47.7985" lon="-3.20382">
        <ele>85.1</ele>
        <time>2011-05-26T13:06:53Z</time>
      </trkpt>
      <trkpt lat="47.79847" lon="-3.20371">
        <ele>85.4</ele>
        <time>2011-05-26T13:06:54Z</time>
      </trkpt>
      <trkpt lat="47.79845" lon="-3.20362">
        <ele>85.4</ele>
        <time>2011-05-26T13:06:55Z</time>
      </trkpt>
      <trkpt lat="47.79842" lon="-3.20352">
        <ele>84.2</ele>
        <time>2011-05-26T13:06:56Z</time>
      </trkpt>
      <trkpt lat="47.7984" lon="-3.20343">
        <ele>83.2</ele>
        <time>2011-05-26T13:06:57Z</time>
      </trkpt>
      <trkpt lat="47.79834" lon="-3.20334">
        <ele>82.9</ele>
        <time>2011-05-26T13:06:58Z</time>
      </trkpt>
      <trkpt lat="47.79829" lon="-3.20323">
        <ele>82.1</ele>
        <time>2011-05-26T13:06:59Z</time>
      </trkpt>
      <trkpt lat="47.79824" lon="-3.20316">
        <ele>80.2</ele>
        <time>2011-05-26T13:07:00Z</time>
      </trkpt>
      <trkpt lat="47.7982" lon="-3.2031">
        <ele>79.9</ele>
        <time>2011-05-26T13:07:01Z</time>
      </trkpt>
      <trkpt lat="47.79813" lon="-3.20304">
        <ele>80.3</ele>
        <time>2011-05-26T13:07:02Z</time>
      </trkpt>
      <trkpt lat="47.79808" lon="-3.20299">
        <ele>80</ele>
        <time>2011-05-26T13:07:03Z</time>
      </trkpt>
      <trkpt lat="47.79803" lon="-3.20294">
        <ele>79.9</ele>
        <time>2011-05-26T13:07:04Z</time>
      </trkpt>
      <trkpt lat="47.79797" lon="-3.2029">
        <ele>80.7</ele>
        <time>2011-05-26T13:07:05Z</time>
      </trkpt>
      <trkpt lat="47.79791" lon="-3.20284">
        <ele>81.6</ele>
        <time>2011-05-26T13:07:06Z</time>
      </trkpt>
      <trkpt lat="47.79785" lon="-3.2028">
        <ele>81.9</ele>
        <time>2011-05-26T13:07:07Z</time>
      </trkpt>
      <trkpt lat="47.7978" lon="-3.20277">
        <ele>83.2</ele>
        <time>2011-05-26T13:07:08Z</time>
      </trkpt>
      <trkpt lat="47.79774" lon="-3.20274">
        <ele>83.5</ele>
        <time>2011-05-26T13:07:09Z</time>
      </trkpt>
      <trkpt lat="47.79768" lon="-3.2027">
        <ele>84.4</ele>
        <time>2011-05-26T13:07:10Z</time>
      </trkpt>
      <trkpt lat="47.79762" lon="-3.20267">
        <ele>85.2</ele>
        <time>2011-05-26T13:07:11Z</time>
      </trkpt>
      <trkpt lat="47.79757" lon="-3.20264">
        <ele>85</ele>
        <time>2011-05-26T13:07:12Z</time>
      </trkpt>
      <trkpt lat="47.79752" lon="-3.20261">
        <ele>84.9</ele>
        <time>2011-05-26T13:07:13Z</time>
      </trkpt>
      <trkpt lat="47.79747" lon="-3.20258">
        <ele>84.6</ele>
        <time>2011-05-26T13:07:14Z</time>
      </trkpt>
      <trkpt lat="47.79739" lon="-3.20254">
        <ele>86.4</ele>
        <time>2011-05-26T13:07:16Z</time>
      </trkpt>
      <trkpt lat="47.79732" lon="-3.20249">
        <ele>88</ele>
        <time>2011-05-26T13:07:18Z</time>
      </trkpt>
      <trkpt lat="47.79725" lon="-3.20242">
        <ele>88.4</ele>
        <time>2011-05-26T13:07:20Z</time>
      </trkpt>
      <trkpt lat="47.7972" lon="-3.20239">
        <ele>88.3</ele>
        <time>2011-05-26T13:07:21Z</time>
      </trkpt>
      <trkpt lat="47.79714" lon="-3.20236">
        <ele>87.5</ele>
        <time>2011-05-26T13:07:22Z</time>
      </trkpt>
      <trkpt lat="47.7971" lon="-3.20234">
        <ele>87.8</ele>
        <time>2011-05-26T13:07:23Z</time>
      </trkpt>
      <trkpt lat="47.79704" lon="-3.20228">
        <ele>87.8</ele>
        <time>2011-05-26T13:07:25Z</time>
      </trkpt>
      <trkpt lat="47.79698" lon="-3.20223">
        <ele>88.3</ele>
        <time>2011-05-26T13:07:27Z</time>
      </trkpt>
      <trkpt lat="47.79693" lon="-3.20216">
        <ele>88.2</ele>
        <time>2011-05-26T13:07:29Z</time>
      </trkpt>
      <trkpt lat="47.79688" lon="-3.20214">
        <ele>88.7</ele>
        <time>2011-05-26T13:07:30Z</time>
      </trkpt>
      <trkpt lat="47.79684" lon="-3.2021">
        <ele>89.3</ele>
        <time>2011-05-26T13:07:32Z</time>
      </trkpt>
      <trkpt lat="47.7968" lon="-3.20208">
        <ele>88.6</ele>
        <time>2011-05-26T13:07:33Z</time>
      </trkpt>
      <trkpt lat="47.79673" lon="-3.20205">
        <ele>88.7</ele>
        <time>2011-05-26T13:07:35Z</time>
      </trkpt>
      <trkpt lat="47.79667" lon="-3.202">
        <ele>88.3</ele>
        <time>2011-05-26T13:07:37Z</time>
      </trkpt>
      <trkpt lat="47.79661" lon="-3.20193">
        <ele>88</ele>
        <time>2011-05-26T13:07:39Z</time>
      </trkpt>
      <trkpt lat="47.79655" lon="-3.20188">
        <ele>90.4</ele>
        <time>2011-05-26T13:07:41Z</time>
      </trkpt>
      <trkpt lat="47.79648" lon="-3.20182">
        <ele>91.4</ele>
        <time>2011-05-26T13:07:43Z</time>
      </trkpt>
      <trkpt lat="47.79642" lon="-3.20177">
        <ele>91.6</ele>
        <time>2011-05-26T13:07:45Z</time>
      </trkpt>
      <trkpt lat="47.79636" lon="-3.20172">
        <ele>91.8</ele>
        <time>2011-05-26T13:07:47Z</time>
      </trkpt>
      <trkpt lat="47.79629" lon="-3.20166">
        <ele>91.4</ele>
        <time>2011-05-26T13:07:49Z</time>
      </trkpt>
      <trkpt lat="47.79623" lon="-3.2016">
        <ele>91.9</ele>
        <time>2011-05-26T13:07:51Z</time>
      </trkpt>
      <trkpt lat="47.79616" lon="-3.20153">
        <ele>92</ele>
        <time>2011-05-26T13:07:53Z</time>
      </trkpt>
      <trkpt lat="47.79612" lon="-3.20146">
        <ele>92.6</ele>
        <time>2011-05-26T13:07:55Z</time>
      </trkpt>
      <trkpt lat="47.79606" lon="-3.20139">
        <ele>93.2</ele>
        <time>2011-05-26T13:07:57Z</time>
      </trkpt>
      <trkpt lat="47.796" lon="-3.20131">
        <ele>92.9</ele>
        <time>2011-05-26T13:07:59Z</time>
      </trkpt>
      <trkpt lat="47.79593" lon="-3.2012">
        <ele>91.4</ele>
        <time>2011-05-26T13:08:01Z</time>
      </trkpt>
      <trkpt lat="47.79589" lon="-3.20115">
        <ele>90.3</ele>
        <time>2011-05-26T13:08:02Z</time>
      </trkpt>
      <trkpt lat="47.79584" lon="-3.20106">
        <ele>89.3</ele>
        <time>2011-05-26T13:08:04Z</time>
      </trkpt>
      <trkpt lat="47.7958" lon="-3.20101">
        <ele>89.4</ele>
        <time>2011-05-26T13:08:05Z</time>
      </trkpt>
      <trkpt lat="47.79575" lon="-3.20091">
        <ele>89</ele>
        <time>2011-05-26T13:08:07Z</time>
      </trkpt>
      <trkpt lat="47.7957" lon="-3.2008">
        <ele>89.1</ele>
        <time>2011-05-26T13:08:09Z</time>
      </trkpt>
      <trkpt lat="47.79567" lon="-3.20074">
        <ele>88.6</ele>
        <time>2011-05-26T13:08:10Z</time>
      </trkpt>
      <trkpt lat="47.79564" lon="-3.20069">
        <ele>88.8</ele>
        <time>2011-05-26T13:08:11Z</time>
      </trkpt>
      <trkpt lat="47.79561" lon="-3.2006">
        <ele>89.1</ele>
        <time>2011-05-26T13:08:13Z</time>
      </trkpt>
      <trkpt lat="47.79555" lon="-3.20052">
        <ele>88.1</ele>
        <time>2011-05-26T13:08:14Z</time>
      </trkpt>
      <trkpt lat="47.79552" lon="-3.20044">
        <ele>86.6</ele>
        <time>2011-05-26T13:08:15Z</time>
      </trkpt>
      <trkpt lat="47.79548" lon="-3.20037">
        <ele>86.9</ele>
        <time>2011-05-26T13:08:16Z</time>
      </trkpt>
      <trkpt lat="47.79545" lon="-3.2003">
        <ele>86.7</ele>
        <time>2011-05-26T13:08:17Z</time>
      </trkpt>
      <trkpt lat="47.79541" lon="-3.20023">
        <ele>86.7</ele>
        <time>2011-05-26T13:08:18Z</time>
      </trkpt>
      <trkpt lat="47.79538" lon="-3.20016">
        <ele>85.8</ele>
        <time>2011-05-26T13:08:19Z</time>
      </trkpt>
      <trkpt lat="47.79535" lon="-3.20008">
        <ele>86</ele>
        <time>2011-05-26T13:08:20Z</time>
      </trkpt>
      <trkpt lat="47.79531" lon="-3.20001">
        <ele>85.6</ele>
        <time>2011-05-26T13:08:21Z</time>
      </trkpt>
      <trkpt lat="47.79527" lon="-3.19992">
        <ele>85.1</ele>
        <time>2011-05-26T13:08:22Z</time>
      </trkpt>
      <trkpt lat="47.79523" lon="-3.19984">
        <ele>85.1</ele>
        <time>2011-05-26T13:08:23Z</time>
      </trkpt>
      <trkpt lat="47.79519" lon="-3.19975">
        <ele>84.6</ele>
        <time>2011-05-26T13:08:24Z</time>
      </trkpt>
      <trkpt lat="47.79514" lon="-3.19966">
        <ele>84.5</ele>
        <time>2011-05-26T13:08:25Z</time>
      </trkpt>
      <trkpt lat="47.7951" lon="-3.19957">
        <ele>84.4</ele>
        <time>2011-05-26T13:08:26Z</time>
      </trkpt>
      <trkpt lat="47.79505" lon="-3.19949">
        <ele>83.9</ele>
        <time>2011-05-26T13:08:27Z</time>
      </trkpt>
      <trkpt lat="47.795" lon="-3.19941">
        <ele>83.6</ele>
        <time>2011-05-26T13:08:28Z</time>
      </trkpt>
      <trkpt lat="47.79495" lon="-3.19935">
        <ele>83.6</ele>
        <time>2011-05-26T13:08:29Z</time>
      </trkpt>
      <trkpt lat="47.7949" lon="-3.19928">
        <ele>83.3</ele>
        <time>2011-05-26T13:08:30Z</time>
      </trkpt>
      <trkpt lat="47.7949" lon="-3.1992">
        <ele>83.9</ele>
        <time>2011-05-26T13:08:32Z</time>
      </trkpt>
      <trkpt lat="47.79488" lon="-3.1991">
        <ele>86</ele>
        <time>2011-05-26T13:08:34Z</time>
      </trkpt>
      <trkpt lat="47.79487" lon="-3.19902">
        <ele>84.6</ele>
        <time>2011-05-26T13:08:35Z</time>
      </trkpt>
      <trkpt lat="47.79483" lon="-3.1989">
        <ele>83.9</ele>
        <time>2011-05-26T13:08:37Z</time>
      </trkpt>
      <trkpt lat="47.79481" lon="-3.19882">
        <ele>84.2</ele>
        <time>2011-05-26T13:08:38Z</time>
      </trkpt>
      <trkpt lat="47.7948" lon="-3.19868">
        <ele>83.9</ele>
        <time>2011-05-26T13:08:40Z</time>
      </trkpt>
      <trkpt lat="47.79478" lon="-3.19861">
        <ele>83.9</ele>
        <time>2011-05-26T13:08:41Z</time>
      </trkpt>
      <trkpt lat="47.79475" lon="-3.19849">
        <ele>85.1</ele>
        <time>2011-05-26T13:08:43Z</time>
      </trkpt>
      <trkpt lat="47.79471" lon="-3.19837">
        <ele>85</ele>
        <time>2011-05-26T13:08:45Z</time>
      </trkpt>
      <trkpt lat="47.79467" lon="-3.1983">
        <ele>84.9</ele>
        <time>2011-05-26T13:08:47Z</time>
      </trkpt>
      <trkpt lat="47.79466" lon="-3.19823">
        <ele>85.3</ele>
        <time>2011-05-26T13:08:48Z</time>
      </trkpt>
      <trkpt lat="47.79462" lon="-3.19814">
        <ele>85.3</ele>
        <time>2011-05-26T13:08:50Z</time>
      </trkpt>
      <trkpt lat="47.79465" lon="-3.19808">
        <ele>85.2</ele>
        <time>2011-05-26T13:08:53Z</time>
      </trkpt>
      <trkpt lat="47.79462" lon="-3.19801">
        <ele>84.5</ele>
        <time>2011-05-26T13:08:56Z</time>
      </trkpt>
      <trkpt lat="47.79461" lon="-3.19793">
        <ele>86.2</ele>
        <time>2011-05-26T13:09:12Z</time>
      </trkpt>
      <trkpt lat="47.79459" lon="-3.19784">
        <ele>84.9</ele>
        <time>2011-05-26T13:10:44Z</time>
      </trkpt>
      <trkpt lat="47.79457" lon="-3.19776">
        <ele>84.5</ele>
        <time>2011-05-26T13:10:45Z</time>
      </trkpt>
      <trkpt lat="47.79456" lon="-3.19768">
        <ele>84.4</ele>
        <time>2011-05-26T13:10:47Z</time>
      </trkpt>
      <trkpt lat="47.79453" lon="-3.19757">
        <ele>84.5</ele>
        <time>2011-05-26T13:10:50Z</time>
      </trkpt>
      <trkpt lat="47.79448" lon="-3.19751">
        <ele>85.8</ele>
        <time>2011-05-26T13:10:52Z</time>
      </trkpt>
      <trkpt lat="47.79444" lon="-3.19748">
        <ele>88.4</ele>
        <time>2011-05-26T13:10:54Z</time>
      </trkpt>
      <trkpt lat="47.79439" lon="-3.19746">
        <ele>89.1</ele>
        <time>2011-05-26T13:10:55Z</time>
      </trkpt>
      <trkpt lat="47.79441" lon="-3.19754">
        <ele>88.4</ele>
        <time>2011-05-26T13:11:08Z</time>
      </trkpt>
      <trkpt lat="47.79445" lon="-3.19755">
        <ele>88.7</ele>
        <time>2011-05-26T13:11:10Z</time>
      </trkpt>
      <trkpt lat="47.7945" lon="-3.19759">
        <ele>89.3</ele>
        <time>2011-05-26T13:11:29Z</time>
      </trkpt>
      <trkpt lat="47.79453" lon="-3.19766">
        <ele>89.4</ele>
        <time>2011-05-26T13:11:32Z</time>
      </trkpt>
      <trkpt lat="47.79455" lon="-3.19778">
        <ele>87.5</ele>
        <time>2011-05-26T13:11:35Z</time>
      </trkpt>
      <trkpt lat="47.79459" lon="-3.19785">
        <ele>87.7</ele>
        <time>2011-05-26T13:11:38Z</time>
      </trkpt>
      <trkpt lat="47.79462" lon="-3.19792">
        <ele>84.6</ele>
        <time>2011-05-26T13:11:53Z</time>
      </trkpt>
      <trkpt lat="47.79464" lon="-3.19799">
        <ele>84.9</ele>
        <time>2011-05-26T13:11:55Z</time>
      </trkpt>
      <trkpt lat="47.79469" lon="-3.19798">
        <ele>84.7</ele>
        <time>2011-05-26T13:25:04Z</time>
      </trkpt>
      <trkpt lat="47.79474" lon="-3.19793">
        <ele>84.6</ele>
        <time>2011-05-26T13:25:10Z</time>
      </trkpt>
      <trkpt lat="47.79476" lon="-3.19785">
        <ele>85.3</ele>
        <time>2011-05-26T13:25:12Z</time>
      </trkpt>
      <trkpt lat="47.79471" lon="-3.19783">
        <ele>85.9</ele>
        <time>2011-05-26T13:25:15Z</time>
      </trkpt>
      <trkpt lat="47.79465" lon="-3.19786">
        <ele>85.8</ele>
        <time>2011-05-26T13:25:20Z</time>
      </trkpt>
      <trkpt lat="47.79466" lon="-3.19792">
        <ele>85.2</ele>
        <time>2011-05-26T13:25:28Z</time>
      </trkpt>
      <trkpt lat="47.79467" lon="-3.198">
        <ele>85.4</ele>
        <time>2011-05-26T13:25:31Z</time>
      </trkpt>
      <trkpt lat="47.79463" lon="-3.19803">
        <ele>85.8</ele>
        <time>2011-05-26T13:28:42Z</time>
      </trkpt>
      <trkpt lat="47.7946" lon="-3.19797">
        <ele>86.9</ele>
        <time>2011-05-26T13:28:57Z</time>
      </trkpt>
      <trkpt lat="47.79461" lon="-3.1979">
        <ele>84.6</ele>
        <time>2011-05-26T13:29:00Z</time>
      </trkpt>
      <trkpt lat="47.79456" lon="-3.19785">
        <ele>83.8</ele>
        <time>2011-05-26T13:29:04Z</time>
      </trkpt>
      <trkpt lat="47.79456" lon="-3.19778">
        <ele>84.3</ele>
        <time>2011-05-26T13:29:07Z</time>
      </trkpt>
      <trkpt lat="47.79454" lon="-3.19772">
        <ele>83.7</ele>
        <time>2011-05-26T13:29:11Z</time>
      </trkpt>
      <trkpt lat="47.79452" lon="-3.19762">
        <ele>88.7</ele>
        <time>2011-05-26T13:29:39Z</time>
      </trkpt>
    </trkseg>
  </trk>
</gpx>